# Wetter Temperatur Luftdruck Luftfeuchtigkeit Sichtweite Windgeschwindigkeit Windrichtung Zeit
1 Haze 26 1005 100 2200 3.1 130 07:37 14.07.2020
2 Haze 26 1005 100 2200 3.1 130 07:18 14.07.2020
3 Haze 26 1005 100 2200 3.1 130 06:37 14.07.2020
4 Rain 27 1005 94 1800 2.6 170 06:19 14.07.2020
5 Haze 27 1004 94 3500 3.1 170 05:25 14.07.2020
6 Haze 27 1004 94 2500 3.6 140 04:36 14.07.2020
7 Haze 27 1003 94 2500 3.1 180 03:36 14.07.2020
8 Rain 27 1003 94 2500 2.6 180 02:44 14.07.2020
9 Haze 27 1002 94 2500 3.6 170 02:21 14.07.2020
10 Drizzle 27 1002 94 2500 1.5 160 01:35 14.07.2020
11 Haze 27 1002 94 2500 1.5 140 00:49 14.07.2020
12 Haze 27 1003 94 2500 1.5 100 00:28 14.07.2020
13 Haze 27 1003 94 2500 1.5 100 23:59 13.07.2020
14 Drizzle 27 1003 94 2500 2.1 110 23:37 13.07.2020
15 Drizzle 27 1003 94 2500 2.1 110 23:18 13.07.2020
16 Haze 27 1003 94 2500 5.75 233 22:40 13.07.2020
17 Haze 27 1003 94 2500 6.61 231 22:21 13.07.2020
18 Haze 27 1004 94 2500 2.1 110 21:57 13.07.2020
19 Haze 27 1004 94 2500 1.5 100 21:39 13.07.2020
20 Haze 29 1004 94 2500 1.5 100 21:20 13.07.2020
21 Haze 29 1004 94 2500 1.5 140 20:57 13.07.2020
22 Haze 29 1004 94 2500 3.6 110 20:39 13.07.2020
23 Haze 29 1004 94 2500 3.6 110 20:21 13.07.2020
24 Haze 29 1004 94 2500 8.13 231 19:45 13.07.2020
25 Haze 29 1004 94 2500 6.98 235 19:26 13.07.2020
26 Drizzle 29 1004 88 2500 6.98 235 18:59 13.07.2020
27 Haze 27 1004 88 3000 6.98 235 18:40 13.07.2020
28 Haze 29 1004 88 3000 6.59 237 18:21 13.07.2020
29 Haze 29 1004 88 3000 6.59 237 17:56 13.07.2020
30 Haze 28 1004 94 3000 1.5 240 17:38 13.07.2020
31 Haze 29 1004 94 3000 1.5 240 17:20 13.07.2020
32 Haze 29 1003 88 3000 3.1 260 16:55 13.07.2020
33 Haze 29 1003 88 3000 5.7 270 16:37 13.07.2020
34 Haze 29 1003 88 3000 5.7 270 16:18 13.07.2020
35 Haze 29 1002 88 3000 5.1 270 15:56 13.07.2020
36 Haze 29 1002 88 3000 6.7 280 15:37 13.07.2020
37 Haze 29 1002 88 3000 6.7 280 15:18 13.07.2020
38 Haze 29 1002 88 2500 6.7 270 14:56 13.07.2020
39 Rain 29 1002 100 2500 3.6 270 14:37 13.07.2020
40 Rain 29 1002 100 2500 3.6 270 14:19 13.07.2020
41 Rain 28 1002 100 800 8.7 240 13:42 13.07.2020
42 Rain 28 1002 100 800 8.7 240 13:21 13.07.2020
43 Rain 29 1002 100 400 5.1 210 12:55 13.07.2020
44 Rain 29 1002 83 2500 4.1 220 12:36 13.07.2020
45 Rain 29 1002 83 2500 4.1 220 12:18 13.07.2020
46 Haze 30 1002 84 3000 2.6 170 11:41 13.07.2020
47 Haze 30 1002 84 3000 2.6 170 11:22 13.07.2020
48 Haze 30 1003 94 3000 7.16 269 10:44 13.07.2020
49 Haze 30 1003 94 3000 5.97 265 10:21 13.07.2020
50 Rain 29 1004 100 3000 1.5 210 09:57 13.07.2020
51 Rain 28 1004 100 2500 3.6 250 09:38 13.07.2020
52 Rain 28 1004 100 2500 3.6 250 09:20 13.07.2020
53 Rain 26 1004 100 300 4.6 210 08:47 13.07.2020
54 Rain 30 1004 84 3000 3.1 180 08:28 13.07.2020
55 Haze 29 1004 89 2500 1.5 130 07:25 13.07.2020
56 Haze 30 1004 94 2500 2.1 130 06:53 13.07.2020
57 Haze 29 1004 94 2500 2.1 130 06:35 13.07.2020
58 Haze 27 1004 100 2500 2.1 130 05:35 13.07.2020
59 Rain 26 1003 100 1200 2.1 120 03:31 13.07.2020
60 Rain 27 1003 94 2200 2.6 160 01:46 13.07.2020
61 Rain 26 1003 100 2200 2.1 150 01:23 13.07.2020
62 Haze 27 1003 94 2500 1.5 130 00:45 13.07.2020
63 Drizzle 27 1004 94 2500 4.1 180 00:24 13.07.2020
64 Rain 26 1004 100 2200 1.5 100 23:44 12.07.2020
65 Rain 26 1004 100 2200 1.5 100 23:23 12.07.2020
66 Drizzle 26 1004 100 2500 1.5 170 22:59 12.07.2020
67 Rain 26 1004 100 2200 1.5 190 22:37 12.07.2020
68 Rain 26 1004 100 2200 1.5 190 22:19 12.07.2020
69 Rain 26 1004 100 2200 3.6 110 21:57 12.07.2020
70 Haze 28 1005 94 3000 1.5 90 21:39 12.07.2020
71 Haze 28 1005 94 3000 1.5 90 21:19 12.07.2020
72 Haze 28 1005 100 3000 1.5 100 20:58 12.07.2020
73 Haze 28 1005 100 3000 1.5 180 20:38 12.07.2020
74 Haze 28 1005 100 3000 1.5 180 20:19 12.07.2020
75 Haze 28 1005 94 3000 1.5 100 19:40 12.07.2020
76 Haze 28 1005 94 3000 1.5 100 19:22 12.07.2020
77 Haze 28 1005 94 3000 1.5 130 18:59 12.07.2020
78 Haze 28 1005 94 3000 1.5 100 18:40 12.07.2020
79 Haze 28 1005 88 3000 1.5 120 18:19 12.07.2020
80 Drizzle 28 1005 88 3000 1.5 140 17:40 12.07.2020
81 Drizzle 28 1005 88 3000 1.5 140 17:21 12.07.2020
82 Drizzle 28 1004 88 3000 4.92 233 16:58 12.07.2020
83 Haze 28 1004 88 3000 2.6 200 16:40 12.07.2020
84 Drizzle 29 1004 88 3000 3.6 210 16:18 12.07.2020
85 Haze 28 1003 94 3000 3.6 160 15:43 12.07.2020
86 Haze 28 1003 94 3000 3.6 160 15:23 12.07.2020
87 Haze 28 1003 94 3000 3.1 180 14:43 12.07.2020
88 Haze 28 1003 94 3000 3.1 180 14:23 12.07.2020
89 Rain 27 1004 100 2500 1.5 170 13:41 12.07.2020
90 Rain 27 1004 100 2500 1.5 170 13:22 12.07.2020
91 Thunderstorm 27 1005 100 1600 3.1 220 12:58 12.07.2020
92 Thunderstorm 27 1005 100 1600 3.1 220 12:58 12.07.2020
93 Thunderstorm 27 1005 100 600 3.6 230 12:40 12.07.2020
94 Thunderstorm 27 1005 100 600 3.6 230 12:19 12.07.2020
95 Rain 28 1005 94 1600 3.6 170 11:58 12.07.2020
96 Rain 29 1005 88 2200 5.1 220 11:40 12.07.2020
97 Rain 29 1005 88 2200 5.1 220 11:18 12.07.2020
98 Drizzle 28 1005 94 2500 2.1 180 10:41 12.07.2020
99 Drizzle 28 1005 94 2500 2.1 180 10:20 12.07.2020
100 Rain 28 1006 100 1000 5.7 250 09:43 12.07.2020
101 Rain 27 1006 100 1000 5.7 250 09:22 12.07.2020
102 Rain 28 1006 100 1000 5.7 250 09:22 12.07.2020
103 Thunderstorm 28 1006 100 600 4.6 260 08:58 12.07.2020
104 Thunderstorm 28 1006 94 2200 1.5 160 08:39 12.07.2020
105 Thunderstorm 28 1006 94 2200 1.5 160 08:21 12.07.2020
106 Haze 29 1006 94 3000 4.6 210 07:50 12.07.2020
107 Haze 28 1006 94 3000 4.6 210 07:31 12.07.2020
108 Rain 28 1006 94 2200 2.6 200 06:56 12.07.2020
109 Haze 29 1005 88 1200 4.1 180 06:38 12.07.2020
110 Haze 28 1005 88 1200 4.1 180 06:19 12.07.2020
111 Haze 28 1005 88 1200 4.1 180 06:19 12.07.2020
112 Rain 27 1005 94 2500 4.69 194 04:59 12.07.2020
113 Rain 26 1004 94 2200 2.6 180 04:29 12.07.2020
114 Rain 27 1004 94 2200 2.1 110 03:45 12.07.2020
115 Rain 27 1004 94 1800 2.6 120 03:25 12.07.2020
116 Rain 26 1003 94 2100 4.24 194 02:26 12.07.2020
117 Rain 26 1003 94 1500 1.5 150 01:29 12.07.2020
118 Rain 26 1003 94 1500 1.5 150 01:29 12.07.2020
119 Rain 27 1003 94 1500 3.1 120 00:39 12.07.2020
120 Rain 27 1003 94 1500 3.1 120 00:21 12.07.2020
121 Haze 27 1003 94 2100 1.5 100 23:41 11.07.2020
122 Haze 27 1003 94 2100 1.5 100 23:22 11.07.2020
123 Rain 27 1004 94 1800 2.1 90 22:59 11.07.2020
124 Drizzle 27 1004 94 2200 1.5 170 22:41 11.07.2020
125 Drizzle 27 1004 94 2200 1.5 170 22:23 11.07.2020
126 Rain 27 1004 94 1700 3.6 160 21:56 11.07.2020
127 Haze 27 1005 94 2500 2.6 130 21:37 11.07.2020
128 Haze 27 1005 94 2500 2.6 130 21:19 11.07.2020
129 Haze 27 1005 94 2500 2.6 160 20:54 11.07.2020
130 Haze 27 1005 94 2500 3.6 140 20:36 11.07.2020
131 Haze 27 1005 94 2500 3.6 140 20:18 11.07.2020
132 Haze 27 1005 94 2500 2.6 160 19:46 11.07.2020
133 Rain 27 1005 94 2200 2.6 160 19:27 11.07.2020
134 Haze 27 1005 94 2500 4.1 220 18:58 11.07.2020
135 Rain 27 1004 94 2200 6.47 222 18:39 11.07.2020
136 Rain 27 1004 94 2200 6.3 220 18:20 11.07.2020
137 Rain 27 1004 88 1500 6.7 280 17:56 11.07.2020
138 Haze 29 1004 89 4000 2.6 220 17:38 11.07.2020
139 Smoke 29 1004 83 5000 3.6 200 17:19 11.07.2020
140 Smoke 29 1004 83 5000 3.6 200 16:44 11.07.2020
141 Smoke 29 1003 83 5000 3.1 210 16:25 11.07.2020
142 Smoke 29 1003 83 5000 3.6 210 16:00 11.07.2020
143 Smoke 30 1003 84 5000 5.7 200 15:41 11.07.2020
144 Smoke 30 1003 84 5000 5.7 200 15:20 11.07.2020
145 Smoke 31 1003 79 5000 6.2 220 14:58 11.07.2020
146 Smoke 31 1003 79 5000 6.2 220 14:39 11.07.2020
147 Smoke 31 1003 79 5000 6.2 220 14:20 11.07.2020
148 Smoke 31 1003 79 5000 5.7 230 13:43 11.07.2020
149 Smoke 31 1003 79 5000 5.7 230 13:22 11.07.2020
150 Smoke 31 1003 79 5000 5.1 240 12:58 11.07.2020
151 Smoke 31 1003 79 5000 6.2 200 12:40 11.07.2020
152 Smoke 31 1003 79 5000 6.2 200 12:21 11.07.2020
153 Smoke 31 1003 79 5000 6.7 230 11:56 11.07.2020
154 Smoke 31 1003 79 5000 6.2 200 11:38 11.07.2020
155 Smoke 31 1003 79 5000 6.2 200 11:18 11.07.2020
156 Haze 31 1003 75 4000 5.7 220 10:41 11.07.2020
157 Haze 31 1003 75 4000 5.7 220 10:23 11.07.2020
158 Haze 31 1004 74 4000 6.7 210 09:45 11.07.2020
159 Haze 32 1004 75 4000 7.2 210 09:21 11.07.2020
160 Haze 31 1005 79 3000 6.7 200 08:55 11.07.2020
161 Haze 31 1005 74 3000 6.7 220 08:36 11.07.2020
162 Haze 31 1005 74 3000 6.7 220 08:18 11.07.2020
163 Haze 31 1005 79 3000 6.2 220 07:40 11.07.2020
164 Haze 30 1005 84 3000 6.2 220 07:20 11.07.2020
165 Haze 30 1005 84 3000 6.2 220 06:55 11.07.2020
166 Haze 30 1005 84 2500 4.1 220 06:22 11.07.2020
167 Haze 30 1005 84 3000 4.6 230 05:22 11.07.2020
168 Haze 29 1004 84 2500 4.1 220 04:55 11.07.2020
169 Haze 29 1004 89 2500 3.6 210 04:32 11.07.2020
170 Haze 29 1003 83 2500 3.6 220 02:59 11.07.2020
171 Haze 29 1003 89 2500 3.6 220 02:38 11.07.2020
172 Haze 28 1003 94 2500 1.5 190 01:37 11.07.2020
173 Haze 28 1003 94 2500 2.1 220 01:18 11.07.2020
174 Haze 28 1003 94 2500 2.6 180 00:41 11.07.2020
175 Haze 28 1003 94 2500 2.6 180 00:22 11.07.2020
176 Rain 28 1003 94 2100 3.6 200 23:57 10.07.2020
177 Haze 29 1003 89 2500 3.1 190 23:39 10.07.2020
178 Haze 28 1003 94 2500 2.1 190 23:19 10.07.2020
179 Haze 28 1003 94 2500 2.1 190 22:45 10.07.2020
180 Haze 28 1004 94 2500 5.34 200 22:21 10.07.2020
181 Haze 29 1004 89 2500 3.1 160 21:56 10.07.2020
182 Rain 29 1004 89 2500 2.6 190 21:36 10.07.2020
183 Rain 29 1004 89 2500 2.6 190 21:18 10.07.2020
184 Haze 29 1005 89 2500 2.1 160 20:41 10.07.2020
185 Haze 29 1005 89 2500 2.1 160 20:23 10.07.2020
186 Haze 28 1005 94 2500 2.1 160 19:57 10.07.2020
187 Haze 28 1005 94 2500 2.1 160 19:57 10.07.2020
188 Haze 28 1005 94 2500 2.6 160 19:39 10.07.2020
189 Haze 28 1005 94 2500 3.6 200 19:20 10.07.2020
190 Haze 28 1005 94 2500 3.1 200 18:42 10.07.2020
191 Haze 28 1005 94 2500 3.1 200 18:21 10.07.2020
192 Haze 29 1005 89 2500 2.1 210 17:58 10.07.2020
193 Rain 28 1004 88 2500 2.6 210 17:39 10.07.2020
194 Rain 28 1004 88 2500 2.6 210 17:21 10.07.2020
195 Haze 29 1004 83 3000 4.1 220 16:43 10.07.2020
196 Haze 30 1003 79 3000 7.2 210 16:21 10.07.2020
197 Haze 30 1003 79 3000 6.2 210 15:48 10.07.2020
198 Haze 30 1003 79 3000 3.6 210 15:27 10.07.2020
199 Haze 30 1003 79 4000 5.7 210 15:00 10.07.2020
200 Haze 31 1003 74 4000 4.6 210 14:40 10.07.2020
201 Haze 31 1003 74 4000 4.6 210 14:20 10.07.2020
202 Haze 31 1003 74 4000 7.2 220 13:58 10.07.2020
203 Haze 31 1003 74 4000 3.6 210 13:39 10.07.2020
204 Haze 31 1003 74 4000 3.6 210 13:21 10.07.2020
205 Haze 31 1003 74 4000 5.7 210 12:57 10.07.2020
206 Haze 31 1003 74 4000 4.1 220 12:37 10.07.2020
207 Haze 31 1004 79 4000 5.1 220 12:19 10.07.2020
208 Haze 31 1004 79 4000 3.6 230 11:42 10.07.2020
209 Haze 31 1004 79 4000 3.6 230 11:21 10.07.2020
210 Haze 31 1004 74 4000 4.6 230 10:58 10.07.2020
211 Haze 31 1005 79 3000 6.2 220 10:39 10.07.2020
212 Haze 31 1005 79 3000 6.2 220 10:20 10.07.2020
213 Haze 31 1005 79 3000 4.6 220 09:41 10.07.2020
214 Haze 31 1005 79 3000 4.6 220 09:23 10.07.2020
215 Haze 31 1005 79 3000 4.1 210 08:59 10.07.2020
216 Haze 31 1005 79 2500 5.1 210 08:41 10.07.2020
217 Rain 30 1005 79 2500 4.6 230 08:22 10.07.2020
218 Rain 30 1005 79 2500 4.6 230 07:47 10.07.2020
219 Haze 30 1005 84 2500 4.6 230 07:24 10.07.2020
220 Rain 31 1005 79 2500 6.2 210 06:57 10.07.2020
221 Haze 30 1005 84 2500 5.7 210 06:39 10.07.2020
222 Haze 30 1005 84 2500 4.1 220 05:28 10.07.2020
223 Haze 29 1003 89 2500 3.1 210 03:54 10.07.2020
224 Haze 29 1003 89 2500 4.6 220 02:54 10.07.2020
225 Haze 29 1002 89 2500 3.6 230 02:21 10.07.2020
226 Haze 29 1002 89 2500 4.6 220 00:55 10.07.2020
227 Haze 29 1002 89 2500 3.1 210 00:23 10.07.2020
228 Haze 29 1002 83 2500 5.1 230 23:56 09.07.2020
229 Haze 29 1002 89 2500 4.1 230 23:37 09.07.2020
230 Haze 29 1002 89 2500 4.1 230 23:19 09.07.2020
231 Haze 29 1003 89 2500 4.6 240 22:56 09.07.2020
232 Haze 29 1003 89 2500 3.1 230 22:38 09.07.2020
233 Haze 29 1003 89 2500 3.1 230 22:19 09.07.2020
234 Haze 29 1003 89 2500 3.1 220 21:54 09.07.2020
235 Haze 28 1003 94 2500 3.1 210 21:36 09.07.2020
236 Haze 28 1003 94 2500 3.1 210 21:18 09.07.2020
237 Rain 28 1004 94 2500 1.5 150 20:41 09.07.2020
238 Haze 28 1004 94 2500 1.5 170 20:22 09.07.2020
239 Drizzle 28 1004 94 2500 3.1 160 19:43 09.07.2020
240 Drizzle 28 1004 94 2500 3.1 160 19:22 09.07.2020
241 Rain 28 1004 94 2500 3.6 180 18:59 09.07.2020
242 Rain 28 1004 94 2500 3.1 160 18:41 09.07.2020
243 Rain 27 1004 94 2500 1.5 130 18:19 09.07.2020
244 Drizzle 27 1003 100 3000 2.6 110 17:43 09.07.2020
245 Drizzle 27 1003 100 3000 2.6 110 17:24 09.07.2020
246 Drizzle 27 1003 100 4000 1 110 16:59 09.07.2020
247 Rain 29 1003 94 4000 2.6 160 16:41 09.07.2020
248 Rain 30 1003 94 4000 2.6 160 16:19 09.07.2020
249 Rain 29 1003 94 4000 3.6 170 15:59 09.07.2020
250 Smoke 30 1003 89 5000 2.6 160 15:40 09.07.2020
251 Clouds 30 1003 84 6000 3.6 230 15:21 09.07.2020
252 Clouds 30 1003 84 6000 3.6 230 14:58 09.07.2020
253 Clouds 30 1002 84 6000 3.6 210 14:40 09.07.2020
254 Clouds 30 1002 84 6000 3.6 210 14:22 09.07.2020
255 Clouds 30 1002 79 6000 4.6 210 13:57 09.07.2020
256 Rain 30 1002 79 6000 5.1 230 13:38 09.07.2020
257 Rain 30 1002 79 6000 5.1 230 13:19 09.07.2020
258 Clouds 30 1003 74 6000 6.2 240 12:43 09.07.2020
259 Drizzle 30 1003 84 6000 5.1 240 12:24 09.07.2020
260 Drizzle 30 1003 84 6000 5.1 240 12:24 09.07.2020
261 Drizzle 30 1003 84 6000 5.1 240 11:59 09.07.2020
262 Clouds 31 1003 74 6000 6.2 250 11:41 09.07.2020
263 Clouds 31 1003 74 6000 6.2 250 11:22 09.07.2020
264 Smoke 30 1004 79 5000 6.7 250 10:58 09.07.2020
265 Haze 31 1004 79 4000 6.7 250 10:40 09.07.2020
266 Haze 31 1004 79 4000 6.7 250 10:21 09.07.2020
267 Haze 31 1004 74 4000 5.7 230 09:44 09.07.2020
268 Haze 31 1004 74 4000 7.2 210 09:24 09.07.2020
269 Haze 31 1004 79 4000 6.2 220 08:56 09.07.2020
270 Haze 31 1004 79 4000 4.6 220 08:37 09.07.2020
271 Haze 31 1004 79 4000 4.6 220 08:18 09.07.2020
272 Haze 30 1004 84 4000 6.2 220 07:45 09.07.2020
273 Haze 30 1004 84 4000 6.2 220 07:21 09.07.2020
274 Haze 30 1004 84 4000 4.6 210 06:40 09.07.2020
275 Haze 30 1004 84 4000 4.6 210 06:19 09.07.2020
276 Haze 29 1003 89 3000 3.1 200 04:29 09.07.2020
277 Haze 28 1003 94 3000 2.1 200 03:24 09.07.2020
278 Haze 28 1002 94 2500 3.6 210 02:18 09.07.2020
279 Rain 28 1003 82 0 5.93 215 01:23 09.07.2020
280 Rain 27 1003 94 2100 4.1 200 00:46 09.07.2020
281 Rain 27 1003 94 2100 4.1 200 00:23 09.07.2020
282 Haze 27 1003 94 2500 1.5 150 23:46 08.07.2020
283 Haze 28 1004 88 2500 2.1 150 23:27 08.07.2020
284 Haze 28 1004 94 2500 3.6 210 22:57 08.07.2020
285 Haze 29 1004 89 2500 2.1 210 22:38 08.07.2020
286 Haze 29 1004 89 2500 2.1 210 22:20 08.07.2020
287 Haze 29 1004 89 2500 3.6 210 21:57 08.07.2020
288 Haze 29 1005 89 2500 2.6 220 21:38 08.07.2020
289 Haze 29 1005 89 2500 2.6 220 21:20 08.07.2020
290 Haze 29 1005 89 2500 2.6 200 20:45 08.07.2020
291 Haze 28 1005 94 2500 2.1 200 20:26 08.07.2020
292 Haze 28 1005 88 2500 2.6 200 19:58 08.07.2020
293 Haze 28 1005 88 2500 2.6 200 19:40 08.07.2020
294 Haze 28 1005 88 2500 2.6 200 19:21 08.07.2020
295 Haze 29 1004 89 2500 3.1 220 18:55 08.07.2020
296 Haze 29 1004 89 2500 3.1 220 18:36 08.07.2020
297 Haze 29 1004 89 2500 3.1 220 18:18 08.07.2020
298 Haze 29 1004 89 2500 3.6 220 17:55 08.07.2020
299 Haze 29 1004 89 2500 3.6 220 17:36 08.07.2020
300 Haze 29 1004 89 2500 3.6 220 17:18 08.07.2020
301 Rain 28 1003 94 1400 2.6 200 16:39 08.07.2020
302 Rain 28 1003 94 1400 2.6 200 16:20 08.07.2020
303 Rain 28 1003 94 1800 2.6 200 15:58 08.07.2020
304 Rain 29 1003 94 2200 3.1 210 15:40 08.07.2020
305 Rain 28 1003 94 2200 3.1 210 15:19 08.07.2020
306 Rain 28 1003 94 2200 4.1 210 14:48 08.07.2020
307 Rain 28 1003 94 2200 5.1 220 14:29 08.07.2020
308 Rain 28 1003 88 2200 4.6 210 13:58 08.07.2020
309 Rain 28 1003 89 800 4.1 210 13:40 08.07.2020
310 Rain 28 1003 89 800 4.1 210 13:22 08.07.2020
311 Haze 30 1003 84 2500 3.6 230 12:44 08.07.2020
312 Haze 30 1003 84 2500 3.6 230 12:21 08.07.2020
313 Haze 30 1003 84 2500 3.6 230 11:57 08.07.2020
314 Haze 31 1003 79 2500 6.2 230 11:38 08.07.2020
315 Haze 31 1003 79 2500 6.2 230 11:20 08.07.2020
316 Haze 31 1003 79 2500 6.2 230 11:20 08.07.2020
317 Haze 31 1003 84 2000 5.1 230 10:44 08.07.2020
318 Haze 31 1003 84 2000 5.1 230 10:26 08.07.2020
319 Haze 31 1004 84 2500 3.6 230 09:47 08.07.2020
320 Rain 30 1004 89 2200 9.3 230 09:26 08.07.2020
321 Rain 30 1004 79 1500 3.6 210 08:58 08.07.2020
322 Haze 31 1004 79 3000 3.6 210 08:39 08.07.2020
323 Haze 31 1004 79 3000 3.6 210 08:20 08.07.2020
324 Rain 30 1004 84 3000 4.1 210 07:46 08.07.2020
325 Haze 31 1004 79 4000 5.1 240 07:22 08.07.2020
326 Haze 30 1003 89 3000 5.1 220 06:53 08.07.2020
327 Haze 29 1003 89 3000 5.1 220 06:32 08.07.2020
328 Haze 29 1003 89 3000 2.1 230 05:50 08.07.2020
329 Haze 30 1003 89 3000 2.1 230 05:18 08.07.2020
330 Haze 29 1002 88 3000 3.1 280 04:20 08.07.2020
331 Haze 28 1001 88 2500 4.1 240 02:20 08.07.2020
332 Haze 29 1001 89 2500 3.6 240 01:44 08.07.2020
333 Haze 28 1001 94 2500 1.5 220 00:59 08.07.2020
334 Haze 28 1001 88 2500 3.6 230 00:22 08.07.2020
335 Haze 29 1001 89 2200 4.1 210 23:45 07.07.2020
336 Haze 29 1002 89 2200 4.1 210 23:24 07.07.2020
337 Haze 29 1002 89 2200 3.6 210 22:59 07.07.2020
338 Haze 29 1002 89 2200 4.1 220 22:41 07.07.2020
339 Haze 30 1002 89 2200 4.1 220 22:21 07.07.2020
340 Rain 29 1002 94 1800 5.7 230 21:59 07.07.2020
341 Rain 29 1003 94 2200 3.6 190 21:39 07.07.2020
342 Rain 29 1003 94 2200 3.6 190 21:21 07.07.2020
343 Rain 28 1003 88 2200 3.6 200 20:56 07.07.2020
344 Rain 29 1003 94 1500 3.1 190 20:37 07.07.2020
345 Rain 29 1003 94 1500 3.1 190 20:19 07.07.2020
346 Haze 29 1002 94 2500 2.6 160 19:40 07.07.2020
347 Haze 29 1002 94 2500 2.6 160 19:39 07.07.2020
348 Haze 29 1002 94 2500 9.39 226 19:21 07.07.2020
349 Haze 29 1002 94 2500 9.39 226 18:56 07.07.2020
350 Haze 29 1001 94 2500 1.5 190 18:38 07.07.2020
351 Haze 29 1001 94 2500 1.5 190 18:19 07.07.2020
352 Haze 29 1001 94 2500 8.81 225 17:57 07.07.2020
353 Haze 29 1001 94 2500 2.1 200 17:38 07.07.2020
354 Haze 29 1001 94 2500 2.1 200 17:20 07.07.2020
355 Drizzle 29 1000 94 2500 3.6 200 16:43 07.07.2020
356 Drizzle 29 1000 94 2500 3.6 200 16:23 07.07.2020
357 Rain 28 1000 94 2200 4.1 200 15:57 07.07.2020
358 Rain 28 1000 94 2200 4.1 200 15:37 07.07.2020
359 Rain 28 1000 94 2200 4.1 200 15:19 07.07.2020
360 Rain 28 1000 94 2200 4.6 210 14:46 07.07.2020
361 Rain 29 1000 88 2200 4.1 220 14:25 07.07.2020
362 Rain 29 1000 89 2100 5.7 200 13:46 07.07.2020
363 Rain 29 1000 89 2100 5.7 200 13:22 07.07.2020
364 Rain 29 1000 89 2100 5.7 200 13:22 07.07.2020
365 Rain 29 1000 100 2100 4.6 200 12:59 07.07.2020
366 Rain 29 1000 100 1800 4.6 190 12:40 07.07.2020
367 Thunderstorm 26 1001 100 900 7.2 210 12:22 07.07.2020
368 Thunderstorm 27 1001 100 900 7.2 210 11:49 07.07.2020
369 Thunderstorm 27 1001 100 900 7.2 210 11:25 07.07.2020
370 Rain 30 999 84 2200 4.6 230 10:59 07.07.2020
371 Rain 30 999 84 2200 4.6 230 10:41 07.07.2020
372 Rain 30 999 84 2200 4.6 230 10:21 07.07.2020
373 Haze 31 999 84 2500 6.2 240 09:55 07.07.2020
374 Haze 31 999 84 2500 3.6 240 09:37 07.07.2020
375 Haze 31 999 84 2500 3.6 240 09:18 07.07.2020
376 Rain 30 1000 94 2100 4.1 240 08:41 07.07.2020
377 Rain 28 1000 94 900 7.7 240 08:22 07.07.2020
378 Rain 27 1000 94 900 7.7 240 07:42 07.07.2020
379 Rain 27 1000 94 900 7.7 240 07:22 07.07.2020
380 Rain 26 1000 100 1500 4.6 210 06:49 07.07.2020
381 Rain 27 1000 100 1500 4.6 210 06:28 07.07.2020
382 Rain 30 999 84 3000 3.6 180 05:51 07.07.2020
383 Rain 30 999 84 3000 3.6 200 05:22 07.07.2020
384 Haze 29 999 89 4000 3.6 210 04:38 07.07.2020
385 Haze 29 999 88 3000 4.1 230 03:35 07.07.2020
386 Haze 29 998 83 2500 6.7 240 02:21 07.07.2020
387 Rain 30 998 89 2200 6.2 220 01:22 07.07.2020
388 Haze 30 998 89 2500 5.1 230 00:43 07.07.2020
389 Haze 30 998 89 2500 5.1 230 00:24 07.07.2020
390 Rain 30 998 89 2500 6.2 230 23:55 06.07.2020
391 Haze 29 998 94 2500 4.6 220 23:37 06.07.2020
392 Haze 29 998 94 2500 4.6 220 23:18 06.07.2020
393 Thunderstorm 28 999 100 2200 1.5 210 22:41 06.07.2020
394 Thunderstorm 28 999 100 2200 1.5 210 22:41 06.07.2020
395 Thunderstorm 28 999 100 2200 1.5 210 22:20 06.07.2020
396 Thunderstorm 28 999 94 1500 4.6 260 21:58 06.07.2020
397 Thunderstorm 28 999 100 1000 4.6 260 21:39 06.07.2020
398 Thunderstorm 28 999 100 1000 4.6 260 21:39 06.07.2020
399 Thunderstorm 28 999 100 1000 4.6 260 21:19 06.07.2020
400 Rain 28 999 100 800 7.7 260 20:59 06.07.2020
401 Rain 27 999 100 2200 4.6 220 20:39 06.07.2020
402 Haze 29 998 94 2500 6.2 220 20:20 06.07.2020
403 Haze 29 998 94 2500 6.2 220 19:57 06.07.2020
404 Haze 29 998 94 2500 6.2 220 19:39 06.07.2020
405 Haze 29 998 94 2500 6.2 220 19:20 06.07.2020
406 Haze 29 998 94 2500 3.6 210 18:55 06.07.2020
407 Haze 30 998 83 2500 4.1 220 18:37 06.07.2020
408 Haze 30 998 83 2500 3.6 190 18:18 06.07.2020
409 Haze 29 998 94 2500 5.1 180 17:42 06.07.2020
410 Haze 29 998 94 2500 5.1 180 17:24 06.07.2020
411 Haze 29 997 88 2500 4.1 190 16:55 06.07.2020
412 Haze 29 997 88 2500 4.1 190 16:37 06.07.2020
413 Haze 29 997 88 2500 4.1 190 16:18 06.07.2020
414 Haze 28 997 88 3000 3.6 210 15:42 06.07.2020
415 Haze 28 997 88 3000 3.6 210 15:24 06.07.2020
416 Rain 28 997 94 1400 12.3 220 14:57 06.07.2020
417 Rain 29 997 94 1400 12.3 220 14:38 06.07.2020
418 Rain 28 997 94 1400 12.3 220 14:19 06.07.2020
419 Rain 30 997 79 2000 8.7 200 13:51 06.07.2020
420 Rain 30 997 79 2000 8.7 200 13:28 06.07.2020
421 Rain 30 997 79 2500 8.2 200 12:59 06.07.2020
422 Rain 30 997 84 3000 7.2 190 12:41 06.07.2020
423 Rain 30 997 84 3000 7.2 190 12:18 06.07.2020
424 Haze 31 998 79 3000 7.2 210 11:57 06.07.2020
425 Rain 31 998 74 3000 5.7 210 11:37 06.07.2020
426 Rain 31 998 74 3000 5.7 210 11:19 06.07.2020
427 Haze 30 999 79 3000 5.1 190 10:42 06.07.2020
428 Haze 30 999 79 3000 5.1 190 10:22 06.07.2020
429 Rain 30 999 79 3000 7.2 210 09:58 06.07.2020
430 Haze 31 999 74 3000 4.6 210 09:39 06.07.2020
431 Haze 31 999 74 3000 4.6 210 09:21 06.07.2020
432 Haze 31 999 74 3000 6.2 210 08:55 06.07.2020
433 Haze 31 1000 74 3000 5.7 200 08:36 06.07.2020
434 Haze 31 1000 74 3000 5.7 200 08:18 06.07.2020
435 Haze 31 1000 79 3000 6.7 200 07:43 06.07.2020
436 Haze 31 1000 79 3000 6.7 200 07:23 06.07.2020
437 Haze 31 1000 84 3000 5.7 210 06:39 06.07.2020
438 Haze 30 999 89 3000 6.2 210 06:21 06.07.2020
439 Haze 30 999 79 3000 4.6 210 05:38 06.07.2020
440 Haze 31 999 79 2500 3.6 210 04:52 06.07.2020
441 Rain 29 999 83 1500 9.3 220 03:26 06.07.2020
442 Haze 30 998 83 2500 5.1 210 02:22 06.07.2020
443 Haze 30 998 83 2500 5.7 210 01:28 06.07.2020
444 Haze 30 998 83 2500 3.6 210 00:36 06.07.2020
445 Haze 30 998 83 2500 3.6 210 00:18 06.07.2020
446 Haze 30 999 89 2500 4.1 210 23:41 05.07.2020
447 Haze 30 999 89 2500 4.1 210 23:23 05.07.2020
448 Haze 30 999 89 2500 4.1 210 22:59 05.07.2020
449 Rain 29 999 94 1500 4.6 220 22:40 05.07.2020
450 Rain 29 999 94 1500 4.6 220 22:20 05.07.2020
451 Rain 30 999 89 2200 5.7 210 21:57 05.07.2020
452 Rain 30 1000 83 2500 4.1 200 21:38 05.07.2020
453 Rain 30 1000 83 2500 4.1 200 21:18 05.07.2020
454 Haze 30 1000 89 2500 5.7 200 20:57 05.07.2020
455 Haze 30 1000 89 2500 5.1 210 20:38 05.07.2020
456 Haze 30 1000 89 2500 5.1 210 20:20 05.07.2020
457 Haze 29 1000 94 2500 4.6 260 19:43 05.07.2020
458 Haze 29 1000 94 2500 4.6 260 19:43 05.07.2020
459 Haze 29 1000 94 2500 4.6 260 19:21 05.07.2020
460 Haze 30 1000 83 3000 7.2 210 18:56 05.07.2020
461 Haze 30 1000 83 3000 7.2 210 18:37 05.07.2020
462 Haze 30 1000 83 3000 7.2 210 18:37 05.07.2020
463 Haze 30 1000 83 3000 7.2 210 18:19 05.07.2020
464 Haze 30 1000 83 3000 4.1 210 17:43 05.07.2020
465 Drizzle 30 999 83 3000 6.7 210 17:20 05.07.2020
466 Drizzle 29 999 83 3000 6.7 210 16:59 05.07.2020
467 Drizzle 29 999 89 3000 6.7 210 16:41 05.07.2020
468 Drizzle 30 999 89 3000 6.7 210 16:22 05.07.2020
469 Drizzle 29 999 89 4000 6.2 220 15:41 05.07.2020
470 Drizzle 29 999 89 4000 6.2 220 15:20 05.07.2020
471 Drizzle 30 999 84 4000 5.7 220 14:59 05.07.2020
472 Drizzle 30 999 84 4000 7.2 220 14:40 05.07.2020
473 Drizzle 30 999 84 4000 7.2 220 14:20 05.07.2020
474 Rain 30 999 89 3000 6.2 220 13:41 05.07.2020
475 Rain 30 999 89 3000 6.2 220 13:41 05.07.2020
476 Rain 30 999 89 3000 6.2 220 13:23 05.07.2020
477 Rain 30 999 89 2500 5.7 220 12:46 05.07.2020
478 Rain 30 999 89 2500 5.7 220 12:25 05.07.2020
479 Rain 30 1000 94 2500 4.6 220 11:58 05.07.2020
480 Rain 30 1000 89 2500 3.6 220 11:39 05.07.2020
481 Rain 30 1000 89 2500 3.6 220 11:21 05.07.2020
482 Rain 30 1000 94 2200 5.1 220 10:57 05.07.2020
483 Rain 29 1001 94 2200 3.6 210 10:38 05.07.2020
484 Rain 29 1001 94 2200 3.6 210 10:19 05.07.2020
485 Rain 28 1002 94 2200 1.5 250 09:42 05.07.2020
486 Rain 27 1002 94 2200 1.5 250 09:21 05.07.2020
487 Rain 26 1002 100 2200 4.1 250 08:58 05.07.2020
488 Rain 25 1002 100 400 6.2 270 08:38 05.07.2020
489 Rain 25 1002 100 400 6.2 270 08:38 05.07.2020
490 Rain 25 1002 100 400 6.2 270 08:38 05.07.2020
491 Rain 25 1002 100 400 6.2 270 08:20 05.07.2020
492 Rain 27 1002 100 400 8.2 300 07:44 05.07.2020
493 Rain 27 1002 100 400 8.2 300 07:26 05.07.2020
494 Rain 27 1002 100 400 8.2 300 06:49 05.07.2020
495 Rain 27 1000 94 2200 3.6 230 05:18 05.07.2020
496 Rain 27 1000 100 2500 3.6 230 03:20 05.07.2020
497 Rain 28 999 100 1200 5.7 250 02:41 05.07.2020
498 Rain 28 999 100 500 5.1 230 01:59 05.07.2020
499 Rain 27 999 100 500 7.2 210 01:32 05.07.2020
500 Rain 28 999 94 2100 5.7 240 00:53 05.07.2020
501 Rain 28 999 94 2100 5.1 240 00:31 05.07.2020
502 Rain 28 999 100 1500 3.6 230 23:59 04.07.2020
503 Rain 27 999 94 1000 5.1 170 23:41 04.07.2020
504 Rain 27 999 94 1000 5.1 170 23:23 04.07.2020
505 Rain 28 1000 100 2100 3.6 200 22:43 04.07.2020
506 Rain 28 1000 100 1500 2.1 220 22:25 04.07.2020
507 Rain 28 1001 94 1000 3.6 260 21:59 04.07.2020
508 Rain 29 1001 94 600 5.1 260 21:40 04.07.2020
509 Rain 27 1001 94 600 5.1 260 21:22 04.07.2020
510 Rain 27 1001 94 1500 3.6 210 20:54 04.07.2020
511 Rain 27 1001 100 500 3.6 260 20:36 04.07.2020
512 Rain 27 1001 100 500 3.6 260 20:18 04.07.2020
513 Rain 27 1001 100 1500 6.2 270 19:41 04.07.2020
514 Rain 27 1001 100 1500 3.6 270 19:21 04.07.2020
515 Rain 27 1001 100 1500 4.1 270 18:55 04.07.2020
516 Rain 27 1001 100 1500 4.1 270 18:36 04.07.2020
517 Rain 27 1000 94 1000 5.1 290 18:18 04.07.2020
518 Rain 27 1000 100 2200 5.7 280 17:42 04.07.2020
519 Rain 27 1000 100 2200 5.7 280 17:42 04.07.2020
520 Rain 27 1000 100 2200 5.7 280 17:22 04.07.2020
521 Rain 27 999 100 1000 5.1 280 16:56 04.07.2020
522 Rain 28 999 100 800 3.6 230 16:37 04.07.2020
523 Rain 28 999 100 800 3.6 230 16:37 04.07.2020
524 Rain 28 999 100 800 3.6 230 16:18 04.07.2020
525 Rain 27 999 100 800 4.1 230 15:45 04.07.2020
526 Rain 26 999 100 800 2.6 220 15:26 04.07.2020
527 Rain 26 999 100 600 3.6 250 14:58 04.07.2020
528 Rain 25 999 100 350 5.7 270 14:37 04.07.2020
529 Rain 25 999 100 350 5.7 270 14:19 04.07.2020
530 Rain 26 999 100 150 3.6 270 13:56 04.07.2020
531 Rain 26 999 100 150 3.6 270 13:37 04.07.2020
532 Rain 26 999 100 150 3.6 270 13:18 04.07.2020
533 Rain 26 1000 100 800 5.7 260 12:41 04.07.2020
534 Rain 26 1000 100 800 5.7 260 12:20 04.07.2020
535 Rain 26 1001 100 800 3.6 230 11:46 04.07.2020
536 Rain 26 1001 100 800 3.6 230 11:25 04.07.2020
537 Thunderstorm 26 1001 100 150 6.2 260 10:59 04.07.2020
538 Rain 27 1001 100 800 3.1 220 10:39 04.07.2020
539 Rain 27 1001 100 800 3.1 220 10:21 04.07.2020
540 Rain 27 1001 100 2200 4.1 180 09:56 04.07.2020
541 Rain 27 1001 100 2000 3.1 150 09:36 04.07.2020
542 Rain 27 1001 100 2000 3.1 150 09:18 04.07.2020
543 Rain 28 1002 94 2000 2.1 210 08:46 04.07.2020
544 Rain 26 1002 100 1000 3.6 250 08:27 04.07.2020
545 Rain 27 1001 100 800 4.6 240 07:46 04.07.2020
546 Rain 27 1001 100 800 4.6 240 07:26 04.07.2020
547 Rain 28 1001 100 350 4.6 250 06:53 04.07.2020
548 Rain 27 1001 100 800 2.6 320 06:22 04.07.2020
549 Rain 26 1000 100 800 3.1 130 05:34 04.07.2020
550 Rain 26 1000 100 1000 2.1 130 04:42 04.07.2020
551 Rain 26 1000 100 1700 3.6 110 02:49 04.07.2020
552 Rain 26 1000 100 1700 3.6 110 02:19 04.07.2020
553 Drizzle 27 1000 100 2100 3.6 160 01:26 04.07.2020
554 Drizzle 27 1000 94 2500 3.6 150 00:40 04.07.2020
555 Drizzle 27 1000 94 2500 3.6 150 00:22 04.07.2020
556 Haze 27 1000 94 2500 4.1 180 23:40 03.07.2020
557 Haze 27 1000 94 2500 4.1 180 23:19 03.07.2020
558 Haze 27 1000 94 2500 4.6 180 22:55 03.07.2020
559 Haze 27 1000 94 2500 2.6 130 22:37 03.07.2020
560 Haze 27 1000 94 2500 2.6 130 22:18 03.07.2020
561 Rain 27 1002 94 2200 2.1 140 21:40 03.07.2020
562 Rain 27 1002 94 2200 2.1 140 21:20 03.07.2020
563 Rain 27 1002 94 2200 2.6 150 20:55 03.07.2020
564 Rain 27 1003 94 2200 2.1 160 20:37 03.07.2020
565 Rain 27 1003 94 2200 2.1 160 20:18 03.07.2020
566 Rain 27 1003 94 2500 3.1 200 19:41 03.07.2020
567 Rain 27 1003 94 2500 3.1 200 19:19 03.07.2020
568 Rain 27 1003 94 2500 3.1 200 18:55 03.07.2020
569 Rain 27 1003 100 2500 2.1 220 18:36 03.07.2020
570 Rain 29 1002 94 1700 3.6 230 18:18 03.07.2020
571 Rain 28 1002 88 3000 6.54 212 17:41 03.07.2020
572 Rain 29 1002 88 3000 5.49 288 17:22 03.07.2020
573 Rain 29 1001 88 2500 1.5 140 16:45 03.07.2020
574 Haze 29 1001 88 3000 2.6 200 16:26 03.07.2020
575 Haze 29 1001 88 3000 2.6 200 15:48 03.07.2020
576 Haze 29 1000 79 3000 1.5 220 15:25 03.07.2020
577 Haze 29 1001 88 3000 3.1 220 14:58 03.07.2020
578 Haze 29 1000 88 2500 3.6 240 14:40 03.07.2020
579 Haze 29 1000 88 2500 3.6 240 14:21 03.07.2020
580 Rain 28 1001 94 2200 5.1 240 13:48 03.07.2020
581 Rain 28 1001 100 2000 5.7 230 13:29 03.07.2020
582 Rain 28 1001 100 800 4.6 270 12:57 03.07.2020
583 Rain 28 1001 94 800 4.6 270 12:39 03.07.2020
584 Rain 28 1001 94 800 4.6 270 12:20 03.07.2020
585 Rain 29 1002 94 2500 5.1 250 11:43 03.07.2020
586 Rain 29 1002 94 2500 5.1 250 11:25 03.07.2020
587 Rain 29 1002 88 2200 4.6 240 10:58 03.07.2020
588 Rain 29 1002 94 2500 6.2 270 10:39 03.07.2020
589 Rain 29 1002 94 2500 6.2 270 10:20 03.07.2020
590 Thunderstorm 28 1002 100 1500 6.2 260 09:55 03.07.2020
591 Thunderstorm 29 1002 100 800 4.1 250 09:37 03.07.2020
592 Thunderstorm 28 1002 100 800 4.1 250 09:18 03.07.2020
593 Rain 28 1003 100 800 5.1 240 08:40 03.07.2020
594 Rain 28 1003 100 800 5.1 240 08:19 03.07.2020
595 Rain 27 1003 100 600 3.6 240 07:49 03.07.2020
596 Rain 27 1003 100 1000 1.5 200 07:27 03.07.2020
597 Rain 28 1003 94 1200 4.1 170 06:54 03.07.2020
598 Rain 27 1003 94 1200 4.1 170 06:20 03.07.2020
599 Haze 27 1003 94 2800 2.6 210 04:56 03.07.2020
600 Rain 29 1002 94 2000 2.6 140 03:45 03.07.2020
601 Haze 27 1001 100 2500 1.5 140 02:49 03.07.2020
602 Haze 27 1001 100 2500 1.5 140 02:29 03.07.2020
603 Haze 27 1001 94 2500 3.1 160 01:29 03.07.2020
604 Haze 27 1001 94 2500 2.6 150 00:56 03.07.2020
605 Drizzle 28 1001 88 2500 2.1 150 00:36 03.07.2020
606 Drizzle 28 1001 94 2500 2.6 190 23:49 02.07.2020
607 Rain 27 1001 94 2500 3.6 180 23:21 02.07.2020
608 Rain 27 1001 94 2500 3.6 180 22:58 02.07.2020
609 Rain 27 1002 94 2500 2.6 150 22:40 02.07.2020
610 Rain 27 1002 94 2500 2.6 150 22:20 02.07.2020
611 Rain 28 1002 94 2500 5.6 236 21:57 02.07.2020
612 Rain 28 1003 94 2100 5.6 236 21:39 02.07.2020
613 Rain 28 1003 94 2100 5.62 234 21:19 02.07.2020
614 Drizzle 28 1003 94 3000 5.76 250 20:57 02.07.2020
615 Haze 29 1003 83 4000 2.1 100 20:39 02.07.2020
616 Haze 29 1003 83 4000 2.1 100 20:39 02.07.2020
617 Haze 29 1003 83 4000 2.1 100 20:18 02.07.2020
618 Haze 29 1004 83 4000 1.5 150 19:42 02.07.2020
619 Haze 29 1004 83 4000 1.5 150 19:23 02.07.2020
620 Haze 29 1004 83 4000 1.5 150 19:23 02.07.2020
621 Haze 29 1003 83 4000 2.1 150 18:58 02.07.2020
622 Haze 29 1003 83 4000 3.1 210 18:40 02.07.2020
623 Haze 29 1003 83 4000 3.1 210 18:21 02.07.2020
624 Haze 29 1002 83 4000 3.1 220 17:54 02.07.2020
625 Haze 29 1002 83 4000 4.6 230 17:36 02.07.2020
626 Haze 29 1002 83 4000 4.6 230 17:18 02.07.2020
627 Haze 29 1001 83 5000 3.1 180 16:41 02.07.2020
628 Haze 29 1001 83 5000 3.1 180 16:20 02.07.2020
629 Haze 30 1001 79 5000 3.1 180 15:55 02.07.2020
630 Haze 30 1001 79 5000 4.6 220 15:36 02.07.2020
631 Haze 30 1001 79 5000 4.6 220 15:18 02.07.2020
632 Haze 31 1001 70 4000 5.7 230 14:44 02.07.2020
633 Haze 30 1001 79 5000 5.7 230 14:44 02.07.2020
634 Haze 31 1001 70 4000 5.7 230 14:22 02.07.2020
635 Haze 31 1001 70 4000 5.1 210 13:56 02.07.2020
636 Haze 30 1001 74 4000 4.6 220 13:37 02.07.2020
637 Haze 30 1001 74 4000 4.6 220 13:18 02.07.2020
638 Thunderstorm 29 1002 83 3000 5.7 230 12:41 02.07.2020
639 Thunderstorm 29 1002 83 3000 5.7 230 12:22 02.07.2020
640 Thunderstorm 31 1002 74 3000 5.1 230 11:57 02.07.2020
641 Rain 30 1002 84 3000 4.6 190 11:39 02.07.2020
642 Rain 30 1002 84 3000 4.6 190 11:21 02.07.2020
643 Haze 31 1003 79 5000 4.1 210 10:42 02.07.2020
644 Haze 31 1003 79 5000 4.1 210 10:24 02.07.2020
645 Haze 31 1003 74 5000 3.6 220 09:45 02.07.2020
646 Haze 31 1003 74 5000 4.1 210 09:23 02.07.2020
647 Haze 31 1003 74 5000 6.2 230 08:59 02.07.2020
648 Haze 30 1004 79 5000 5.7 230 08:40 02.07.2020
649 Haze 30 1004 79 5000 5.7 230 08:20 02.07.2020
650 Haze 30 1004 79 4000 5.1 170 07:42 02.07.2020
651 Haze 30 1004 79 4000 5.1 170 07:22 02.07.2020
652 Haze 30 1003 84 4000 4.1 170 06:50 02.07.2020
653 Haze 29 1003 89 4000 4.6 170 06:27 02.07.2020
654 Haze 29 1003 89 4000 3.6 160 05:50 02.07.2020
655 Haze 28 1003 88 4000 3.6 180 04:58 02.07.2020
656 Haze 26 1003 94 2500 1.5 140 03:34 02.07.2020
657 Drizzle 26 1002 100 2200 1.5 80 01:53 02.07.2020
658 Haze 27 1003 88 2500 2.1 120 00:45 02.07.2020
659 Haze 27 1003 88 2500 2.1 120 00:21 02.07.2020
660 Haze 27 1003 88 2500 2.1 130 23:45 01.07.2020
661 Haze 27 1003 88 2500 1.5 130 23:26 01.07.2020
662 Haze 27 1003 88 2500 2.1 130 22:55 01.07.2020
663 Haze 27 1004 88 2500 2.6 120 22:37 01.07.2020
664 Haze 27 1004 88 2500 2.6 120 22:37 01.07.2020
665 Haze 27 1004 88 2500 2.6 120 22:19 01.07.2020
666 Haze 27 1004 88 2500 2.6 150 21:58 01.07.2020
667 Haze 27 1004 88 2500 2.6 140 21:39 01.07.2020
668 Haze 27 1004 88 2500 2.6 140 21:20 01.07.2020
669 Haze 27 1005 94 2500 2.6 140 20:47 01.07.2020
670 Haze 27 1005 88 2500 3.1 150 20:29 01.07.2020
671 Haze 27 1005 94 2500 3.1 150 19:58 01.07.2020
672 Haze 28 1005 88 2500 5.7 160 19:40 01.07.2020
673 Haze 28 1005 88 2500 5.7 160 19:21 01.07.2020
674 Rain 27 1004 94 2100 1.5 160 18:58 01.07.2020
675 Rain 28 1004 88 2200 6.7 190 18:40 01.07.2020
676 Rain 28 1004 88 2200 6.7 190 18:21 01.07.2020
677 Haze 29 1003 83 3000 3.6 180 17:55 01.07.2020
678 Haze 29 1003 83 3000 3.6 180 17:55 01.07.2020
679 Haze 29 1003 83 3000 3.6 180 17:55 01.07.2020
680 Haze 29 1003 89 4000 3.1 180 17:37 01.07.2020
681 Haze 29 1003 89 4000 3.1 180 17:18 01.07.2020
682 Haze 30 1003 79 5000 4.6 170 16:42 01.07.2020
683 Haze 30 1003 79 5000 4.6 170 16:24 01.07.2020
684 Haze 30 1002 79 5000 5.1 160 15:43 01.07.2020
685 Haze 31 1002 70 5000 3.1 210 15:25 01.07.2020
686 Haze 31 1002 74 5000 4.1 220 14:58 01.07.2020
687 Haze 31 1002 74 5000 4.6 220 14:39 01.07.2020
688 Haze 31 1002 74 5000 4.6 220 14:20 01.07.2020
689 Haze 31 1002 74 5000 5.1 220 13:55 01.07.2020
690 Haze 30 1002 79 5000 4.6 240 13:36 01.07.2020
691 Haze 30 1002 79 5000 5.1 220 13:18 01.07.2020
692 Haze 29 1002 89 4000 2.6 200 12:41 01.07.2020
693 Haze 29 1002 89 4000 2.6 200 12:23 01.07.2020
694 Rain 30 1003 79 5000 3.6 220 11:59 01.07.2020
695 Haze 31 1003 74 5000 6.2 200 11:40 01.07.2020
696 Haze 31 1003 74 5000 6.2 200 11:21 01.07.2020
697 Haze 30 1003 89 5000 3.6 200 10:56 01.07.2020
698 Haze 31 1003 70 5000 5.1 220 10:38 01.07.2020
699 Haze 31 1003 70 5000 5.1 220 10:20 01.07.2020
700 Haze 31 1004 70 5000 6.2 170 09:39 01.07.2020
701 Haze 31 1004 70 5000 6.2 170 09:20 01.07.2020
702 Haze 31 1004 74 5000 4.6 180 08:59 01.07.2020
703 Haze 30 1004 79 5000 4.6 160 08:40 01.07.2020
704 Haze 30 1004 79 5000 4.6 160 08:19 01.07.2020
705 Haze 30 1004 79 5000 5.1 190 07:42 01.07.2020
706 Haze 30 1004 79 5000 5.1 190 07:24 01.07.2020
707 Haze 30 1004 79 4000 4.6 170 06:57 01.07.2020
708 Haze 29 1004 83 4000 3.6 170 06:38 01.07.2020
709 Haze 29 1004 83 4000 3.6 170 06:20 01.07.2020
710 Haze 29 1003 83 3000 2.6 110 04:30 01.07.2020
711 Haze 27 1002 94 3000 2.6 120 03:42 01.07.2020
712 Haze 27 1002 94 3000 2.6 120 03:22 01.07.2020
713 Haze 27 1002 94 2500 3.1 110 02:19 01.07.2020
714 Haze 27 1002 94 2500 1.5 140 01:23 01.07.2020
715 Haze 27 1002 94 2500 2.1 150 00:38 01.07.2020
716 Haze 27 1002 94 2500 2.1 150 00:19 01.07.2020
717 Rain 27 1002 94 2100 2.1 130 23:40 30.06.2020
718 Rain 27 1002 94 2100 2.1 130 23:20 30.06.2020
719 Rain 27 1002 94 1500 3.1 170 22:42 30.06.2020
720 Rain 27 1002 94 1500 3.1 170 22:19 30.06.2020
721 Haze 28 1002 88 2500 1.5 160 21:54 30.06.2020
722 Haze 28 1003 88 2500 2.6 160 21:36 30.06.2020
723 Haze 28 1003 88 2500 2.6 160 21:18 30.06.2020
724 Rain 28 1003 88 2500 3.1 180 20:42 30.06.2020
725 Rain 28 1003 88 2500 3.1 180 20:21 30.06.2020
726 Drizzle 29 1003 83 2500 2.1 130 19:44 30.06.2020
727 Drizzle 29 1003 83 2500 2.1 130 19:21 30.06.2020
728 Haze 28 1003 88 3000 3.1 180 18:58 30.06.2020
729 Rain 28 1003 88 2500 3.6 190 18:40 30.06.2020
730 Rain 28 1003 88 2500 3.6 190 18:20 30.06.2020
731 Rain 29 1002 83 2500 5.7 170 17:39 30.06.2020
732 Rain 29 1002 83 2500 5.7 170 17:21 30.06.2020
733 Clouds 29 1002 83 8000 4.1 170 16:58 30.06.2020
734 Clouds 29 1001 83 8000 3.6 170 16:40 30.06.2020
735 Clouds 29 1001 83 8000 3.6 170 16:21 30.06.2020
736 Clouds 29 1001 83 8000 4.1 190 15:56 30.06.2020
737 Clouds 29 1001 83 8000 3.1 170 15:38 30.06.2020
738 Clouds 29 1001 83 8000 3.1 170 15:19 30.06.2020
739 Clouds 29 1000 83 8000 5.7 210 14:43 30.06.2020
740 Clouds 29 1000 83 8000 5.7 210 14:21 30.06.2020
741 Clouds 29 1000 83 8000 5.1 230 13:57 30.06.2020
742 Clouds 29 1000 83 8000 6.2 190 13:37 30.06.2020
743 Clouds 29 1000 83 8000 6.2 190 13:19 30.06.2020
744 Clouds 30 1000 79 8000 5.1 180 12:55 30.06.2020
745 Clouds 30 1000 79 8000 6.2 170 12:37 30.06.2020
746 Clouds 30 1000 79 8000 6.2 170 12:18 30.06.2020
747 Clouds 31 1001 74 8000 6.2 170 12:18 30.06.2020
748 Clouds 31 1001 74 8000 6.2 170 11:56 30.06.2020
749 Clouds 32 1001 70 8000 4.6 190 11:37 30.06.2020
750 Clouds 32 1001 70 8000 4.6 190 11:18 30.06.2020
751 Haze 30 1003 79 4000 2.6 210 16:47 28.06.2020
752 Haze 30 1003 84 5000 3.6 220 16:28 28.06.2020
753 Haze 30 1003 79 5000 4.1 220 15:59 28.06.2020
754 Haze 31 1002 74 5000 5.1 240 15:39 28.06.2020
755 Haze 31 1002 74 5000 5.1 240 15:20 28.06.2020
756 Haze 31 1002 74 5000 5.1 230 14:57 28.06.2020
757 Haze 31 1002 74 5000 4.6 250 14:38 28.06.2020
758 Haze 31 1002 74 5000 4.6 250 14:20 28.06.2020
759 Haze 31 1002 74 4000 5.1 260 13:40 28.06.2020
760 Haze 31 1002 74 4000 5.1 260 13:21 28.06.2020
761 Haze 31 1002 74 4000 5.1 240 12:58 28.06.2020
762 Haze 30 1003 79 4000 5.7 230 12:38 28.06.2020
763 Haze 30 1003 79 4000 5.7 230 12:19 28.06.2020
764 Thunderstorm 31 1003 79 4000 6.2 210 11:59 28.06.2020
765 Haze 31 1004 79 4000 6.7 220 11:40 28.06.2020
766 Haze 31 1004 79 4000 6.7 220 11:20 28.06.2020
767 Haze 32 1004 75 4000 5.1 250 10:58 28.06.2020
768 Haze 32 1004 70 4000 3.6 260 10:40 28.06.2020
769 Haze 32 1004 70 4000 3.6 260 10:21 28.06.2020
770 Haze 31 1005 74 4000 4.6 190 09:41 28.06.2020
771 Haze 31 1005 74 4000 4.6 190 09:23 28.06.2020
772 Haze 32 1005 70 4000 4.1 230 08:56 28.06.2020
773 Haze 32 1005 70 4000 2.6 220 08:36 28.06.2020
774 Haze 32 1005 70 4000 2.6 220 08:18 28.06.2020
775 Haze 31 1005 74 4000 3.1 170 07:33 28.06.2020
776 Haze 31 1005 74 4000 3.1 170 07:33 28.06.2020
777 Haze 30 1006 79 4000 1.5 150 06:56 28.06.2020
778 Haze 30 1006 79 4000 1.5 150 06:32 28.06.2020
779 Haze 29 1005 83 3000 2.1 190 05:45 28.06.2020
780 Haze 28 1005 88 3000 2.6 90 04:27 28.06.2020
781 Haze 27 1004 94 2500 2.6 90 02:58 28.06.2020
782 Haze 27 1004 94 2500 2.1 120 02:21 28.06.2020
783 Thunderstorm 27 1004 94 2100 3.62 204 01:30 28.06.2020
784 Thunderstorm 27 1003 94 2100 2.6 110 00:56 28.06.2020
785 Thunderstorm 27 1004 94 2100 3.6 90 00:30 28.06.2020
786 Thunderstorm 27 1004 94 1900 2.1 150 23:58 27.06.2020
787 Thunderstorm 27 1004 94 1500 3.72 209 23:39 27.06.2020
788 Thunderstorm 27 1004 94 1500 3.35 209 23:21 27.06.2020
789 Thunderstorm 29 1005 89 3000 3.1 120 22:42 27.06.2020
790 Thunderstorm 29 1005 89 3000 3.1 120 22:23 27.06.2020
791 Thunderstorm 29 1005 89 3000 3.1 120 22:23 27.06.2020
792 Thunderstorm 29 1005 89 3000 2.1 60 21:59 27.06.2020
793 Thunderstorm 29 1005 89 3000 2.1 110 21:41 27.06.2020
794 Thunderstorm 29 1005 89 3000 2.1 110 21:20 27.06.2020
795 Thunderstorm 30 1005 84 3000 2.6 90 20:55 27.06.2020
796 Haze 31 1006 74 3000 2.6 260 20:37 27.06.2020
797 Haze 31 1006 74 3000 2.6 260 20:18 27.06.2020
798 Haze 31 1005 74 4000 3.1 240 19:38 27.06.2020
799 Haze 31 1005 74 4000 3.1 240 19:19 27.06.2020
800 Haze 31 1005 74 4000 3.1 240 19:19 27.06.2020
801 Haze 31 1005 74 4000 3.1 240 18:57 27.06.2020
802 Haze 31 1005 79 4000 2.6 230 18:37 27.06.2020
803 Haze 31 1004 79 5000 3.1 240 18:19 27.06.2020
804 Haze 31 1004 74 5000 3.6 260 17:40 27.06.2020
805 Haze 31 1004 74 5000 3.6 260 17:20 27.06.2020
806 Clouds 31 1004 74 7000 4.1 260 16:57 27.06.2020
807 Clouds 31 1004 74 7000 4.1 250 16:38 27.06.2020
808 Clouds 31 1004 74 7000 4.1 250 16:19 27.06.2020
809 Clouds 31 1003 74 7000 5.1 260 15:42 27.06.2020
810 Clouds 32 1003 66 7000 4.6 260 15:24 27.06.2020
811 Clouds 32 1003 66 7000 4.6 260 15:24 27.06.2020
812 Clouds 32 1002 70 7000 6.2 260 14:56 27.06.2020
813 Clouds 32 1002 70 7000 5.1 260 14:37 27.06.2020
814 Clouds 32 1002 70 7000 5.1 260 14:19 27.06.2020
815 Clouds 32 1002 70 6000 5.7 270 13:41 27.06.2020
816 Clouds 32 1002 70 6000 5.1 260 13:20 27.06.2020
817 Clouds 32 1002 70 6000 5.1 260 12:58 27.06.2020
818 Clouds 32 1003 75 6000 6.2 240 12:40 27.06.2020
819 Clouds 32 1003 75 6000 6.2 240 12:21 27.06.2020
820 Clouds 32 1003 70 6000 5.1 250 11:57 27.06.2020
821 Clouds 32 1004 70 6000 5.1 240 11:37 27.06.2020
822 Clouds 32 1004 70 6000 5.1 240 11:19 27.06.2020
823 Haze 32 1004 70 5000 5.1 240 10:40 27.06.2020
824 Haze 32 1004 70 5000 5.1 240 10:19 27.06.2020
825 Haze 33 1004 66 5000 4.1 260 09:57 27.06.2020
826 Haze 32 1004 70 5000 4.1 270 09:37 27.06.2020
827 Haze 32 1004 70 5000 4.1 270 09:19 27.06.2020
828 Haze 32 1005 62 5000 3.6 270 08:41 27.06.2020
829 Haze 32 1005 62 5000 3.6 270 08:22 27.06.2020
830 Haze 32 1005 62 5000 3.6 270 08:22 27.06.2020
831 Haze 32 1005 70 5000 1 240 07:46 27.06.2020
832 Haze 31 1005 74 5000 2.6 210 07:25 27.06.2020
833 Haze 31 1005 74 3000 0.5 190 06:50 27.06.2020
834 Haze 31 1005 74 3000 0.5 190 06:31 27.06.2020
835 Rain 29 1005 89 3000 2.1 110 04:24 27.06.2020
836 Rain 29 1004 89 3000 1.5 130 03:54 27.06.2020
837 Rain 29 1004 89 3000 2.6 110 03:30 27.06.2020
838 Haze 29 1003 89 3000 1.5 90 02:37 27.06.2020
839 Haze 29 1003 89 3000 1.5 120 01:49 27.06.2020
840 Haze 29 1003 83 3000 1.5 90 01:24 27.06.2020
841 Haze 29 1003 83 3000 1.5 140 00:41 27.06.2020
842 Haze 29 1003 83 3000 1.5 210 23:47 26.06.2020
843 Haze 29 1003 83 3000 1.5 170 23:27 26.06.2020
844 Rain 28 1003 88 2100 3.1 220 22:57 26.06.2020
845 Haze 30 1004 84 3500 3.2 208 22:39 26.06.2020
846 Haze 30 1004 84 3500 3.39 212 22:20 26.06.2020
847 Haze 30 1004 79 3500 3.39 212 21:57 26.06.2020
848 Haze 30 1005 79 3500 3.39 212 21:38 26.06.2020
849 Haze 30 1005 79 3500 3.31 222 21:20 26.06.2020
850 Haze 30 1005 84 3500 3.34 265 20:46 26.06.2020
851 Haze 30 1005 79 3500 2.1 210 20:26 26.06.2020
852 Haze 30 1004 84 3500 3.36 262 19:47 26.06.2020
853 Haze 30 1004 84 3500 3.11 274 19:24 26.06.2020
854 Haze 30 1004 84 4000 3.11 274 18:58 26.06.2020
855 Haze 30 1004 84 4000 1.5 230 18:38 26.06.2020
856 Haze 30 1004 84 4000 1.5 230 18:20 26.06.2020
857 Haze 30 1004 84 4000 1.5 260 17:44 26.06.2020
858 Haze 30 1004 84 4000 2.1 320 17:26 26.06.2020
859 Smoke 30 1004 84 4000 2.1 310 16:51 26.06.2020
860 Smoke 30 1003 84 4000 3.1 270 16:28 26.06.2020
861 Smoke 31 1002 74 4000 4.1 260 15:58 26.06.2020
862 Smoke 31 1002 74 4000 4.1 260 15:39 26.06.2020
863 Smoke 31 1002 74 4000 4.1 260 15:21 26.06.2020
864 Haze 31 1002 79 4000 4.1 240 14:57 26.06.2020
865 Haze 31 1002 79 4000 4.1 240 14:57 26.06.2020
866 Haze 31 1002 74 4000 4.6 240 14:38 26.06.2020
867 Haze 31 1002 74 4000 4.6 240 14:20 26.06.2020
868 Haze 31 1002 79 4000 5.1 240 13:44 26.06.2020
869 Haze 31 1002 79 4000 5.1 240 13:23 26.06.2020
870 Haze 32 1003 75 4000 5.1 270 12:56 26.06.2020
871 Haze 31 1003 79 4000 5.1 260 12:38 26.06.2020
872 Haze 32 1003 70 4000 3.6 270 12:18 26.06.2020
873 Haze 32 1003 70 4000 3.6 270 11:56 26.06.2020
874 Haze 32 1003 70 3000 4.1 210 11:37 26.06.2020
875 Haze 32 1003 70 3000 4.1 210 11:18 26.06.2020
876 Haze 31 1004 79 3000 3.1 230 10:55 26.06.2020
877 Haze 31 1004 79 2500 2.6 300 10:37 26.06.2020
878 Haze 31 1004 79 2500 2.6 300 10:18 26.06.2020
879 Rain 30 1004 79 2500 2.1 210 09:41 26.06.2020
880 Rain 30 1004 79 2500 2.1 210 09:19 26.06.2020
881 Haze 31 1004 79 3000 3.6 210 08:45 26.06.2020
882 Haze 31 1004 79 3000 4.1 230 08:27 26.06.2020
883 Haze 30 1003 79 3000 3.6 240 07:48 26.06.2020
884 Haze 30 1004 79 3000 2.1 280 07:23 26.06.2020
885 Haze 31 1004 79 3000 3.08 223 06:49 26.06.2020
886 Haze 30 1004 84 3000 1.5 120 06:30 26.06.2020
887 Haze 30 1005 84 4000 1 110 05:53 26.06.2020
888 Haze 29 1005 89 4000 2.1 100 05:21 26.06.2020
889 Thunderstorm 28 1004 88 2500 3.1 20 02:32 26.06.2020
890 Rain 28 1003 94 2500 3.22 196 01:39 26.06.2020
891 Drizzle 29 1003 94 3000 3.19 191 00:52 26.06.2020
892 Drizzle 29 1003 89 3000 3.16 194 00:31 26.06.2020
893 Haze 29 1003 89 3000 2.1 170 23:48 25.06.2020
894 Haze 29 1003 83 3000 3.2 201 23:22 25.06.2020
895 Rain 28 1003 88 3000 3.2 201 22:58 25.06.2020
896 Rain 28 1003 94 3000 3.1 220 22:39 25.06.2020
897 Rain 28 1003 94 3000 3.1 220 22:20 25.06.2020
898 Haze 29 1004 89 4000 1.5 180 21:58 25.06.2020
899 Haze 30 1005 84 4000 1.5 210 21:39 25.06.2020
900 Haze 30 1005 84 4000 1.5 210 21:21 25.06.2020
901 Haze 30 1005 84 4000 1.5 200 20:57 25.06.2020
902 Haze 30 1005 84 4000 1.5 210 20:39 25.06.2020
903 Haze 30 1005 84 4000 1.5 210 20:21 25.06.2020
904 Haze 30 1005 84 4000 2.6 220 19:54 25.06.2020
905 Haze 30 1005 84 4000 2.6 220 19:36 25.06.2020
906 Haze 30 1004 84 4000 3.1 220 19:18 25.06.2020
907 Haze 30 1004 84 4000 3.6 230 18:39 25.06.2020
908 Haze 30 1004 84 4000 3.6 230 18:20 25.06.2020
909 Haze 30 1004 84 4000 3.1 230 17:45 25.06.2020
910 Haze 30 1003 84 5000 3.6 230 17:20 25.06.2020
911 Clouds 31 1003 79 7000 3.6 220 16:59 25.06.2020
912 Clouds 30 1003 84 7000 3.6 230 16:40 25.06.2020
913 Clouds 30 1003 84 7000 3.6 230 16:19 25.06.2020
914 Clouds 31 1002 79 7000 4.6 250 15:43 25.06.2020
915 Clouds 31 1002 79 7000 5.7 240 15:25 25.06.2020
916 Clouds 31 1002 79 7000 6.2 250 14:56 25.06.2020
917 Clouds 31 1002 74 7000 6.2 220 14:37 25.06.2020
918 Clouds 31 1002 74 7000 6.2 220 14:19 25.06.2020
919 Clouds 32 1002 70 7000 6.2 240 13:42 25.06.2020
920 Clouds 32 1002 70 7000 6.2 240 13:22 25.06.2020
921 Clouds 32 1002 66 7000 5.7 270 12:59 25.06.2020
922 Clouds 32 1002 66 7000 4.6 250 12:41 25.06.2020
923 Clouds 32 1002 66 7000 4.6 250 12:20 25.06.2020
924 Clouds 32 1003 62 6000 4.1 230 11:43 25.06.2020
925 Clouds 32 1003 62 6000 4.1 230 11:23 25.06.2020
926 Clouds 32 1003 62 6000 4.6 240 10:46 25.06.2020
927 Haze 33 1003 66 5000 5.7 230 10:27 25.06.2020
928 Haze 32 1003 70 5000 4.6 210 09:59 25.06.2020
929 Haze 32 1003 70 5000 4.1 240 09:40 25.06.2020
930 Haze 32 1003 70 5000 4.1 240 09:20 25.06.2020
931 Haze 31 1004 74 5000 4.6 230 08:45 25.06.2020
932 Haze 31 1004 74 5000 4.6 230 08:20 25.06.2020
933 Haze 31 1004 74 4000 3.6 170 07:45 25.06.2020
934 Haze 31 1004 74 4000 3.6 170 07:26 25.06.2020
935 Haze 31 1005 79 3000 2.6 160 06:50 25.06.2020
936 Haze 31 1005 79 3000 2.6 160 06:27 25.06.2020
937 Haze 30 1005 79 3000 3.1 170 05:51 25.06.2020
938 Haze 29 1005 83 3000 2.1 100 04:29 25.06.2020
939 Haze 28 1004 88 3000 1.5 100 03:34 25.06.2020
940 Haze 28 1004 88 3500 2.1 150 02:42 25.06.2020
941 Haze 28 1004 88 3500 2.1 110 01:59 25.06.2020
942 Haze 28 1004 88 3500 3.6 110 01:21 25.06.2020
943 Haze 29 1004 83 3500 2.6 120 00:44 25.06.2020
944 Haze 29 1004 83 3500 2.1 110 00:21 25.06.2020
945 Haze 29 1004 83 3500 2.6 110 23:44 24.06.2020
946 Haze 29 1004 83 3500 2.6 110 23:26 24.06.2020
947 Haze 29 1005 83 3500 3.1 120 22:59 24.06.2020
948 Haze 29 1005 83 3500 2.1 110 22:41 24.06.2020
949 Haze 29 1005 83 3500 2.1 110 22:20 24.06.2020
950 Haze 30 1006 79 3500 1.5 200 21:56 24.06.2020
951 Haze 29 1006 83 3500 2.1 150 21:37 24.06.2020
952 Haze 29 1006 83 3500 2.1 150 21:18 24.06.2020
953 Haze 29 1006 83 4000 2.1 200 20:58 24.06.2020
954 Haze 29 1006 83 4000 2.1 200 20:39 24.06.2020
955 Haze 29 1006 83 4000 2.1 200 20:20 24.06.2020
956 Haze 29 1006 83 4000 2.6 190 19:57 24.06.2020
957 Haze 29 1006 83 4000 3.1 190 19:37 24.06.2020
958 Haze 29 1006 83 4000 3.1 190 19:18 24.06.2020
959 Haze 30 1006 79 4000 3.1 190 18:58 24.06.2020
960 Haze 30 1005 79 4000 2.6 170 18:39 24.06.2020
961 Haze 30 1005 79 4000 2.6 170 18:20 24.06.2020
962 Haze 30 1005 74 4000 3.1 200 17:44 24.06.2020
963 Haze 30 1005 74 4000 3.1 200 17:44 24.06.2020
964 Haze 30 1005 74 4000 3.1 200 17:21 24.06.2020
965 Haze 30 1004 74 4000 3.6 220 16:59 24.06.2020
966 Haze 30 1004 79 4000 3.6 200 16:41 24.06.2020
967 Haze 30 1004 79 4000 3.6 200 16:23 24.06.2020
968 Haze 30 1003 74 5000 4.6 220 15:59 24.06.2020
969 Clouds 31 1003 70 6000 4.1 230 15:39 24.06.2020
970 Clouds 31 1003 70 6000 4.1 230 15:20 24.06.2020
971 Clouds 31 1003 70 6000 4.6 240 14:58 24.06.2020
972 Clouds 31 1003 74 6000 6.2 230 14:40 24.06.2020
973 Clouds 31 1003 74 6000 6.2 230 14:40 24.06.2020
974 Clouds 31 1003 74 6000 6.2 230 14:20 24.06.2020
975 Clouds 32 1003 70 6000 4.1 220 13:42 24.06.2020
976 Clouds 32 1003 66 6000 4.6 220 13:21 24.06.2020
977 Clouds 32 1003 66 6000 4.6 220 13:21 24.06.2020
978 Clouds 32 1004 66 6000 5.7 220 12:43 24.06.2020
979 Clouds 32 1004 66 6000 5.7 220 12:21 24.06.2020
980 Clouds 32 1004 66 6000 4.1 200 11:58 24.06.2020
981 Clouds 32 1004 66 6000 5.7 220 11:40 24.06.2020
982 Clouds 32 1004 66 6000 5.7 220 11:21 24.06.2020
983 Clouds 32 1005 66 6000 4.6 180 10:47 24.06.2020
984 Clouds 32 1005 66 6000 4.6 210 10:19 24.06.2020
985 Clouds 32 1005 66 6000 5.1 210 09:56 24.06.2020
986 Haze 32 1006 66 5000 6.2 170 09:38 24.06.2020
987 Haze 32 1006 66 5000 6.2 170 09:19 24.06.2020
988 Haze 32 1006 66 5000 4.6 200 08:40 24.06.2020
989 Haze 32 1006 66 5000 4.6 200 08:19 24.06.2020
990 Haze 31 1006 70 5000 5.7 180 07:48 24.06.2020
991 Haze 31 1006 70 5000 5.7 180 07:25 24.06.2020
992 Haze 30 1006 74 4000 3.6 180 06:46 24.06.2020
993 Haze 30 1005 74 4000 4.6 170 06:24 24.06.2020
994 Haze 29 1005 79 4000 3.1 160 05:46 24.06.2020
995 Haze 28 1005 83 4000 3.1 140 04:40 24.06.2020
996 Haze 28 1004 83 3000 2.1 150 03:40 24.06.2020
997 Haze 28 1004 83 3000 2.1 150 03:18 24.06.2020
998 Haze 28 1004 83 3000 3.6 150 02:36 24.06.2020
999 Haze 28 1003 83 3000 2.6 130 00:58 24.06.2020
1000 Haze 28 1003 83 3000 2.6 130 00:39 24.06.2020
1001 Haze 28 1004 83 3000 3.6 150 00:21 24.06.2020
1002 Haze 28 1004 83 3000 3.6 150 23:40 23.06.2020
1003 Haze 28 1004 83 3000 3.6 150 23:18 23.06.2020
1004 Haze 28 1005 83 3000 3.6 150 22:41 23.06.2020
1005 Haze 28 1005 83 3000 3.6 150 22:19 23.06.2020
1006 Haze 29 1005 83 3000 2.1 140 21:59 23.06.2020
1007 Haze 29 1005 83 3000 4.1 160 21:38 23.06.2020
1008 Haze 29 1005 83 3000 4.1 160 21:18 23.06.2020
1009 Haze 29 1005 83 3000 3.6 160 20:55 23.06.2020
1010 Haze 29 1005 83 3000 3.6 170 20:36 23.06.2020
1011 Haze 29 1005 83 3000 3.1 160 20:18 23.06.2020
1012 Haze 29 1005 83 3000 2.6 170 19:43 23.06.2020
1013 Haze 29 1005 83 3000 2.6 170 19:43 23.06.2020
1014 Haze 29 1005 83 3000 4.1 170 19:24 23.06.2020
1015 Haze 29 1005 83 3000 2.6 150 18:40 23.06.2020
1016 Haze 29 1005 79 3000 4.1 170 18:19 23.06.2020
1017 Haze 29 1005 79 3000 4.1 170 17:56 23.06.2020
1018 Haze 29 1004 79 3000 3.6 160 17:38 23.06.2020
1019 Haze 29 1004 79 3000 3.6 160 17:18 23.06.2020
1020 Smoke 29 1004 79 3000 3.6 140 16:54 23.06.2020
1021 Smoke 29 1004 79 5000 4.6 200 16:36 23.06.2020
1022 Smoke 29 1003 79 5000 5.1 180 16:18 23.06.2020
1023 Smoke 29 1003 79 5000 5.7 170 15:42 23.06.2020
1024 Smoke 29 1003 79 5000 5.7 170 15:23 23.06.2020
1025 Clouds 29 1003 79 6000 5.1 190 14:55 23.06.2020
1026 Clouds 29 1003 83 6000 6.7 190 14:37 23.06.2020
1027 Clouds 29 1003 83 6000 6.7 190 14:18 23.06.2020
1028 Clouds 31 1003 74 6000 6.7 190 13:45 23.06.2020
1029 Clouds 32 1003 70 6000 8.2 180 13:25 23.06.2020
1030 Clouds 32 1003 70 6000 8.2 180 12:55 23.06.2020
1031 Clouds 31 1003 70 6000 8.2 180 12:37 23.06.2020
1032 Clouds 31 1003 84 6000 6.2 180 12:18 23.06.2020
1033 Clouds 32 1004 74 6000 6.2 170 11:42 23.06.2020
1034 Clouds 32 1004 74 6000 6.2 170 11:22 23.06.2020
1035 Clouds 31 1004 66 6000 6.7 210 10:58 23.06.2020
1036 Clouds 31 1005 70 6000 6.2 190 10:40 23.06.2020
1037 Clouds 31 1005 70 6000 6.2 190 10:21 23.06.2020
1038 Clouds 33 1005 66 6000 6.7 180 09:56 23.06.2020
1039 Clouds 32 1005 66 6000 7.2 180 09:38 23.06.2020
1040 Clouds 32 1005 66 6000 7.2 180 09:18 23.06.2020
1041 Smoke 32 1005 74 4500 6.2 180 08:44 23.06.2020
1042 Smoke 32 1005 74 4500 6.2 180 08:25 23.06.2020
1043 Haze 31 1005 74 4000 5.1 190 07:47 23.06.2020
1044 Haze 30 1005 79 4000 4.1 170 07:24 23.06.2020
1045 Haze 30 1005 79 4000 5.1 190 06:53 23.06.2020
1046 Haze 30 1005 79 4000 5.1 190 06:32 23.06.2020
1047 Haze 29 1005 83 4000 4.1 170 05:56 23.06.2020
1048 Haze 28 1004 83 4000 5.7 170 04:53 23.06.2020
1049 Haze 27 1003 88 3000 2.1 120 03:22 23.06.2020
1050 Haze 27 1003 88 2500 3.1 110 02:49 23.06.2020
1051 Haze 27 1003 88 2500 2.1 130 02:29 23.06.2020
1052 Haze 27 1002 88 2500 2.1 110 01:46 23.06.2020
1053 Haze 27 1002 88 2500 2.1 110 01:24 23.06.2020
1054 Haze 27 1002 88 2500 3.6 150 00:41 23.06.2020
1055 Haze 27 1003 88 2500 2.6 120 00:20 23.06.2020
1056 Haze 27 1003 88 2500 2.6 120 23:54 22.06.2020
1057 Haze 27 1003 88 2500 2.6 120 23:54 22.06.2020
1058 Haze 28 1003 83 2500 3.6 140 23:36 22.06.2020
1059 Haze 28 1003 83 2500 3.6 140 23:18 22.06.2020
1060 Haze 28 1003 88 2500 3.1 140 22:54 22.06.2020
1061 Haze 28 1003 88 2500 4.1 150 22:36 22.06.2020
1062 Haze 28 1003 88 2500 4.1 150 22:18 22.06.2020
1063 Haze 28 1003 88 2500 4.1 150 22:18 22.06.2020
1064 Haze 28 1004 83 2500 2.6 150 21:40 22.06.2020
1065 Haze 28 1004 83 2500 2.6 150 21:22 22.06.2020
1066 Haze 28 1004 83 2500 2.6 210 20:59 22.06.2020
1067 Haze 29 1004 89 2500 2.1 150 20:40 22.06.2020
1068 Haze 29 1004 89 2500 2.1 150 20:20 22.06.2020
1069 Haze 29 1004 83 3000 4.6 210 19:44 22.06.2020
1070 Haze 29 1004 83 3000 4.6 210 19:19 22.06.2020
1071 Haze 28 1004 94 3000 1.5 200 18:57 22.06.2020
1072 Haze 28 1004 94 3000 1.5 200 18:38 22.06.2020
1073 Rain 27 1004 88 1500 6.2 240 18:19 22.06.2020
1074 Rain 27 1004 88 1500 6.2 240 17:55 22.06.2020
1075 Haze 30 1003 79 3000 4.1 180 17:37 22.06.2020
1076 Drizzle 30 1003 79 3000 4.6 210 17:18 22.06.2020
1077 Haze 30 1002 79 3000 5.1 210 16:43 22.06.2020
1078 Haze 30 1002 79 3000 5.7 220 16:19 22.06.2020
1079 Haze 30 1002 79 3000 5.7 220 15:58 22.06.2020
1080 Haze 30 1002 79 3000 4.1 200 15:39 22.06.2020
1081 Haze 30 1002 79 3000 4.1 200 15:21 22.06.2020
1082 Haze 32 1001 70 4000 6.7 220 14:40 22.06.2020
1083 Haze 32 1001 70 4000 6.7 220 14:21 22.06.2020
1084 Haze 32 1001 70 4000 7.2 230 13:58 22.06.2020
1085 Haze 32 1001 70 4000 7.7 230 13:38 22.06.2020
1086 Haze 32 1002 70 4000 6.7 220 13:20 22.06.2020
1087 Haze 32 1002 70 4000 4.6 220 12:44 22.06.2020
1088 Haze 32 1002 70 4000 4.6 220 12:44 22.06.2020
1089 Haze 32 1002 70 4000 4.6 220 12:23 22.06.2020
1090 Haze 32 1003 66 4000 5.1 220 11:59 22.06.2020
1091 Haze 32 1003 70 4000 6.2 210 11:37 22.06.2020
1092 Haze 31 1003 70 4000 3.6 230 11:18 22.06.2020
1093 Haze 31 1003 70 4000 3.6 230 10:55 22.06.2020
1094 Haze 32 1003 70 4000 3.6 210 10:36 22.06.2020
1095 Haze 32 1004 66 4000 3.6 240 10:18 22.06.2020
1096 Haze 32 1004 66 4000 3.6 240 09:55 22.06.2020
1097 Haze 32 1004 70 4000 3.6 220 09:37 22.06.2020
1098 Haze 31 1004 74 4000 5.7 210 09:18 22.06.2020
1099 Haze 32 1004 70 4000 5.1 220 08:40 22.06.2020
1100 Haze 32 1004 70 4000 5.1 220 08:21 22.06.2020
1101 Haze 30 1004 79 3000 4.6 220 07:53 22.06.2020
1102 Haze 30 1004 79 3000 5.7 220 07:34 22.06.2020
1103 Haze 30 1004 84 3000 4.1 210 06:56 22.06.2020
1104 Haze 30 1004 89 3000 3.1 160 06:36 22.06.2020
1105 Haze 30 1004 89 3000 2.1 170 06:18 22.06.2020
1106 Mist 29 1004 89 3000 2.1 160 05:33 22.06.2020
1107 Haze 27 1002 94 3000 2.1 110 02:59 22.06.2020
1108 Haze 27 1002 94 3000 2.1 110 02:59 22.06.2020
1109 Haze 27 1002 88 3000 3.44 227 01:38 22.06.2020
1110 Haze 28 1002 94 3000 2.1 100 00:41 22.06.2020
1111 Haze 29 1003 89 3000 2.6 100 00:19 22.06.2020
1112 Haze 29 1003 89 3000 2.6 100 23:55 21.06.2020
1113 Haze 29 1003 89 3000 4.05 216 23:36 21.06.2020
1114 Haze 28 1003 94 3000 4.26 218 23:18 21.06.2020
1115 Haze 28 1003 94 3000 4.26 218 22:54 21.06.2020
1116 Haze 28 1003 94 3000 1.5 110 22:36 21.06.2020
1117 Haze 28 1003 94 3000 1.5 110 22:36 21.06.2020
1118 Haze 28 1004 94 3000 1.5 100 22:18 21.06.2020
1119 Haze 28 1004 88 2500 4.74 217 21:42 21.06.2020
1120 Haze 28 1004 88 2500 5.07 228 21:23 21.06.2020
1121 Rain 28 1004 88 2500 3.1 110 20:59 21.06.2020
1122 Thunderstorm 28 1005 94 2200 1.5 70 20:39 21.06.2020
1123 Thunderstorm 28 1005 94 2200 1.5 70 20:19 21.06.2020
1124 Thunderstorm 27 1005 94 2200 5.48 225 19:57 21.06.2020
1125 Thunderstorm 28 1005 88 1500 2.1 80 19:39 21.06.2020
1126 Thunderstorm 28 1005 88 1500 2.1 80 19:20 21.06.2020
1127 Thunderstorm 28 1005 88 2500 2.1 110 18:55 21.06.2020
1128 Rain 29 1005 83 3000 2.1 120 18:37 21.06.2020
1129 Haze 29 1004 83 4000 2.6 160 18:19 21.06.2020
1130 Haze 29 1004 83 4000 2.6 160 18:19 21.06.2020
1131 Haze 29 1004 83 4000 2.6 150 17:41 21.06.2020
1132 Haze 29 1004 83 4000 2.6 150 17:21 21.06.2020
1133 Haze 30 1004 79 4000 3.6 210 16:57 21.06.2020
1134 Haze 30 1004 79 4000 3.6 200 16:39 21.06.2020
1135 Haze 30 1004 79 4000 3.6 200 16:21 21.06.2020
1136 Haze 30 1003 79 4000 4.6 210 15:40 21.06.2020
1137 Haze 30 1003 79 4000 4.6 210 15:40 21.06.2020
1138 Haze 30 1003 79 4000 4.6 210 15:22 21.06.2020
1139 Drizzle 30 1003 79 4000 5.7 210 14:58 21.06.2020
1140 Haze 31 1003 74 5000 5.1 210 14:37 21.06.2020
1141 Haze 31 1003 70 5000 4.1 210 14:19 21.06.2020
1142 Haze 31 1003 70 5000 4.1 210 13:55 21.06.2020
1143 Haze 32 1003 75 5000 5.1 200 13:36 21.06.2020
1144 Haze 31 1003 74 5000 6.2 240 13:18 21.06.2020
1145 Haze 31 1004 79 5000 5.1 200 12:42 21.06.2020
1146 Haze 31 1004 79 5000 5.1 200 12:23 21.06.2020
1147 Haze 31 1005 74 5000 4.1 210 11:43 21.06.2020
1148 Haze 31 1005 74 5000 4.1 210 11:25 21.06.2020
1149 Haze 31 1005 74 5000 3.6 200 10:59 21.06.2020
1150 Haze 32 1005 75 5000 6.2 230 10:40 21.06.2020
1151 Haze 32 1005 75 5000 6.2 230 10:22 21.06.2020
1152 Haze 31 1005 84 5000 5.1 200 09:55 21.06.2020
1153 Haze 31 1005 74 5000 5.1 210 09:36 21.06.2020
1154 Haze 30 1006 79 5000 5.7 210 09:18 21.06.2020
1155 Haze 31 1006 74 4000 5.1 230 08:41 21.06.2020
1156 Haze 31 1006 74 4000 5.1 210 08:21 21.06.2020
1157 Haze 31 1006 74 4000 5.1 210 07:59 21.06.2020
1158 Haze 31 1006 74 4000 5.7 230 07:40 21.06.2020
1159 Haze 31 1006 74 4000 5.7 230 07:20 21.06.2020
1160 Haze 31 1006 74 4000 5.7 230 07:20 21.06.2020
1161 Rain 30 1006 84 3000 5.7 230 06:46 21.06.2020
1162 Rain 30 1005 74 3000 5.7 210 05:58 21.06.2020
1163 Haze 30 1005 79 3000 3.6 220 04:50 21.06.2020
1164 Rain 29 1004 83 3500 2.1 190 03:20 21.06.2020
1165 Haze 29 1004 83 3000 3.1 190 02:53 21.06.2020
1166 Haze 29 1004 89 3000 2.6 190 01:48 21.06.2020
1167 Haze 29 1004 89 3000 2.6 190 01:21 21.06.2020
1168 Rain 29 1004 89 3000 2.6 190 00:55 21.06.2020
1169 Haze 29 1004 89 3000 1.5 170 00:36 21.06.2020
1170 Haze 29 1005 83 3000 2.6 200 00:18 21.06.2020
1171 Haze 29 1005 83 3000 3.1 170 23:41 20.06.2020
1172 Haze 29 1005 83 3000 3.1 170 23:21 20.06.2020
1173 Haze 29 1005 83 3000 3.1 200 22:55 20.06.2020
1174 Haze 29 1005 83 3000 3.1 200 22:55 20.06.2020
1175 Haze 29 1006 83 3000 2.6 180 22:37 20.06.2020
1176 Haze 30 1006 84 3000 4.6 190 22:18 20.06.2020
1177 Haze 30 1006 84 3000 4.1 200 21:55 20.06.2020
1178 Haze 30 1006 84 3000 4.1 200 21:37 20.06.2020
1179 Haze 30 1007 84 3000 3.6 190 21:19 20.06.2020
1180 Haze 30 1007 84 3000 3.6 190 20:55 20.06.2020
1181 Haze 30 1007 84 3000 3.6 190 20:36 20.06.2020
1182 Haze 30 1007 84 3000 2.6 180 20:18 20.06.2020
1183 Haze 30 1007 84 3000 2.1 190 19:42 20.06.2020
1184 Haze 30 1007 84 3000 2.1 190 19:22 20.06.2020
1185 Haze 30 1006 84 3000 5.2 212 18:43 20.06.2020
1186 Haze 29 1006 89 3000 2.6 170 18:21 20.06.2020
1187 Haze 29 1006 89 3000 2.6 170 17:59 20.06.2020
1188 Haze 29 1006 89 3000 2.1 170 17:41 20.06.2020
1189 Haze 29 1006 89 3000 2.1 170 17:21 20.06.2020
1190 Haze 30 1006 84 3000 3.6 190 16:58 20.06.2020
1191 Haze 30 1006 84 3500 4.6 200 16:38 20.06.2020
1192 Haze 31 1005 74 4000 5.7 220 16:18 20.06.2020
1193 Haze 31 1005 74 5000 5.7 220 15:42 20.06.2020
1194 Haze 31 1005 79 5000 5.1 210 15:18 20.06.2020
1195 Haze 31 1005 79 5000 5.1 210 14:55 20.06.2020
1196 Haze 31 1005 79 5000 3.6 210 14:36 20.06.2020
1197 Haze 32 1005 70 5000 3.6 230 14:18 20.06.2020
1198 Haze 31 1005 74 5000 3.6 200 13:41 20.06.2020
1199 Haze 32 1005 75 5000 3.6 210 13:19 20.06.2020
1200 Haze 32 1005 75 4000 5.7 230 12:43 20.06.2020
1201 Haze 32 1005 75 4000 5.7 230 12:22 20.06.2020
1202 Haze 32 1006 75 4000 6.7 220 11:58 20.06.2020
1203 Haze 32 1006 75 4000 6.7 220 11:38 20.06.2020
1204 Haze 32 1006 75 4000 6.7 220 11:20 20.06.2020
1205 Haze 32 1006 75 4000 5.1 200 10:57 20.06.2020
1206 Haze 33 1006 70 4000 6.2 210 10:38 20.06.2020
1207 Haze 32 1006 75 4000 3.6 200 10:18 20.06.2020
1208 Haze 32 1006 75 4000 3.6 230 09:40 20.06.2020
1209 Haze 32 1006 75 4000 3.6 230 09:22 20.06.2020
1210 Haze 32 1007 75 4000 7.2 220 08:56 20.06.2020
1211 Rain 30 1007 75 4000 6.7 220 08:38 20.06.2020
1212 Haze 32 1007 75 4000 5.7 230 08:20 20.06.2020
1213 Haze 31 1007 74 4000 5.7 200 07:44 20.06.2020
1214 Haze 31 1007 74 4000 5.7 200 07:25 20.06.2020
1215 Haze 31 1007 74 4000 5.7 200 07:25 20.06.2020
1216 Haze 30 1007 84 3500 3.1 180 06:40 20.06.2020
1217 Haze 30 1007 84 3500 3.6 180 06:18 20.06.2020
1218 Haze 29 1006 89 3000 1.5 190 05:47 20.06.2020
1219 Haze 29 1005 83 3000 4.53 185 03:22 20.06.2020
1220 Haze 29 1004 89 3000 3.6 200 01:53 20.06.2020
1221 Haze 29 1004 89 3000 3.1 200 01:35 20.06.2020
1222 Haze 29 1004 89 3000 2.6 200 00:42 20.06.2020
1223 Haze 29 1004 89 3000 2.6 200 00:19 20.06.2020
1224 Haze 29 1004 89 3000 4.1 200 23:40 19.06.2020
1225 Haze 29 1005 89 3000 2.1 190 23:19 19.06.2020
1226 Haze 29 1005 89 3000 2.1 190 22:55 19.06.2020
1227 Haze 29 1005 89 3000 2.6 170 22:37 19.06.2020
1228 Haze 29 1006 89 3000 2.1 180 22:18 19.06.2020
1229 Haze 29 1006 89 3000 2.1 180 21:54 19.06.2020
1230 Haze 29 1006 89 3000 2.1 190 21:36 19.06.2020
1231 Haze 29 1006 94 3000 2.6 180 21:18 19.06.2020
1232 Haze 29 1006 94 3000 2.6 180 20:55 19.06.2020
1233 Haze 29 1006 94 3000 2.6 190 20:37 19.06.2020
1234 Haze 29 1006 94 3500 3.1 190 20:18 19.06.2020
1235 Haze 29 1006 89 3500 2.1 210 19:41 19.06.2020
1236 Haze 29 1006 89 3500 2.1 210 19:41 19.06.2020
1237 Haze 29 1006 89 3500 2.1 210 19:23 19.06.2020
1238 Haze 29 1006 89 3500 2.6 180 18:59 19.06.2020
1239 Haze 30 1006 84 3500 4.1 200 18:39 19.06.2020
1240 Haze 30 1006 84 3500 4.1 200 18:20 19.06.2020
1241 Haze 30 1005 84 4000 2.6 190 17:42 19.06.2020
1242 Haze 30 1005 84 4000 2.6 190 17:42 19.06.2020
1243 Haze 30 1005 84 4000 2.6 190 17:23 19.06.2020
1244 Haze 30 1005 84 5000 3.1 190 16:58 19.06.2020
1245 Haze 30 1004 84 5000 4.1 210 16:39 19.06.2020
1246 Haze 30 1004 84 5000 4.1 210 16:21 19.06.2020
1247 Haze 31 1004 79 5000 3.6 200 15:45 19.06.2020
1248 Haze 31 1004 79 5000 3.6 200 15:26 19.06.2020
1249 Haze 31 1004 79 5000 4.1 210 14:58 19.06.2020
1250 Smoke 31 1004 89 5000 5.7 210 14:40 19.06.2020
1251 Smoke 31 1004 89 5000 5.7 210 14:21 19.06.2020
1252 Smoke 31 1004 79 5000 5.7 210 13:58 19.06.2020
1253 Smoke 32 1004 75 4000 5.7 210 13:40 19.06.2020
1254 Smoke 32 1004 75 4000 5.7 210 13:22 19.06.2020
1255 Smoke 32 1005 70 4000 6.7 230 12:45 19.06.2020
1256 Smoke 32 1005 70 4000 6.7 230 12:21 19.06.2020
1257 Smoke 32 1005 75 4000 6.7 220 11:56 19.06.2020
1258 Smoke 32 1005 79 4000 6.7 210 11:36 19.06.2020
1259 Smoke 32 1005 75 4000 7.2 230 11:18 19.06.2020
1260 Smoke 32 1005 79 4000 6.2 240 10:41 19.06.2020
1261 Smoke 32 1006 75 3500 5.7 220 10:21 19.06.2020
1262 Smoke 32 1006 75 3500 5.7 220 09:56 19.06.2020
1263 Smoke 32 1006 75 3500 6.2 220 09:37 19.06.2020
1264 Drizzle 31 1006 79 3500 6.2 210 09:19 19.06.2020
1265 Drizzle 31 1006 84 3000 5.7 200 08:41 19.06.2020
1266 Drizzle 31 1006 84 3000 5.7 200 08:23 19.06.2020
1267 Haze 31 1006 84 2200 3.6 210 07:42 19.06.2020
1268 Haze 31 1006 84 2200 3.6 210 07:22 19.06.2020
1269 Haze 30 1006 89 2200 4.1 160 06:59 19.06.2020
1270 Haze 30 1006 89 2200 3.6 180 06:23 19.06.2020
1271 Rain 28 1006 94 2200 1.5 90 05:34 19.06.2020
1272 Rain 29 1005 100 2200 1.5 110 04:23 19.06.2020
1273 Rain 27 1004 94 2200 2.1 90 02:27 19.06.2020
1274 Haze 27 1003 94 2200 2.6 110 00:47 19.06.2020
1275 Haze 27 1003 94 2200 2.6 110 00:22 19.06.2020
1276 Haze 27 1004 94 2200 3.1 110 23:58 18.06.2020
1277 Haze 27 1004 94 2200 3.1 100 23:40 18.06.2020
1278 Haze 27 1004 94 2200 3.1 100 23:22 18.06.2020
1279 Haze 27 1004 94 2200 1.5 120 22:41 18.06.2020
1280 Haze 27 1004 94 2200 1.5 120 22:41 18.06.2020
1281 Haze 27 1004 94 2200 1.5 120 22:21 18.06.2020
1282 Haze 27 1004 94 2200 3.6 120 21:58 18.06.2020
1283 Haze 27 1004 94 2200 3.6 120 21:58 18.06.2020
1284 Haze 27 1005 94 2200 3.1 100 21:38 18.06.2020
1285 Haze 27 1005 94 2200 2.1 130 21:19 18.06.2020
1286 Haze 26 1005 100 2200 3.6 110 20:44 18.06.2020
1287 Haze 26 1005 100 2200 3.6 110 20:22 18.06.2020
1288 Haze 26 1005 100 2200 1.5 80 19:58 18.06.2020
1289 Haze 26 1005 100 2200 2.6 110 19:40 18.06.2020
1290 Haze 26 1005 100 2200 2.6 110 19:20 18.06.2020
1291 Rain 27 1005 100 2200 2.1 120 18:44 18.06.2020
1292 Rain 27 1005 100 2200 2.1 120 18:25 18.06.2020
1293 Rain 27 1005 94 2200 1.5 150 17:59 18.06.2020
1294 Rain 27 1005 94 2200 3.6 170 17:41 18.06.2020
1295 Rain 27 1005 94 2200 3.6 170 17:23 18.06.2020
1296 Thunderstorm 27 1004 94 2200 2.6 160 16:44 18.06.2020
1297 Thunderstorm 27 1004 94 2200 2.6 160 16:25 18.06.2020
1298 Thunderstorm 26 1004 100 2200 1.5 170 15:59 18.06.2020
1299 Thunderstorm 26 1003 100 2200 3.6 220 15:40 18.06.2020
1300 Thunderstorm 26 1003 100 2200 3.6 220 15:20 18.06.2020
1301 Thunderstorm 27 1003 94 2200 3.6 240 14:57 18.06.2020
1302 Thunderstorm 27 1003 100 2200 1.5 180 14:39 18.06.2020
1303 Thunderstorm 27 1003 100 2200 1.5 180 14:20 18.06.2020
1304 Thunderstorm 26 1003 100 2200 3.1 350 13:48 18.06.2020
1305 Thunderstorm 26 1003 100 2200 3.1 350 13:29 18.06.2020
1306 Thunderstorm 27 1003 100 150 3.1 320 12:58 18.06.2020
1307 Thunderstorm 27 1003 100 150 3.1 320 12:58 18.06.2020
1308 Thunderstorm 26 1003 100 1500 1.5 110 12:40 18.06.2020
1309 Thunderstorm 26 1003 100 1500 1.5 110 12:20 18.06.2020
1310 Thunderstorm 26 1003 100 2200 3.6 90 11:59 18.06.2020
1311 Thunderstorm 26 1003 100 2200 3.6 90 11:40 18.06.2020
1312 Thunderstorm 26 1003 100 2200 3.6 90 11:19 18.06.2020
1313 Thunderstorm 26 1004 94 1500 2.1 220 10:41 18.06.2020
1314 Rain 28 1003 94 600 5.7 230 10:19 18.06.2020
1315 Rain 28 1003 94 600 5.7 230 09:54 18.06.2020
1316 Rain 29 1003 94 2200 3.6 140 09:36 18.06.2020
1317 Rain 28 1004 94 1500 6.7 170 09:18 18.06.2020
1318 Haze 31 1003 79 4000 5.7 220 08:39 18.06.2020
1319 Haze 31 1003 79 4000 5.7 220 08:20 18.06.2020
1320 Haze 31 1004 79 4000 3.6 170 07:46 18.06.2020
1321 Haze 31 1004 79 4000 3.6 170 07:26 18.06.2020
1322 Rain 30 1004 84 4000 3.6 180 06:54 18.06.2020
1323 Haze 29 1003 83 4000 5.1 170 05:40 18.06.2020
1324 Haze 29 1002 83 4000 3.1 140 04:21 18.06.2020
1325 Haze 28 1001 88 3500 3.6 110 02:37 18.06.2020
1326 Drizzle 28 1001 83 3500 2.6 110 01:28 18.06.2020
1327 Drizzle 28 1001 83 3500 3.6 140 00:55 18.06.2020
1328 Drizzle 28 1001 83 4000 2.6 140 00:33 18.06.2020
1329 Drizzle 28 1001 83 4000 2.6 130 23:58 17.06.2020
1330 Haze 28 1001 83 4000 2.1 150 23:39 17.06.2020
1331 Haze 28 1001 83 4000 2.1 150 23:20 17.06.2020
1332 Haze 28 1001 83 4000 3.1 150 22:57 17.06.2020
1333 Haze 28 1001 83 4000 3.1 150 22:38 17.06.2020
1334 Haze 28 1001 83 4000 3.1 150 22:20 17.06.2020
1335 Haze 28 1001 83 4000 3.1 150 22:20 17.06.2020
1336 Haze 27 1002 88 4000 3.1 110 21:42 17.06.2020
1337 Haze 27 1002 88 4000 3.1 110 21:24 17.06.2020
1338 Haze 28 1002 83 4000 3.6 100 21:00 17.06.2020
1339 Haze 27 1002 88 4000 2.6 110 20:38 17.06.2020
1340 Haze 27 1002 88 4000 2.6 110 20:19 17.06.2020
1341 Haze 28 1003 83 4000 3.1 160 19:46 17.06.2020
1342 Haze 28 1003 83 4000 3.1 160 19:23 17.06.2020
1343 Haze 28 1002 83 4000 4.6 190 18:59 17.06.2020
1344 Haze 28 1002 83 4000 3.6 180 18:40 17.06.2020
1345 Haze 28 1002 83 4000 3.6 180 18:22 17.06.2020
1346 Haze 28 1002 88 3000 5.7 170 17:44 17.06.2020
1347 Haze 28 1002 88 3000 5.7 170 17:22 17.06.2020
1348 Rain 28 1002 88 2500 4.6 170 16:57 17.06.2020
1349 Rain 28 1002 88 2200 5.7 180 16:39 17.06.2020
1350 Drizzle 29 1001 79 4000 4.1 150 16:20 17.06.2020
1351 Drizzle 29 1001 79 4000 4.1 150 15:56 17.06.2020
1352 Haze 29 1001 79 5000 5.7 170 15:38 17.06.2020
1353 Haze 30 1000 74 5000 4.6 170 15:19 17.06.2020
1354 Haze 30 1000 74 5000 4.6 170 14:57 17.06.2020
1355 Haze 29 1000 79 5000 6.2 180 14:38 17.06.2020
1356 Haze 29 1000 79 5000 5.1 170 14:19 17.06.2020
1357 Haze 30 1000 74 5000 5.7 160 13:42 17.06.2020
1358 Haze 30 1000 74 5000 5.7 160 13:22 17.06.2020
1359 Haze 30 1000 79 5000 3.6 180 12:59 17.06.2020
1360 Haze 30 1000 74 4000 6.7 180 12:40 17.06.2020
1361 Haze 30 1000 74 4000 6.7 180 12:21 17.06.2020
1362 Haze 31 1000 74 4000 7.2 200 11:45 17.06.2020
1363 Haze 31 1000 74 4000 7.2 200 11:26 17.06.2020
1364 Haze 31 1000 70 4000 5.7 190 10:59 17.06.2020
1365 Haze 31 1000 74 4000 4.6 180 10:38 17.06.2020
1366 Haze 31 1000 74 4000 5.1 180 10:19 17.06.2020
1367 Haze 31 1000 74 4000 5.1 180 09:55 17.06.2020
1368 Haze 31 1001 70 3000 4.6 190 09:37 17.06.2020
1369 Haze 31 1001 70 3000 4.6 160 09:18 17.06.2020
1370 Haze 30 1002 74 3000 4.6 170 08:44 17.06.2020
1371 Haze 30 1002 74 3000 4.6 170 08:19 17.06.2020
1372 Haze 30 1002 74 3000 4.1 170 07:44 17.06.2020
1373 Haze 30 1002 74 3000 4.1 170 07:23 17.06.2020
1374 Haze 29 1002 83 3000 3.6 180 06:59 17.06.2020
1375 Haze 29 1002 83 3000 3.6 180 06:40 17.06.2020
1376 Haze 30 1002 79 3000 4.1 170 06:22 17.06.2020
1377 Haze 29 1002 83 3000 2.6 170 05:49 17.06.2020
1378 Haze 29 1002 83 3000 2.6 150 04:38 17.06.2020
1379 Haze 28 1001 88 3000 2.6 110 02:21 17.06.2020
1380 Haze 28 1000 88 3000 4.1 170 00:53 17.06.2020
1381 Haze 28 1000 88 3000 3.1 160 00:30 17.06.2020
1382 Rain 28 1000 88 3000 3.6 160 23:59 16.06.2020
1383 Haze 28 1000 88 3000 3.1 160 23:41 16.06.2020
1384 Haze 28 1000 88 3000 3.1 160 23:22 16.06.2020
1385 Haze 28 1001 88 3000 3.6 170 22:57 16.06.2020
1386 Haze 28 1001 88 3500 2.6 160 22:38 16.06.2020
1387 Haze 28 1001 88 3500 2.1 150 22:19 16.06.2020
1388 Haze 28 1001 88 3500 2.1 150 22:19 16.06.2020
1389 Haze 28 1001 88 3500 2.1 150 21:57 16.06.2020
1390 Haze 28 1001 88 3500 3.1 170 21:39 16.06.2020
1391 Haze 28 1001 88 3500 3.1 170 21:20 16.06.2020
1392 Haze 29 1002 89 3500 3.1 160 20:43 16.06.2020
1393 Haze 29 1002 83 3500 3.6 150 20:22 16.06.2020
1394 Haze 29 1002 83 3500 3.6 150 19:58 16.06.2020
1395 Haze 29 1002 83 3500 4.1 140 19:40 16.06.2020
1396 Haze 29 1002 83 3500 4.1 140 19:22 16.06.2020
1397 Haze 29 1002 89 3500 4.6 160 18:58 16.06.2020
1398 Haze 29 1002 89 4000 2.6 180 18:39 16.06.2020
1399 Haze 29 1002 89 4000 3.6 190 18:20 16.06.2020
1400 Haze 29 1002 89 4000 3.6 190 17:56 16.06.2020
1401 Haze 29 1002 83 4000 3.6 200 17:37 16.06.2020
1402 Haze 29 1001 83 4000 4.1 190 17:19 16.06.2020
1403 Haze 29 1001 83 4000 4.1 190 16:55 16.06.2020
1404 Haze 29 1001 83 5000 4.1 210 16:37 16.06.2020
1405 Haze 30 1000 79 5000 4.6 220 16:18 16.06.2020
1406 Haze 30 1000 79 5000 4.6 220 15:56 16.06.2020
1407 Haze 30 1000 79 5000 4.6 220 15:56 16.06.2020
1408 Haze 30 1000 79 5000 5.1 240 15:37 16.06.2020
1409 Haze 30 1000 79 5000 5.1 240 15:19 16.06.2020
1410 Haze 30 1000 79 5000 5.1 230 14:43 16.06.2020
1411 Haze 30 1000 79 5000 5.1 230 14:25 16.06.2020
1412 Haze 30 999 79 5000 6.2 230 13:55 16.06.2020
1413 Haze 30 999 79 5000 5.7 230 13:37 16.06.2020
1414 Haze 30 999 79 4000 5.7 230 13:18 16.06.2020
1415 Haze 31 999 74 4000 5.1 230 12:41 16.06.2020
1416 Haze 31 999 74 4000 5.1 230 12:21 16.06.2020
1417 Haze 30 1000 79 4000 3.1 210 11:56 16.06.2020
1418 Haze 30 1000 84 4000 3.6 230 11:37 16.06.2020
1419 Haze 30 1000 84 4000 3.6 230 11:37 16.06.2020
1420 Haze 30 1000 84 4000 3.6 230 11:19 16.06.2020
1421 Haze 30 1001 84 3500 4.1 200 10:43 16.06.2020
1422 Haze 29 1001 83 3500 4.1 220 10:21 16.06.2020
1423 Haze 29 1001 83 3500 4.1 220 09:58 16.06.2020
1424 Haze 30 1002 79 3500 2.1 190 09:40 16.06.2020
1425 Haze 30 1002 79 3500 2.1 190 09:21 16.06.2020
1426 Haze 28 1002 94 3000 2.6 230 08:48 16.06.2020
1427 Haze 28 1002 94 3000 2.6 230 08:30 16.06.2020
1428 Drizzle 28 1002 94 2200 2.6 210 07:51 16.06.2020
1429 Rain 27 1003 100 1500 3.6 220 07:27 16.06.2020
1430 Haze 28 1003 88 3500 3.6 190 06:54 16.06.2020
1431 Haze 28 1003 94 3000 2.1 180 06:27 16.06.2020
1432 Haze 28 1002 94 3000 3.1 220 05:45 16.06.2020
1433 Drizzle 28 1002 94 3500 2.6 170 04:40 16.06.2020
1434 Thunderstorm 28 1000 94 4000 2.1 110 03:00 16.06.2020
1435 Thunderstorm 28 1000 94 4000 3.1 120 02:18 16.06.2020
1436 Thunderstorm 28 1000 94 4000 2.1 110 01:31 16.06.2020
1437 Thunderstorm 28 1000 94 4000 2.6 90 00:52 16.06.2020
1438 Thunderstorm 28 1000 94 4000 1.5 110 00:22 16.06.2020
1439 Thunderstorm 28 1000 94 5000 2.1 100 23:43 15.06.2020
1440 Thunderstorm 28 1000 94 5000 2.1 100 23:23 15.06.2020
1441 Thunderstorm 28 1000 94 6000 2.1 90 22:56 15.06.2020
1442 Thunderstorm 28 1001 94 6000 1.5 100 22:38 15.06.2020
1443 Clouds 28 1001 94 6000 1 170 22:19 15.06.2020
1444 Clouds 28 1001 94 6000 1 170 21:56 15.06.2020
1445 Clouds 28 1001 94 6000 1 150 21:37 15.06.2020
1446 Clouds 28 1001 88 6000 1 180 21:19 15.06.2020
1447 Clouds 28 1001 88 6000 1 180 20:56 15.06.2020
1448 Haze 28 1002 88 5000 1.5 160 20:37 15.06.2020
1449 Haze 28 1002 88 4500 2.1 180 20:19 15.06.2020
1450 Haze 28 1002 88 4500 2.1 180 19:55 15.06.2020
1451 Thunderstorm 28 1002 94 4000 3.1 110 19:37 15.06.2020
1452 Thunderstorm 28 1002 94 4000 2.1 110 19:19 15.06.2020
1453 Thunderstorm 28 1002 94 4000 2.1 110 18:55 15.06.2020
1454 Haze 28 1002 94 4000 2.6 90 18:37 15.06.2020
1455 Haze 29 1002 89 4000 2.6 90 18:18 15.06.2020
1456 Smoke 29 1002 89 4000 1.5 80 17:42 15.06.2020
1457 Smoke 29 1002 89 4000 1.5 80 17:21 15.06.2020
1458 Haze 29 1001 89 3000 4.9 178 16:59 15.06.2020
1459 Haze 29 1001 89 3000 1.5 140 16:40 15.06.2020
1460 Haze 29 1001 89 3000 2.6 180 16:19 15.06.2020
1461 Haze 28 1001 89 3000 2.6 180 15:56 15.06.2020
1462 Haze 28 1001 89 3000 5.53 178 15:37 15.06.2020
1463 Drizzle 28 1000 89 3000 4.63 190 15:18 15.06.2020
1464 Drizzle 28 1000 94 2500 1 300 14:42 15.06.2020
1465 Drizzle 28 1000 94 2500 2.1 270 14:21 15.06.2020
1466 Drizzle 28 1000 94 2500 2.1 270 13:59 15.06.2020
1467 Rain 27 1000 100 2100 3.6 280 13:41 15.06.2020
1468 Rain 27 1000 100 2100 3.6 280 13:22 15.06.2020
1469 Thunderstorm 27 1000 83 500 4.1 310 12:57 15.06.2020
1470 Rain 28 1001 88 2100 3.6 340 12:39 15.06.2020
1471 Rain 30 1001 74 3000 5.1 260 12:21 15.06.2020
1472 Rain 32 1001 70 4000 5.7 240 11:43 15.06.2020
1473 Rain 32 1001 70 4000 5.7 240 11:25 15.06.2020
1474 Haze 32 1002 70 4000 5.7 230 10:44 15.06.2020
1475 Haze 32 1002 70 4000 5.7 230 10:23 15.06.2020
1476 Rain 32 1002 66 4000 6.2 220 09:56 15.06.2020
1477 Haze 32 1002 66 4000 5.1 230 09:38 15.06.2020
1478 Haze 32 1002 70 4000 4.1 190 09:19 15.06.2020
1479 Haze 31 1003 79 4000 4.6 180 08:39 15.06.2020
1480 Haze 31 1003 79 4000 4.6 180 08:21 15.06.2020
1481 Haze 31 1003 74 3000 4.6 220 07:46 15.06.2020
1482 Haze 31 1003 74 3000 4.6 220 07:46 15.06.2020
1483 Haze 31 1003 74 3000 4.6 220 07:28 15.06.2020
1484 Haze 30 1003 84 3000 3.1 150 06:49 15.06.2020
1485 Haze 30 1003 84 3000 3.1 150 06:25 15.06.2020
1486 Haze 30 1003 84 3000 2.1 120 05:46 15.06.2020
1487 Haze 30 1003 84 3000 2.1 120 05:26 15.06.2020
1488 Haze 28 1002 94 3000 1.5 60 04:20 15.06.2020
1489 Rain 28 1002 94 3000 1.5 40 03:41 15.06.2020
1490 Drizzle 28 1002 88 3500 1.5 170 02:54 15.06.2020
1491 Haze 28 1002 88 4000 1.5 150 01:58 15.06.2020
1492 Haze 28 1001 88 4000 1.5 150 01:35 15.06.2020
1493 Haze 29 1001 89 4000 2.6 120 00:59 15.06.2020
1494 Haze 29 1001 89 4000 2.6 100 00:39 15.06.2020
1495 Haze 29 1001 83 4000 1.5 110 00:20 15.06.2020
1496 Haze 29 1001 83 4000 1.5 120 23:47 14.06.2020
1497 Haze 29 1001 83 4000 1.5 120 23:25 14.06.2020
1498 Haze 29 1002 83 4000 2.1 140 22:58 14.06.2020
1499 Haze 29 1002 83 4000 1.5 160 22:39 14.06.2020
1500 Haze 29 1002 83 4000 1.5 160 22:20 14.06.2020
1501 Haze 29 1002 83 4000 1.5 160 22:20 14.06.2020
1502 Haze 29 1002 83 4000 1.5 110 21:57 14.06.2020
1503 Haze 29 1002 83 4000 2.1 170 21:38 14.06.2020
1504 Haze 29 1003 89 4000 1.5 150 21:19 14.06.2020
1505 Haze 29 1003 89 4000 1.5 150 20:58 14.06.2020
1506 Haze 29 1003 89 4000 2.1 140 20:38 14.06.2020
1507 Haze 29 1003 89 4000 2.1 140 20:20 14.06.2020
1508 Haze 30 1003 84 4000 2.6 150 19:59 14.06.2020
1509 Haze 30 1003 84 4000 3.1 160 19:38 14.06.2020
1510 Haze 30 1003 84 4000 2.6 160 19:19 14.06.2020
1511 Haze 30 1003 84 4000 2.6 160 19:19 14.06.2020
1512 Haze 30 1003 84 4000 2.6 160 18:57 14.06.2020
1513 Haze 30 1003 84 4000 3.6 180 18:39 14.06.2020
1514 Haze 30 1002 84 4000 3.1 200 18:20 14.06.2020
1515 Haze 30 1002 84 4000 3.1 200 17:58 14.06.2020
1516 Haze 30 1002 79 4000 3.1 220 17:39 14.06.2020
1517 Haze 30 1002 84 5000 3.1 220 17:19 14.06.2020
1518 Haze 30 1002 84 5000 4.1 220 16:41 14.06.2020
1519 Haze 30 1001 79 5000 4.6 220 16:22 14.06.2020
1520 Haze 30 1001 79 5000 4.6 220 15:59 14.06.2020
1521 Haze 31 1001 79 5000 4.6 230 15:40 14.06.2020
1522 Haze 31 1001 74 5000 6.2 230 15:19 14.06.2020
1523 Haze 31 1001 74 5000 6.2 230 15:19 14.06.2020
1524 Haze 31 1001 74 5000 6.2 230 14:59 14.06.2020
1525 Haze 31 1001 74 5000 5.7 220 14:40 14.06.2020
1526 Haze 31 1001 74 5000 5.7 220 14:21 14.06.2020
1527 Haze 31 1001 74 5000 6.2 230 13:57 14.06.2020
1528 Haze 32 1001 70 5000 6.2 220 13:39 14.06.2020
1529 Haze 32 1001 70 5000 6.2 220 13:21 14.06.2020
1530 Haze 32 1001 75 5000 6.2 220 12:55 14.06.2020
1531 Haze 32 1001 75 5000 6.2 220 12:37 14.06.2020
1532 Haze 33 1001 70 4000 5.1 240 12:18 14.06.2020
1533 Haze 32 1001 70 4000 5.1 240 11:56 14.06.2020
1534 Haze 31 1001 70 4000 5.1 250 11:37 14.06.2020
1535 Haze 32 1002 66 4000 4.1 210 11:18 14.06.2020
1536 Haze 32 1002 70 4000 4.6 240 10:42 14.06.2020
1537 Haze 32 1002 70 3500 2.6 220 10:19 14.06.2020
1538 Haze 32 1003 66 3000 3.1 190 09:45 14.06.2020
1539 Haze 31 1003 66 3000 3.1 190 09:25 14.06.2020
1540 Rain 31 1003 74 3000 3.1 180 08:56 14.06.2020
1541 Haze 31 1004 74 3000 3.1 180 08:38 14.06.2020
1542 Haze 30 1004 79 3000 2.1 150 08:18 14.06.2020
1543 Haze 30 1004 79 3000 3.1 180 07:48 14.06.2020
1544 Haze 30 1004 79 3000 3.1 180 07:30 14.06.2020
1545 Haze 29 1004 83 3000 1.5 200 06:26 14.06.2020
1546 Haze 29 1003 83 3000 2.6 110 05:40 14.06.2020
1547 Haze 29 1003 89 3000 1.5 150 04:55 14.06.2020
1548 Haze 27 1002 94 3000 1.5 120 04:30 14.06.2020
1549 Haze 27 1002 94 3000 3.1 80 03:23 14.06.2020
1550 Haze 27 1001 94 3000 3.6 120 02:27 14.06.2020
1551 Haze 27 1001 94 3000 1.5 80 01:41 14.06.2020
1552 Haze 27 1001 94 3000 2.1 90 00:56 14.06.2020
1553 Haze 27 1000 94 3000 2.1 70 00:37 14.06.2020
1554 Haze 27 1000 94 3000 2.1 80 00:18 14.06.2020
1555 Haze 27 1001 94 3000 1.5 100 23:42 13.06.2020
1556 Haze 27 1001 94 3000 1.5 100 23:23 13.06.2020
1557 Haze 27 1001 94 3000 1.5 110 22:56 13.06.2020
1558 Haze 27 1001 94 3000 3.1 130 22:37 13.06.2020
1559 Haze 27 1002 94 3000 2.1 90 22:18 13.06.2020
1560 Haze 27 1002 94 3000 2.1 90 21:55 13.06.2020
1561 Drizzle 27 1002 94 2500 2.1 90 21:36 13.06.2020
1562 Drizzle 27 1003 94 2500 2.6 100 21:18 13.06.2020
1563 Drizzle 27 1003 94 2200 2.6 70 20:42 13.06.2020
1564 Thunderstorm 28 1003 88 2200 5.47 175 20:19 13.06.2020
1565 Thunderstorm 28 1003 88 2200 1.5 0 19:42 13.06.2020
1566 Thunderstorm 28 1003 88 2200 1.5 0 19:22 13.06.2020
1567 Thunderstorm 28 1003 88 2200 5.48 177 18:59 13.06.2020
1568 Thunderstorm 28 1002 94 2200 5.48 177 18:41 13.06.2020
1569 Thunderstorm 28 1002 94 2200 5.82 176 18:21 13.06.2020
1570 Thunderstorm 28 1002 94 2000 3.1 270 17:59 13.06.2020
1571 Drizzle 28 1001 88 3000 5.7 150 17:41 13.06.2020
1572 Drizzle 28 1001 88 3000 5.7 150 17:23 13.06.2020
1573 Rain 29 1001 83 4000 2.6 200 16:56 13.06.2020
1574 Haze 29 1000 83 4000 3.6 230 16:38 13.06.2020
1575 Haze 29 1000 83 4000 4.1 230 16:19 13.06.2020
1576 Haze 29 1000 83 4000 4.6 240 15:44 13.06.2020
1577 Haze 29 1000 83 4000 4.6 240 15:26 13.06.2020
1578 Haze 30 999 79 4000 4.6 220 14:58 13.06.2020
1579 Rain 30 999 74 4000 5.7 240 14:39 13.06.2020
1580 Haze 30 999 79 4000 5.7 220 14:20 13.06.2020
1581 Haze 30 999 79 4500 6.7 250 13:44 13.06.2020
1582 Haze 30 999 79 4500 6.7 250 13:26 13.06.2020
1583 Clouds 30 999 79 6000 6.7 260 12:45 13.06.2020
1584 Clouds 30 999 79 6000 6.7 260 12:27 13.06.2020
1585 Clouds 31 999 70 6000 6.7 250 11:59 13.06.2020
1586 Clouds 31 1000 74 6000 6.2 250 11:40 13.06.2020
1587 Haze 31 1000 74 5000 6.2 240 11:19 13.06.2020
1588 Haze 31 1000 74 5000 6.2 240 10:58 13.06.2020
1589 Haze 31 1000 74 5000 5.1 220 10:39 13.06.2020
1590 Haze 30 1001 79 5000 4.6 220 10:20 13.06.2020
1591 Haze 30 1001 79 5000 4.1 230 09:45 13.06.2020
1592 Haze 30 1001 79 5000 4.1 230 09:27 13.06.2020
1593 Haze 30 1001 79 4000 4.1 220 08:56 13.06.2020
1594 Haze 30 1001 79 4000 4.6 180 08:37 13.06.2020
1595 Haze 30 1001 79 4000 4.1 200 08:19 13.06.2020
1596 Haze 30 1001 79 4000 3.6 200 07:42 13.06.2020
1597 Haze 30 1001 79 4000 3.6 200 07:23 13.06.2020
1598 Haze 30 1001 79 4000 3.6 190 06:44 13.06.2020
1599 Haze 30 1001 79 4000 3.6 190 06:24 13.06.2020
1600 Haze 29 1001 83 4000 5.1 180 05:27 13.06.2020
1601 Haze 28 1001 88 4000 3.1 190 04:34 13.06.2020
1602 Haze 28 1000 88 2500 2.1 140 02:55 13.06.2020
1603 Haze 28 1000 88 2500 2.6 150 02:37 13.06.2020
1604 Haze 27 999 94 2500 2.1 100 01:47 13.06.2020
1605 Haze 27 999 94 2500 2.1 100 01:22 13.06.2020
1606 Haze 27 999 94 2500 1.5 120 00:45 13.06.2020
1607 Haze 27 999 94 2500 1.5 120 00:26 13.06.2020
1608 Drizzle 27 1000 94 2500 1.5 110 23:55 12.06.2020
1609 Haze 28 1000 88 3000 1.5 110 23:37 12.06.2020
1610 Haze 28 1000 88 3000 2.1 120 23:18 12.06.2020
1611 Haze 28 1000 88 3000 3.1 90 22:41 12.06.2020
1612 Haze 28 1000 88 3000 1.5 100 22:19 12.06.2020
1613 Haze 28 1001 88 3000 2.1 100 21:50 12.06.2020
1614 Haze 28 1001 88 3000 2.1 100 21:27 12.06.2020
1615 Haze 28 1001 88 3000 2.1 120 20:59 12.06.2020
1616 Haze 28 1001 94 3000 3.1 120 20:41 12.06.2020
1617 Haze 28 1001 94 3000 2.1 100 20:22 12.06.2020
1618 Haze 28 1001 94 3000 2.1 100 19:57 12.06.2020
1619 Haze 29 1001 89 3000 2.6 120 19:39 12.06.2020
1620 Haze 29 1001 89 3000 2.6 130 19:19 12.06.2020
1621 Drizzle 28 1000 94 3000 3.1 120 18:39 12.06.2020
1622 Rain 28 1000 94 3000 2.1 100 18:19 12.06.2020
1623 Rain 28 1000 94 3000 2.1 100 17:59 12.06.2020
1624 Rain 29 1000 89 3000 1.5 250 17:39 12.06.2020
1625 Rain 29 1000 89 3000 2.6 220 17:21 12.06.2020
1626 Rain 30 1000 79 2500 2.6 260 16:45 12.06.2020
1627 Haze 30 999 79 4000 3.1 240 16:21 12.06.2020
1628 Rain 30 999 84 4000 4.1 230 15:49 12.06.2020
1629 Rain 30 999 84 4000 4.1 230 15:27 12.06.2020
1630 Rain 30 999 79 4000 4.1 270 14:58 12.06.2020
1631 Haze 31 999 74 5000 4.6 240 14:39 12.06.2020
1632 Haze 31 999 74 5000 4.6 240 14:21 12.06.2020
1633 Haze 30 999 79 5000 5.1 250 13:42 12.06.2020
1634 Haze 30 999 79 5000 5.1 250 13:22 12.06.2020
1635 Haze 31 999 70 5000 4.6 240 12:41 12.06.2020
1636 Haze 31 999 70 5000 4.6 240 12:20 12.06.2020
1637 Haze 31 1000 70 5000 4.6 240 11:59 12.06.2020
1638 Haze 30 1000 74 4500 3.6 250 11:40 12.06.2020
1639 Haze 30 1001 74 4000 4.1 250 11:22 12.06.2020
1640 Haze 30 1001 79 5000 4.1 240 10:47 12.06.2020
1641 Haze 30 1001 79 5000 4.1 240 10:25 12.06.2020
1642 Haze 31 1001 70 5000 4.6 270 09:48 12.06.2020
1643 Haze 31 1001 70 5000 4.6 270 09:22 12.06.2020
1644 Haze 31 1002 66 5000 2.1 220 08:46 12.06.2020
1645 Haze 31 1002 66 5000 2.1 220 08:25 12.06.2020
1646 Haze 31 1001 70 5000 3.1 160 07:57 12.06.2020
1647 Haze 31 1002 74 5000 3.1 160 07:39 12.06.2020
1648 Haze 31 1002 74 5000 3.1 160 07:20 12.06.2020
1649 Haze 30 1002 74 4500 1.5 140 06:38 12.06.2020
1650 Haze 30 1002 74 4000 1.5 160 06:19 12.06.2020
1651 Haze 30 1002 74 4000 2.6 100 05:47 12.06.2020
1652 Haze 30 1002 74 4000 2.6 100 05:20 12.06.2020
1653 Haze 28 1001 83 4000 1.5 110 03:43 12.06.2020
1654 Haze 28 1001 83 3500 2.6 150 01:58 12.06.2020
1655 Haze 28 1000 83 3500 1.5 140 01:33 12.06.2020
1656 Haze 28 1000 88 3500 1.5 160 00:57 12.06.2020
1657 Haze 28 1001 88 3500 2.1 120 00:38 12.06.2020
1658 Haze 28 1001 88 3500 3.1 120 00:19 12.06.2020
1659 Haze 28 1001 88 3500 3.1 120 23:56 11.06.2020
1660 Haze 28 1001 88 3500 3.1 120 23:36 11.06.2020
1661 Haze 28 1001 88 4000 3.1 110 23:18 11.06.2020
1662 Haze 28 1001 88 4000 2.6 110 22:40 11.06.2020
1663 Haze 28 1001 88 4000 2.6 110 22:21 11.06.2020
1664 Haze 28 1001 88 4000 2.1 110 21:57 11.06.2020
1665 Haze 28 1002 88 4000 2.6 110 21:38 11.06.2020
1666 Haze 28 1002 88 4000 2.6 110 21:20 11.06.2020
1667 Haze 28 1002 88 4000 2.6 110 20:55 11.06.2020
1668 Haze 29 1002 89 4000 2.1 160 20:37 11.06.2020
1669 Haze 29 1002 89 4000 2.1 150 20:19 11.06.2020
1670 Haze 29 1003 89 4000 2.1 140 19:41 11.06.2020
1671 Haze 29 1003 89 4000 2.1 140 19:22 11.06.2020
1672 Haze 29 1002 89 4000 3.1 180 18:43 11.06.2020
1673 Haze 29 1002 89 4000 3.1 180 18:25 11.06.2020
1674 Haze 30 1002 84 4000 2.6 170 17:57 11.06.2020
1675 Haze 30 1002 84 4000 3.1 170 17:39 11.06.2020
1676 Haze 30 1002 84 4000 2.6 160 17:20 11.06.2020
1677 Haze 30 1002 84 4000 2.6 160 16:59 11.06.2020
1678 Haze 30 1001 79 4000 2.1 180 16:41 11.06.2020
1679 Haze 30 1001 79 4000 2.1 180 16:23 11.06.2020
1680 Haze 30 1001 79 4000 4.6 210 15:57 11.06.2020
1681 Rain 30 1001 79 4000 4.6 230 15:38 11.06.2020
1682 Haze 31 1001 79 5000 4.6 220 15:19 11.06.2020
1683 Haze 31 1001 79 5000 4.6 240 14:43 11.06.2020
1684 Haze 31 1001 79 5000 4.6 240 14:21 11.06.2020
1685 Haze 31 1001 74 4500 4.6 220 13:56 11.06.2020
1686 Haze 31 1001 70 4000 6.2 250 13:38 11.06.2020
1687 Rain 31 1001 70 4000 4.6 240 13:20 11.06.2020
1688 Rain 31 1001 70 4000 4.6 210 12:56 11.06.2020
1689 Rain 31 1001 70 4000 4.6 210 12:38 11.06.2020
1690 Rain 31 1002 74 4000 5.1 220 12:19 11.06.2020
1691 Rain 31 1002 74 4000 5.1 220 11:57 11.06.2020
1692 Haze 32 1002 70 5000 5.1 240 11:38 11.06.2020
1693 Haze 32 1002 70 5000 5.1 240 11:19 11.06.2020
1694 Haze 32 1002 66 5000 5.7 220 10:54 11.06.2020
1695 Haze 32 1002 66 5000 6.7 240 10:36 11.06.2020
1696 Haze 32 1002 66 5000 6.7 240 10:18 11.06.2020
1697 Haze 32 1003 70 5000 4.1 200 09:40 11.06.2020
1698 Haze 32 1003 70 5000 4.1 200 09:22 11.06.2020
1699 Haze 31 1004 74 5000 4.1 200 08:43 11.06.2020
1700 Haze 31 1004 74 5000 4.1 200 08:19 11.06.2020
1701 Haze 31 1004 74 5000 4.1 200 08:19 11.06.2020
1702 Haze 30 1004 79 3500 3.1 130 07:42 11.06.2020
1703 Haze 31 1004 74 3500 3.6 110 07:24 11.06.2020
1704 Haze 31 1004 74 4000 2.1 110 06:40 11.06.2020
1705 Haze 30 1004 74 4000 2.62 201 06:21 11.06.2020
1706 Haze 28 1004 83 4000 2.41 197 05:28 11.06.2020
1707 Rain 27 1004 94 2800 4.6 280 03:28 11.06.2020
1708 Haze 27 1003 94 3000 2.6 150 02:50 11.06.2020
1709 Thunderstorm 27 1003 94 2800 1.5 130 02:31 11.06.2020
1710 Thunderstorm 27 1003 94 2500 3.1 190 01:43 11.06.2020
1711 Thunderstorm 27 1003 94 2500 2.1 220 01:22 11.06.2020
1712 Thunderstorm 28 1003 88 2500 2.6 210 00:45 11.06.2020
1713 Haze 28 1003 88 2500 2.76 275 00:26 11.06.2020
1714 Rain 27 1003 88 2200 2.76 275 23:43 10.06.2020
1715 Rain 28 1004 83 2500 5.1 200 23:24 10.06.2020
1716 Rain 28 1004 83 2500 5.1 200 22:56 10.06.2020
1717 Haze 30 1004 84 3000 3.14 268 22:37 10.06.2020
1718 Thunderstorm 30 1005 79 3500 2.1 220 22:19 10.06.2020
1719 Thunderstorm 30 1005 79 3500 2.1 220 21:55 10.06.2020
1720 Thunderstorm 30 1005 74 3500 1.5 210 21:37 10.06.2020
1721 Thunderstorm 30 1005 74 3500 2.1 240 21:18 10.06.2020
1722 Thunderstorm 30 1005 74 3500 2.1 240 20:56 10.06.2020
1723 Thunderstorm 30 1005 74 3500 2.1 240 20:37 10.06.2020
1724 Haze 30 1005 79 3500 2.6 240 20:19 10.06.2020
1725 Haze 30 1005 79 3500 4.1 260 19:40 10.06.2020
1726 Thunderstorm 30 1005 84 3500 3.6 280 19:19 10.06.2020
1727 Haze 30 1005 84 3500 4.6 240 18:57 10.06.2020
1728 Haze 30 1005 84 3500 3.6 240 18:39 10.06.2020
1729 Haze 30 1005 84 3500 3.6 240 18:19 10.06.2020
1730 Haze 30 1005 84 3500 3.6 240 17:55 10.06.2020
1731 Haze 30 1005 84 3500 4.6 250 17:55 10.06.2020
1732 Haze 30 1005 84 3500 4.6 250 17:36 10.06.2020
1733 Haze 30 1004 84 3500 4.1 250 17:18 10.06.2020
1734 Haze 30 1004 84 3500 4.1 250 16:56 10.06.2020
1735 Haze 30 1004 79 4000 5.7 230 16:38 10.06.2020
1736 Haze 30 1004 84 5000 5.1 240 16:18 10.06.2020
1737 Haze 30 1003 79 5000 4.6 240 15:40 10.06.2020
1738 Haze 30 1003 79 5000 4.6 240 15:40 10.06.2020
1739 Haze 31 1003 79 5000 6.7 240 15:21 10.06.2020
1740 Haze 31 1003 79 5000 6.7 240 14:56 10.06.2020
1741 Haze 31 1003 79 5000 6.7 250 14:38 10.06.2020
1742 Haze 31 1003 79 5000 6.7 250 14:19 10.06.2020
1743 Haze 32 1003 70 5000 6.2 260 13:40 10.06.2020
1744 Haze 32 1003 70 5000 5.7 240 13:21 10.06.2020
1745 Haze 32 1003 70 5000 6.7 270 12:44 10.06.2020
1746 Haze 32 1004 70 5000 6.7 230 12:20 10.06.2020
1747 Haze 32 1004 70 5000 6.7 230 11:58 10.06.2020
1748 Haze 33 1005 70 5000 6.2 250 11:40 10.06.2020
1749 Haze 32 1005 70 5000 6.2 260 11:19 10.06.2020
1750 Haze 32 1005 70 5000 6.2 260 10:57 10.06.2020
1751 Haze 32 1005 70 5000 6.2 260 10:39 10.06.2020
1752 Haze 32 1006 70 5000 5.7 240 10:20 10.06.2020
1753 Haze 32 1006 70 5000 5.7 240 09:41 10.06.2020
1754 Haze 32 1006 70 5000 5.7 240 09:41 10.06.2020
1755 Haze 32 1006 70 5000 5.7 250 09:22 10.06.2020
1756 Haze 32 1007 62 5000 5.7 210 08:44 10.06.2020
1757 Haze 32 1007 66 5000 5.7 230 08:24 10.06.2020
1758 Haze 32 1007 66 5000 5.7 230 07:57 10.06.2020
1759 Haze 32 1007 66 4000 3.1 220 07:38 10.06.2020
1760 Clouds 31 1006 74 4000 3.1 210 07:19 10.06.2020
1761 Haze 30 1006 79 4000 1.5 170 06:44 10.06.2020
1762 Haze 30 1007 79 4000 2.6 160 06:22 10.06.2020
1763 Haze 30 1007 79 4000 2.6 160 05:55 10.06.2020
1764 Haze 30 1006 79 4000 3.6 200 05:23 10.06.2020
1765 Haze 29 1006 83 4000 3.1 120 04:34 10.06.2020
1766 Haze 28 1005 88 3000 2.1 110 02:55 10.06.2020
1767 Haze 28 1005 88 3000 2.1 100 02:20 10.06.2020
1768 Haze 28 1005 88 3000 2.6 100 01:36 10.06.2020
1769 Haze 28 1005 88 4000 2.1 140 00:39 10.06.2020
1770 Haze 28 1005 88 4000 2.1 170 00:21 10.06.2020
1771 Haze 28 1005 88 4000 2.1 170 23:56 09.06.2020
1772 Haze 29 1005 83 4000 1.5 160 23:37 09.06.2020
1773 Haze 29 1005 83 4000 1.5 160 23:19 09.06.2020
1774 Haze 29 1005 83 4000 2.1 190 22:55 09.06.2020
1775 Haze 29 1006 83 4000 1.5 200 22:37 09.06.2020
1776 Haze 29 1006 83 4000 1.5 200 22:18 09.06.2020
1777 Haze 29 1006 83 4000 2.1 210 21:55 09.06.2020
1778 Haze 29 1006 83 4000 1.5 170 21:37 09.06.2020
1779 Haze 29 1007 83 4000 1.5 190 21:19 09.06.2020
1780 Haze 29 1007 83 4000 1.5 190 20:56 09.06.2020
1781 Haze 29 1007 83 4000 1.5 160 20:38 09.06.2020
1782 Haze 29 1007 83 4000 1.5 160 20:18 09.06.2020
1783 Haze 29 1007 83 4000 1.5 160 19:55 09.06.2020
1784 Haze 29 1007 79 4000 1.5 180 19:36 09.06.2020
1785 Haze 29 1006 79 4000 1.5 220 19:18 09.06.2020
1786 Haze 29 1006 79 4000 2.1 220 18:44 09.06.2020
1787 Haze 29 1006 79 4000 2.1 220 18:25 09.06.2020
1788 Haze 29 1006 74 4000 1.5 220 17:57 09.06.2020
1789 Haze 29 1006 74 4000 1.5 190 17:39 09.06.2020
1790 Haze 29 1006 74 4000 1.5 190 17:21 09.06.2020
1791 Haze 29 1005 74 4000 2.1 210 16:55 09.06.2020
1792 Haze 29 1005 79 4000 1.5 250 16:36 09.06.2020
1793 Haze 29 1005 79 4000 1.5 250 16:18 09.06.2020
1794 Haze 30 1005 70 5000 5.7 250 15:40 09.06.2020
1795 Haze 30 1005 70 5000 5.7 250 15:21 09.06.2020
1796 Haze 29 1005 79 5000 4.1 260 14:57 09.06.2020
1797 Haze 30 1005 74 5000 4.6 250 14:37 09.06.2020
1798 Haze 30 1005 74 5000 4.6 250 14:18 09.06.2020
1799 Haze 29 1005 83 5000 4.1 250 13:46 09.06.2020
1800 Haze 29 1005 79 5000 6.2 260 13:22 09.06.2020
1801 Haze 29 1005 79 5000 6.2 260 12:59 09.06.2020
1802 Haze 31 1005 79 5000 4.1 220 12:41 09.06.2020
1803 Clouds 31 1005 74 6000 3.6 220 12:19 09.06.2020
1804 Clouds 31 1005 74 6000 3.6 220 11:56 09.06.2020
1805 Clouds 31 1006 74 6000 5.1 220 11:37 09.06.2020
1806 Clouds 31 1006 74 6000 5.1 220 11:19 09.06.2020
1807 Clouds 31 1006 74 6000 5.1 220 11:19 09.06.2020
1808 Haze 31 1006 74 5000 4.1 220 10:45 09.06.2020
1809 Haze 31 1006 74 5000 4.1 220 10:27 09.06.2020
1810 Haze 31 1006 70 5000 3.6 210 09:57 09.06.2020
1811 Haze 32 1006 66 5000 6.2 230 09:38 09.06.2020
1812 Haze 32 1006 66 5000 6.2 230 09:18 09.06.2020
1813 Haze 32 1007 70 5000 5.1 210 08:39 09.06.2020
1814 Haze 32 1007 70 5000 5.1 210 08:39 09.06.2020
1815 Haze 32 1007 70 5000 5.1 210 08:39 09.06.2020
1816 Haze 32 1007 70 5000 5.1 210 08:21 09.06.2020
1817 Haze 32 1007 70 5000 5.1 210 08:21 09.06.2020
1818 Haze 32 1007 70 4000 5.1 200 07:43 09.06.2020
1819 Haze 31 1007 79 4000 4.6 180 07:23 09.06.2020
1820 Haze 31 1007 79 4000 4.6 180 06:55 09.06.2020
1821 Haze 30 1007 79 4000 4.1 170 06:36 09.06.2020
1822 Haze 29 1007 83 4000 3.1 170 05:48 09.06.2020
1823 Haze 28 1006 83 4000 2.1 170 03:55 09.06.2020
1824 Haze 28 1005 88 4000 1.5 150 02:22 09.06.2020
1825 Haze 28 1005 83 4000 2.6 180 01:37 09.06.2020
1826 Haze 28 1005 83 4000 2.6 160 01:18 09.06.2020
1827 Haze 28 1005 83 4000 2.6 160 00:42 09.06.2020
1828 Haze 28 1005 83 4000 3.6 180 00:19 09.06.2020
1829 Haze 28 1005 83 4000 3.6 170 23:42 08.06.2020
1830 Haze 28 1005 83 4000 3.6 170 23:21 08.06.2020
1831 Haze 28 1005 83 4000 3.1 160 22:59 08.06.2020
1832 Haze 28 1006 88 4000 2.6 160 22:38 08.06.2020
1833 Haze 28 1006 83 4000 2.6 180 22:20 08.06.2020
1834 Haze 28 1006 83 4000 2.6 180 21:56 08.06.2020
1835 Haze 28 1006 83 4000 1.5 200 21:37 08.06.2020
1836 Haze 28 1006 83 4000 1.5 200 21:19 08.06.2020
1837 Haze 28 1007 83 4000 3.1 190 20:55 08.06.2020
1838 Haze 28 1007 83 4000 3.1 190 20:55 08.06.2020
1839 Haze 28 1007 83 4000 4.6 180 20:36 08.06.2020
1840 Haze 28 1007 78 4000 2.6 180 20:18 08.06.2020
1841 Haze 28 1006 78 4000 3.1 180 19:43 08.06.2020
1842 Haze 28 1006 78 4000 3.1 180 19:43 08.06.2020
1843 Haze 28 1006 78 4000 2.6 180 19:21 08.06.2020
1844 Haze 28 1006 83 4000 2.6 170 18:44 08.06.2020
1845 Haze 29 1006 74 4000 2.1 170 18:21 08.06.2020
1846 Haze 29 1006 74 4000 2.1 170 17:58 08.06.2020
1847 Haze 29 1006 79 4000 1.5 170 17:40 08.06.2020
1848 Haze 29 1006 79 4000 1.5 170 17:40 08.06.2020
1849 Haze 29 1006 79 4000 1.5 170 17:22 08.06.2020
1850 Haze 29 1006 79 5000 1.5 160 16:58 08.06.2020
1851 Clouds 29 1006 79 6000 2.6 170 16:40 08.06.2020
1852 Clouds 29 1006 79 6000 2.6 170 16:21 08.06.2020
1853 Clouds 30 1005 70 6000 1.5 180 15:44 08.06.2020
1854 Clouds 30 1005 70 6000 1.5 180 15:22 08.06.2020
1855 Clouds 30 1005 74 6000 2.1 160 14:58 08.06.2020
1856 Clouds 30 1005 70 6000 3.6 170 14:39 08.06.2020
1857 Clouds 30 1005 70 6000 3.6 170 14:19 08.06.2020
1858 Clouds 30 1004 66 6000 2.1 200 13:43 08.06.2020
1859 Clouds 30 1004 66 6000 2.1 200 13:24 08.06.2020
1860 Clouds 29 1005 70 6000 3.6 210 12:43 08.06.2020
1861 Clouds 29 1006 70 6000 6.2 250 12:20 08.06.2020
1862 Clouds 29 1006 70 6000 6.2 250 11:59 08.06.2020
1863 Clouds 30 1006 66 6000 5.1 210 11:40 08.06.2020
1864 Clouds 30 1006 66 6000 5.1 210 11:40 08.06.2020
1865 Clouds 30 1006 66 6000 5.1 210 11:22 08.06.2020
1866 Clouds 30 1006 66 6000 6.7 220 10:58 08.06.2020
1867 Clouds 30 1006 66 6000 6.7 230 10:38 08.06.2020
1868 Clouds 30 1006 66 6000 6.7 230 10:38 08.06.2020
1869 Clouds 30 1006 66 6000 6.7 230 10:20 08.06.2020
1870 Clouds 31 1007 59 6000 5.7 220 09:58 08.06.2020
1871 Clouds 31 1007 59 6000 5.7 220 09:57 08.06.2020
1872 Haze 31 1007 66 5000 5.7 230 09:39 08.06.2020
1873 Haze 31 1007 66 5000 5.7 230 09:21 08.06.2020
1874 Haze 31 1007 66 5000 5.1 200 08:46 08.06.2020
1875 Haze 31 1007 66 5000 5.1 200 08:22 08.06.2020
1876 Haze 31 1007 66 4000 4.1 150 07:46 08.06.2020
1877 Haze 29 1007 66 3500 5.1 140 07:22 08.06.2020
1878 Haze 30 1007 74 3500 4.6 280 06:50 08.06.2020
1879 Haze 28 1007 74 3500 4.6 280 06:28 08.06.2020
1880 Haze 27 1007 78 2500 2.1 260 05:47 08.06.2020
1881 Haze 25 1006 83 2500 3.6 30 04:29 08.06.2020
1882 Rain 27 1006 94 2500 3.6 240 02:32 08.06.2020
1883 Rain 24 1006 94 2500 4.1 270 01:49 08.06.2020
1884 Thunderstorm 25 1006 88 2500 4.6 270 01:30 08.06.2020
1885 Thunderstorm 25 1006 94 2200 6.2 270 00:30 08.06.2020
1886 Thunderstorm 25 1006 94 2500 4.1 270 23:57 07.06.2020
1887 Thunderstorm 28 1006 88 2200 4.1 280 23:36 07.06.2020
1888 Thunderstorm 28 1006 88 2200 4.1 280 23:18 07.06.2020
1889 Rain 28 1007 88 3000 5.7 210 22:39 07.06.2020
1890 Rain 26 1007 88 3000 5.7 210 22:20 07.06.2020
1891 Haze 27 1006 74 4000 2.6 170 21:59 07.06.2020
1892 Haze 27 1006 74 4000 2.6 160 21:39 07.06.2020
1893 Haze 27 1006 74 4000 2.6 160 21:20 07.06.2020
1894 Haze 27 1006 74 4000 2.6 160 21:20 07.06.2020
1895 Haze 27 1006 74 4000 2.6 160 21:20 07.06.2020
1896 Haze 27 1006 74 4000 2.6 160 21:20 07.06.2020
1897 Haze 27 1006 74 4000 2.6 160 21:20 07.06.2020
1898 Haze 28 1006 69 4000 2.1 130 20:57 07.06.2020
1899 Haze 28 1006 65 4000 1.5 140 20:38 07.06.2020
1900 Haze 28 1006 65 4000 2.6 120 20:19 07.06.2020
1901 Haze 28 1006 65 4000 2.6 120 19:56 07.06.2020
1902 Haze 29 1006 62 4000 2.1 190 19:38 07.06.2020
1903 Haze 29 1006 66 4000 2.1 180 19:19 07.06.2020
1904 Haze 29 1006 66 4000 2.1 180 18:55 07.06.2020
1905 Haze 29 1006 62 4000 2.1 170 18:36 07.06.2020
1906 Haze 29 1005 74 4000 2.6 150 18:18 07.06.2020
1907 Haze 29 1005 79 4000 4.1 120 17:41 07.06.2020
1908 Haze 29 1005 79 4000 4.1 120 17:23 07.06.2020
1909 Haze 29 1006 74 4000 3.6 170 16:59 07.06.2020
1910 Haze 29 1005 79 4000 3.1 160 16:41 07.06.2020
1911 Haze 29 1005 79 4000 3.1 160 16:20 07.06.2020
1912 Haze 30 1004 66 5000 3.6 220 15:36 07.06.2020
1913 Haze 30 1004 66 5000 3.6 220 15:18 07.06.2020
1914 Haze 29 1004 74 5000 3.6 230 14:38 07.06.2020
1915 Haze 29 1004 74 5000 3.6 230 14:19 07.06.2020
1916 Haze 30 1004 74 5000 7.2 180 13:47 07.06.2020
1917 Haze 30 1004 74 5000 7.2 180 13:47 07.06.2020
1918 Haze 30 1004 74 5000 7.2 180 13:47 07.06.2020
1919 Haze 30 1004 74 5000 7.2 180 13:21 07.06.2020
1920 Haze 32 1004 70 5000 4.6 250 12:55 07.06.2020
1921 Haze 32 1004 70 5000 4.6 250 12:36 07.06.2020
1922 Haze 32 1004 70 5000 4.1 210 12:18 07.06.2020
1923 Haze 32 1004 70 5000 4.1 210 11:54 07.06.2020
1924 Haze 32 1005 79 5000 4.1 220 11:36 07.06.2020
1925 Haze 32 1005 79 5000 4.1 220 11:18 07.06.2020
1926 Haze 32 1005 70 5000 6.2 230 10:42 07.06.2020
1927 Haze 32 1005 70 5000 6.2 230 10:20 07.06.2020
1928 Haze 32 1006 70 5000 5.1 190 09:57 07.06.2020
1929 Haze 32 1006 70 5000 5.1 190 09:38 07.06.2020
1930 Haze 32 1006 70 5000 5.1 190 09:20 07.06.2020
1931 Haze 32 1006 70 4000 5.1 190 08:48 07.06.2020
1932 Haze 31 1006 74 4000 5.1 180 08:24 07.06.2020
1933 Haze 31 1006 74 4000 5.1 180 08:24 07.06.2020
1934 Haze 31 1006 74 4000 5.1 180 07:50 07.06.2020
1935 Haze 32 1007 70 4000 5.1 180 07:29 07.06.2020
1936 Haze 30 1007 79 4000 3.6 170 06:48 07.06.2020
1937 Haze 29 1006 83 3500 4.1 150 05:41 07.06.2020
1938 Haze 29 1006 83 3000 3.1 160 04:20 07.06.2020
1939 Haze 28 1005 88 3000 2.6 150 02:35 07.06.2020
1940 Haze 28 1005 88 3000 3.1 160 01:55 07.06.2020
1941 Haze 28 1005 88 3000 2.1 160 01:25 07.06.2020
1942 Haze 29 1005 83 3000 2.1 170 00:46 07.06.2020
1943 Haze 28 1005 88 3000 2.6 170 00:19 07.06.2020
1944 Haze 28 1005 88 3000 2.6 170 23:57 06.06.2020
1945 Haze 28 1005 88 3000 2.6 170 23:37 06.06.2020
1946 Haze 28 1005 88 3000 2.6 170 23:19 06.06.2020
1947 Haze 28 1005 88 3000 3.1 170 22:56 06.06.2020
1948 Haze 28 1005 88 3000 3.6 170 22:37 06.06.2020
1949 Haze 28 1005 88 3000 3.6 170 22:18 06.06.2020
1950 Haze 28 1006 88 3000 5.1 170 21:44 06.06.2020
1951 Haze 28 1006 88 3000 5.1 170 21:22 06.06.2020
1952 Haze 29 1006 83 3000 3.6 170 20:57 06.06.2020
1953 Haze 29 1006 89 3000 3.1 170 20:38 06.06.2020
1954 Haze 29 1007 89 3000 5.7 180 20:18 06.06.2020
1955 Haze 29 1007 89 3000 3.1 160 19:57 06.06.2020
1956 Haze 29 1007 89 3000 3.1 160 19:37 06.06.2020
1957 Haze 29 1006 89 3000 3.1 170 19:19 06.06.2020
1958 Haze 29 1006 83 3500 3.1 180 18:43 06.06.2020
1959 Haze 29 1006 83 3500 3.1 180 18:24 06.06.2020
1960 Haze 29 1006 83 4000 2.6 170 17:58 06.06.2020
1961 Haze 29 1006 83 4000 3.6 180 17:39 06.06.2020
1962 Haze 30 1005 79 4000 3.6 190 17:19 06.06.2020
1963 Haze 30 1005 79 4000 3.1 180 16:44 06.06.2020
1964 Haze 30 1005 79 4000 3.1 180 16:22 06.06.2020
1965 Haze 30 1004 84 5000 4.6 190 15:58 06.06.2020
1966 Haze 30 1004 84 5000 4.6 200 15:40 06.06.2020
1967 Haze 30 1004 84 5000 4.6 200 15:20 06.06.2020
1968 Haze 31 1004 74 5000 5.1 210 14:44 06.06.2020
1969 Haze 31 1004 74 5000 5.1 210 14:25 06.06.2020
1970 Haze 31 1004 74 5000 6.2 210 13:59 06.06.2020
1971 Haze 32 1004 70 5000 5.7 210 13:41 06.06.2020
1972 Haze 32 1004 75 5000 4.6 190 13:18 06.06.2020
1973 Haze 33 1005 66 5000 5.7 230 12:43 06.06.2020
1974 Haze 33 1005 66 5000 5.7 230 12:24 06.06.2020
1975 Haze 32 1005 70 5000 7.2 220 11:59 06.06.2020
1976 Haze 32 1005 70 5000 6.7 200 11:39 06.06.2020
1977 Haze 32 1005 70 5000 6.7 200 11:20 06.06.2020
1978 Haze 32 1005 75 5000 5.1 180 10:59 06.06.2020
1979 Haze 31 1005 79 5000 4.6 170 10:39 06.06.2020
1980 Haze 31 1005 79 5000 4.6 170 10:21 06.06.2020
1981 Haze 31 1006 74 5000 5.1 150 09:58 06.06.2020
1982 Haze 31 1006 70 5000 5.7 170 09:40 06.06.2020
1983 Haze 31 1006 70 5000 5.7 170 09:21 06.06.2020
1984 Haze 31 1006 79 4000 5.1 170 08:41 06.06.2020
1985 Haze 30 1006 79 4000 5.1 170 08:20 06.06.2020
1986 Haze 31 1007 79 4000 4.6 160 07:46 06.06.2020
1987 Haze 30 1007 79 4000 4.1 180 07:23 06.06.2020
1988 Haze 29 1008 88 4000 3.1 140 06:49 06.06.2020
1989 Haze 27 1008 88 4000 3.1 140 06:31 06.06.2020
1990 Haze 27 1008 100 3500 2.1 130 05:58 06.06.2020
1991 Haze 26 1006 100 3000 5.7 90 05:30 06.06.2020
1992 Haze 26 1006 100 3000 4.1 140 04:47 06.06.2020
1993 Thunderstorm 28 1006 94 1000 14.9 270 03:21 06.06.2020
1994 Haze 28 1004 88 3500 6.4 180 01:58 06.06.2020
1995 Haze 28 1004 88 3500 6.65 183 01:20 06.06.2020
1996 Haze 28 1005 88 3500 6.65 183 00:46 06.06.2020
1997 Haze 28 1005 88 3500 6.82 188 00:27 06.06.2020
1998 Thunderstorm 28 1005 88 3000 2.6 170 23:59 05.06.2020
1999 Thunderstorm 29 1005 83 3000 3.6 170 23:39 05.06.2020
2000 Thunderstorm 29 1005 83 3000 3.6 170 23:39 05.06.2020
2001 Thunderstorm 29 1005 83 3000 3.6 170 23:19 05.06.2020
2002 Haze 29 1005 83 4000 3.1 170 22:55 05.06.2020
2003 Haze 29 1006 83 4000 4.1 160 22:37 05.06.2020
2004 Haze 29 1006 83 4000 4.1 160 22:18 05.06.2020
2005 Haze 29 1006 83 4000 4.1 180 21:42 05.06.2020
2006 Haze 29 1006 83 4000 4.1 180 21:22 05.06.2020
2007 Haze 29 1006 79 4000 5.1 180 20:58 05.06.2020
2008 Haze 29 1006 79 4000 3.1 160 20:39 05.06.2020
2009 Haze 29 1007 74 4000 5.1 190 20:21 05.06.2020
2010 Haze 29 1007 74 4000 5.1 190 19:42 05.06.2020
2011 Haze 29 1007 74 4000 5.1 190 19:23 05.06.2020
2012 Haze 29 1006 89 4000 4.1 180 18:57 05.06.2020
2013 Haze 29 1006 89 4000 4.1 170 18:38 05.06.2020
2014 Haze 29 1006 83 4000 5.7 180 18:19 05.06.2020
2015 Haze 29 1006 83 4000 5.7 180 17:57 05.06.2020
2016 Haze 29 1006 83 4000 4.1 190 17:39 05.06.2020
2017 Haze 29 1006 83 4000 4.1 190 17:18 05.06.2020
2018 Haze 30 1005 79 4000 3.1 160 16:39 05.06.2020
2019 Haze 30 1005 79 5000 3.1 170 16:20 05.06.2020
2020 Haze 30 1005 74 5000 4.1 160 15:47 05.06.2020
2021 Haze 30 1005 74 5000 4.1 160 15:23 05.06.2020
2022 Clouds 31 1004 70 7000 5.1 210 14:59 05.06.2020
2023 Clouds 32 1004 62 8000 5.7 180 14:40 05.06.2020
2024 Clouds 32 1004 62 8000 5.7 180 14:22 05.06.2020
2025 Clouds 32 1004 59 8000 5.7 190 13:58 05.06.2020
2026 Clouds 32 1004 59 8000 4.6 210 13:39 05.06.2020
2027 Clouds 32 1004 59 8000 4.6 210 13:20 05.06.2020
2028 Clouds 32 1005 59 8000 5.1 210 12:42 05.06.2020
2029 Clouds 32 1005 59 8000 5.1 210 12:20 05.06.2020
2030 Clouds 33 1005 49 8000 5.7 180 11:56 05.06.2020
2031 Clouds 33 1005 55 8000 6.7 220 11:37 05.06.2020
2032 Clouds 33 1006 52 8000 5.7 150 11:19 05.06.2020
2033 Clouds 33 1006 52 8000 4.6 180 10:42 05.06.2020
2034 Clouds 32 1006 52 8000 4.6 180 10:21 05.06.2020
2035 Clouds 32 1006 55 8000 4.1 180 09:58 05.06.2020
2036 Clouds 32 1007 52 8000 4.1 190 09:40 05.06.2020
2037 Clouds 31 1007 52 8000 4.1 180 09:21 05.06.2020
2038 Clouds 31 1007 52 8000 4.1 180 08:59 05.06.2020
2039 Clouds 31 1007 58 8000 3.6 190 08:41 05.06.2020
2040 Clouds 31 1007 58 8000 3.6 190 08:19 05.06.2020
2041 Clouds 31 1007 58 8000 3.1 120 07:53 05.06.2020
2042 Clouds 31 1007 62 8000 3.6 110 07:35 05.06.2020
2043 Haze 29 1007 69 7000 3.6 110 06:54 05.06.2020
2044 Haze 26 1007 78 4000 3.1 110 05:24 05.06.2020
2045 Haze 26 1006 83 4000 3.1 100 04:44 05.06.2020
2046 Haze 27 1006 94 3000 3.1 110 03:50 05.06.2020
2047 Haze 26 1005 94 2500 2.6 90 02:39 05.06.2020
2048 Haze 26 1005 94 2500 1.5 70 02:18 05.06.2020
2049 Drizzle 26 1005 88 2500 2.1 70 01:49 05.06.2020
2050 Haze 26 1005 88 2500 1.5 70 00:58 05.06.2020
2051 Drizzle 26 1005 88 2500 2.1 100 00:39 05.06.2020
2052 Thunderstorm 26 1005 88 2500 2.1 140 00:19 05.06.2020
2053 Drizzle 26 1005 94 2500 6.46 195 23:46 04.06.2020
2054 Drizzle 26 1005 94 2500 6.25 198 23:24 04.06.2020
2055 Rain 26 1006 94 1000 5.1 250 22:44 04.06.2020
2056 Rain 27 1006 94 1000 5.1 250 22:22 04.06.2020
2057 Haze 28 1006 88 3000 1.5 90 21:59 04.06.2020
2058 Haze 28 1006 88 3000 2.6 100 21:40 04.06.2020
2059 Haze 28 1006 88 3000 2.6 100 21:22 04.06.2020
2060 Haze 28 1006 88 3000 2.6 80 20:58 04.06.2020
2061 Haze 28 1007 88 3000 3.6 130 20:39 04.06.2020
2062 Haze 28 1007 88 3000 3.6 130 20:20 04.06.2020
2063 Haze 28 1008 88 3000 2.1 40 19:57 04.06.2020
2064 Haze 28 1007 88 3000 2.1 60 19:38 04.06.2020
2065 Haze 28 1007 88 3000 2.1 60 19:19 04.06.2020
2066 Haze 28 1007 88 3000 2.1 100 18:40 04.06.2020
2067 Haze 28 1007 88 3000 2.1 90 18:21 04.06.2020
2068 Haze 28 1007 88 3000 2.1 90 17:59 04.06.2020
2069 Haze 28 1006 88 3000 2.1 90 17:41 04.06.2020
2070 Haze 28 1006 83 3000 2.1 110 17:20 04.06.2020
2071 Haze 28 1006 83 3500 1.5 70 16:41 04.06.2020
2072 Haze 28 1006 83 3500 1.5 70 16:21 04.06.2020
2073 Haze 28 1005 83 3500 3.1 100 15:55 04.06.2020
2074 Haze 28 1004 83 3500 2.6 100 15:37 04.06.2020
2075 Haze 28 1004 83 3500 2.6 100 15:19 04.06.2020
2076 Haze 28 1004 83 3000 4.1 120 14:38 04.06.2020
2077 Haze 28 1004 83 2500 2.6 120 14:19 04.06.2020
2078 Haze 28 1004 83 2500 2.6 120 13:54 04.06.2020
2079 Drizzle 28 1004 88 2500 2.6 130 13:36 04.06.2020
2080 Rain 27 1005 88 2200 2.6 110 13:18 04.06.2020
2081 Thunderstorm 27 1005 88 2500 2.6 190 12:41 04.06.2020
2082 Thunderstorm 27 1005 88 2500 2.6 190 12:23 04.06.2020
2083 Thunderstorm 27 1005 88 2000 4.6 90 11:59 04.06.2020
2084 Thunderstorm 28 1005 94 2500 3.1 90 11:38 04.06.2020
2085 Thunderstorm 27 1005 94 2500 3.1 90 11:20 04.06.2020
2086 Rain 26 1006 94 2500 2.1 120 10:57 04.06.2020
2087 Rain 26 1006 94 2500 2.1 120 10:38 04.06.2020
2088 Thunderstorm 26 1006 94 2100 2.6 160 10:19 04.06.2020
2089 Thunderstorm 26 1006 94 2100 2.6 160 10:19 04.06.2020
2090 Thunderstorm 26 1007 94 1100 2.6 140 09:43 04.06.2020
2091 Thunderstorm 26 1007 94 1100 2.6 140 09:24 04.06.2020
2092 Rain 26 1007 94 2100 4.1 70 08:46 04.06.2020
2093 Rain 25 1007 94 2100 4.1 70 08:26 04.06.2020
2094 Thunderstorm 23 1007 94 2100 4.1 130 07:48 04.06.2020
2095 Thunderstorm 23 1007 94 2100 4.1 130 07:28 04.06.2020
2096 Thunderstorm 24 1008 94 600 3.6 340 06:44 04.06.2020
2097 Haze 29 1005 89 3000 2.6 210 06:25 04.06.2020
2098 Haze 29 1004 89 3000 5.1 230 05:39 04.06.2020
2099 Haze 29 1004 89 3000 5.1 230 05:20 04.06.2020
2100 Haze 29 1003 94 2500 2.6 240 03:25 04.06.2020
2101 Haze 28 1003 88 4000 1.5 190 01:57 04.06.2020
2102 Haze 28 1003 88 4000 2.85 345 01:20 04.06.2020
2103 Haze 28 1003 83 4000 2.85 345 00:48 04.06.2020
2104 Haze 29 1003 79 4000 2.1 270 23:48 03.06.2020
2105 Haze 29 1003 79 4000 2.1 270 23:21 03.06.2020
2106 Haze 29 1003 79 4000 3.1 300 22:59 03.06.2020
2107 Haze 29 1003 74 4000 4.1 290 22:39 03.06.2020
2108 Haze 29 1003 74 4000 5.1 290 22:19 03.06.2020
2109 Haze 29 1003 74 4000 5.1 290 21:57 03.06.2020
2110 Haze 29 1003 74 4000 5.1 290 21:39 03.06.2020
2111 Haze 29 1003 74 4000 5.1 290 21:21 03.06.2020
2112 Haze 29 1003 74 3000 5.1 300 20:56 03.06.2020
2113 Haze 29 1003 74 3000 4.1 290 20:37 03.06.2020
2114 Haze 28 1003 78 3000 5.1 290 20:19 03.06.2020
2115 Haze 28 1003 78 3000 5.1 290 19:56 03.06.2020
2116 Haze 28 1002 83 3000 5.1 280 19:36 03.06.2020
2117 Drizzle 28 1001 83 3000 4.6 280 19:18 03.06.2020
2118 Drizzle 28 1001 83 3000 4.1 290 18:43 03.06.2020
2119 Drizzle 28 1000 83 3000 5.1 280 18:22 03.06.2020
2120 Drizzle 28 1000 83 3000 5.1 280 17:57 03.06.2020
2121 Drizzle 28 999 83 4000 3.1 290 17:37 03.06.2020
2122 Drizzle 27 999 83 5000 2.6 300 17:19 03.06.2020
2123 Drizzle 28 998 78 4000 4.6 320 16:42 03.06.2020
2124 Drizzle 28 998 78 4000 4.6 320 16:21 03.06.2020
2125 Drizzle 28 998 83 4000 5.7 330 15:59 03.06.2020
2126 Drizzle 27 996 88 4000 4.6 300 15:41 03.06.2020
2127 Drizzle 27 996 88 4000 4.6 300 15:20 03.06.2020
2128 Drizzle 28 995 83 4000 6.7 320 14:47 03.06.2020
2129 Drizzle 28 994 83 3500 6.2 300 14:25 03.06.2020
2130 Drizzle 27 994 88 3500 7.7 310 13:56 03.06.2020
2131 Drizzle 27 993 88 3000 7.2 320 13:38 03.06.2020
2132 Rain 27 992 88 3000 8.2 330 13:18 03.06.2020
2133 Rain 27 992 88 3000 10.8 330 12:42 03.06.2020
2134 Rain 27 992 83 3000 9.8 340 12:21 03.06.2020
2135 Drizzle 28 993 78 2200 10.8 30 11:45 03.06.2020
2136 Drizzle 28 993 78 2200 10.8 30 11:27 03.06.2020
2137 Drizzle 28 993 78 2200 10.8 30 10:57 03.06.2020
2138 Drizzle 28 994 78 2200 10.8 20 10:38 03.06.2020
2139 Drizzle 28 994 78 2200 10.8 20 10:20 03.06.2020
2140 Rain 27 996 88 2200 6.7 20 09:43 03.06.2020
2141 Rain 27 996 88 2200 6.7 20 09:20 03.06.2020
2142 Rain 27 998 88 2200 5.1 30 08:48 03.06.2020
2143 Rain 28 998 88 2200 5.1 30 08:28 03.06.2020
2144 Rain 28 999 88 2200 6.7 30 07:59 03.06.2020
2145 Rain 28 999 88 2200 6.7 30 07:41 03.06.2020
2146 Rain 27 999 83 2200 5.1 40 07:19 03.06.2020
2147 Rain 27 999 83 2200 4.1 30 06:49 03.06.2020
2148 Rain 27 999 83 2200 4.1 30 06:30 03.06.2020
2149 Rain 27 1000 83 2200 3.6 40 05:46 03.06.2020
2150 Rain 27 1001 83 2200 3.6 30 04:44 03.06.2020
2151 Rain 27 1000 83 2500 6.2 50 03:50 03.06.2020
2152 Haze 27 999 83 2500 3.6 60 02:46 03.06.2020
2153 Haze 27 999 78 2500 4.1 60 01:48 03.06.2020
2154 Rain 27 1000 83 2200 5.7 30 00:41 03.06.2020
2155 Drizzle 27 1000 83 2200 5.1 50 00:23 03.06.2020
2156 Drizzle 27 1000 83 2200 5.1 50 23:51 02.06.2020
2157 Drizzle 27 1001 78 2200 4.1 50 23:27 02.06.2020
2158 Rain 27 1002 78 2200 4.6 60 22:56 02.06.2020
2159 Haze 27 1002 78 2500 5.1 60 22:38 02.06.2020
2160 Haze 27 1002 78 2500 5.1 60 22:18 02.06.2020
2161 Haze 27 1003 83 2200 6.2 70 21:56 02.06.2020
2162 Haze 27 1003 83 2200 6.2 60 21:37 02.06.2020
2163 Haze 27 1003 83 2200 5.7 40 21:19 02.06.2020
2164 Haze 27 1003 83 2200 5.7 40 20:55 02.06.2020
2165 Drizzle 27 1004 94 2100 4.1 50 20:36 02.06.2020
2166 Rain 27 1005 88 1500 4.1 50 20:18 02.06.2020
2167 Rain 27 1005 94 1000 1.5 140 19:42 02.06.2020
2168 Haze 27 1005 94 2100 11.3 43 19:24 02.06.2020
2169 Haze 27 1005 94 2100 11.3 43 18:57 02.06.2020
2170 Drizzle 27 1005 94 2100 2.6 340 18:39 02.06.2020
2171 Rain 27 1005 88 2100 2.6 250 18:20 02.06.2020
2172 Rain 27 1005 88 2100 2.6 250 17:55 02.06.2020
2173 Haze 28 1004 83 2000 9.44 38 17:37 02.06.2020
2174 Haze 28 1004 83 2000 8.09 38 17:18 02.06.2020
2175 Haze 28 1003 83 2000 1.5 160 16:40 02.06.2020
2176 Haze 28 1003 83 2000 1.5 160 16:21 02.06.2020
2177 Rain 25 1005 91 0 5.51 33 16:21 02.06.2020
2178 Rain 30 1002 70 2500 4.1 340 15:57 02.06.2020
2179 Rain 30 1002 70 2500 4.1 340 15:37 02.06.2020
2180 Rain 30 1002 70 2500 4.1 340 15:19 02.06.2020
2181 Drizzle 30 1002 70 3000 4.1 340 14:45 02.06.2020
2182 Drizzle 30 1002 70 3000 4.1 340 14:26 02.06.2020
2183 Drizzle 31 1002 66 3000 3.6 350 13:54 02.06.2020
2184 Haze 31 1002 66 3000 5.7 350 13:36 02.06.2020
2185 Haze 32 1002 62 3000 5.7 290 13:18 02.06.2020
2186 Haze 32 1003 62 3000 5.1 340 12:40 02.06.2020
2187 Haze 32 1003 62 3000 5.1 340 12:22 02.06.2020
2188 Haze 32 1004 59 3000 3.6 350 11:59 02.06.2020
2189 Haze 32 1004 59 3500 3.6 20 11:39 02.06.2020
2190 Haze 32 1004 59 3500 3.6 20 11:20 02.06.2020
2191 Drizzle 32 1005 59 3500 4.1 20 10:50 02.06.2020
2192 Haze 32 1005 59 3500 3.6 20 10:28 02.06.2020
2193 Haze 32 1005 59 3500 3.6 20 09:59 02.06.2020
2194 Haze 32 1006 59 3500 3.6 360 09:40 02.06.2020
2195 Haze 32 1006 59 3500 3.6 360 09:20 02.06.2020
2196 Haze 32 1006 59 3500 3.6 20 08:51 02.06.2020
2197 Smoke 32 1006 59 3500 3.6 50 08:23 02.06.2020
2198 Haze 32 1007 62 3500 2.6 50 07:54 02.06.2020
2199 Haze 32 1007 62 3500 2.6 50 07:30 02.06.2020
2200 Haze 31 1007 62 3500 3.6 30 06:51 02.06.2020
2201 Haze 31 1007 66 4000 3.1 40 06:31 02.06.2020
2202 Haze 31 1006 66 4000 3.1 40 05:28 02.06.2020
2203 Haze 30 1006 74 4000 2.1 110 03:53 02.06.2020
2204 Haze 30 1005 74 4000 4.83 25 02:30 02.06.2020
2205 Haze 30 1005 79 4000 4.07 22 01:43 02.06.2020
2206 Haze 30 1005 74 4000 4.51 1 00:27 02.06.2020
2207 Haze 30 1005 74 4000 4.51 1 23:59 01.06.2020
2208 Haze 30 1006 74 4000 4.51 1 23:38 01.06.2020
2209 Haze 30 1006 74 4000 4.09 350 23:19 01.06.2020
2210 Haze 30 1006 74 4000 1.5 250 22:56 01.06.2020
2211 Haze 30 1006 74 4000 1.5 210 22:37 01.06.2020
2212 Haze 30 1006 74 4000 1.5 210 22:18 01.06.2020
2213 Haze 30 1007 74 4000 1.5 250 21:41 01.06.2020
2214 Haze 30 1007 74 4000 1.5 250 21:20 01.06.2020
2215 Haze 30 1007 74 4000 3.6 200 20:58 01.06.2020
2216 Haze 30 1008 74 4000 3.1 180 20:40 01.06.2020
2217 Haze 30 1008 74 4000 3.1 180 20:20 01.06.2020
2218 Haze 30 1008 74 4000 3.1 180 20:20 01.06.2020
2219 Haze 30 1008 74 4000 3.1 180 19:58 01.06.2020
2220 Haze 31 1008 70 4000 2.1 200 19:39 01.06.2020
2221 Haze 31 1008 70 4000 1.5 210 19:20 01.06.2020
2222 Haze 31 1008 70 4000 1.5 210 18:57 01.06.2020
2223 Smoke 31 1008 70 5000 1.5 240 18:38 01.06.2020
2224 Smoke 31 1008 70 5000 2.6 270 18:18 01.06.2020
2225 Smoke 31 1007 70 5000 2.72 119 17:41 01.06.2020
2226 Smoke 30 1007 74 5000 3.1 300 17:20 01.06.2020
2227 Smoke 30 1007 74 5000 3.1 300 16:56 01.06.2020
2228 Smoke 30 1007 74 5000 3.6 290 16:37 01.06.2020
2229 Smoke 31 1006 70 5000 4.6 280 16:18 01.06.2020
2230 Smoke 31 1006 70 5000 4.6 260 15:44 01.06.2020
2231 Smoke 31 1006 70 5000 4.6 260 15:21 01.06.2020
2232 Smoke 31 1006 70 5000 5.1 260 14:59 01.06.2020
2233 Smoke 32 1006 66 4000 6.2 230 14:41 01.06.2020
2234 Smoke 32 1006 70 4000 5.1 240 14:21 01.06.2020
2235 Smoke 32 1006 70 4000 5.1 240 13:56 01.06.2020
2236 Smoke 32 1006 70 4000 5.1 240 13:38 01.06.2020
2237 Smoke 32 1006 66 4000 3.1 270 13:19 01.06.2020
2238 Smoke 32 1006 66 4000 3.1 270 12:57 01.06.2020
2239 Smoke 31 1007 70 4000 4.1 290 12:39 01.06.2020
2240 Smoke 31 1007 70 4000 4.1 290 12:20 01.06.2020
2241 Smoke 32 1007 59 4000 3.1 200 11:41 01.06.2020
2242 Smoke 32 1007 59 4000 3.1 200 11:23 01.06.2020
2243 -273 0 0 0 0 0 10:58 01.06.2020
2244 Haze 32 1008 55 4000 2.1 130 10:39 01.06.2020
2245 Haze 33 1008 66 4000 3.1 150 10:20 01.06.2020
2246 Haze 33 1008 66 4000 3.1 150 09:55 01.06.2020
2247 Haze 32 1008 66 4000 2.1 140 09:37 01.06.2020
2248 Haze 32 1008 66 4000 2.1 140 09:19 01.06.2020
2249 Haze 30 1009 74 4000 1.5 70 08:45 01.06.2020
2250 Haze 30 1009 74 4000 1.5 70 08:25 01.06.2020
2251 Haze 29 1009 79 5000 3.1 340 07:45 01.06.2020
2252 Haze 29 1009 79 5000 3.1 340 07:27 01.06.2020
2253 Haze 28 1010 83 4000 3.1 280 06:54 01.06.2020
2254 Haze 28 1010 83 4000 3.1 280 06:20 01.06.2020
2255 Haze 28 1010 83 4000 2.6 280 05:50 01.06.2020
2256 Rain 28 1010 83 4000 2.1 290 04:23 01.06.2020
2257 Thunderstorm 27 1009 88 4000 2.1 270 03:45 01.06.2020
2258 Thunderstorm 28 1008 83 4000 3.6 220 03:18 01.06.2020
2259 Haze 31 1008 74 5000 2.1 100 01:47 01.06.2020
2260 Haze 31 1008 74 5000 2.1 100 01:29 01.06.2020
2261 Haze 31 1008 74 5000 2.6 100 00:57 01.06.2020
2262 Haze 31 1008 74 5000 2.6 130 00:39 01.06.2020
2263 Haze 31 1008 74 5000 2.6 130 00:21 01.06.2020
2264 Haze 31 1008 74 5000 3.73 316 23:55 31.05.2020
2265 Haze 31 1008 74 5000 3.73 316 23:37 31.05.2020
2266 Haze 31 1008 74 5000 3.13 306 23:19 31.05.2020
2267 Haze 31 1008 74 5000 2.6 280 22:43 31.05.2020
2268 Haze 31 1008 74 5000 2.6 280 22:43 31.05.2020
2269 Haze 31 1008 74 5000 2.6 280 22:43 31.05.2020
2270 Haze 31 1008 74 5000 2.6 280 22:25 31.05.2020
2271 Haze 31 1008 74 5000 2.1 230 21:58 31.05.2020
2272 Haze 31 1008 74 5000 2.6 240 21:39 31.05.2020
2273 Haze 31 1008 74 5000 4.1 260 21:21 31.05.2020
2274 Haze 31 1008 74 5000 4.1 260 20:48 31.05.2020
2275 Haze 31 1008 74 5000 3.1 250 20:26 31.05.2020
2276 Haze 31 1009 74 5000 3.6 260 19:59 31.05.2020
2277 Haze 31 1009 74 5000 3.1 240 19:40 31.05.2020
2278 Haze 31 1009 74 5000 3.1 240 19:22 31.05.2020
2279 Haze 31 1008 74 5000 3.1 250 18:59 31.05.2020
2280 Haze 31 1008 74 5000 3.6 250 18:41 31.05.2020
2281 Haze 31 1008 74 5000 3.6 250 18:22 31.05.2020
2282 Thunderstorm 31 1008 74 5000 5.1 250 17:43 31.05.2020
2283 Thunderstorm 31 1008 74 5000 5.1 250 17:24 31.05.2020
2284 Clouds 32 1007 66 6000 4.6 250 16:55 31.05.2020
2285 Clouds 32 1007 66 6000 6.2 260 16:37 31.05.2020
2286 Clouds 32 1006 66 7000 7.2 270 16:18 31.05.2020
2287 Clouds 33 1006 63 7000 7.2 280 15:39 31.05.2020
2288 Clouds 33 1006 63 7000 7.2 280 15:21 31.05.2020
2289 Clouds 33 1005 59 7000 4.1 270 14:47 31.05.2020
2290 Clouds 33 1005 59 7000 4.1 270 14:20 31.05.2020
2291 Clouds 34 1004 59 7000 4.1 290 13:56 31.05.2020
2292 Clouds 34 1004 59 7000 4.1 280 13:38 31.05.2020
2293 Clouds 34 1004 59 7000 4.1 280 13:19 31.05.2020
2294 Clouds 34 1004 59 7000 4.1 280 13:19 31.05.2020
2295 Clouds 34 1005 59 7000 4.1 280 12:56 31.05.2020
2296 Clouds 34 1005 59 7000 4.1 280 12:37 31.05.2020
2297 Clouds 34 1005 59 7000 4.1 280 12:18 31.05.2020
2298 Clouds 35 1006 53 7000 3.6 280 11:47 31.05.2020
2299 Clouds 35 1006 53 7000 3.6 280 11:23 31.05.2020
2300 Clouds 35 1006 53 6000 3.6 270 10:55 31.05.2020
2301 Clouds 35 1007 56 6000 4.1 280 10:37 31.05.2020
2302 Clouds 35 1007 53 6000 4.1 270 10:18 31.05.2020
2303 Clouds 35 1008 53 6000 3.6 290 09:42 31.05.2020
2304 Clouds 35 1009 50 6000 3.6 320 09:22 31.05.2020
2305 Clouds 35 1009 50 6000 3.6 320 08:57 31.05.2020
2306 Clouds 35 1009 50 6000 3.6 320 08:37 31.05.2020
2307 Clouds 35 1009 50 6000 3.6 320 08:19 31.05.2020
2308 Clouds 34 1009 59 6000 3.6 310 07:40 31.05.2020
2309 Clouds 34 1009 59 6000 3.6 310 07:20 31.05.2020
2310 Clouds 34 1009 56 6000 5.1 320 06:50 31.05.2020
2311 Haze 33 1009 63 5000 4.1 350 06:31 31.05.2020
2312 Haze 32 1010 70 3500 3.6 350 05:41 31.05.2020
2313 Haze 31 1009 74 3500 3.6 10 04:25 31.05.2020
2314 Haze 31 1009 74 3000 2.1 10 03:48 31.05.2020
2315 Haze 31 1008 74 4000 2.1 20 02:59 31.05.2020
2316 Haze 31 1007 74 4000 3.1 330 01:48 31.05.2020
2317 Haze 31 1007 74 4000 3.1 330 01:19 31.05.2020
2318 Haze 31 1007 74 4000 2.1 330 00:30 31.05.2020
2319 Haze 31 1007 74 4000 3.1 320 23:55 30.05.2020
2320 Haze 31 1007 74 4000 2.6 300 23:36 30.05.2020
2321 Haze 31 1007 74 4000 2.6 300 23:18 30.05.2020
2322 Haze 31 1007 74 4000 2.6 300 22:41 30.05.2020
2323 Haze 31 1007 74 4000 2.6 300 22:22 30.05.2020
2324 Haze 31 1007 74 4000 2.6 300 22:22 30.05.2020
2325 Haze 31 1007 74 4000 4.1 290 21:56 30.05.2020
2326 Haze 31 1007 79 4000 4.1 300 21:37 30.05.2020
2327 Haze 31 1007 79 4000 4.1 300 21:18 30.05.2020
2328 Haze 31 1007 79 4000 3.6 290 20:56 30.05.2020
2329 Haze 31 1007 79 4000 3.1 310 20:37 30.05.2020
2330 Haze 31 1008 79 4000 3.6 280 20:19 30.05.2020
2331 Haze 31 1007 74 4000 5.7 280 19:42 30.05.2020
2332 Haze 31 1007 74 4000 4.1 280 19:21 30.05.2020
2333 Haze 31 1007 74 4000 4.1 280 18:45 30.05.2020
2334 Haze 31 1007 74 4000 4.1 280 18:24 30.05.2020
2335 Haze 32 1007 70 4000 3.1 290 17:55 30.05.2020
2336 Haze 32 1006 75 4000 4.1 280 17:37 30.05.2020
2337 Haze 32 1006 75 4000 4.1 280 17:18 30.05.2020
2338 Haze 32 1006 70 5000 5.1 300 16:42 30.05.2020
2339 Haze 32 1006 70 5000 5.1 300 16:22 30.05.2020
2340 Haze 32 1006 70 5000 5.1 300 15:49 30.05.2020
2341 Clouds 33 1006 66 6000 6.2 280 15:29 30.05.2020
2342 Clouds 33 1006 66 6000 5.1 300 14:48 30.05.2020
2343 Clouds 33 1006 66 6000 5.1 300 14:30 30.05.2020
2344 Clouds 34 1005 59 6000 8.2 280 13:58 30.05.2020
2345 Clouds 34 1006 63 6000 7.7 260 13:40 30.05.2020
2346 Clouds 35 1006 59 6000 5.7 290 13:18 30.05.2020
2347 Clouds 34 1006 63 6000 6.2 280 12:39 30.05.2020
2348 Clouds 34 1006 63 6000 6.2 280 12:20 30.05.2020
2349 Clouds 35 1006 56 6000 3.6 330 11:54 30.05.2020
2350 Clouds 34 1007 59 6000 6.2 320 11:36 30.05.2020
2351 Clouds 35 1007 56 6000 4.1 280 11:18 30.05.2020
2352 Clouds 35 1007 56 6000 6.2 290 10:39 30.05.2020
2353 Clouds 35 1007 56 6000 6.2 290 10:20 30.05.2020
2354 Clouds 34 1008 59 6000 4.1 260 09:45 30.05.2020
2355 Clouds 34 1008 59 6000 4.1 260 09:27 30.05.2020
2356 Haze 33 1009 66 5000 6.2 280 08:46 30.05.2020
2357 Haze 33 1009 66 5000 6.2 280 08:27 30.05.2020
2358 Haze 33 1009 66 5000 4.1 290 07:43 30.05.2020
2359 Haze 33 1009 66 5000 4.1 290 07:20 30.05.2020
2360 Haze 33 1009 66 5000 4.1 260 06:33 30.05.2020
2361 Haze 32 1009 70 5000 2.1 300 05:52 30.05.2020
2362 Haze 31 1009 74 5000 5.1 240 05:30 30.05.2020
2363 Haze 31 1007 74 4000 3.6 270 03:38 30.05.2020
2364 Haze 30 1007 79 4000 2.1 270 02:29 30.05.2020
2365 Haze 30 1007 79 4000 3.1 280 01:45 30.05.2020
2366 Haze 31 1007 74 4000 2.6 260 00:38 30.05.2020
2367 Haze 31 1007 74 4000 2.6 260 00:18 30.05.2020
2368 Haze 31 1007 74 4000 4.1 250 23:42 29.05.2020
2369 Haze 31 1007 74 4000 4.1 250 23:21 29.05.2020
2370 Haze 31 1007 74 4000 3.6 250 22:58 29.05.2020
2371 Haze 31 1007 74 4000 4.1 270 22:40 29.05.2020
2372 Haze 31 1007 74 4000 4.1 270 22:19 29.05.2020
2373 Haze 31 1007 74 4000 4.1 250 21:55 29.05.2020
2374 Haze 31 1008 74 4000 4.1 250 21:36 29.05.2020
2375 Haze 31 1008 74 4000 4.1 250 21:18 29.05.2020
2376 Haze 31 1008 74 4000 3.6 230 20:44 29.05.2020
2377 Haze 31 1008 74 4000 3.6 230 20:20 29.05.2020
2378 Drizzle 31 1008 74 4000 3.1 240 19:58 29.05.2020
2379 Haze 31 1008 74 4000 4.1 240 19:38 29.05.2020
2380 Haze 31 1008 74 4000 4.1 240 19:19 29.05.2020
2381 Clouds 31 1007 74 4000 4.1 240 18:46 29.05.2020
2382 Clouds 31 1007 74 4000 4.1 240 18:19 29.05.2020
2383 Clouds 31 1007 74 4000 4.1 240 18:19 29.05.2020
2384 Clouds 31 1007 74 6000 4.6 250 17:56 29.05.2020
2385 Clouds 31 1006 74 7000 4.6 240 17:38 29.05.2020
2386 Clouds 31 1006 74 7000 4.6 240 17:19 29.05.2020
2387 Clouds 31 1006 74 8000 4.1 260 16:43 29.05.2020
2388 Clouds 31 1006 74 8000 4.1 260 16:24 29.05.2020
2389 Clouds 32 1006 66 8000 5.1 250 15:56 29.05.2020
2390 Clouds 32 1006 70 8000 4.6 260 15:38 29.05.2020
2391 Clouds 32 1006 70 8000 4.6 260 15:19 29.05.2020
2392 Clouds 32 1005 70 8000 6.2 280 14:43 29.05.2020
2393 Clouds 32 1005 70 8000 6.2 280 14:23 29.05.2020
2394 Clouds 33 1005 66 8000 6.2 250 13:57 29.05.2020
2395 Clouds 33 1005 66 8000 6.2 270 13:38 29.05.2020
2396 Clouds 33 1005 66 8000 7.2 250 13:18 29.05.2020
2397 Clouds 33 1006 63 8000 6.2 260 12:42 29.05.2020
2398 Clouds 33 1006 63 8000 6.2 260 12:23 29.05.2020
2399 Clouds 33 1006 66 8000 6.7 260 11:45 29.05.2020
2400 Clouds 33 1006 66 8000 6.7 260 11:27 29.05.2020
2401 Clouds 34 1006 59 8000 6.2 270 10:58 29.05.2020
2402 Clouds 34 1006 59 8000 6.2 270 10:38 29.05.2020
2403 Clouds 34 1006 59 8000 6.2 270 10:18 29.05.2020
2404 Clouds 34 1007 59 8000 6.2 250 09:44 29.05.2020
2405 Clouds 34 1007 59 8000 6.2 250 09:20 29.05.2020
2406 Clouds 33 1007 66 8000 4.6 230 08:56 29.05.2020
2407 Clouds 34 1008 63 8000 4.6 280 08:37 29.05.2020
2408 Clouds 34 1008 63 8000 4.6 280 08:19 29.05.2020
2409 Clouds 33 1008 63 7000 4.1 230 07:40 29.05.2020
2410 Clouds 33 1008 63 7000 4.1 230 07:21 29.05.2020
2411 Clouds 32 1009 66 6000 3.1 240 06:48 29.05.2020
2412 Clouds 32 1009 66 6000 3.1 240 06:27 29.05.2020
2413 Haze 32 1009 66 5000 3.1 290 05:51 29.05.2020
2414 Haze 30 1007 79 4000 2.1 250 02:56 29.05.2020
2415 Haze 30 1006 79 4000 4.1 250 01:42 29.05.2020
2416 Haze 30 1006 79 4000 4.1 250 01:23 29.05.2020
2417 Haze 30 1006 79 4000 3.1 250 00:46 29.05.2020
2418 Haze 30 1006 79 4000 3.1 250 00:21 29.05.2020
2419 Haze 30 1007 79 4000 3.6 250 23:40 28.05.2020
2420 Haze 30 1007 79 4000 3.6 250 23:19 28.05.2020
2421 Haze 30 1007 79 4000 4.1 250 22:45 28.05.2020
2422 Haze 30 1007 79 4000 4.1 250 22:26 28.05.2020
2423 Haze 31 1007 74 4000 5.1 250 21:59 28.05.2020
2424 Haze 31 1007 74 4000 3.6 220 21:40 28.05.2020
2425 Haze 31 1007 74 4000 3.6 220 21:20 28.05.2020
2426 Haze 31 1007 74 4000 2.6 240 20:58 28.05.2020
2427 Haze 31 1007 74 4000 3.1 250 20:39 28.05.2020
2428 Haze 31 1007 74 5000 4.1 240 20:19 28.05.2020
2429 Haze 31 1007 74 5000 4.1 240 19:57 28.05.2020
2430 Haze 31 1007 74 5000 5.1 260 19:39 28.05.2020
2431 Haze 31 1007 70 5000 4.6 250 19:20 28.05.2020
2432 Haze 31 1006 74 5000 5.1 260 18:43 28.05.2020
2433 Haze 31 1006 74 5000 5.1 260 18:25 28.05.2020
2434 Haze 31 1006 79 5000 5.1 250 17:57 28.05.2020
2435 Haze 31 1006 74 5000 5.7 260 17:39 28.05.2020
2436 Haze 31 1006 74 5000 5.7 260 17:19 28.05.2020
2437 Haze 31 1006 74 5000 5.1 250 16:45 28.05.2020
2438 Haze 31 1006 74 5000 5.1 250 16:21 28.05.2020
2439 Clouds 32 1005 70 6000 5.1 260 15:47 28.05.2020
2440 Clouds 32 1005 70 6000 5.1 260 15:25 28.05.2020
2441 Clouds 32 1005 66 7000 6.2 260 14:59 28.05.2020
2442 Clouds 32 1005 70 8000 5.7 250 14:40 28.05.2020
2443 Clouds 32 1005 70 8000 5.7 250 14:22 28.05.2020
2444 Clouds 32 1005 70 8000 5.7 250 14:22 28.05.2020
2445 Clouds 32 1005 66 8000 4.6 250 13:45 28.05.2020
2446 Clouds 32 1005 66 8000 4.6 250 13:27 28.05.2020
2447 Clouds 32 1005 66 0 3.6 280 12:43 28.05.2020
2448 Clouds 32 1005 66 0 3.6 280 12:20 28.05.2020
2449 Clouds 33 1005 63 0 3.6 280 11:57 28.05.2020
2450 Clouds 33 1006 59 0 5.7 280 11:39 28.05.2020
2451 Clouds 33 1006 59 0 5.7 280 11:20 28.05.2020
2452 Clouds 33 1006 59 8000 5.7 240 10:43 28.05.2020
2453 Clouds 33 1006 59 8000 5.7 240 10:25 28.05.2020
2454 Clouds 33 1007 63 8000 5.7 270 09:56 28.05.2020
2455 Clouds 33 1007 59 8000 4.1 280 09:38 28.05.2020
2456 Clouds 33 1007 63 8000 6.2 260 09:18 28.05.2020
2457 Clouds 33 1008 59 8000 6.2 250 08:43 28.05.2020
2458 Clouds 33 1008 59 8000 6.2 250 08:22 28.05.2020
2459 Clouds 32 1008 62 8000 4.6 250 07:41 28.05.2020
2460 Clouds 32 1008 62 8000 4.6 250 07:23 28.05.2020
2461 Clouds 32 1008 66 6000 2.1 270 06:44 28.05.2020
2462 Clouds 32 1008 66 6000 2.1 270 06:26 28.05.2020
2463 Haze 31 1008 70 5000 4.6 280 05:39 28.05.2020
2464 Haze 31 1008 70 5000 5.1 260 04:37 28.05.2020
2465 Haze 31 1008 70 5000 5.1 260 04:18 28.05.2020
2466 Haze 30 1007 74 4000 4.6 260 02:56 28.05.2020
2467 Haze 30 1007 74 4000 4.6 240 02:38 28.05.2020
2468 Haze 30 1007 74 4000 3.6 250 01:45 28.05.2020
2469 Haze 30 1007 74 4000 4.1 250 00:49 28.05.2020
2470 Haze 30 1007 74 4000 4.1 240 00:20 28.05.2020
2471 Haze 30 1007 74 4000 4.6 240 23:56 27.05.2020
2472 Haze 30 1007 74 4000 4.1 220 23:37 27.05.2020
2473 Haze 30 1007 74 4000 4.1 220 23:19 27.05.2020
2474 Haze 30 1008 74 4000 4.1 230 22:42 27.05.2020
2475 Haze 30 1008 74 4000 4.1 230 22:23 27.05.2020
2476 Haze 30 1008 74 4000 4.1 230 21:57 27.05.2020
2477 Haze 30 1008 74 4000 4.1 230 21:57 27.05.2020
2478 Haze 30 1008 74 4000 3.1 210 21:39 27.05.2020
2479 Haze 30 1008 74 4000 3.1 210 21:39 27.05.2020
2480 Haze 30 1008 74 4000 3.1 210 21:20 27.05.2020
2481 Haze 30 1008 74 4000 3.6 200 20:58 27.05.2020
2482 Haze 30 1008 74 4000 3.6 230 20:39 27.05.2020
2483 Haze 30 1008 74 4000 3.6 230 20:19 27.05.2020
2484 Haze 30 1008 74 4000 3.6 240 19:46 27.05.2020
2485 Haze 31 1008 70 4000 4.1 240 19:21 27.05.2020
2486 Haze 31 1008 70 4000 4.1 240 18:54 27.05.2020
2487 Haze 31 1007 70 4500 2.6 200 18:36 27.05.2020
2488 Haze 31 1007 70 4500 3.1 220 18:18 27.05.2020
2489 Haze 31 1007 70 4500 3.6 240 17:42 27.05.2020
2490 Haze 31 1007 70 4500 3.6 240 17:23 27.05.2020
2491 Haze 31 1007 70 4500 3.6 250 16:56 27.05.2020
2492 Haze 31 1006 70 5000 4.1 260 16:38 27.05.2020
2493 Haze 31 1006 70 5000 4.1 260 16:19 27.05.2020
2494 Clouds 31 1006 70 7000 4.6 250 15:49 27.05.2020
2495 Clouds 31 1006 70 7000 4.6 250 15:23 27.05.2020
2496 Clouds 32 1006 66 7000 5.7 270 14:55 27.05.2020
2497 Clouds 32 1006 66 7000 5.7 260 14:37 27.05.2020
2498 Clouds 32 1006 66 7000 5.7 260 14:19 27.05.2020
2499 Clouds 32 1006 66 7000 5.7 260 14:19 27.05.2020
2500 Clouds 32 1006 66 7000 4.6 260 13:41 27.05.2020
2501 Clouds 32 1006 66 7000 4.6 260 13:23 27.05.2020
2502 Clouds 33 1006 63 7000 6.2 260 12:42 27.05.2020
2503 Clouds 33 1006 63 7000 6.2 260 12:24 27.05.2020
2504 Clouds 33 1007 63 7000 7.2 260 11:58 27.05.2020
2505 Clouds 33 1007 63 7000 6.7 270 11:37 27.05.2020
2506 Clouds 33 1007 63 7000 6.7 270 11:19 27.05.2020
2507 Clouds 33 1008 63 6000 4.6 280 10:44 27.05.2020
2508 Clouds 33 1008 63 6000 4.6 280 10:24 27.05.2020
2509 Clouds 33 1008 63 6000 6.2 260 09:58 27.05.2020
2510 Clouds 33 1008 59 6000 7.2 260 09:39 27.05.2020
2511 Clouds 33 1008 59 6000 7.2 260 09:20 27.05.2020
2512 Clouds 33 1009 59 6000 6.7 270 08:42 27.05.2020
2513 Clouds 33 1009 59 6000 6.7 270 08:24 27.05.2020
2514 Clouds 32 1009 66 6000 6.2 270 07:54 27.05.2020
2515 Clouds 32 1009 66 6000 5.7 260 07:35 27.05.2020
2516 Clouds 32 1009 66 6000 5.1 280 06:57 27.05.2020
2517 Clouds 32 1009 66 6000 6.2 270 06:33 27.05.2020
2518 Clouds 31 1009 74 6000 4.6 270 05:55 27.05.2020
2519 Haze 31 1009 70 4000 4.6 290 05:35 27.05.2020
2520 Haze 30 1008 79 4000 2.6 290 04:19 27.05.2020
2521 Haze 30 1008 74 4000 3.6 280 02:30 27.05.2020
2522 Haze 30 1007 79 4000 2.6 300 01:51 27.05.2020
2523 Haze 30 1007 79 4000 4.1 270 01:20 27.05.2020
2524 Haze 30 1007 79 4000 4.6 260 00:44 27.05.2020
2525 Haze 30 1007 79 4000 4.6 260 00:19 27.05.2020
2526 Haze 30 1008 79 4000 3.1 260 23:43 26.05.2020
2527 Haze 30 1008 79 4000 3.1 260 23:25 26.05.2020
2528 Haze 30 1008 79 4000 4.1 270 22:59 26.05.2020
2529 Haze 30 1008 79 4000 4.1 240 22:38 26.05.2020
2530 Haze 30 1008 79 4000 4.1 240 22:20 26.05.2020
2531 Haze 30 1008 79 4000 3.6 250 21:57 26.05.2020
2532 Haze 30 1008 79 4000 3.6 250 21:39 26.05.2020
2533 Haze 30 1008 79 4000 3.6 250 21:20 26.05.2020
2534 Haze 30 1009 79 4000 3.6 250 20:42 26.05.2020
2535 Haze 30 1009 79 4000 3.6 250 20:21 26.05.2020
2536 Haze 30 1009 79 4000 4.1 250 19:56 26.05.2020
2537 Haze 30 1009 79 4000 3.6 260 19:37 26.05.2020
2538 Haze 31 1009 74 4000 4.1 250 19:18 26.05.2020
2539 Haze 31 1009 74 4000 4.1 260 18:41 26.05.2020
2540 Haze 31 1009 74 4000 4.1 260 18:22 26.05.2020
2541 Haze 31 1008 74 5000 4.1 250 17:44 26.05.2020
2542 Haze 31 1008 74 5000 4.1 250 17:26 26.05.2020
2543 Haze 31 1008 74 5000 5.7 260 16:59 26.05.2020
2544 Haze 31 1008 74 5000 5.7 250 16:41 26.05.2020
2545 Haze 31 1008 74 5000 5.7 250 16:19 26.05.2020
2546 Clouds 31 1007 74 6000 5.7 260 15:44 26.05.2020
2547 Clouds 31 1007 74 6000 5.7 260 15:21 26.05.2020
2548 Clouds 32 1007 70 6000 5.7 270 14:59 26.05.2020
2549 Clouds 32 1007 70 6000 5.1 250 14:41 26.05.2020
2550 Clouds 32 1007 66 7000 5.7 250 14:21 26.05.2020
2551 Clouds 32 1007 66 7000 6.2 250 13:42 26.05.2020
2552 Clouds 32 1007 66 7000 6.2 250 13:23 26.05.2020
2553 Clouds 33 1007 63 7000 6.2 270 12:57 26.05.2020
2554 Clear 33 1007 63 7000 5.7 260 12:39 26.05.2020
2555 Clear 33 1007 63 7000 5.7 260 12:19 26.05.2020
2556 Clouds 33 1008 63 7000 6.2 260 11:41 26.05.2020
2557 Clouds 33 1008 63 7000 6.2 260 11:21 26.05.2020
2558 Clouds 33 1008 63 7000 6.2 260 10:58 26.05.2020
2559 Clouds 33 1009 63 7000 6.2 280 10:38 26.05.2020
2560 Clouds 33 1009 63 7000 6.2 280 10:18 26.05.2020
2561 Clouds 33 1009 66 6000 5.1 240 09:39 26.05.2020
2562 Clouds 33 1009 66 6000 5.1 240 09:19 26.05.2020
2563 Clouds 33 1010 63 6000 5.7 270 08:42 26.05.2020
2564 Clouds 33 1010 63 6000 5.7 270 08:22 26.05.2020
2565 Clouds 32 1010 70 6000 4.6 250 07:44 26.05.2020
2566 Clouds 32 1010 70 6000 4.6 250 07:25 26.05.2020
2567 Clouds 32 1009 70 6000 3.6 280 06:57 26.05.2020
2568 Haze 32 1009 70 5000 3.6 260 06:39 26.05.2020
2569 Haze 32 1009 75 5000 4.1 270 05:53 26.05.2020
2570 Haze 31 1009 74 5000 3.1 270 05:29 26.05.2020
2571 Haze 30 1008 84 5000 2.1 310 04:52 26.05.2020
2572 Haze 30 1008 84 5000 2.1 310 04:33 26.05.2020
2573 Haze 30 1008 84 5000 2.1 260 03:55 26.05.2020
2574 Haze 30 1007 84 5000 2.6 300 02:45 26.05.2020
2575 Haze 30 1007 84 5000 2.1 330 01:48 26.05.2020
2576 Haze 30 1007 84 5000 2.1 330 01:27 26.05.2020
2577 Haze 30 1007 84 5000 2.1 310 00:37 26.05.2020
2578 Haze 30 1007 84 5000 2.1 310 00:19 26.05.2020
2579 Haze 30 1007 79 5000 3.1 300 23:55 25.05.2020
2580 Haze 30 1007 79 5000 2.1 310 23:36 25.05.2020
2581 Haze 30 1007 79 5000 3.1 300 23:18 25.05.2020
2582 Haze 30 1007 79 5000 3.1 300 22:54 25.05.2020
2583 Haze 30 1007 79 5000 2.1 290 22:36 25.05.2020
2584 Haze 30 1008 84 5000 3.6 300 22:18 25.05.2020
2585 Haze 30 1008 84 5000 3.6 300 21:54 25.05.2020
2586 Haze 30 1008 84 5000 2.6 290 21:36 25.05.2020
2587 Haze 30 1008 84 5000 2.6 310 21:18 25.05.2020
2588 Haze 30 1008 84 5000 2.6 320 20:42 25.05.2020
2589 Haze 30 1008 84 5000 2.6 320 20:21 25.05.2020
2590 Haze 30 1009 84 5000 3.1 330 19:59 25.05.2020
2591 -273 0 0 0 0 0 19:59 25.05.2020
2592 Haze 30 1009 84 5000 2.6 320 19:39 25.05.2020
2593 Haze 30 1008 84 5000 4.6 320 19:18 25.05.2020
2594 Haze 30 1008 84 5000 3.6 310 18:45 25.05.2020
2595 Haze 30 1008 84 5000 3.6 310 18:22 25.05.2020
2596 Haze 30 1008 84 5000 5.1 300 17:59 25.05.2020
2597 Haze 30 1008 84 5000 4.6 300 17:40 25.05.2020
2598 Haze 30 1008 84 5000 4.6 300 17:22 25.05.2020
2599 Clouds 30 1007 84 6000 4.1 300 16:56 25.05.2020
2600 Clouds 31 1007 79 6000 4.6 290 16:38 25.05.2020
2601 Clouds 31 1007 79 6000 4.6 290 16:19 25.05.2020
2602 Clouds 31 1007 74 6000 5.7 280 15:42 25.05.2020
2603 Clouds 31 1007 74 6000 5.7 280 15:19 25.05.2020
2604 Clouds 31 1007 70 6000 6.2 250 14:56 25.05.2020
2605 Clouds 32 1007 66 6000 4.1 270 14:38 25.05.2020
2606 Clouds 32 1007 70 6000 3.6 270 14:18 25.05.2020
2607 Clouds 32 1007 70 6000 4.6 270 13:39 25.05.2020
2608 Clouds 33 1007 66 6000 4.1 280 13:20 25.05.2020
2609 Clouds 33 1007 66 6000 4.1 280 12:57 25.05.2020
2610 Clouds 32 1007 70 6000 6.7 280 12:38 25.05.2020
2611 Clouds 32 1008 70 6000 7.2 280 12:20 25.05.2020
2612 Clouds 33 1008 66 6000 3.6 270 11:39 25.05.2020
2613 Clouds 33 1008 66 6000 3.6 270 11:20 25.05.2020
2614 Clouds 33 1009 66 6000 6.2 280 10:56 25.05.2020
2615 Clouds 33 1009 66 6000 6.2 280 10:56 25.05.2020
2616 Clouds 32 1008 70 6000 4.1 260 10:37 25.05.2020
2617 Clouds 32 1008 70 6000 4.1 260 10:19 25.05.2020
2618 Clouds 32 1009 70 6000 3.6 250 09:54 25.05.2020
2619 Clouds 32 1009 70 6000 5.1 260 09:36 25.05.2020
2620 Clouds 32 1009 75 6000 4.1 250 09:18 25.05.2020
2621 Clouds 32 1009 75 6000 4.1 250 09:18 25.05.2020
2622 Clouds 32 1009 75 6000 5.7 260 08:39 25.05.2020
2623 Clouds 32 1009 75 6000 6.2 250 08:20 25.05.2020
2624 Clouds 33 1009 70 6000 5.1 260 07:48 25.05.2020
2625 Clouds 33 1009 70 6000 5.1 260 07:27 25.05.2020
2626 Haze 33 1009 66 5000 4.6 270 06:57 25.05.2020
2627 Haze 32 1009 70 5000 3.1 230 06:35 25.05.2020
2628 Haze 32 1010 70 4000 2.6 290 05:25 25.05.2020
2629 Haze 30 1008 84 4000 2.54 11 03:28 25.05.2020
2630 Haze 30 1007 79 4000 2.1 340 02:47 25.05.2020
2631 Haze 30 1007 79 4000 2.1 340 02:20 25.05.2020
2632 Haze 30 1007 79 4000 2.1 310 01:42 25.05.2020
2633 Haze 30 1007 79 4000 3.1 300 00:47 25.05.2020
2634 Haze 30 1007 79 4000 3.1 300 00:26 25.05.2020
2635 Haze 30 1007 79 4000 2.6 300 23:58 24.05.2020
2636 Haze 30 1007 79 4000 3.1 300 23:39 24.05.2020
2637 Haze 30 1007 79 4000 3.1 300 23:39 24.05.2020
2638 Haze 30 1007 79 4000 3.1 300 23:39 24.05.2020
2639 Haze 30 1007 79 4000 3.1 300 23:39 24.05.2020
2640 Haze 30 1007 79 4000 3.1 300 23:20 24.05.2020
2641 Haze 30 1007 79 4000 3.1 310 22:55 24.05.2020
2642 Haze 30 1008 84 4000 3.1 290 22:37 24.05.2020
2643 Haze 30 1008 79 4000 3.1 290 22:18 24.05.2020
2644 Haze 30 1008 79 4000 3.1 290 21:54 24.05.2020
2645 Haze 30 1008 84 4000 2.1 310 21:36 24.05.2020
2646 Haze 30 1008 84 4000 4.1 300 21:18 24.05.2020
2647 Haze 30 1008 84 4000 4.6 290 20:42 24.05.2020
2648 Haze 30 1008 84 4000 4.6 290 20:21 24.05.2020
2649 Haze 30 1008 84 4000 4.1 280 19:56 24.05.2020
2650 Haze 30 1008 84 4000 4.1 280 19:37 24.05.2020
2651 Haze 30 1008 84 4000 4.1 290 19:18 24.05.2020
2652 Haze 30 1008 84 4000 4.6 290 18:42 24.05.2020
2653 Haze 30 1008 84 4000 4.6 290 18:23 24.05.2020
2654 Haze 30 1008 84 4000 3.6 290 17:57 24.05.2020
2655 Haze 30 1007 79 4000 3.6 280 17:38 24.05.2020
2656 Haze 31 1007 74 4000 5.1 290 17:19 24.05.2020
2657 Haze 31 1007 74 4000 5.1 290 16:56 24.05.2020
2658 Haze 31 1006 70 5000 4.6 310 16:37 24.05.2020
2659 Haze 31 1006 70 5000 4.6 310 16:19 24.05.2020
2660 Haze 31 1006 70 5000 4.6 310 15:55 24.05.2020
2661 Clear 32 1006 66 6000 4.1 300 15:37 24.05.2020
2662 Clear 32 1006 70 6000 4.6 280 15:18 24.05.2020
2663 Clear 32 1006 70 6000 5.1 280 14:42 24.05.2020
2664 Clear 32 1006 70 6000 4.6 290 14:22 24.05.2020
2665 Clouds 33 1006 66 6000 6.7 280 13:57 24.05.2020
2666 Clouds 33 1006 66 6000 6.7 280 13:38 24.05.2020
2667 Clouds 33 1006 66 6000 6.7 280 13:20 24.05.2020
2668 Clouds 32 1006 70 6000 5.7 290 12:57 24.05.2020
2669 Clouds 32 1006 70 6000 7.7 270 12:38 24.05.2020
2670 Clouds 32 1007 70 6000 6.7 280 12:20 24.05.2020
2671 Clouds 32 1007 70 6000 6.7 280 11:56 24.05.2020
2672 Clouds 32 1007 70 6000 6.7 280 11:56 24.05.2020
2673 Clouds 33 1007 66 6000 5.7 280 11:38 24.05.2020
2674 Clouds 33 1007 66 6000 5.7 280 11:20 24.05.2020
2675 Clouds 33 1008 66 6000 3.6 270 10:55 24.05.2020
2676 Clouds 33 1008 66 6000 6.2 280 10:36 24.05.2020
2677 Clouds 33 1008 66 6000 3.6 270 10:18 24.05.2020
2678 Haze 33 1008 66 5000 6.2 270 09:41 24.05.2020
2679 Haze 33 1009 66 5000 5.7 260 09:18 24.05.2020
2680 Haze 33 1009 66 5000 5.7 260 08:56 24.05.2020
2681 Haze 32 1009 70 5000 6.2 270 08:37 24.05.2020
2682 Haze 32 1009 70 5000 6.2 270 08:19 24.05.2020
2683 Haze 32 1009 66 4000 4.6 250 07:42 24.05.2020
2684 Haze 32 1009 66 4000 4.6 250 07:24 24.05.2020
2685 Haze 33 1009 70 4000 5.1 260 06:48 24.05.2020
2686 Haze 32 1009 70 4000 5.1 260 06:25 24.05.2020
2687 Haze 30 1008 79 4000 2.1 300 04:52 24.05.2020
2688 Haze 30 1008 79 4000 2.1 310 03:41 24.05.2020
2689 Haze 30 1007 79 4000 2.1 330 02:42 24.05.2020
2690 Haze 30 1007 79 4000 2.1 300 01:46 24.05.2020
2691 Haze 30 1007 79 4000 3.6 290 00:39 24.05.2020
2692 Haze 30 1007 79 4000 3.6 290 00:21 24.05.2020
2693 Haze 30 1007 79 4000 3.1 310 23:44 23.05.2020
2694 Haze 30 1007 79 4000 3.1 310 23:24 23.05.2020
2695 Haze 30 1007 79 4000 3.1 300 22:58 23.05.2020
2696 Haze 30 1008 79 4000 2.6 300 22:38 23.05.2020
2697 Haze 30 1008 79 4000 2.6 300 22:20 23.05.2020
2698 Haze 30 1008 79 4000 3.1 290 21:57 23.05.2020
2699 Haze 30 1008 79 4000 4.6 290 21:38 23.05.2020
2700 Haze 30 1008 79 4000 4.6 290 21:20 23.05.2020
2701 Haze 30 1008 79 4000 4.6 290 21:20 23.05.2020
2702 Haze 30 1008 84 4000 5.1 290 20:58 23.05.2020
2703 Haze 30 1008 84 4000 4.6 290 20:38 23.05.2020
2704 Haze 30 1008 84 4000 4.6 290 20:19 23.05.2020
2705 Haze 30 1008 79 4000 4.6 270 19:42 23.05.2020
2706 Haze 30 1008 79 4000 4.6 270 19:20 23.05.2020
2707 Haze 30 1008 79 4000 4.6 270 19:20 23.05.2020
2708 Haze 30 1008 79 4000 5.1 270 18:59 23.05.2020
2709 Haze 30 1008 79 4000 4.6 270 18:40 23.05.2020
2710 Haze 30 1008 79 4000 4.6 270 18:40 23.05.2020
2711 Haze 30 1008 79 4000 4.6 270 18:22 23.05.2020
2712 Clouds 30 1008 79 6000 4.6 280 17:56 23.05.2020
2713 Clouds 30 1008 79 7000 5.1 280 17:38 23.05.2020
2714 Clouds 30 1007 79 7000 5.7 270 17:19 23.05.2020
2715 Clouds 30 1007 79 7000 5.7 270 16:56 23.05.2020
2716 Clouds 31 1007 74 7000 6.2 270 16:38 23.05.2020
2717 Clouds 31 1007 74 7000 6.2 270 16:19 23.05.2020
2718 Clouds 31 1006 70 7000 6.7 260 15:42 23.05.2020
2719 Clouds 31 1006 70 7000 6.2 270 15:24 23.05.2020
2720 Clouds 31 1006 70 7000 6.7 260 15:24 23.05.2020
2721 Clouds 31 1006 70 7000 6.2 270 14:58 23.05.2020
2722 Clouds 31 1006 70 7000 6.2 270 14:39 23.05.2020
2723 Clouds 32 1005 70 6000 6.2 270 14:21 23.05.2020
2724 Clouds 32 1005 70 6000 6.2 270 13:41 23.05.2020
2725 Clouds 32 1005 70 6000 6.2 270 13:19 23.05.2020
2726 Haze 33 1005 63 5000 4.1 280 13:19 23.05.2020
2727 Haze 33 1005 63 5000 4.1 280 12:56 23.05.2020
2728 Haze 33 1005 63 5000 4.1 280 12:38 23.05.2020
2729 Haze 33 1005 63 5000 4.1 280 12:19 23.05.2020
2730 Haze 34 1006 59 5000 4.6 270 11:43 23.05.2020
2731 Haze 34 1006 59 5000 4.6 270 11:22 23.05.2020
2732 Haze 34 1006 59 5000 5.1 280 10:57 23.05.2020
2733 Haze 33 1006 63 5000 4.6 290 10:39 23.05.2020
2734 Haze 34 1007 59 5000 4.6 290 10:20 23.05.2020
2735 Haze 34 1007 59 5000 4.6 290 09:58 23.05.2020
2736 Haze 34 1007 59 5000 3.6 290 09:40 23.05.2020
2737 Haze 34 1007 59 5000 3.6 290 09:21 23.05.2020
2738 Haze 35 1007 59 5000 5.7 270 08:44 23.05.2020
2739 Haze 35 1007 59 5000 5.7 270 08:20 23.05.2020
2740 Haze 35 1007 56 5000 5.7 280 07:57 23.05.2020
2741 Smoke 35 1008 49 5000 2.1 310 07:37 23.05.2020
2742 Haze 34 1008 55 4000 3.1 300 07:19 23.05.2020
2743 Haze 34 1008 55 4000 4.1 330 06:38 23.05.2020
2744 Haze 31 1008 66 4000 2.6 20 05:34 23.05.2020
2745 Haze 29 1006 79 4000 2.92 0 03:43 23.05.2020
2746 Haze 29 1006 83 4000 2.67 348 02:59 23.05.2020
2747 Haze 29 1006 83 4000 2.06 338 01:58 23.05.2020
2748 Haze 29 1006 83 4000 2.08 329 01:26 23.05.2020
2749 Haze 29 1006 83 4000 2.08 329 00:47 23.05.2020
2750 Haze 29 1006 83 4000 1.99 333 00:26 23.05.2020
2751 Haze 30 1006 79 4000 1.99 333 23:58 22.05.2020
2752 Haze 30 1007 79 4000 1.5 350 23:39 22.05.2020
2753 Haze 30 1007 79 4000 1.5 350 23:19 22.05.2020
2754 Haze 30 1007 79 4000 2.29 339 22:55 22.05.2020
2755 Haze 30 1007 79 4000 2.29 339 22:36 22.05.2020
2756 Haze 30 1007 79 4000 2.6 280 22:18 22.05.2020
2757 Haze 30 1007 79 4000 2.6 280 22:18 22.05.2020
2758 Haze 30 1008 79 4000 2.1 280 21:42 22.05.2020
2759 Haze 30 1008 79 4000 2.1 280 21:21 22.05.2020
2760 Haze 30 1008 79 5000 3.6 290 20:46 22.05.2020
2761 Haze 30 1008 79 5000 3.6 290 20:21 22.05.2020
2762 Haze 30 1008 79 5000 1.5 320 19:59 22.05.2020
2763 Haze 30 1008 79 5000 2.6 300 19:40 22.05.2020
2764 Haze 30 1008 79 5000 2.6 300 19:22 22.05.2020
2765 Haze 30 1008 79 5000 3.1 300 18:39 22.05.2020
2766 Haze 30 1008 79 5000 3.1 300 18:21 22.05.2020
2767 Haze 30 1008 79 5000 4.6 300 17:58 22.05.2020
2768 Haze 30 1008 79 5000 5.1 300 17:38 22.05.2020
2769 Haze 31 1008 74 5000 4.6 290 17:18 22.05.2020
2770 Haze 31 1007 74 5000 4.6 290 16:44 22.05.2020
2771 Haze 31 1007 74 5000 4.6 290 16:20 22.05.2020
2772 Clear 31 1007 70 6000 5.7 280 15:59 22.05.2020
2773 Clear 31 1006 70 7000 4.6 290 15:41 22.05.2020
2774 Clear 32 1006 66 8000 5.1 270 15:20 22.05.2020
2775 Clear 32 1006 66 8000 4.6 280 14:44 22.05.2020
2776 Clear 32 1006 66 8000 4.6 280 14:24 22.05.2020
2777 Clear 33 1006 63 8000 3.6 270 13:49 22.05.2020
2778 Clear 33 1006 63 8000 3.6 270 13:21 22.05.2020
2779 Clear 33 1006 63 8000 5.1 270 12:56 22.05.2020
2780 Clear 33 1006 63 8000 3.6 270 12:37 22.05.2020
2781 Clear 33 1006 63 8000 3.6 270 12:19 22.05.2020
2782 Clear 33 1007 63 8000 4.1 280 11:44 22.05.2020
2783 Clear 34 1007 56 8000 5.7 280 11:21 22.05.2020
2784 Clear 34 1007 56 8000 5.7 280 11:21 22.05.2020
2785 Clear 34 1007 56 8000 5.7 280 10:55 22.05.2020
2786 Clouds 33 1007 59 8000 5.7 280 10:37 22.05.2020
2787 Clouds 33 1008 59 8000 5.1 250 10:18 22.05.2020
2788 Clouds 33 1008 59 8000 6.2 270 09:42 22.05.2020
2789 Clouds 33 1008 59 8000 5.7 260 09:20 22.05.2020
2790 Clouds 33 1009 63 7000 4.6 260 08:46 22.05.2020
2791 Clouds 33 1009 63 7000 4.6 260 08:22 22.05.2020
2792 Clouds 33 1009 63 7000 4.6 260 08:22 22.05.2020
2793 Clouds 33 1009 63 7000 4.6 280 07:58 22.05.2020
2794 Clouds 33 1009 63 7000 4.6 280 07:39 22.05.2020
2795 Clouds 33 1009 63 7000 4.6 280 07:21 22.05.2020
2796 Clouds 31 1009 70 6000 4.6 260 06:43 22.05.2020
2797 Clouds 31 1009 70 6000 4.6 260 06:25 22.05.2020
2798 Haze 31 1008 66 5000 3.6 270 05:35 22.05.2020
2799 Haze 30 1008 74 4000 2.6 290 04:47 22.05.2020
2800 Haze 30 1007 74 4000 2.6 270 03:49 22.05.2020
2801 Haze 30 1007 74 4000 2.1 260 03:29 22.05.2020
2802 Haze 30 1006 74 4000 3.1 250 01:58 22.05.2020
2803 Haze 30 1006 74 4000 2.6 240 01:31 22.05.2020
2804 Haze 30 1006 74 4000 2.21 232 00:50 22.05.2020
2805 Haze 30 1006 74 4000 3.1 240 00:29 22.05.2020
2806 Haze 30 1006 74 4000 3.1 240 23:56 21.05.2020
2807 Haze 30 1006 74 4000 3.6 260 23:37 21.05.2020
2808 Haze 30 1007 74 4000 3.6 250 23:19 21.05.2020
2809 Haze 30 1007 74 4000 3.6 250 22:57 21.05.2020
2810 Haze 30 1007 74 4000 3.1 260 22:37 21.05.2020
2811 Haze 30 1007 74 4000 3.6 250 22:18 21.05.2020
2812 Haze 30 1007 74 4000 3.6 240 21:46 21.05.2020
2813 Haze 30 1007 74 4000 3.6 240 21:26 21.05.2020
2814 Haze 30 1007 74 4000 3.1 250 20:55 21.05.2020
2815 Haze 30 1008 74 4000 2.6 240 20:37 21.05.2020
2816 Haze 30 1008 74 4000 2.6 240 20:19 21.05.2020
2817 Haze 30 1008 74 4000 3.1 250 19:39 21.05.2020
2818 Haze 30 1008 74 4000 3.1 250 19:19 21.05.2020
2819 Haze 30 1007 74 4000 3.6 250 18:55 21.05.2020
2820 Haze 30 1007 74 4000 3.6 250 18:36 21.05.2020
2821 Haze 30 1007 74 4000 4.6 250 18:18 21.05.2020
2822 Haze 30 1007 74 4000 4.1 250 17:41 21.05.2020
2823 Haze 30 1007 74 4000 4.1 250 17:22 21.05.2020
2824 Haze 30 1007 74 4000 4.1 250 17:22 21.05.2020
2825 Haze 30 1006 79 5000 5.1 280 16:47 21.05.2020
2826 Haze 30 1006 79 5000 5.1 280 16:27 21.05.2020
2827 Haze 31 1005 74 5500 4.6 260 15:57 21.05.2020
2828 Clouds 31 1005 70 6000 4.6 280 15:38 21.05.2020
2829 Clouds 31 1005 70 6000 4.6 280 15:20 21.05.2020
2830 Clouds 32 1004 66 7000 6.7 270 14:41 21.05.2020
2831 Clouds 32 1004 66 7000 6.7 270 14:19 21.05.2020
2832 Clouds 32 1004 62 8000 5.7 280 13:42 21.05.2020
2833 Clouds 32 1004 62 8000 5.7 280 13:23 21.05.2020
2834 Clouds 32 1005 62 9000 6.7 290 12:59 21.05.2020
2835 Clouds 32 1005 62 9000 6.7 280 12:38 21.05.2020
2836 Clouds 32 1005 62 9000 6.7 280 12:19 21.05.2020
2837 Clouds 32 1005 62 8000 7.2 280 12:19 21.05.2020
2838 Clouds 32 1005 62 8000 7.2 280 11:55 21.05.2020
2839 Clear 32 1005 59 7000 6.7 260 11:37 21.05.2020
2840 Clear 33 1005 59 7000 5.7 260 11:19 21.05.2020
2841 Clouds 33 1006 59 7000 6.7 250 10:39 21.05.2020
2842 Clouds 33 1006 59 7000 6.7 250 10:21 21.05.2020
2843 Clouds 33 1006 59 7000 5.1 280 09:56 21.05.2020
2844 Clouds 33 1007 55 7000 5.1 260 09:38 21.05.2020
2845 Clouds 33 1007 55 7000 5.1 260 09:20 21.05.2020
2846 Clouds 33 1008 55 7000 5.1 270 08:48 21.05.2020
2847 Clouds 33 1008 55 7000 5.1 270 08:29 21.05.2020
2848 Clouds 32 1008 59 7000 4.6 250 07:49 21.05.2020
2849 Clouds 32 1008 62 6000 4.6 240 07:28 21.05.2020
2850 Haze 32 1008 62 5000 2.1 260 06:55 21.05.2020
2851 Haze 32 1007 59 5000 3.6 240 06:25 21.05.2020
2852 Haze 31 1007 62 5000 2.1 220 05:49 21.05.2020
2853 Haze 29 1006 74 5000 1.42 236 03:22 21.05.2020
2854 Haze 29 1006 74 5000 1.5 230 02:57 21.05.2020
2855 Haze 29 1005 74 5000 1.42 236 02:31 21.05.2020
2856 Haze 30 1005 70 5000 1.59 233 01:49 21.05.2020
2857 Haze 30 1005 70 5000 2.1 230 01:24 21.05.2020
2858 Haze 30 1005 70 5000 1.5 200 00:54 21.05.2020
2859 Haze 30 1005 70 5000 2.1 240 00:25 21.05.2020
2860 Haze 30 1005 74 5000 3.1 250 23:56 20.05.2020
2861 Haze 30 1005 74 5000 2.6 240 23:37 20.05.2020
2862 Haze 30 1006 74 5000 3.1 250 23:18 20.05.2020
2863 Haze 30 1006 74 5000 2.6 240 22:42 20.05.2020
2864 Haze 30 1006 74 5000 2.6 240 22:23 20.05.2020
2865 Haze 30 1006 74 5000 2.6 250 21:42 20.05.2020
2866 Haze 30 1006 74 5000 2.6 250 21:23 20.05.2020
2867 Haze 30 1007 74 5000 3.1 260 20:59 20.05.2020
2868 Haze 30 1007 74 5000 3.6 250 20:41 20.05.2020
2869 Haze 30 1006 74 5000 3.1 240 20:22 20.05.2020
2870 Haze 30 1006 74 5000 3.1 250 19:42 20.05.2020
2871 Haze 30 1006 74 5000 3.1 270 19:23 20.05.2020
2872 Haze 30 1006 74 5000 3.1 270 18:58 20.05.2020
2873 Haze 30 1006 74 5000 4.1 270 18:39 20.05.2020
2874 Haze 30 1006 74 5000 4.1 280 18:20 20.05.2020
2875 Haze 30 1005 74 5000 4.1 280 17:39 20.05.2020
2876 Haze 30 1005 74 5000 4.1 280 17:21 20.05.2020
2877 Clouds 30 1005 74 6000 4.1 260 16:55 20.05.2020
2878 Clouds 30 1005 74 6000 3.6 260 16:36 20.05.2020
2879 Clouds 31 1004 70 6000 4.6 290 16:18 20.05.2020
2880 Clouds 31 1004 70 7000 5.1 290 15:42 20.05.2020
2881 Clouds 31 1004 70 7000 5.1 290 15:23 20.05.2020
2882 Clouds 31 1003 70 7000 5.1 260 14:44 20.05.2020
2883 Clouds 31 1003 70 7000 5.1 260 14:21 20.05.2020
2884 Clouds 32 1003 66 7000 7.2 270 13:55 20.05.2020
2885 Clouds 32 1003 62 7000 7.2 270 13:36 20.05.2020
2886 Clouds 32 1003 62 7000 5.7 300 13:18 20.05.2020
2887 Clouds 32 1003 66 7000 7.2 270 12:41 20.05.2020
2888 Clouds 32 1003 66 7000 7.2 270 12:20 20.05.2020
2889 Clouds 33 1004 59 7000 6.2 260 11:37 20.05.2020
2890 Clouds 33 1004 59 7000 6.2 280 11:19 20.05.2020
2891 Clouds 33 1005 55 6000 6.2 280 10:44 20.05.2020
2892 Clouds 33 1005 55 6000 6.2 280 10:22 20.05.2020
2893 Clouds 32 1005 62 6000 4.6 250 09:57 20.05.2020
2894 Clouds 32 1006 62 6000 5.7 270 09:38 20.05.2020
2895 Clouds 33 1006 59 6000 5.1 270 09:19 20.05.2020
2896 Clouds 32 1006 59 6000 2.6 270 08:41 20.05.2020
2897 Clouds 32 1006 59 6000 2.6 270 08:19 20.05.2020
2898 Clouds 32 1006 59 6000 2.6 290 07:49 20.05.2020
2899 Clouds 32 1006 59 6000 2.6 290 07:23 20.05.2020
2900 Clouds 32 1006 59 6000 2.6 270 06:49 20.05.2020
2901 Haze 31 1006 62 5000 4.1 240 05:59 20.05.2020
2902 Haze 30 1005 66 4000 2.1 200 04:37 20.05.2020
2903 Haze 29 1005 74 4000 1.5 210 03:58 20.05.2020
2904 Haze 29 1005 74 4000 2.1 250 03:27 20.05.2020
2905 Haze 29 1004 74 4000 2.6 280 01:33 20.05.2020
2906 Haze 29 1004 74 4000 2.6 260 00:57 20.05.2020
2907 Haze 29 1004 74 4000 2.6 260 00:38 20.05.2020
2908 Haze 29 1004 74 4000 2.6 260 00:19 20.05.2020
2909 Haze 29 1004 74 4000 3.6 260 23:36 19.05.2020
2910 Haze 30 1005 70 4000 3.1 270 23:18 19.05.2020
2911 Haze 30 1005 70 4000 3.1 270 22:54 19.05.2020
2912 Haze 30 1005 70 4000 3.6 250 22:36 19.05.2020
2913 Haze 30 1005 70 4000 3.1 260 22:18 19.05.2020
2914 Haze 30 1005 70 4000 3.1 260 21:54 19.05.2020
2915 Haze 30 1005 70 4000 2.6 250 21:36 19.05.2020
2916 Haze 30 1005 70 4000 3.1 250 21:18 19.05.2020
2917 Haze 30 1005 70 4000 3.1 250 20:54 19.05.2020
2918 Haze 30 1005 70 4000 3.1 240 20:36 19.05.2020
2919 Haze 30 1006 70 4000 2.6 240 20:18 19.05.2020
2920 Haze 30 1005 70 4000 2.6 270 19:37 19.05.2020
2921 Haze 30 1005 70 4000 3.6 260 19:19 19.05.2020
2922 Haze 30 1005 70 4000 3.1 270 18:43 19.05.2020
2923 Haze 30 1005 70 4000 3.1 270 18:22 19.05.2020
2924 Haze 30 1005 70 4000 4.1 290 17:57 19.05.2020
2925 Haze 30 1004 66 5000 3.1 300 17:38 19.05.2020
2926 Haze 30 1004 66 5000 3.1 300 17:19 19.05.2020
2927 Haze 30 1004 70 5000 3.6 290 16:41 19.05.2020
2928 Haze 30 1004 70 5000 3.6 290 16:22 19.05.2020
2929 Haze 31 1004 66 5000 3.6 290 15:56 19.05.2020
2930 Haze 31 1003 70 5000 4.1 280 15:38 19.05.2020
2931 Haze 31 1003 70 5000 4.1 280 15:19 19.05.2020
2932 Clouds 31 1003 66 6000 6.2 280 14:43 19.05.2020
2933 Clouds 31 1003 66 6000 6.2 280 14:22 19.05.2020
2934 Clouds 32 1003 62 6000 3.6 270 13:59 19.05.2020
2935 Clouds 33 1003 66 6000 5.7 260 13:40 19.05.2020
2936 Clouds 33 1003 66 6000 5.7 260 13:22 19.05.2020
2937 Clouds 33 1003 62 6000 6.2 280 12:59 19.05.2020
2938 Clouds 32 1004 62 6000 5.7 270 12:40 19.05.2020
2939 Smoke 32 1004 62 5000 4.6 290 12:22 19.05.2020
2940 Smoke 32 1004 62 5000 4.6 290 11:58 19.05.2020
2941 Smoke 32 1004 62 5000 3.6 290 11:40 19.05.2020
2942 Smoke 32 1004 62 5000 3.6 290 11:40 19.05.2020
2943 Smoke 32 1004 62 5000 3.6 290 11:21 19.05.2020
2944 Smoke 33 1005 59 5000 4.1 260 10:48 19.05.2020
2945 Smoke 33 1005 59 5000 4.1 260 10:29 19.05.2020
2946 Smoke 32 1005 62 5000 7.2 260 09:58 19.05.2020
2947 Smoke 32 1006 62 5000 7.2 270 09:40 19.05.2020
2948 Smoke 32 1006 62 5000 7.2 270 09:22 19.05.2020
2949 Haze 32 1006 62 4000 5.1 280 08:43 19.05.2020
2950 Haze 32 1006 62 4000 5.1 280 08:24 19.05.2020
2951 Haze 33 1007 66 4000 5.1 250 07:44 19.05.2020
2952 Haze 32 1007 66 4000 5.1 250 07:26 19.05.2020
2953 Haze 32 1007 62 4000 5.7 260 06:51 19.05.2020
2954 Haze 32 1007 62 4000 4.1 290 06:25 19.05.2020
2955 Haze 31 1006 66 4000 3.1 300 05:41 19.05.2020
2956 Haze 30 1006 70 4000 2.6 300 04:56 19.05.2020
2957 Haze 30 1006 74 4000 1.5 330 04:32 19.05.2020
2958 Haze 29 1004 74 4000 3.1 300 01:31 19.05.2020
2959 Haze 30 1004 70 4000 3.1 290 00:44 19.05.2020
2960 Haze 30 1004 70 4000 3.1 290 00:24 19.05.2020
2961 Haze 30 1004 70 4000 2.6 310 23:58 18.05.2020
2962 Haze 30 1004 70 4000 3.1 310 23:39 18.05.2020
2963 Haze 30 1004 70 4000 3.1 310 23:19 18.05.2020
2964 Haze 30 1005 74 4000 3.6 300 22:41 18.05.2020
2965 Haze 30 1005 74 4000 3.6 300 22:22 18.05.2020
2966 Haze 30 1005 74 4000 3.1 300 21:56 18.05.2020
2967 Haze 30 1006 74 4000 3.1 300 21:38 18.05.2020
2968 Haze 30 1006 74 4000 3.1 310 21:18 18.05.2020
2969 Haze 30 1006 79 4000 4.1 280 20:43 18.05.2020
2970 Haze 30 1006 79 4000 3.1 290 20:22 18.05.2020
2971 Haze 30 1006 79 4000 3.1 290 19:59 18.05.2020
2972 Haze 30 1006 79 4000 3.1 300 19:40 18.05.2020
2973 Haze 30 1006 79 4000 3.6 290 19:19 18.05.2020
2974 Haze 30 1005 79 4000 3.6 300 18:46 18.05.2020
2975 Haze 30 1005 79 4000 3.6 300 18:25 18.05.2020
2976 Haze 30 1005 79 4000 4.1 290 17:55 18.05.2020
2977 Haze 30 1005 79 4000 5.1 280 17:36 18.05.2020
2978 Haze 30 1004 79 5000 4.1 290 17:18 18.05.2020
2979 Haze 30 1004 79 5000 4.1 290 17:18 18.05.2020
2980 Haze 30 1004 79 5000 4.1 290 17:18 18.05.2020
2981 Haze 31 1004 70 5000 4.6 300 16:43 18.05.2020
2982 Haze 31 1004 70 5000 4.6 300 16:21 18.05.2020
2983 Clouds 31 1003 70 6000 5.1 290 15:58 18.05.2020
2984 Clouds 31 1003 70 6000 5.7 280 15:39 18.05.2020
2985 Clouds 32 1003 66 6000 6.2 280 15:20 18.05.2020
2986 Clouds 32 1003 66 6000 6.2 280 14:56 18.05.2020
2987 Clouds 32 1003 66 6000 8.2 280 14:38 18.05.2020
2988 Clouds 32 1003 66 6000 8.2 280 14:19 18.05.2020
2989 Clouds 32 1003 62 6000 7.7 300 13:41 18.05.2020
2990 Clouds 32 1003 62 6000 7.7 300 13:20 18.05.2020
2991 Clouds 32 1004 62 6000 6.2 310 12:58 18.05.2020
2992 Clouds 32 1004 62 6000 6.2 290 12:39 18.05.2020
2993 Clouds 33 1004 62 6000 6.2 290 12:19 18.05.2020
2994 Clouds 32 1004 66 6000 7.2 290 11:57 18.05.2020
2995 Clouds 32 1005 62 6000 6.2 280 11:38 18.05.2020
2996 Clouds 32 1005 62 6000 6.2 280 11:20 18.05.2020
2997 Clouds 33 1005 63 6000 7.7 250 10:42 18.05.2020
2998 Clouds 33 1005 63 6000 7.7 250 10:22 18.05.2020
2999 Clouds 32 1006 66 6000 7.7 270 09:45 18.05.2020
3000 Clouds 32 1006 66 6000 7.7 270 09:26 18.05.2020
3001 Clouds 33 1007 63 6000 7.2 280 08:54 18.05.2020
3002 Smoke 33 1007 63 5000 5.7 290 08:36 18.05.2020
3003 Smoke 32 1007 66 4000 4.6 290 08:18 18.05.2020
3004 Haze 32 1007 66 4000 5.1 290 07:41 18.05.2020
3005 Haze 32 1007 66 4000 5.1 290 07:20 18.05.2020
3006 Haze 32 1007 66 4000 3.6 320 06:46 18.05.2020
3007 Haze 31 1007 70 4000 3.6 320 06:21 18.05.2020
3008 Haze 31 1007 70 4000 3.6 330 05:42 18.05.2020
3009 Haze 30 1005 70 4000 2.1 320 03:37 18.05.2020
3010 Haze 30 1005 70 4000 3.6 310 02:31 18.05.2020
3011 Haze 30 1004 70 4000 3.1 300 01:34 18.05.2020
3012 Haze 30 1005 70 4000 2.6 290 00:38 18.05.2020
3013 Haze 30 1005 70 4000 2.1 310 00:18 18.05.2020
3014 Haze 30 1005 70 4000 1.5 300 23:42 17.05.2020
3015 Haze 30 1005 70 4000 1.5 300 23:20 17.05.2020
3016 Haze 30 1005 70 4000 2.6 290 22:59 17.05.2020
3017 Haze 30 1005 74 4000 4.1 300 22:39 17.05.2020
3018 Haze 30 1005 74 4000 4.1 300 22:21 17.05.2020
3019 Haze 30 1005 74 4000 3.6 300 21:59 17.05.2020
3020 Haze 30 1005 74 4000 3.1 300 21:41 17.05.2020
3021 Haze 30 1006 74 4000 3.1 300 21:19 17.05.2020
3022 Haze 30 1006 74 4000 3.1 300 20:55 17.05.2020
3023 Haze 31 1006 70 4000 3.1 300 20:36 17.05.2020
3024 Haze 31 1007 70 4000 3.6 300 20:18 17.05.2020
3025 Haze 31 1007 70 4000 3.1 300 19:42 17.05.2020
3026 Haze 31 1007 70 4000 3.1 300 19:23 17.05.2020
3027 Haze 31 1007 74 4000 3.6 310 18:56 17.05.2020
3028 Haze 31 1006 74 4000 4.1 280 18:37 17.05.2020
3029 Haze 31 1006 74 4000 4.1 280 18:19 17.05.2020
3030 Haze 31 1005 70 4000 3.6 300 17:40 17.05.2020
3031 Haze 31 1005 70 4000 3.6 300 17:21 17.05.2020
3032 Haze 31 1005 70 4000 5.1 290 16:57 17.05.2020
3033 Haze 31 1005 70 4000 4.1 290 16:38 17.05.2020
3034 Haze 31 1005 70 4000 4.1 290 16:19 17.05.2020
3035 Haze 31 1004 70 4000 5.1 280 15:46 17.05.2020
3036 Haze 31 1004 70 4000 5.1 280 15:24 17.05.2020
3037 Haze 31 1004 66 4000 6.2 290 14:58 17.05.2020
3038 Haze 32 1003 62 4000 5.1 300 14:39 17.05.2020
3039 Haze 32 1003 62 4000 5.1 300 14:19 17.05.2020
3040 Haze 33 1004 63 4000 6.2 290 13:41 17.05.2020
3041 Haze 33 1004 63 4000 4.6 280 13:20 17.05.2020
3042 Haze 31 1007 70 3000 1.5 300 05:25 17.05.2020
3043 Haze 30 1006 79 3000 3.17 303 03:34 17.05.2020
3044 Haze 30 1006 79 3000 2.96 319 02:27 17.05.2020
3045 Haze 30 1005 79 3000 2.57 312 01:54 17.05.2020
3046 Haze 30 1005 74 3000 1.5 350 00:52 17.05.2020
3047 Haze 30 1005 74 3000 2.6 330 00:30 17.05.2020
3048 Haze 30 1005 74 3000 3.1 320 23:56 16.05.2020
3049 Haze 30 1005 74 3000 3.6 300 23:38 16.05.2020
3050 Haze 30 1005 74 3000 3.6 300 23:19 16.05.2020
3051 Haze 30 1006 74 3500 3.1 300 22:42 16.05.2020
3052 Haze 30 1006 74 3500 3.1 300 22:23 16.05.2020
3053 Haze 30 1006 74 3500 3.1 300 22:23 16.05.2020
3054 Haze 30 1006 79 3500 4.1 270 21:59 16.05.2020
3055 Haze 30 1006 79 4000 3.1 250 21:41 16.05.2020
3056 Haze 30 1006 79 4000 3.1 250 21:21 16.05.2020
3057 Haze 31 1007 74 4000 3.1 250 20:57 16.05.2020
3058 Haze 30 1007 79 4000 3.1 220 20:38 16.05.2020
3059 Haze 31 1008 74 4000 2.1 210 20:19 16.05.2020
3060 Haze 31 1008 74 4000 3.1 250 19:43 16.05.2020
3061 Haze 31 1008 74 4000 3.1 250 19:23 16.05.2020
3062 Haze 31 1007 74 4000 2.6 300 18:59 16.05.2020
3063 Haze 31 1007 74 4000 4.6 260 18:41 16.05.2020
3064 Haze 31 1007 74 4000 1.5 280 18:22 16.05.2020
3065 Haze 31 1006 74 4000 2.1 290 17:42 16.05.2020
3066 Haze 31 1006 74 4000 2.1 290 17:22 16.05.2020
3067 Haze 31 1006 74 4000 3.1 290 16:59 16.05.2020
3068 Haze 31 1005 74 4000 3.6 300 16:39 16.05.2020
3069 Haze 31 1005 74 4000 3.6 300 16:19 16.05.2020
3070 Haze 31 1005 74 4000 5.1 310 15:55 16.05.2020
3071 Haze 31 1004 74 4000 4.1 310 15:36 16.05.2020
3072 Haze 32 1004 70 4000 3.1 300 15:18 16.05.2020
3073 Haze 32 1004 70 4000 3.6 280 14:42 16.05.2020
3074 Haze 32 1004 70 4000 4.1 270 14:20 16.05.2020
3075 Haze 32 1004 70 4000 4.1 270 13:56 16.05.2020
3076 Haze 32 1004 70 4000 6.2 290 13:37 16.05.2020
3077 Haze 32 1004 70 4000 6.2 290 13:19 16.05.2020
3078 Haze 33 1005 66 4000 4.6 280 12:44 16.05.2020
3079 Haze 32 1005 70 4000 4.6 270 12:20 16.05.2020
3080 Haze 32 1005 70 4000 4.6 270 11:56 16.05.2020
3081 Haze 32 1006 70 4000 4.6 260 11:37 16.05.2020
3082 Haze 32 1006 70 4000 6.7 260 11:18 16.05.2020
3083 Haze 32 1006 70 4000 6.7 260 10:54 16.05.2020
3084 Haze 33 1006 66 5000 6.7 270 10:36 16.05.2020
3085 Haze 33 1006 66 5000 6.7 270 10:36 16.05.2020
3086 Haze 33 1007 66 5000 6.7 270 10:18 16.05.2020
3087 Haze 33 1007 63 5000 5.1 280 09:40 16.05.2020
3088 Haze 33 1008 66 5000 6.7 270 09:18 16.05.2020
3089 Haze 33 1008 66 5000 5.7 280 08:42 16.05.2020
3090 Haze 33 1008 66 5000 5.7 280 08:21 16.05.2020
3091 Haze 32 1008 66 4000 5.7 270 07:46 16.05.2020
3092 Haze 32 1008 66 4000 5.7 270 07:26 16.05.2020
3093 Haze 32 1008 66 4000 5.7 250 06:57 16.05.2020
3094 Haze 32 1008 66 4000 3.1 260 06:37 16.05.2020
3095 Haze 32 1008 62 3000 3.1 220 06:18 16.05.2020
3096 Haze 32 1008 66 3000 2.1 190 05:32 16.05.2020
3097 Haze 30 1006 74 4000 3.73 301 03:36 16.05.2020
3098 Haze 30 1006 74 4000 4.17 293 02:59 16.05.2020
3099 Haze 30 1006 79 4000 2.1 50 02:21 16.05.2020
3100 Haze 30 1006 79 4000 3.1 330 01:47 16.05.2020
3101 Haze 30 1006 79 4000 3.1 330 01:22 16.05.2020
3102 Haze 30 1005 79 4000 4.1 330 00:46 16.05.2020
3103 Haze 30 1005 79 4000 2.6 300 00:22 16.05.2020
3104 Haze 30 1006 79 4000 3.1 310 23:41 15.05.2020
3105 Haze 30 1006 79 4000 3.1 310 23:20 15.05.2020
3106 Haze 30 1006 79 4000 2.6 320 22:58 15.05.2020
3107 Haze 30 1006 79 4000 3.6 290 22:39 15.05.2020
3108 Haze 30 1006 79 4000 3.1 300 22:18 15.05.2020
3109 Haze 30 1006 79 4000 4.1 290 21:40 15.05.2020
3110 Haze 31 1006 74 4000 4.1 300 21:22 15.05.2020
3111 Haze 31 1006 74 4000 4.1 300 20:59 15.05.2020
3112 Haze 31 1006 74 4000 3.6 300 20:41 15.05.2020
3113 Haze 31 1006 74 4000 3.6 300 20:22 15.05.2020
3114 Haze 32 1006 66 4000 3.6 280 19:58 15.05.2020
3115 Smoke 32 1006 49 4000 2.1 310 19:40 15.05.2020
3116 Smoke 32 1006 49 4000 2.1 310 19:21 15.05.2020
3117 Smoke 32 1007 49 4000 2.6 40 18:45 15.05.2020
3118 Smoke 32 1007 49 4000 2.6 40 18:27 15.05.2020
3119 Haze 31 1006 74 4000 2.1 320 17:40 15.05.2020
3120 Haze 31 1006 74 4000 2.1 320 17:20 15.05.2020
3121 Haze 31 1006 70 5000 3.1 300 16:58 15.05.2020
3122 Haze 31 1005 70 5000 3.1 300 16:39 15.05.2020
3123 Haze 31 1005 70 5000 3.1 300 16:19 15.05.2020
3124 Haze 31 1005 70 5000 3.1 310 15:58 15.05.2020
3125 Haze 32 1004 66 5000 5.1 280 15:39 15.05.2020
3126 Haze 32 1004 66 5000 5.1 280 15:19 15.05.2020
3127 Clouds 32 1004 66 6000 3.6 300 14:54 15.05.2020
3128 Clouds 31 1005 68 0 6.29 306 14:36 15.05.2020
3129 Clouds 31 1005 67 0 6.48 303 14:18 15.05.2020
3130 Clouds 31 1005 67 0 6.48 303 13:40 15.05.2020
3131 Clouds 31 1005 66 0 5.93 304 13:20 15.05.2020
3132 Clouds 33 1005 66 7000 7.2 280 12:40 15.05.2020
3133 Clouds 33 1005 66 7000 7.2 280 12:19 15.05.2020
3134 Clouds 33 1005 66 7000 7.2 280 11:57 15.05.2020
3135 Clouds 34 1006 63 7000 7.2 280 11:39 15.05.2020
3136 Clouds 34 1006 63 7000 7.2 280 11:21 15.05.2020
3137 Clouds 34 1006 63 7000 7.2 280 10:59 15.05.2020
3138 Clouds 33 1006 66 6000 7.7 290 10:40 15.05.2020
3139 Clouds 33 1006 66 6000 6.7 290 10:21 15.05.2020
3140 Clouds 33 1006 66 6000 6.7 290 09:58 15.05.2020
3141 Clouds 33 1007 63 6000 6.2 290 09:37 15.05.2020
3142 Clouds 33 1007 63 6000 6.2 290 09:18 15.05.2020
3143 Clouds 34 1007 63 6000 6.7 280 08:56 15.05.2020
3144 Clouds 33 1007 66 6000 6.2 270 08:37 15.05.2020
3145 Smoke 33 1008 63 5000 6.7 260 08:18 15.05.2020
3146 Smoke 33 1008 59 5000 3.6 290 07:42 15.05.2020
3147 Smoke 33 1008 59 5000 3.6 290 07:24 15.05.2020
3148 Haze 33 1008 59 5000 3.68 317 06:38 15.05.2020
3149 Haze 32 1008 62 4000 2.1 330 05:49 15.05.2020
3150 Haze 30 1008 74 4000 2.6 360 04:27 15.05.2020
3151 Haze 30 1007 74 4000 2.6 350 03:40 15.05.2020
3152 Haze 30 1007 79 4000 2.1 20 02:26 15.05.2020
3153 Haze 30 1007 79 4000 3.1 320 01:19 15.05.2020
3154 Haze 30 1006 79 4000 3.1 300 00:45 15.05.2020
3155 Haze 30 1006 79 4000 3.1 300 00:26 15.05.2020
3156 Haze 30 1007 79 4000 3.1 300 23:43 14.05.2020
3157 Haze 30 1007 79 4000 4.1 270 23:21 14.05.2020
3158 Haze 30 1007 79 4000 4.1 270 22:56 14.05.2020
3159 Haze 30 1007 79 4000 4.1 270 22:56 14.05.2020
3160 Haze 30 1007 79 4000 4.1 260 22:37 14.05.2020
3161 Haze 31 1007 74 4000 3.1 250 22:19 14.05.2020
3162 Haze 31 1007 74 5000 6.2 280 21:55 14.05.2020
3163 Haze 31 1007 74 5000 6.2 280 21:37 14.05.2020
3164 Haze 31 1008 74 5000 4.6 280 21:18 14.05.2020
3165 Haze 31 1008 74 5000 3.6 270 20:42 14.05.2020
3166 Haze 31 1008 74 5000 3.6 270 20:20 14.05.2020
3167 Haze 31 1008 74 5000 2.6 240 20:20 14.05.2020
3168 Haze 31 1008 74 5000 2.6 240 19:58 14.05.2020
3169 Haze 31 1008 70 5000 3.1 220 19:39 14.05.2020
3170 Haze 31 1008 70 5000 3.1 220 19:20 14.05.2020
3171 Haze 31 1008 70 5000 2.1 220 18:58 14.05.2020
3172 Haze 31 1008 70 5000 2.1 220 18:58 14.05.2020
3173 Haze 31 1008 70 5000 2.1 220 18:58 14.05.2020
3174 Haze 31 1008 70 5000 2.1 290 18:38 14.05.2020
3175 Haze 31 1008 70 5000 2.1 290 18:38 14.05.2020
3176 Haze 31 1008 70 5000 2.1 290 18:20 14.05.2020
3177 Haze 31 1007 70 5000 2.1 290 17:58 14.05.2020
3178 Haze 32 1007 66 5000 2.1 300 17:37 14.05.2020
3179 Haze 32 1007 66 5000 2.1 300 17:19 14.05.2020
3180 Haze 32 1006 66 5000 2.1 310 16:57 14.05.2020
3181 Clouds 32 1005 66 6000 4.1 310 16:38 14.05.2020
3182 Clouds 32 1005 66 6000 4.1 310 16:19 14.05.2020
3183 Clouds 32 1005 66 6000 4.1 310 15:56 14.05.2020
3184 Clouds 32 1005 70 6000 5.1 300 15:37 14.05.2020
3185 Clouds 32 1005 70 6000 3.6 300 15:18 14.05.2020
3186 Clouds 33 1004 66 6000 5.1 290 14:40 14.05.2020
3187 Clouds 33 1004 66 6000 5.1 290 14:20 14.05.2020
3188 Clouds 33 1004 66 6000 5.1 290 14:20 14.05.2020
3189 Clouds 33 1004 66 6000 5.1 290 13:57 14.05.2020
3190 Clouds 33 1004 63 6000 5.7 290 13:39 14.05.2020
3191 Clouds 33 1004 63 6000 5.7 290 13:20 14.05.2020
3192 Clouds 34 1004 59 6000 3.6 290 12:59 14.05.2020
3193 Haze 33 1005 63 6000 4.1 300 12:39 14.05.2020
3194 Haze 33 1005 63 6000 4.1 300 12:20 14.05.2020
3195 Haze 34 1005 59 5000 4.1 290 11:58 14.05.2020
3196 Haze 34 1006 59 5000 3.6 300 11:39 14.05.2020
3197 Haze 33 1006 66 5000 4.6 280 11:20 14.05.2020
3198 Haze 33 1006 66 5000 4.6 280 10:55 14.05.2020
3199 Haze 34 1006 66 5000 5.1 280 10:36 14.05.2020
3200 Haze 34 1007 66 5000 7.2 280 10:18 14.05.2020
3201 Haze 34 1007 66 5000 7.2 270 09:39 14.05.2020
3202 Haze 33 1007 66 5000 6.2 260 09:19 14.05.2020
3203 Haze 33 1007 66 5000 5.1 270 08:41 14.05.2020
3204 Haze 34 1007 66 5000 5.1 270 08:20 14.05.2020
3205 Haze 34 1008 66 5000 4.6 250 07:46 14.05.2020
3206 Haze 33 1008 66 5000 4.6 250 07:25 14.05.2020
3207 Haze 33 1008 63 5000 1.5 210 06:54 14.05.2020
3208 Haze 33 1008 66 5000 1 280 06:31 14.05.2020
3209 Haze 32 1008 70 4000 2.1 280 05:55 14.05.2020
3210 Haze 31 1008 74 4000 2.6 250 05:29 14.05.2020
3211 Haze 30 1007 79 4000 1.5 320 04:25 14.05.2020
3212 Haze 29 1006 79 4000 1.65 17 03:23 14.05.2020
3213 Haze 29 1006 79 4000 1.65 17 02:41 14.05.2020
3214 Haze 29 1006 83 4000 1.5 40 01:56 14.05.2020
3215 Haze 29 1006 83 4000 1.5 210 01:23 14.05.2020
3216 Haze 30 1006 79 4000 2.6 10 00:44 14.05.2020
3217 Haze 30 1006 79 4000 2.1 340 00:23 14.05.2020
3218 Haze 30 1006 79 4000 3.1 280 23:42 13.05.2020
3219 Haze 30 1006 79 4000 3.1 280 23:21 13.05.2020
3220 Haze 30 1006 79 4000 3.1 280 23:21 13.05.2020
3221 Haze 30 1006 79 4000 3.6 300 22:54 13.05.2020
3222 Haze 30 1006 79 4000 3.6 300 22:36 13.05.2020
3223 Haze 30 1007 79 4000 3.1 290 22:18 13.05.2020
3224 Haze 30 1007 79 4000 3.1 290 21:55 13.05.2020
3225 Haze 30 1007 79 4000 3.41 340 21:37 13.05.2020
3226 Haze 30 1008 79 4000 4.88 339 21:18 13.05.2020
3227 Haze 30 1008 79 4000 4.88 339 20:41 13.05.2020
3228 Haze 30 1008 79 4000 4.36 331 20:22 13.05.2020
3229 Haze 30 1008 79 4000 1.5 300 19:43 13.05.2020
3230 Haze 30 1008 79 4000 1.5 300 19:24 13.05.2020
3231 Haze 30 1008 79 4000 2.6 300 18:56 13.05.2020
3232 Haze 30 1007 79 4000 3.6 290 18:38 13.05.2020
3233 Haze 30 1007 79 4000 3.1 310 18:20 13.05.2020
3234 Haze 30 1007 79 4000 3.1 310 18:19 13.05.2020
3235 Haze 30 1007 79 4000 3.1 310 18:19 13.05.2020
3236 Haze 30 1007 79 4000 3.6 290 18:19 13.05.2020
3237 Haze 30 1007 79 4000 3.1 290 17:39 13.05.2020
3238 Haze 30 1007 79 4000 3.1 290 17:19 13.05.2020
3239 Haze 30 1006 79 4000 4.1 300 16:56 13.05.2020
3240 Haze 30 1006 79 4000 4.6 280 16:37 13.05.2020
3241 Haze 30 1006 79 5000 5.1 300 16:18 13.05.2020
3242 Haze 30 1006 79 5000 5.1 300 16:18 13.05.2020
3243 Haze 31 1005 74 5000 6.2 270 15:42 13.05.2020
3244 Haze 31 1005 74 5000 6.2 270 15:19 13.05.2020
3245 Haze 31 1005 74 5000 7.2 280 14:57 13.05.2020
3246 Haze 32 1005 70 5000 6.7 280 14:39 13.05.2020
3247 Haze 31 1005 74 5000 7.7 280 14:21 13.05.2020
3248 Haze 31 1005 74 5000 7.7 280 13:57 13.05.2020
3249 Haze 32 1005 70 5000 7.2 270 13:38 13.05.2020
3250 Haze 32 1005 70 5000 7.2 270 13:19 13.05.2020
3251 Haze 32 1006 70 5000 6.2 280 12:43 13.05.2020
3252 Haze 32 1006 70 5000 6.2 280 12:23 13.05.2020
3253 Haze 32 1006 70 5000 7.7 260 11:57 13.05.2020
3254 Haze 33 1007 66 5000 6.2 270 11:39 13.05.2020
3255 Haze 33 1007 66 5000 6.2 270 11:20 13.05.2020
3256 Haze 33 1007 66 5000 6.2 260 10:59 13.05.2020
3257 Haze 33 1007 63 5000 6.2 280 10:39 13.05.2020
3258 Haze 33 1007 63 5000 6.2 280 10:20 13.05.2020
3259 Haze 33 1007 63 5000 6.2 280 10:20 13.05.2020
3260 Haze 33 1008 63 5000 6.2 260 09:58 13.05.2020
3261 Haze 33 1008 66 5000 6.7 250 09:39 13.05.2020
3262 Haze 33 1008 66 5000 6.7 250 09:21 13.05.2020
3263 Haze 32 1008 66 5000 3.6 280 08:41 13.05.2020
3264 Haze 32 1008 66 5000 3.6 280 08:22 13.05.2020
3265 Smoke 33 1008 63 5000 3.6 270 07:59 13.05.2020
3266 Smoke 33 1008 63 5000 3.6 270 07:59 13.05.2020
3267 Smoke 33 1009 63 5000 3.1 260 07:36 13.05.2020
3268 Haze 33 1009 63 4000 1.5 280 06:58 13.05.2020
3269 Haze 33 1009 66 4000 2.31 314 06:40 13.05.2020
3270 Haze 31 1009 70 4000 2.1 300 05:50 13.05.2020
3271 Haze 30 1008 74 4000 2.1 100 04:22 13.05.2020
3272 Haze 29 1007 79 4000 2.14 343 02:59 13.05.2020
3273 Haze 29 1007 79 4000 2.54 341 02:20 13.05.2020
3274 Haze 30 1006 74 4000 3.31 340 01:21 13.05.2020
3275 Haze 30 1006 74 4000 2.1 290 00:41 13.05.2020
3276 Haze 30 1006 74 4000 2.1 290 00:19 13.05.2020
3277 Haze 30 1006 74 4000 2.1 300 23:40 12.05.2020
3278 Haze 29 1006 79 4000 2.1 300 23:21 12.05.2020
3279 Haze 29 1006 79 4000 2.1 300 22:57 12.05.2020
3280 Haze 29 1007 83 4000 3.1 290 22:38 12.05.2020
3281 Haze 29 1007 83 4000 2.1 280 22:20 12.05.2020
3282 Haze 29 1007 83 4000 2.1 280 21:54 12.05.2020
3283 Haze 29 1007 83 4000 3.1 330 21:36 12.05.2020
3284 Haze 29 1007 83 4000 3.1 330 21:18 12.05.2020
3285 Haze 29 1007 83 4000 3.1 330 20:56 12.05.2020
3286 Haze 30 1008 79 4000 2.6 330 20:37 12.05.2020
3287 Haze 30 1008 79 4000 2.1 300 20:19 12.05.2020
3288 Haze 30 1008 79 4000 2.1 300 19:54 12.05.2020
3289 Haze 30 1008 79 4000 2.1 300 19:36 12.05.2020
3290 Haze 30 1007 79 4000 2.6 300 19:18 12.05.2020
3291 Haze 30 1007 79 4000 3.1 320 18:41 12.05.2020
3292 Haze 30 1007 79 4000 3.1 320 18:23 12.05.2020
3293 Haze 30 1007 79 5000 3.6 300 17:54 12.05.2020
3294 Haze 30 1007 79 5000 4.6 300 17:36 12.05.2020
3295 Clouds 30 1007 79 5000 4.6 290 17:18 12.05.2020
3296 Clouds 30 1006 74 6000 5.7 290 16:42 12.05.2020
3297 Clouds 30 1006 74 6000 5.7 290 16:20 12.05.2020
3298 Clouds 31 1006 70 6000 5.1 290 15:55 12.05.2020
3299 Clouds 31 1006 70 7000 6.2 290 15:36 12.05.2020
3300 Clouds 32 1005 66 7000 5.7 290 15:18 12.05.2020
3301 Clouds 32 1005 66 7000 5.7 290 14:54 12.05.2020
3302 Clouds 32 1005 66 7000 6.2 290 14:36 12.05.2020
3303 Clouds 33 1005 63 7000 6.7 290 14:18 12.05.2020
3304 Clouds 33 1005 63 7000 6.7 290 13:54 12.05.2020
3305 Clouds 33 1005 63 7000 5.1 290 13:36 12.05.2020
3306 Clouds 34 1006 59 7000 4.6 300 13:18 12.05.2020
3307 Clouds 34 1006 59 7000 4.6 300 12:54 12.05.2020
3308 Clouds 33 1006 63 7000 5.7 300 12:36 12.05.2020
3309 Clouds 34 1007 59 7000 4.6 310 12:18 12.05.2020
3310 Clouds 34 1007 59 7000 4.6 310 11:55 12.05.2020
3311 Clouds 34 1007 59 7000 5.7 310 11:36 12.05.2020
3312 Clouds 33 1007 63 7000 2.1 270 11:18 12.05.2020
3313 Clouds 33 1007 63 7000 2.1 270 10:54 12.05.2020
3314 Clouds 33 1008 63 7000 2.1 270 10:36 12.05.2020
3315 Clouds 33 1008 63 7000 4.6 280 10:18 12.05.2020
3316 Clouds 33 1008 63 7000 4.6 280 09:54 12.05.2020
3317 Clouds 33 1009 63 6000 5.1 270 09:36 12.05.2020
3318 Clouds 33 1009 63 6000 4.6 230 09:18 12.05.2020
3319 Clouds 33 1009 63 6000 4.1 270 08:39 12.05.2020
3320 Clouds 32 1010 66 6000 3.6 260 08:19 12.05.2020
3321 Clouds 32 1010 62 6000 2.6 260 07:44 12.05.2020
3322 Clouds 32 1010 62 6000 2.6 260 07:25 12.05.2020
3323 Haze 32 1010 62 5000 2.1 20 06:50 12.05.2020
3324 Haze 32 1010 62 5000 2.07 305 06:29 12.05.2020
3325 Haze 31 1010 66 4000 2.1 30 05:59 12.05.2020
3326 Haze 31 1010 70 3500 0.69 360 05:41 12.05.2020
3327 Haze 28 1008 83 3000 1.79 37 03:48 12.05.2020
3328 Haze 28 1008 83 4000 1.96 32 02:53 12.05.2020
3329 Haze 28 1008 83 4000 2.6 14 02:26 12.05.2020
3330 Haze 29 1007 79 4000 1.66 45 01:29 12.05.2020
3331 Haze 29 1007 79 4000 1.91 29 00:40 12.05.2020
3332 Haze 29 1007 83 4000 1.5 40 00:18 12.05.2020
3333 Haze 29 1007 83 4000 1.5 40 23:54 11.05.2020
3334 Haze 29 1007 79 4000 1.5 40 23:36 11.05.2020
3335 Haze 29 1007 79 4000 2.79 348 23:18 11.05.2020
3336 Haze 29 1007 79 4000 2.79 348 22:54 11.05.2020
3337 Haze 29 1008 79 4000 2.79 348 22:36 11.05.2020
3338 Haze 29 1008 79 4000 1.5 320 22:18 11.05.2020
3339 Haze 29 1008 79 4000 1.5 320 21:54 11.05.2020
3340 Haze 29 1008 79 4000 1.5 320 21:36 11.05.2020
3341 Haze 30 1009 74 4000 2.1 310 21:18 11.05.2020
3342 Haze 30 1009 74 4000 2.1 330 20:42 11.05.2020
3343 Haze 30 1009 74 4000 2.1 330 20:21 11.05.2020
3344 Haze 30 1009 79 4000 2.6 300 19:58 11.05.2020
3345 Haze 30 1009 79 4000 3.1 290 19:40 11.05.2020
3346 Haze 30 1009 79 4000 3.6 290 19:21 11.05.2020
3347 Haze 30 1009 79 4000 3.6 290 18:56 11.05.2020
3348 Haze 30 1008 79 4000 2.6 320 18:38 11.05.2020
3349 Haze 30 1008 79 4000 3.6 290 18:19 11.05.2020
3350 Haze 30 1008 79 4000 3.6 290 17:57 11.05.2020
3351 Haze 30 1008 79 4000 3.6 290 17:57 11.05.2020
3352 Haze 30 1008 79 4000 3.6 290 17:57 11.05.2020
3353 Haze 30 1008 79 4000 4.1 290 17:38 11.05.2020
3354 Haze 30 1008 79 4000 2.6 290 17:19 11.05.2020
3355 Haze 30 1008 79 4000 4.6 260 16:45 11.05.2020
3356 Haze 30 1008 79 4000 4.6 260 16:23 11.05.2020
3357 Haze 31 1008 70 5000 4.1 240 15:59 11.05.2020
3358 Haze 32 1007 66 5000 5.1 290 15:40 11.05.2020
3359 Haze 32 1007 66 5000 5.1 290 15:20 11.05.2020
3360 Clouds 32 1007 66 6000 4.6 300 14:57 11.05.2020
3361 Clouds 33 1006 59 6000 4.6 300 14:39 11.05.2020
3362 Clouds 33 1006 59 6000 4.6 300 14:21 11.05.2020
3363 Clouds 33 1006 59 6000 4.6 300 14:21 11.05.2020
3364 Clouds 33 1006 52 6000 6.7 290 13:42 11.05.2020
3365 Clouds 33 1006 52 6000 6.7 290 13:22 11.05.2020
3366 Clouds 34 1006 49 6000 7.2 290 12:59 11.05.2020
3367 Clouds 34 1006 56 6000 5.7 310 12:41 11.05.2020
3368 Clouds 34 1006 56 6000 5.7 310 12:23 11.05.2020
3369 Clouds 34 1007 59 6000 6.7 280 11:57 11.05.2020
3370 Clouds 34 1007 59 6000 7.7 270 11:39 11.05.2020
3371 Clouds 35 1007 59 6000 7.7 270 11:21 11.05.2020
3372 Clouds 35 1007 59 6000 7.7 270 10:57 11.05.2020
3373 Clouds 35 1008 59 6000 5.1 290 10:39 11.05.2020
3374 Clouds 35 1008 59 6000 5.1 290 10:20 11.05.2020
3375 Clouds 35 1008 59 6000 7.2 260 09:57 11.05.2020
3376 Clouds 35 1008 59 6000 7.2 260 09:57 11.05.2020
3377 Clouds 34 1009 59 6000 6.2 280 09:39 11.05.2020
3378 Smoke 35 1009 63 5000 6.2 260 09:19 11.05.2020
3379 Smoke 34 1009 59 5000 6.2 270 08:44 11.05.2020
3380 Smoke 34 1009 59 5000 6.2 270 08:25 11.05.2020
3381 Smoke 34 1009 56 5000 4.1 250 07:59 11.05.2020
3382 Smoke 34 1010 49 4000 2.6 70 07:41 11.05.2020
3383 Smoke 34 1010 49 4000 2.6 70 07:23 11.05.2020
3384 Smoke 33 1010 59 4000 1.92 329 06:39 11.05.2020
3385 Haze 32 1010 62 3000 1.5 360 05:54 11.05.2020
3386 Haze 30 1009 74 3000 2.1 20 05:23 11.05.2020
3387 Haze 29 1009 79 3000 2.1 30 03:56 11.05.2020
3388 Haze 29 1009 79 4000 2.69 35 02:37 11.05.2020
3389 Haze 29 1009 79 4000 2.43 28 02:19 11.05.2020
3390 Haze 29 1008 79 4000 2.51 9 01:23 11.05.2020
3391 Haze 29 1008 79 4000 2.51 9 00:42 11.05.2020
3392 Haze 29 1008 79 4000 2.54 353 00:19 11.05.2020
3393 Haze 30 1009 74 4000 2.54 353 23:42 10.05.2020
3394 Haze 30 1009 74 4000 2.51 340 23:20 10.05.2020
3395 Haze 30 1009 74 4000 2.51 340 22:55 10.05.2020
3396 Haze 30 1009 74 4000 2.51 340 22:37 10.05.2020
3397 Haze 30 1009 74 4000 2.1 80 22:18 10.05.2020
3398 Haze 30 1009 74 4000 2.77 328 21:43 10.05.2020
3399 Haze 30 1009 74 4000 1.5 250 21:19 10.05.2020
3400 Haze 30 1009 74 4000 2.84 324 20:43 10.05.2020
3401 Haze 30 1009 74 4000 3.36 313 20:25 10.05.2020
3402 Haze 30 1009 74 4000 2.6 300 19:59 10.05.2020
3403 Haze 30 1009 74 4000 3.6 300 19:40 10.05.2020
3404 Haze 30 1008 74 4000 3.6 300 19:22 10.05.2020
3405 Haze 30 1008 74 4000 3.6 300 18:57 10.05.2020
3406 Haze 30 1008 74 4000 2.6 300 18:37 10.05.2020
3407 Haze 31 1007 70 4000 3.6 300 18:19 10.05.2020
3408 Haze 31 1007 70 4000 3.6 300 17:58 10.05.2020
3409 Haze 31 1007 70 4000 3.6 290 17:40 10.05.2020
3410 Haze 31 1007 70 4000 3.6 290 17:40 10.05.2020
3411 Haze 31 1007 70 4000 3.6 290 17:21 10.05.2020
3412 Haze 31 1007 70 4000 4.6 300 16:55 10.05.2020
3413 Haze 31 1007 70 4000 4.6 300 16:55 10.05.2020
3414 Haze 31 1006 70 4000 4.6 300 16:37 10.05.2020
3415 Haze 31 1006 70 5000 5.1 290 16:18 10.05.2020
3416 Clouds 32 1006 66 6000 6.7 280 15:42 10.05.2020
3417 Clouds 32 1006 66 6000 6.7 280 15:23 10.05.2020
3418 Clouds 32 1005 66 6000 6.7 280 14:57 10.05.2020
3419 Clouds 32 1005 70 6000 7.7 280 14:38 10.05.2020
3420 Clouds 32 1005 70 6000 7.7 280 14:38 10.05.2020
3421 Clouds 32 1005 70 6000 7.7 280 14:19 10.05.2020
3422 Clouds 32 1005 70 6000 7.7 280 13:58 10.05.2020
3423 Clouds 32 1006 70 6000 6.7 270 13:37 10.05.2020
3424 Clouds 32 1006 70 6000 6.7 270 13:19 10.05.2020
3425 Clouds 32 1006 70 6000 7.2 290 13:19 10.05.2020
3426 Clouds 32 1006 70 6000 7.2 290 12:56 10.05.2020
3427 Clouds 33 1006 66 6000 7.7 270 12:38 10.05.2020
3428 Clouds 33 1006 66 6000 7.7 270 12:20 10.05.2020
3429 Clouds 33 1007 66 6000 5.7 280 11:55 10.05.2020
3430 Clouds 33 1007 66 6000 6.7 280 11:36 10.05.2020
3431 Clouds 33 1007 66 6000 5.7 270 11:18 10.05.2020
3432 Clouds 33 1008 66 6000 6.2 290 10:43 10.05.2020
3433 Clouds 33 1008 66 6000 6.2 290 10:25 10.05.2020
3434 Clouds 33 1008 66 6000 6.2 260 09:57 10.05.2020
3435 Clouds 33 1009 66 6000 5.7 260 09:39 10.05.2020
3436 Clouds 33 1009 66 6000 5.7 260 09:20 10.05.2020
3437 Clouds 33 1009 66 6000 5.1 270 08:47 10.05.2020
3438 Clouds 33 1009 66 6000 5.1 270 08:23 10.05.2020
3439 Haze 33 1009 63 5000 4.1 270 07:44 10.05.2020
3440 Haze 33 1009 63 5000 4.1 270 07:20 10.05.2020
3441 Haze 33 1010 59 4000 2.51 328 06:52 10.05.2020
3442 Haze 32 1010 66 3000 2.51 328 06:30 10.05.2020
3443 Haze 31 1010 70 3000 2.1 30 05:48 10.05.2020
3444 Haze 30 1009 74 3000 1.96 24 04:50 10.05.2020
3445 Haze 30 1009 74 3000 2.1 10 04:31 10.05.2020
3446 Haze 29 1009 79 3000 1.5 50 03:54 10.05.2020
3447 Haze 29 1008 79 3000 1.5 30 03:35 10.05.2020
3448 Haze 29 1008 83 3000 1.5 50 02:41 10.05.2020
3449 Haze 29 1008 79 4000 1.5 10 02:18 10.05.2020
3450 Haze 29 1007 83 4000 1.5 70 01:40 10.05.2020
3451 Haze 29 1007 83 4000 1.5 70 01:19 10.05.2020
3452 Haze 29 1007 79 4000 2.51 2 00:53 10.05.2020
3453 Haze 29 1007 83 4000 2.5 354 00:23 10.05.2020
3454 Haze 29 1007 83 4000 2.5 354 23:57 09.05.2020
3455 Haze 29 1008 83 4000 2.5 354 23:39 09.05.2020
3456 Haze 29 1008 83 4000 2.86 345 23:19 09.05.2020
3457 Haze 30 1008 79 4000 2.6 330 22:42 09.05.2020
3458 Haze 30 1008 79 4000 2.6 330 22:23 09.05.2020
3459 Haze 30 1008 79 4000 2.1 300 21:58 09.05.2020
3460 Haze 30 1008 79 4000 2.1 330 21:40 09.05.2020
3461 Haze 30 1008 79 4000 2.1 330 21:21 09.05.2020
3462 Haze 30 1009 79 4000 2.1 310 20:57 09.05.2020
3463 Haze 30 1009 79 4000 1.5 310 20:38 09.05.2020
3464 Haze 30 1009 79 4000 1.5 310 20:20 09.05.2020
3465 Haze 30 1009 79 4000 1.5 300 19:56 09.05.2020
3466 Haze 30 1009 79 4000 3.1 290 19:37 09.05.2020
3467 Haze 30 1008 74 4000 3.6 290 19:18 09.05.2020
3468 Haze 30 1008 79 4000 3.1 300 18:43 09.05.2020
3469 Haze 30 1008 79 4000 3.1 300 18:24 09.05.2020
3470 Haze 30 1008 79 4000 4.6 280 17:46 09.05.2020
3471 Haze 30 1008 79 4000 4.6 280 17:23 09.05.2020
3472 Haze 30 1007 79 4000 3.6 290 16:57 09.05.2020
3473 Haze 30 1007 79 5000 5.1 280 16:38 09.05.2020
3474 Haze 31 1007 70 5000 5.1 300 16:19 09.05.2020
3475 Haze 31 1007 70 5000 5.7 300 15:44 09.05.2020
3476 Clear 32 1006 66 6000 6.2 290 15:26 09.05.2020
3477 Clear 32 1006 66 6000 6.2 290 14:56 09.05.2020
3478 Clear 32 1006 70 6000 7.2 270 14:38 09.05.2020
3479 Clear 32 1006 66 6000 4.6 270 14:18 09.05.2020
3480 Clear 32 1006 66 6000 4.6 270 13:56 09.05.2020
3481 Clear 32 1006 66 6000 6.2 270 13:38 09.05.2020
3482 Clear 33 1007 63 6000 6.7 290 13:18 09.05.2020
3483 Clear 33 1007 63 6000 6.7 290 13:18 09.05.2020
3484 Clear 32 1007 62 6000 6.2 270 12:41 09.05.2020
3485 Clear 32 1007 62 6000 6.2 270 12:22 09.05.2020
3486 Clear 32 1007 66 6000 6.7 270 11:55 09.05.2020
3487 Smoke 33 1008 59 5000 6.2 290 11:37 09.05.2020
3488 Smoke 33 1008 55 5000 5.7 280 11:18 09.05.2020
3489 Haze 33 1008 59 5000 6.7 270 10:42 09.05.2020
3490 Haze 33 1008 59 5000 6.7 270 10:23 09.05.2020
3491 Haze 32 1009 62 5000 5.7 260 09:55 09.05.2020
3492 Haze 32 1009 62 5000 6.2 250 09:37 09.05.2020
3493 Haze 33 1010 63 5000 4.6 280 09:18 09.05.2020
3494 Haze 33 1010 59 5000 5.1 270 08:48 09.05.2020
3495 Haze 33 1010 59 5000 5.1 270 08:30 09.05.2020
3496 Haze 32 1010 66 4000 3.1 260 07:48 09.05.2020
3497 Haze 32 1010 66 4000 3.1 260 07:48 09.05.2020
3498 Haze 32 1010 66 4000 3.1 260 07:30 09.05.2020
3499 Haze 33 1010 55 4000 1.46 249 06:47 09.05.2020
3500 Haze 33 1010 55 4000 0.77 182 06:22 09.05.2020
3501 Haze 30 1010 70 4000 0.77 182 05:45 09.05.2020
3502 Haze 29 1009 79 4000 0.89 119 03:44 09.05.2020
3503 Haze 29 1009 79 4000 0.71 97 03:22 09.05.2020
3504 Haze 29 1008 79 4000 0.6 25 02:30 09.05.2020
3505 Haze 29 1008 79 4000 0.8 23 01:52 09.05.2020
3506 Haze 29 1008 74 4000 1.14 347 01:23 09.05.2020
3507 Haze 29 1008 79 4000 1.14 347 00:47 09.05.2020
3508 Haze 29 1008 79 4000 1.2 325 00:29 09.05.2020
3509 Haze 29 1008 79 4000 2.1 260 23:49 08.05.2020
3510 Haze 29 1008 79 4000 2.1 260 23:29 08.05.2020
3511 Haze 29 1008 79 4000 3.1 290 22:58 08.05.2020
3512 Haze 29 1008 79 4000 3.1 290 22:58 08.05.2020
3513 Haze 29 1008 79 4000 3.1 280 22:40 08.05.2020
3514 Haze 29 1008 79 4000 3.1 280 22:19 08.05.2020
3515 Haze 30 1009 74 4000 3.1 270 21:59 08.05.2020
3516 Haze 30 1009 74 4000 3.1 250 21:39 08.05.2020
3517 Haze 30 1009 79 4000 4.1 250 21:18 08.05.2020
3518 Haze 30 1009 79 4000 4.1 250 20:56 08.05.2020
3519 Haze 30 1009 74 5000 4.1 240 20:38 08.05.2020
3520 Haze 30 1009 74 5000 4.1 240 20:20 08.05.2020
3521 Haze 30 1009 74 5000 2.6 270 19:44 08.05.2020
3522 Haze 30 1009 74 5000 2.6 270 19:24 08.05.2020
3523 Haze 30 1009 79 5000 3.1 270 18:55 08.05.2020
3524 Haze 30 1009 79 5000 3.1 240 18:37 08.05.2020
3525 Haze 30 1008 74 5000 3.6 260 18:18 08.05.2020
3526 Haze 30 1008 79 5000 4.6 280 17:42 08.05.2020
3527 Haze 30 1008 79 5500 4.1 280 17:18 08.05.2020
3528 Clouds 30 1007 79 6000 4.6 270 16:44 08.05.2020
3529 Clouds 30 1007 79 6000 4.6 270 16:26 08.05.2020
3530 Clouds 30 1007 79 6000 5.1 270 15:57 08.05.2020
3531 Clouds 30 1007 79 6000 5.1 270 15:57 08.05.2020
3532 Clouds 31 1007 74 6000 5.1 260 15:39 08.05.2020
3533 Clouds 31 1006 74 6000 6.2 260 15:18 08.05.2020
3534 Clouds 31 1006 74 6000 6.2 260 14:54 08.05.2020
3535 Clouds 31 1006 74 6000 5.7 270 14:36 08.05.2020
3536 Clear 32 1006 70 6000 5.7 290 14:18 08.05.2020
3537 Clear 32 1007 66 6000 5.1 290 13:40 08.05.2020
3538 Clear 32 1007 66 6000 5.1 290 13:20 08.05.2020
3539 Clear 33 1007 63 6000 5.7 270 12:54 08.05.2020
3540 Haze 33 1007 63 5000 5.7 290 12:36 08.05.2020
3541 Haze 32 1007 66 5000 5.1 290 12:18 08.05.2020
3542 Haze 32 1008 62 5000 5.1 270 11:43 08.05.2020
3543 Haze 32 1008 62 5000 5.1 270 11:22 08.05.2020
3544 Haze 33 1008 63 5000 4.6 280 10:58 08.05.2020
3545 Haze 33 1008 63 5000 4.1 280 10:39 08.05.2020
3546 Haze 33 1009 63 5000 5.1 280 10:19 08.05.2020
3547 Haze 32 1009 66 5000 6.2 250 09:42 08.05.2020
3548 Haze 32 1009 66 5000 6.2 250 09:20 08.05.2020
3549 Haze 33 1009 59 5000 5.1 270 08:59 08.05.2020
3550 Haze 32 1010 66 5000 4.6 280 08:40 08.05.2020
3551 Haze 32 1010 66 5000 4.6 280 08:21 08.05.2020
3552 Smoke 33 1010 59 5000 3.1 270 07:41 08.05.2020
3553 Smoke 33 1010 59 5000 3.1 270 07:23 08.05.2020
3554 Smoke 32 1010 59 4000 1.5 290 06:50 08.05.2020
3555 Haze 31 1010 62 4000 1.81 169 06:21 08.05.2020
3556 Haze 31 1009 66 4000 1.81 169 05:36 08.05.2020
3557 Haze 29 1008 74 4000 1.94 108 04:21 08.05.2020
3558 Haze 29 1008 74 4000 1.09 75 02:32 08.05.2020
3559 Haze 29 1007 74 4000 1.47 26 01:44 08.05.2020
3560 Haze 29 1008 74 4000 3.15 4 01:21 08.05.2020
3561 Haze 29 1008 74 4000 3.15 4 00:51 08.05.2020
3562 Haze 29 1008 74 4000 2.6 270 00:28 08.05.2020
3563 Haze 29 1008 74 4000 1.5 300 23:58 07.05.2020
3564 Haze 29 1008 79 4000 2.6 300 23:40 07.05.2020
3565 Haze 30 1008 74 4000 3.1 280 23:21 07.05.2020
3566 Haze 30 1008 74 4000 3.1 280 22:54 07.05.2020
3567 Haze 30 1008 74 4000 3.1 270 22:36 07.05.2020
3568 Haze 29 1009 79 4000 3.6 280 22:18 07.05.2020
3569 Haze 29 1009 79 4000 3.6 280 21:54 07.05.2020
3570 Haze 30 1009 74 4000 3.6 270 21:36 07.05.2020
3571 Haze 30 1009 74 4000 3.6 270 21:18 07.05.2020
3572 Haze 30 1009 74 4000 3.1 250 20:41 07.05.2020
3573 Haze 30 1009 74 4000 3.1 250 20:21 07.05.2020
3574 Haze 30 1009 74 4000 2.6 240 19:50 07.05.2020
3575 Haze 30 1009 74 4000 2.6 240 19:24 07.05.2020
3576 Haze 30 1009 79 4000 2.6 240 18:59 07.05.2020
3577 Haze 30 1009 79 4000 3.1 260 18:40 07.05.2020
3578 Haze 30 1009 79 4000 3.1 260 18:21 07.05.2020
3579 Haze 30 1008 79 5000 3.6 260 17:43 07.05.2020
3580 Haze 30 1008 74 5000 4.1 240 17:21 07.05.2020
3581 Haze 30 1008 74 5000 4.1 240 17:21 07.05.2020
3582 Haze 30 1008 74 5000 4.1 240 16:56 07.05.2020
3583 Haze 30 1007 74 5000 4.6 260 16:38 07.05.2020
3584 Clear 31 1007 70 6000 4.6 260 16:18 07.05.2020
3585 Clear 31 1007 70 6000 4.6 260 15:55 07.05.2020
3586 Clear 31 1006 70 6000 4.6 280 15:36 07.05.2020
3587 Clear 32 1006 66 6000 6.2 270 15:18 07.05.2020
3588 Clear 32 1006 66 6000 5.7 280 14:41 07.05.2020
3589 Clear 32 1006 66 7000 6.2 270 14:19 07.05.2020
3590 Clear 32 1007 66 7000 6.2 280 13:43 07.05.2020
3591 Clear 32 1007 66 7000 6.2 280 13:25 07.05.2020
3592 Clear 32 1007 66 7000 6.2 280 13:25 07.05.2020
3593 Clouds 32 1007 66 7000 6.2 280 12:44 07.05.2020
3594 Clouds 32 1007 66 7000 6.2 280 12:20 07.05.2020
3595 Clouds 32 1007 66 7000 5.7 270 11:59 07.05.2020
3596 Clouds 32 1007 66 7000 5.7 270 11:59 07.05.2020
3597 Clouds 32 1007 66 7000 5.7 270 11:59 07.05.2020
3598 Clouds 32 1008 62 7000 6.2 270 11:39 07.05.2020
3599 Clouds 32 1008 62 7000 6.2 270 11:20 07.05.2020
3600 Clear 32 1008 66 6000 4.1 260 10:42 07.05.2020
3601 Clear 32 1008 66 6000 4.1 260 10:23 07.05.2020
3602 Clear 33 1009 66 6000 5.1 280 09:41 07.05.2020
3603 Clear 33 1009 66 6000 5.1 280 09:41 07.05.2020
3604 Clear 33 1009 66 6000 5.1 280 09:20 07.05.2020
3605 Clouds 33 1009 63 6000 4.6 240 08:57 07.05.2020
3606 Clouds 33 1009 66 6000 5.1 270 08:38 07.05.2020
3607 Clouds 33 1009 66 6000 5.1 270 08:20 07.05.2020
3608 Clouds 33 1010 63 6000 2.1 210 07:46 07.05.2020
3609 Clouds 33 1010 63 6000 2.1 210 07:28 07.05.2020
3610 Clouds 33 1010 63 6000 2.78 290 06:52 07.05.2020
3611 Haze 32 1010 66 5000 1.5 100 06:33 07.05.2020
3612 Haze 30 1009 79 4000 0.94 278 05:38 07.05.2020
3613 Haze 30 1008 79 5000 0.84 118 04:24 07.05.2020
3614 Haze 28 1007 88 5000 0.8 115 03:26 07.05.2020
3615 Haze 28 1007 88 5000 0.8 115 02:53 07.05.2020
3616 Haze 29 1007 83 5000 1.05 49 01:46 07.05.2020
3617 Haze 29 1007 83 5000 2.03 22 01:24 07.05.2020
3618 Haze 29 1007 83 5000 2.03 22 00:50 07.05.2020
3619 Haze 29 1007 83 5000 2.03 22 00:29 07.05.2020
3620 Haze 29 1007 83 5000 2.1 320 23:57 06.05.2020
3621 Haze 30 1007 79 5000 2.6 330 23:38 06.05.2020
3622 Haze 30 1007 79 5000 2.6 330 23:19 06.05.2020
3623 Haze 30 1007 74 5000 2.1 340 22:54 06.05.2020
3624 Haze 30 1007 74 5000 1.5 10 22:36 06.05.2020
3625 Haze 30 1007 74 5000 2.6 340 22:18 06.05.2020
3626 Haze 30 1008 79 5000 2.6 310 21:42 06.05.2020
3627 Haze 30 1008 79 5000 2.6 310 21:21 06.05.2020
3628 Haze 30 1008 74 5000 2.6 300 20:54 06.05.2020
3629 Haze 30 1008 74 5000 3.98 350 20:36 06.05.2020
3630 Haze 30 1008 74 5000 1.5 300 20:18 06.05.2020
3631 Haze 30 1008 74 5000 1.5 300 19:55 06.05.2020
3632 Haze 30 1008 74 5000 1.5 280 19:36 06.05.2020
3633 Haze 30 1008 79 5000 2.6 280 19:18 06.05.2020
3634 Haze 30 1008 79 5000 2.6 280 18:54 06.05.2020
3635 Haze 30 1007 79 5000 2.6 290 18:36 06.05.2020
3636 Haze 31 1007 74 5000 3.1 290 18:18 06.05.2020
3637 Haze 31 1007 74 5000 3.1 290 17:54 06.05.2020
3638 Haze 31 1007 74 5000 3.1 280 17:36 06.05.2020
3639 Haze 31 1006 74 5000 3.6 280 17:18 06.05.2020
3640 Haze 31 1006 74 5000 3.6 280 16:54 06.05.2020
3641 Haze 31 1006 70 5000 3.1 290 16:36 06.05.2020
3642 Clear 31 1006 70 6000 3.6 290 16:18 06.05.2020
3643 Clear 32 1006 66 6000 4.6 290 15:42 06.05.2020
3644 Clear 32 1006 66 6000 4.6 290 15:22 06.05.2020
3645 Clear 33 1005 66 6000 6.2 280 14:56 06.05.2020
3646 Clouds 33 1005 70 6000 3.6 280 14:38 06.05.2020
3647 Clouds 33 1005 70 6000 4.1 280 14:18 06.05.2020
3648 Clouds 33 1005 70 6000 4.1 280 13:57 06.05.2020
3649 Clouds 33 1005 70 6000 3.6 270 13:37 06.05.2020
3650 Clouds 33 1006 70 6000 3.6 270 13:18 06.05.2020
3651 Clouds 34 1006 67 6000 5.7 270 12:42 06.05.2020
3652 Clouds 34 1006 67 6000 5.7 270 12:24 06.05.2020
3653 Clear 33 1007 70 6000 3.6 260 11:42 06.05.2020
3654 Clear 33 1007 70 6000 3.6 260 11:42 06.05.2020
3655 Clear 33 1007 70 6000 3.6 260 11:22 06.05.2020
3656 Clear 33 1007 70 6000 5.1 270 10:58 06.05.2020
3657 Haze 33 1008 70 6000 5.1 260 10:39 06.05.2020
3658 Haze 34 1008 67 6000 5.1 290 10:19 06.05.2020
3659 Haze 34 1008 67 6000 5.1 290 09:57 06.05.2020
3660 Haze 34 1008 67 5000 5.7 260 09:37 06.05.2020
3661 Haze 34 1008 67 5000 5.7 260 09:19 06.05.2020
3662 Haze 33 1009 63 5000 5.1 250 08:42 06.05.2020
3663 Haze 33 1009 63 5000 5.1 250 08:20 06.05.2020
3664 Haze 33 1009 66 5000 3.1 260 07:56 06.05.2020
3665 Haze 33 1009 66 5000 4.6 260 07:37 06.05.2020
3666 Haze 33 1009 66 5000 2.6 260 07:18 06.05.2020
3667 Haze 32 1009 70 4000 2.1 340 06:46 06.05.2020
3668 Haze 31 1009 74 4000 2.1 260 06:20 06.05.2020
3669 Haze 31 1009 74 4000 2.1 250 05:39 06.05.2020
3670 Haze 30 1008 79 4000 2.1 240 04:52 06.05.2020
3671 Haze 30 1008 79 4000 0.75 105 03:53 06.05.2020
3672 Haze 29 1007 83 4000 1.03 33 03:28 06.05.2020
3673 Haze 29 1007 83 4000 1.03 33 02:54 06.05.2020
3674 Haze 29 1007 83 4000 1.76 357 02:26 06.05.2020
3675 Haze 30 1007 79 4000 1.5 230 01:43 06.05.2020
3676 Haze 30 1007 79 4000 1.5 230 01:21 06.05.2020
3677 Haze 29 1007 83 4000 1.5 230 00:44 06.05.2020
3678 Haze 30 1007 84 4000 2.59 349 00:19 06.05.2020
3679 Haze 30 1007 84 4000 2.59 349 00:19 06.05.2020
3680 Haze 30 1007 84 4000 2.1 270 23:41 05.05.2020
3681 Haze 30 1007 84 4000 2.1 270 23:20 05.05.2020
3682 Haze 30 1007 84 4000 2.99 344 22:55 05.05.2020
3683 Haze 30 1008 84 4000 2.99 344 22:37 05.05.2020
3684 Haze 30 1008 84 4000 1.5 300 22:18 05.05.2020
3685 Haze 30 1008 84 4000 1.5 290 21:41 05.05.2020
3686 Haze 30 1008 84 4000 1.5 290 21:21 05.05.2020
3687 Haze 30 1008 79 4000 2.6 300 20:59 05.05.2020
3688 Haze 30 1009 79 4000 3.1 300 20:40 05.05.2020
3689 Haze 30 1009 79 4000 3.6 300 20:20 05.05.2020
3690 Haze 30 1009 79 4000 3.6 300 19:59 05.05.2020
3691 Haze 30 1009 84 4000 4.1 290 19:39 05.05.2020
3692 Haze 30 1009 84 4000 4.1 290 19:21 05.05.2020
3693 Haze 30 1008 79 4000 4.1 290 18:56 05.05.2020
3694 Haze 30 1008 79 4000 2.6 300 18:38 05.05.2020
3695 Haze 30 1008 79 4000 2.6 300 18:19 05.05.2020
3696 Haze 31 1008 70 4000 2.1 320 17:44 05.05.2020
3697 Haze 31 1008 70 4000 2.1 320 17:25 05.05.2020
3698 Haze 31 1007 70 5000 2.6 310 16:59 05.05.2020
3699 Haze 31 1007 70 5000 3.1 310 16:38 05.05.2020
3700 Haze 31 1007 70 5000 3.1 310 16:19 05.05.2020
3701 Clouds 31 1007 70 6000 5.1 290 15:57 05.05.2020
3702 Clouds 31 1006 70 6000 5.7 300 15:38 05.05.2020
3703 Clouds 32 1006 66 6000 6.2 290 15:20 05.05.2020
3704 Clouds 32 1006 66 6000 6.2 290 14:54 05.05.2020
3705 Clouds 32 1006 66 6000 6.2 300 14:36 05.05.2020
3706 Clouds 32 1006 70 6000 6.2 300 14:18 05.05.2020
3707 Clouds 32 1006 70 6000 6.2 300 13:54 05.05.2020
3708 Clouds 33 1006 66 6000 5.7 280 13:36 05.05.2020
3709 Clouds 33 1006 66 6000 5.7 300 13:18 05.05.2020
3710 Clouds 33 1006 66 6000 7.2 290 12:41 05.05.2020
3711 Clouds 33 1006 66 6000 7.2 290 12:22 05.05.2020
3712 Clouds 33 1007 66 6000 7.2 270 11:59 05.05.2020
3713 Clouds 33 1007 66 6000 5.7 290 11:40 05.05.2020
3714 Clouds 33 1007 66 6000 7.2 260 11:19 05.05.2020
3715 Clouds 33 1007 66 6000 7.2 260 10:55 05.05.2020
3716 Haze 33 1008 66 5000 7.2 270 10:36 05.05.2020
3717 Haze 33 1008 66 5000 7.7 260 10:18 05.05.2020
3718 Haze 33 1009 66 5000 6.7 260 09:44 05.05.2020
3719 Haze 33 1009 66 5000 7.2 270 09:26 05.05.2020
3720 Haze 33 1009 66 5000 7.2 270 08:58 05.05.2020
3721 Haze 33 1010 66 5000 6.7 260 08:39 05.05.2020
3722 Haze 32 1010 70 4000 5.7 260 08:18 05.05.2020
3723 Haze 32 1010 66 4000 5.1 260 07:43 05.05.2020
3724 Haze 32 1010 66 4000 5.1 260 07:21 05.05.2020
3725 Haze 32 1010 66 4000 4.6 250 06:54 05.05.2020
3726 Haze 32 1010 66 4000 2.6 280 06:31 05.05.2020
3727 Haze 31 1010 70 3500 2.6 300 05:53 05.05.2020
3728 Haze 30 1010 79 3500 2.12 26 04:59 05.05.2020
3729 Haze 29 1009 79 4000 3.77 2 02:39 05.05.2020
3730 Haze 29 1008 79 4000 3.36 341 00:56 05.05.2020
3731 Haze 29 1008 79 4000 3.36 341 00:33 05.05.2020
3732 Haze 29 1008 79 4000 3.54 334 23:55 04.05.2020
3733 Haze 29 1009 79 4000 2.1 270 23:36 04.05.2020
3734 Haze 29 1009 79 4000 2.1 240 23:18 04.05.2020
3735 Haze 29 1009 79 4000 2.1 240 22:42 04.05.2020
3736 Haze 29 1009 79 4000 2.1 240 22:22 04.05.2020
3737 Haze 29 1010 83 4000 1.5 250 21:59 04.05.2020
3738 Haze 29 1010 79 4000 2.1 250 21:40 04.05.2020
3739 Haze 29 1010 79 4000 2.1 250 21:40 04.05.2020
3740 Haze 29 1010 79 4000 2.1 250 21:40 04.05.2020
3741 Haze 29 1010 79 4000 2.1 250 21:19 04.05.2020
3742 Haze 29 1010 79 4000 2.1 250 21:19 04.05.2020
3743 Haze 29 1010 83 4000 3.1 270 20:41 04.05.2020
3744 Haze 29 1010 83 4000 3.1 270 20:21 04.05.2020
3745 Haze 29 1010 79 4000 3.1 270 19:58 04.05.2020
3746 Haze 30 1010 79 4000 3.6 260 19:40 04.05.2020
3747 Haze 30 1010 79 4000 3.6 260 19:40 04.05.2020
3748 Haze 30 1010 79 4000 3.6 260 19:18 04.05.2020
3749 Haze 29 1010 83 4000 4.1 270 18:39 04.05.2020
3750 Haze 30 1010 74 4000 4.6 270 18:20 04.05.2020
3751 Haze 30 1010 74 4000 4.6 270 17:57 04.05.2020
3752 Haze 30 1009 74 4500 4.1 260 17:39 04.05.2020
3753 Haze 30 1009 74 4500 4.1 260 17:20 04.05.2020
3754 Haze 30 1009 74 5000 4.1 270 16:58 04.05.2020
3755 Haze 30 1008 74 5000 5.7 270 16:40 04.05.2020
3756 Clouds 30 1008 74 6000 4.6 280 16:19 04.05.2020
3757 Clear 31 1008 66 7000 5.7 270 15:42 04.05.2020
3758 Clear 31 1008 66 7000 5.7 270 15:22 04.05.2020
3759 Clear 31 1008 70 7000 5.7 260 14:53 04.05.2020
3760 Clear 31 1008 70 7000 5.7 260 14:53 04.05.2020
3761 Clear 31 1008 70 7000 5.7 260 14:53 04.05.2020
3762 Clear 31 1008 70 7000 5.7 260 14:53 04.05.2020
3763 Clear 31 1008 70 7000 5.7 260 14:53 04.05.2020
3764 Clear 32 1008 62 7000 5.7 260 14:24 04.05.2020
3765 Clear 32 1008 62 7000 5.7 260 14:24 04.05.2020
3766 Clear 32 1008 62 7000 5.7 260 14:24 04.05.2020
3767 Clear 32 1008 62 7000 5.7 260 14:24 04.05.2020
3768 Clouds 32 1008 62 7000 5.1 300 13:22 04.05.2020
3769 Clouds 32 1008 62 7000 5.1 300 13:22 04.05.2020
3770 Clouds 32 1008 62 7000 5.1 300 13:22 04.05.2020
3771 Clouds 32 1008 62 7000 5.1 300 13:22 04.05.2020
3772 Clouds 32 1008 62 7000 5.1 300 13:22 04.05.2020
3773 Clouds 32 1008 62 7000 6.2 260 12:44 04.05.2020
3774 Clouds 32 1008 62 7000 6.2 260 12:44 04.05.2020
3775 Clouds 32 1008 62 7000 6.2 260 12:44 04.05.2020
3776 Clouds 32 1008 62 7000 6.2 260 12:44 04.05.2020
3777 Clouds 32 1008 62 7000 6.2 260 12:44 04.05.2020
3778 Clouds 32 1009 62 7000 8.2 280 11:27 04.05.2020
3779 Clouds 32 1009 62 7000 8.2 280 11:27 04.05.2020
3780 Clouds 32 1009 62 7000 8.2 280 11:27 04.05.2020
3781 Clouds 32 1009 62 7000 8.2 280 11:27 04.05.2020
3782 Clouds 32 1009 62 7000 8.2 280 11:27 04.05.2020
3783 Clouds 33 1010 66 6000 6.7 280 09:29 04.05.2020
3784 Smoke 32 1011 70 5000 5.1 260 07:54 04.05.2020
3785 Haze 33 1011 63 5000 4.6 270 07:34 04.05.2020
3786 Haze 31 1011 70 5000 0.3 107 05:55 04.05.2020
3787 Haze 30 1010 79 4000 1.5 0 04:52 04.05.2020
3788 Haze 29 1008 79 4000 2.15 36 02:56 04.05.2020
3789 Haze 29 1008 79 4000 1.5 30 01:45 04.05.2020
3790 Haze 29 1008 79 4000 1.5 30 01:45 04.05.2020
3791 Haze 29 1008 79 4000 1.5 60 00:23 04.05.2020
3792 Haze 29 1008 79 4000 1.5 60 00:23 04.05.2020
3793 Haze 29 1008 83 4000 2.1 340 23:44 03.05.2020
3794 Haze 29 1008 83 4000 2.1 340 23:24 03.05.2020
3795 Haze 29 1008 83 4000 1.5 300 22:44 03.05.2020
3796 Haze 29 1008 83 4000 1.5 300 22:44 03.05.2020
3797 Haze 29 1008 83 4000 1.5 300 22:25 03.05.2020
3798 Haze 30 1008 74 4000 2.1 300 21:56 03.05.2020
3799 Haze 30 1009 79 4000 3.6 300 21:38 03.05.2020
3800 Haze 30 1009 79 4000 3.1 300 21:20 03.05.2020
3801 Haze 30 1009 79 4000 4.1 290 20:43 03.05.2020
3802 Haze 30 1009 79 4000 4.1 290 20:43 03.05.2020
3803 Haze 30 1009 79 4000 4.1 290 20:21 03.05.2020
3804 Haze 30 1009 79 4000 4.1 290 19:50 03.05.2020
3805 Haze 30 1009 79 4000 4.1 290 19:50 03.05.2020
3806 Haze 30 1009 79 4000 4.1 290 19:50 03.05.2020
3807 Haze 30 1009 79 4000 3.1 300 19:31 03.05.2020
3808 Haze 30 1009 79 4000 3.6 310 18:58 03.05.2020
3809 Haze 30 1008 84 4000 4.1 280 18:38 03.05.2020
3810 Haze 30 1008 84 4000 4.1 280 18:38 03.05.2020
3811 Haze 30 1008 84 4000 4.1 280 18:38 03.05.2020
3812 Haze 30 1008 84 4000 4.1 280 18:38 03.05.2020
3813 Haze 30 1008 84 4000 4.1 280 18:38 03.05.2020
3814 Haze 30 1008 84 4000 4.1 280 18:19 03.05.2020
3815 Haze 30 1008 79 4000 3.1 290 17:41 03.05.2020
3816 Haze 30 1008 79 4000 3.1 290 17:21 03.05.2020
3817 Haze 30 1007 79 4000 4.6 280 16:46 03.05.2020
3818 Haze 31 1007 70 5000 5.7 280 16:21 03.05.2020
3819 Haze 31 1007 70 5000 5.7 280 15:59 03.05.2020
3820 Haze 31 1006 70 5000 5.1 290 15:40 03.05.2020
3821 Haze 31 1006 70 5000 5.1 290 15:20 03.05.2020
3822 Haze 31 1006 70 5000 6.2 280 14:58 03.05.2020
3823 Haze 32 1006 66 5000 7.2 280 14:40 03.05.2020
3824 Haze 32 1006 66 5000 7.2 280 14:21 03.05.2020
3825 Clouds 33 1006 59 6000 4.6 290 13:54 03.05.2020
3826 Clear 33 1007 63 6000 7.2 280 13:21 03.05.2020
3827 Clear 33 1007 63 6000 7.2 280 13:21 03.05.2020
3828 Clear 33 1007 63 6000 7.2 280 13:21 03.05.2020
3829 Clear 33 1007 63 6000 7.2 280 13:21 03.05.2020
3830 Clear 33 1007 63 6000 7.2 280 13:21 03.05.2020
3831 Clear 33 1007 63 6000 7.2 270 12:45 03.05.2020
3832 Clear 33 1007 63 6000 7.2 270 12:18 03.05.2020
3833 Clear 33 1007 63 6000 7.2 270 11:56 03.05.2020
3834 Clear 32 1007 70 6000 7.7 260 11:37 03.05.2020
3835 Clear 33 1007 63 6000 7.2 260 11:19 03.05.2020
3836 Clear 33 1007 63 6000 7.2 260 11:19 03.05.2020
3837 Clear 33 1008 63 6000 6.2 250 10:46 03.05.2020
3838 Clear 33 1008 63 6000 6.2 250 10:46 03.05.2020
3839 Clear 33 1008 63 6000 6.2 250 10:46 03.05.2020
3840 Clouds 33 1008 63 6000 6.7 270 09:58 03.05.2020
3841 Clouds 32 1009 70 6000 7.7 260 09:37 03.05.2020
3842 Clouds 32 1009 70 6000 7.7 260 09:37 03.05.2020
3843 Haze 33 1009 66 5000 7.2 260 08:56 03.05.2020
3844 Haze 33 1009 66 5000 7.2 260 08:56 03.05.2020
3845 Haze 33 1009 66 5000 7.2 260 08:56 03.05.2020
3846 Haze 33 1010 66 4000 5.7 250 08:26 03.05.2020
3847 Haze 33 1010 63 4000 4.1 280 07:40 03.05.2020
3848 Haze 33 1010 63 4000 4.1 280 07:40 03.05.2020
3849 Haze 32 1010 62 4000 2.1 260 06:21 03.05.2020
3850 Haze 30 1010 74 3500 1.76 350 05:47 03.05.2020
3851 Haze 30 1010 74 3500 2.12 21 04:56 03.05.2020
3852 Haze 30 1009 74 3500 2.23 15 04:27 03.05.2020
3853 Haze 29 1008 79 4000 2.18 4 02:59 03.05.2020
3854 Haze 29 1007 79 4000 2.33 347 02:24 03.05.2020
3855 Haze 29 1007 83 4000 2.6 360 01:45 03.05.2020
3856 Haze 29 1007 83 4000 2.6 360 01:27 03.05.2020
3857 Haze 29 1007 83 4000 2.6 10 00:55 03.05.2020
3858 Haze 29 1007 83 4000 2.25 350 00:37 03.05.2020
3859 Haze 29 1007 83 4000 2.25 350 00:37 03.05.2020
3860 Haze 30 1007 79 4000 1.5 10 00:18 03.05.2020
3861 Haze 30 1007 79 4000 2.4 3 23:43 02.05.2020
3862 Haze 30 1007 79 4000 3.52 0 23:24 02.05.2020
3863 Haze 30 1008 79 4000 2.1 320 22:43 02.05.2020
3864 Haze 30 1008 79 4000 2.1 320 22:24 02.05.2020
3865 Haze 30 1008 79 4000 2.1 320 22:24 02.05.2020
3866 Haze 30 1008 79 4000 2.6 310 21:56 02.05.2020
3867 Haze 30 1009 79 4000 2.6 290 21:38 02.05.2020
3868 Haze 30 1009 79 4000 3.1 310 21:19 02.05.2020
3869 Haze 30 1009 79 4000 3.1 310 20:57 02.05.2020
3870 Haze 30 1009 79 4000 2.6 320 20:37 02.05.2020
3871 Haze 30 1009 79 4000 2.6 320 20:19 02.05.2020
3872 Haze 30 1009 79 4000 3.6 290 19:57 02.05.2020
3873 Haze 30 1009 79 4000 3.6 290 19:57 02.05.2020
3874 Haze 30 1009 79 4000 3.6 280 19:38 02.05.2020
3875 Haze 30 1009 79 4000 2.1 300 19:19 02.05.2020
3876 Haze 30 1009 79 4000 2.6 300 18:41 02.05.2020
3877 Haze 30 1009 79 4000 2.6 300 18:23 02.05.2020
3878 Haze 30 1008 79 4000 3.1 300 17:58 02.05.2020
3879 Haze 30 1008 79 4000 5.1 290 17:39 02.05.2020
3880 Haze 30 1008 79 4000 5.1 290 17:20 02.05.2020
3881 Haze 30 1008 79 4000 5.1 290 16:59 02.05.2020
3882 Haze 30 1008 79 5000 7.2 280 16:39 02.05.2020
3883 Haze 31 1007 70 5000 5.7 290 16:21 02.05.2020
3884 Haze 31 1007 70 5000 6.2 290 15:43 02.05.2020
3885 Haze 31 1007 70 5000 6.2 290 15:20 02.05.2020
3886 Clouds 31 1007 70 6000 6.2 300 15:20 02.05.2020
3887 Clouds 31 1007 70 6000 6.2 300 14:58 02.05.2020
3888 Clouds 32 1006 66 6000 7.2 280 14:39 02.05.2020
3889 Clouds 32 1006 66 6000 7.2 280 14:20 02.05.2020
3890 Clouds 32 1007 66 6000 6.2 300 13:40 02.05.2020
3891 Clouds 32 1007 66 6000 6.2 300 13:22 02.05.2020
3892 Clouds 32 1007 66 6000 6.7 270 12:44 02.05.2020
3893 Clouds 32 1007 66 6000 6.7 270 12:25 02.05.2020
3894 Clouds 32 1007 70 6000 5.7 280 11:59 02.05.2020
3895 Clouds 32 1007 70 6000 5.1 260 11:41 02.05.2020
3896 Clouds 32 1007 70 6000 5.1 260 11:22 02.05.2020
3897 Clouds 32 1008 70 6000 6.7 260 10:59 02.05.2020
3898 Clouds 33 1008 63 6000 6.2 250 10:39 02.05.2020
3899 Clouds 33 1008 63 6000 6.2 250 10:20 02.05.2020
3900 Clouds 33 1008 63 6000 6.2 250 10:20 02.05.2020
3901 Clouds 33 1009 63 6000 5.7 270 09:57 02.05.2020
3902 Clouds 32 1009 66 6000 5.1 240 09:38 02.05.2020
3903 Clouds 32 1010 66 6000 4.1 250 09:20 02.05.2020
3904 Clouds 32 1009 66 6000 5.1 240 09:20 02.05.2020
3905 Clouds 32 1009 66 6000 5.1 240 09:20 02.05.2020
3906 Clouds 32 1010 66 6000 4.1 250 08:49 02.05.2020
3907 Haze 32 1010 66 5000 5.1 270 08:30 02.05.2020
3908 Haze 32 1010 66 4000 1.5 280 07:48 02.05.2020
3909 Haze 32 1010 66 4000 1.5 280 07:29 02.05.2020
3910 Haze 32 1010 66 3500 3.1 290 06:53 02.05.2020
3911 Haze 31 1010 70 3000 1.5 310 06:18 02.05.2020
3912 Haze 31 1010 70 3000 0.9 339 05:27 02.05.2020
3913 Haze 30 1009 74 3000 1.03 6 04:25 02.05.2020
3914 Haze 29 1008 79 3000 1.03 6 03:34 02.05.2020
3915 Haze 29 1008 79 3000 1.4 339 02:37 02.05.2020
3916 Haze 29 1007 79 4000 2.32 338 01:51 02.05.2020
3917 Haze 29 1007 79 4000 2.14 325 00:58 02.05.2020
3918 Haze 29 1007 79 4000 1.5 30 00:36 02.05.2020
3919 Haze 29 1007 79 4000 1.5 20 00:18 02.05.2020
3920 Haze 29 1008 79 4000 2.47 326 23:39 01.05.2020
3921 Haze 29 1008 79 4000 2.83 322 23:20 01.05.2020
3922 Haze 30 1008 74 4000 2.1 320 22:57 01.05.2020
3923 Haze 30 1008 74 4000 1.5 320 22:38 01.05.2020
3924 Haze 30 1008 74 4000 1.5 330 22:18 01.05.2020
3925 Haze 30 1008 74 4000 1.5 330 21:57 01.05.2020
3926 Haze 30 1009 74 4000 2.99 317 21:38 01.05.2020
3927 Haze 30 1009 74 4000 2.6 290 21:18 01.05.2020
3928 Haze 30 1009 74 4000 2.6 290 21:18 01.05.2020
3929 Haze 30 1009 74 4000 2.6 290 20:56 01.05.2020
3930 Haze 30 1009 74 4000 3.1 310 20:37 01.05.2020
3931 Haze 30 1010 74 4000 3.6 290 20:19 01.05.2020
3932 Haze 30 1010 74 4000 3.1 310 19:42 01.05.2020
3933 Haze 30 1010 74 4000 3.1 310 19:22 01.05.2020
3934 Haze 30 1009 74 4000 2.1 290 18:58 01.05.2020
3935 Haze 30 1009 74 4000 2.6 260 18:40 01.05.2020
3936 Haze 30 1009 74 4000 2.6 260 18:20 01.05.2020
3937 Haze 30 1009 74 4000 3.1 280 17:57 01.05.2020
3938 Haze 30 1009 74 4000 3.6 280 17:39 01.05.2020
3939 Haze 30 1009 74 4000 3.6 280 17:20 01.05.2020
3940 Haze 30 1009 74 4000 3.1 270 16:56 01.05.2020
3941 Haze 30 1009 74 5000 4.1 280 16:38 01.05.2020
3942 Haze 30 1009 74 5000 4.1 280 16:19 01.05.2020
3943 Haze 31 1008 70 5000 5.1 290 15:55 01.05.2020
3944 Haze 31 1008 70 5000 5.1 290 15:36 01.05.2020
3945 Clouds 31 1007 70 6000 6.2 280 15:18 01.05.2020
3946 Clouds 31 1007 70 6000 6.7 280 14:41 01.05.2020
3947 Clouds 31 1007 70 6000 6.7 280 14:23 01.05.2020
3948 Clouds 32 1007 66 6000 6.2 280 13:41 01.05.2020
3949 Clouds 32 1007 66 6000 6.2 280 13:23 01.05.2020
3950 Clouds 32 1008 62 6000 5.7 290 12:58 01.05.2020
3951 Clouds 33 1008 59 6000 5.7 270 12:40 01.05.2020
3952 Clouds 33 1008 59 6000 5.7 270 12:20 01.05.2020
3953 Clouds 33 1008 59 6000 6.7 280 11:59 01.05.2020
3954 Clouds 33 1008 59 6000 6.7 280 11:59 01.05.2020
3955 Clear 33 1009 59 6000 6.2 270 11:40 01.05.2020
3956 Clear 33 1009 59 6000 6.2 260 11:19 01.05.2020
3957 Haze 33 1010 63 5000 6.2 260 10:41 01.05.2020
3958 Haze 33 1010 63 5000 6.2 260 10:20 01.05.2020
3959 Haze 33 1010 63 5000 5.1 280 09:59 01.05.2020
3960 Haze 33 1011 66 5000 4.1 250 09:41 01.05.2020
3961 Haze 32 1011 66 5000 4.6 260 09:19 01.05.2020
3962 Haze 32 1012 70 4000 4.6 280 08:46 01.05.2020
3963 Haze 32 1012 70 4000 4.6 280 08:28 01.05.2020
3964 Haze 32 1012 70 4000 4.6 280 07:58 01.05.2020
3965 Haze 32 1012 70 4000 4.1 260 07:38 01.05.2020
3966 Haze 31 1012 74 4000 4.1 250 06:59 01.05.2020
3967 Haze 31 1012 74 4000 3.1 250 06:18 01.05.2020
3968 Haze 30 1012 79 4000 2.1 230 05:21 01.05.2020
3969 Haze 30 1010 74 4000 2.1 260 03:43 01.05.2020
3970 Haze 30 1010 74 4000 2.1 270 02:53 01.05.2020
3971 Haze 30 1010 74 4000 1.31 255 02:34 01.05.2020
3972 Haze 30 1010 74 4000 2.1 260 01:47 01.05.2020
3973 Haze 30 1010 74 4000 2.1 260 01:27 01.05.2020
3974 Haze 30 1010 74 4000 3.1 290 00:40 01.05.2020
3975 Haze 30 1010 74 4000 3.1 290 00:21 01.05.2020
3976 Haze 30 1010 79 4000 3.1 300 23:57 30.04.2020
3977 Haze 30 1010 79 4000 2.6 280 23:39 30.04.2020
3978 Haze 30 1010 79 4000 2.6 280 23:20 30.04.2020
3979 Haze 30 1010 79 4000 3.6 290 22:56 30.04.2020
3980 Haze 30 1010 79 4000 3.6 270 22:38 30.04.2020
3981 Haze 30 1010 79 4000 4.1 250 22:18 30.04.2020
3982 Haze 30 1011 74 4000 3.1 240 21:42 30.04.2020
3983 Haze 30 1011 74 4000 3.1 240 21:22 30.04.2020
3984 Haze 30 1011 74 4000 3.1 250 20:58 30.04.2020
3985 Haze 30 1011 74 4000 3.6 240 20:40 30.04.2020
3986 Haze 30 1011 74 4000 4.1 250 20:18 30.04.2020
3987 Haze 30 1011 79 4000 3.1 250 19:46 30.04.2020
3988 Haze 30 1011 79 4000 3.1 250 19:26 30.04.2020
3989 Haze 30 1010 79 3000 3.1 240 18:59 30.04.2020
3990 Haze 30 1009 79 3000 5.7 240 18:39 30.04.2020
3991 Haze 30 1009 79 3000 5.7 240 18:21 30.04.2020
3992 Haze 30 1009 74 3500 5.1 240 17:58 30.04.2020
3993 Haze 31 1009 70 4000 4.6 240 17:39 30.04.2020
3994 Haze 31 1009 70 4000 4.6 240 17:20 30.04.2020
3995 Haze 31 1010 74 5000 2.1 220 16:57 30.04.2020
3996 Haze 31 1009 70 5000 2.6 220 16:38 30.04.2020
3997 Haze 31 1009 70 5000 3.6 260 16:18 30.04.2020
3998 Haze 31 1009 74 5000 4.1 240 15:45 30.04.2020
3999 Haze 31 1009 74 5000 4.1 240 15:24 30.04.2020
4000 Haze 31 1008 74 5000 4.1 270 14:57 30.04.2020
4001 Haze 31 1008 70 5000 6.2 270 14:39 30.04.2020
4002 Haze 31 1008 70 5000 6.2 270 14:19 30.04.2020
4003 Haze 32 1008 66 5000 6.2 260 13:55 30.04.2020
4004 Haze 32 1008 66 5000 5.7 270 13:36 30.04.2020
4005 Haze 32 1008 66 5000 6.2 260 13:18 30.04.2020
4006 Haze 32 1008 66 5000 5.7 260 12:41 30.04.2020
4007 Haze 32 1008 66 5000 5.7 260 12:20 30.04.2020
4008 Haze 32 1009 62 5000 5.1 270 11:58 30.04.2020
4009 Haze 32 1009 62 5000 5.1 260 11:36 30.04.2020
4010 Haze 33 1010 55 5000 5.1 250 11:18 30.04.2020
4011 Haze 33 1010 63 5000 5.7 240 10:41 30.04.2020
4012 Haze 33 1010 63 5000 5.7 240 10:22 30.04.2020
4013 Haze 33 1010 63 5000 5.7 250 09:57 30.04.2020
4014 Haze 33 1011 63 5000 5.1 250 09:39 30.04.2020
4015 Haze 33 1011 63 5000 5.1 250 09:20 30.04.2020
4016 Haze 33 1011 63 5000 5.1 250 09:20 30.04.2020
4017 Haze 33 1011 63 5000 4.1 250 08:47 30.04.2020
4018 Haze 33 1011 63 5000 4.1 250 08:26 30.04.2020
4019 Haze 32 1012 70 5000 3.6 280 07:48 30.04.2020
4020 Haze 32 1012 70 5000 3.6 280 07:26 30.04.2020
4021 Haze 31 1012 74 5000 2.6 270 06:59 30.04.2020
4022 Haze 31 1012 74 5000 2.6 270 06:59 30.04.2020
4023 Haze 31 1012 74 5000 3.1 250 06:32 30.04.2020
4024 Haze 31 1011 74 5000 3.6 220 05:47 30.04.2020
4025 Haze 30 1011 79 4000 3.32 206 04:46 30.04.2020
4026 Haze 30 1011 79 4000 3.17 200 04:24 30.04.2020
4027 Haze 30 1009 74 4000 2.1 190 02:52 30.04.2020
4028 Haze 30 1009 74 4000 2.1 180 02:28 30.04.2020
4029 Haze 30 1009 79 4000 1.65 226 01:37 30.04.2020
4030 Haze 30 1008 79 4000 2.1 190 00:53 30.04.2020
4031 Haze 30 1009 79 4000 2.1 230 00:24 30.04.2020
4032 Haze 30 1009 79 4000 2.1 230 23:59 29.04.2020
4033 Haze 30 1009 79 4000 1.5 270 23:41 29.04.2020
4034 Haze 30 1009 79 4000 1.5 270 23:23 29.04.2020
4035 Haze 30 1009 79 4000 2.1 260 22:58 29.04.2020
4036 Haze 30 1009 79 4000 2.6 250 22:39 29.04.2020
4037 Haze 30 1009 79 4000 2.6 230 22:19 29.04.2020
4038 Haze 30 1009 79 4000 2.6 260 21:39 29.04.2020
4039 Haze 30 1009 79 4000 2.6 260 21:20 29.04.2020
4040 Haze 30 1009 79 4000 3.1 240 20:58 29.04.2020
4041 Haze 30 1010 79 4000 3.1 220 20:39 29.04.2020
4042 Haze 30 1010 79 4000 3.1 220 20:19 29.04.2020
4043 Haze 30 1010 79 4000 2.1 230 19:54 29.04.2020
4044 Haze 30 1009 79 4000 3.1 220 19:36 29.04.2020
4045 Haze 31 1009 74 4000 4.1 240 19:18 29.04.2020
4046 Haze 31 1009 74 4000 5.1 240 18:41 29.04.2020
4047 Haze 31 1009 74 4000 5.1 240 18:20 29.04.2020
4048 Haze 31 1009 74 4000 3.6 220 17:55 29.04.2020
4049 Haze 31 1009 74 4000 4.6 230 17:37 29.04.2020
4050 Haze 31 1008 74 4000 4.6 210 17:18 29.04.2020
4051 Haze 31 1008 74 4000 3.6 200 16:37 29.04.2020
4052 Haze 31 1008 70 5000 4.1 220 16:19 29.04.2020
4053 Haze 31 1008 70 5000 4.1 220 16:19 29.04.2020
4054 Haze 31 1008 70 5000 4.1 220 15:57 29.04.2020
4055 Haze 31 1008 74 5000 2.1 220 15:38 29.04.2020
4056 Clouds 32 1007 70 6000 4.1 270 15:20 29.04.2020
4057 Clouds 32 1007 70 6000 3.6 270 14:45 29.04.2020
4058 Clouds 32 1007 70 6000 3.6 270 14:26 29.04.2020
4059 Clouds 32 1006 66 7000 4.6 280 13:58 29.04.2020
4060 Clouds 33 1006 66 7000 7.2 260 13:40 29.04.2020
4061 Clouds 33 1006 59 7000 6.2 260 13:20 29.04.2020
4062 Clouds 33 1006 59 7000 6.2 260 12:56 29.04.2020
4063 Clouds 34 1006 56 7000 6.2 280 12:38 29.04.2020
4064 Clouds 33 1006 63 7000 5.7 270 12:18 29.04.2020
4065 Clouds 33 1007 63 6000 5.7 270 11:39 29.04.2020
4066 Clouds 33 1007 63 6000 5.7 270 11:20 29.04.2020
4067 Smoke 33 1008 63 5000 5.7 270 10:55 29.04.2020
4068 Smoke 33 1008 63 5000 5.1 280 10:37 29.04.2020
4069 Smoke 33 1009 66 5000 5.7 280 10:18 29.04.2020
4070 Smoke 33 1009 66 5000 5.7 270 09:41 29.04.2020
4071 Smoke 32 1009 70 5000 4.1 280 09:22 29.04.2020
4072 Smoke 32 1009 70 5000 4.1 270 08:45 29.04.2020
4073 Smoke 32 1009 70 5000 4.1 270 08:26 29.04.2020
4074 Smoke 32 1010 66 5000 4.6 240 07:57 29.04.2020
4075 Haze 32 1010 66 5000 4.1 260 07:38 29.04.2020
4076 Haze 32 1010 66 5000 4.1 280 07:18 29.04.2020
4077 Haze 32 1010 66 4000 3.1 240 06:48 29.04.2020
4078 Haze 32 1010 66 4000 3.1 240 06:29 29.04.2020
4079 Haze 31 1009 74 4000 1.5 240 05:21 29.04.2020
4080 Haze 30 1009 79 4000 1.5 0 04:21 29.04.2020
4081 Haze 30 1009 79 4000 1.41 61 03:55 29.04.2020
4082 Haze 29 1008 79 4000 1.28 7 02:32 29.04.2020
4083 Haze 30 1008 74 4000 1.88 322 01:44 29.04.2020
4084 Haze 30 1008 74 4000 1.94 300 01:20 29.04.2020
4085 Haze 30 1008 74 4000 1.5 290 00:39 29.04.2020
4086 Haze 30 1008 74 4000 2.29 307 00:18 29.04.2020
4087 Haze 30 1008 74 4000 1.5 330 23:47 28.04.2020
4088 Haze 30 1008 74 4000 1.5 330 23:23 28.04.2020
4089 Haze 30 1008 79 4000 2.6 340 22:40 28.04.2020
4090 Haze 30 1008 79 4000 2.1 350 22:22 28.04.2020
4091 Haze 30 1008 79 4000 2.1 350 21:59 28.04.2020
4092 Haze 30 1008 74 4000 2.6 330 21:41 28.04.2020
4093 Haze 30 1008 74 4000 2.6 330 21:23 28.04.2020
4094 Haze 30 1008 79 4000 3.6 340 20:59 28.04.2020
4095 Haze 30 1008 79 4000 3.6 340 20:59 28.04.2020
4096 Haze 30 1008 79 5000 2.6 340 20:40 28.04.2020
4097 Haze 30 1008 79 5000 2.6 340 20:21 28.04.2020
4098 Haze 30 1008 79 5000 2.1 320 19:58 28.04.2020
4099 Haze 31 1008 79 5000 3.6 300 19:40 28.04.2020
4100 Haze 31 1008 79 5000 3.6 300 19:21 28.04.2020
4101 Haze 31 1008 74 5000 4.1 340 18:58 28.04.2020
4102 Haze 31 1008 74 5000 3.6 310 18:38 28.04.2020
4103 Haze 31 1007 74 5000 3.6 330 18:19 28.04.2020
4104 Haze 31 1007 74 5000 4.6 330 17:38 28.04.2020
4105 Haze 31 1007 74 5000 4.6 330 17:20 28.04.2020
4106 Haze 31 1007 74 5000 2.6 330 16:59 28.04.2020
4107 Haze 31 1007 74 5000 3.1 310 16:40 28.04.2020
4108 Haze 31 1007 74 5000 3.1 310 16:22 28.04.2020
4109 Haze 31 1006 74 5000 3.6 310 15:57 28.04.2020
4110 Clouds 31 1006 74 6000 4.6 290 15:38 28.04.2020
4111 Clouds 31 1006 74 6000 4.6 290 15:20 28.04.2020
4112 Clouds 32 1006 70 6000 6.2 300 14:56 28.04.2020
4113 Clouds 32 1006 70 6000 4.6 290 14:38 28.04.2020
4114 Clouds 32 1006 70 6000 4.6 290 14:19 28.04.2020
4115 Clouds 32 1006 70 6000 4.6 290 13:56 28.04.2020
4116 Clouds 33 1006 66 6000 3.6 300 13:37 28.04.2020
4117 Clouds 33 1006 66 6000 4.6 300 13:19 28.04.2020
4118 Clouds 33 1006 66 6000 4.1 290 12:43 28.04.2020
4119 Clouds 33 1006 66 6000 4.1 290 12:23 28.04.2020
4120 Clouds 33 1007 66 6000 4.6 280 11:43 28.04.2020
4121 Clear 34 1008 66 6000 4.6 270 11:24 28.04.2020
4122 Clear 34 1008 66 6000 4.6 270 11:24 28.04.2020
4123 Clear 34 1008 66 6000 4.6 270 10:59 28.04.2020
4124 Clear 34 1008 66 6000 3.6 270 10:39 28.04.2020
4125 Clear 34 1009 66 6000 4.6 270 10:19 28.04.2020
4126 Clear 34 1009 66 6000 4.6 270 09:55 28.04.2020
4127 Clear 33 1009 66 6000 5.1 280 09:37 28.04.2020
4128 Clear 34 1010 66 6000 6.2 270 09:19 28.04.2020
4129 Clear 34 1010 63 6000 6.2 260 08:45 28.04.2020
4130 Clouds 34 1010 63 6000 6.2 260 08:26 28.04.2020
4131 Clouds 34 1011 49 6000 2.1 320 07:44 28.04.2020
4132 Clouds 34 1011 49 6000 2.1 320 07:19 28.04.2020
4133 Smoke 33 1011 59 5000 2.1 60 06:48 28.04.2020
4134 Smoke 32 1011 59 5000 2.1 60 06:20 28.04.2020
4135 Haze 30 1011 70 4000 2.1 30 05:40 28.04.2020
4136 Haze 29 1010 79 4000 1.95 31 04:39 28.04.2020
4137 Haze 28 1010 78 4000 2.1 10 02:59 28.04.2020
4138 Haze 28 1009 83 4000 2.1 50 02:28 28.04.2020
4139 Haze 29 1009 74 4000 2.77 345 01:23 28.04.2020
4140 Haze 29 1009 74 4000 1.5 310 00:51 28.04.2020
4141 Haze 29 1009 74 4000 1.5 320 00:20 28.04.2020
4142 Haze 29 1009 74 4000 2.1 330 23:45 27.04.2020
4143 Haze 29 1009 74 4000 2.1 330 23:23 27.04.2020
4144 Haze 29 1010 74 4000 2.1 300 22:55 27.04.2020
4145 Haze 29 1010 74 4000 2.1 300 22:37 27.04.2020
4146 Haze 29 1010 74 4000 1.5 300 22:18 27.04.2020
4147 Haze 29 1010 74 4000 1.5 300 21:55 27.04.2020
4148 Haze 29 1011 74 4000 3.1 280 21:37 27.04.2020
4149 Haze 29 1011 74 4000 1.5 310 21:18 27.04.2020
4150 Haze 29 1011 74 4000 2.1 290 20:43 27.04.2020
4151 Haze 29 1011 74 4000 2.1 290 20:22 27.04.2020
4152 Haze 29 1011 74 4000 2.1 310 19:58 27.04.2020
4153 Haze 29 1011 74 4000 2.6 280 19:39 27.04.2020
4154 Haze 29 1010 74 4000 1.5 300 19:20 27.04.2020
4155 Haze 29 1010 74 4000 1.5 300 18:57 27.04.2020
4156 Haze 30 1010 70 4000 2.6 290 18:39 27.04.2020
4157 Haze 30 1010 70 4000 3.1 300 18:19 27.04.2020
4158 Haze 30 1010 70 5000 3.1 290 17:43 27.04.2020
4159 Haze 30 1010 70 5000 3.1 290 17:21 27.04.2020
4160 Haze 30 1009 70 5000 3.1 310 16:58 27.04.2020
4161 Haze 30 1009 70 5000 4.6 300 16:39 27.04.2020
4162 Haze 30 1009 70 5000 4.6 300 16:39 27.04.2020
4163 Haze 30 1009 70 5000 4.6 300 16:20 27.04.2020
4164 Clouds 30 1009 70 6000 5.7 280 15:56 27.04.2020
4165 Clouds 30 1009 70 6000 5.7 290 15:38 27.04.2020
4166 Clouds 30 1009 70 6000 5.7 290 15:38 27.04.2020
4167 Clouds 31 1008 66 6000 5.1 290 15:18 27.04.2020
4168 Clouds 31 1008 66 6000 6.2 280 14:42 27.04.2020
4169 Clouds 31 1008 66 6000 6.2 280 14:42 27.04.2020
4170 Clouds 31 1008 66 6000 6.2 280 14:23 27.04.2020
4171 Clouds 31 1009 66 6000 5.7 300 13:59 27.04.2020
4172 Clouds 32 1009 62 6000 7.7 260 13:41 27.04.2020
4173 Clouds 32 1009 62 6000 7.7 260 13:20 27.04.2020
4174 Clouds 32 1009 62 6000 6.2 280 12:56 27.04.2020
4175 Clouds 32 1009 62 6000 7.2 260 12:38 27.04.2020
4176 Clouds 32 1010 59 6000 6.7 270 12:18 27.04.2020
4177 Clouds 32 1010 59 6000 7.2 250 11:41 27.04.2020
4178 Clouds 32 1010 59 6000 5.1 290 11:19 27.04.2020
4179 Clouds 32 1010 59 6000 5.1 290 10:56 27.04.2020
4180 Clouds 32 1011 59 6000 5.1 250 10:38 27.04.2020
4181 Clouds 32 1011 59 6000 4.6 280 10:19 27.04.2020
4182 Clouds 32 1012 59 6000 5.7 250 09:43 27.04.2020
4183 Smoke 32 1012 62 5000 4.6 280 09:19 27.04.2020
4184 Smoke 32 1013 59 5000 3.6 250 08:56 27.04.2020
4185 Smoke 32 1013 59 5000 3.6 250 08:36 27.04.2020
4186 Smoke 32 1013 59 4000 3.6 260 08:18 27.04.2020
4187 Smoke 32 1013 62 4000 4.1 240 07:44 27.04.2020
4188 Smoke 31 1013 62 4000 3.1 250 07:19 27.04.2020
4189 Haze 31 1013 62 3500 3.6 250 06:44 27.04.2020
4190 Haze 31 1013 62 3500 3.6 250 06:24 27.04.2020
4191 Haze 30 1012 70 3500 1.5 150 05:49 27.04.2020
4192 Haze 29 1011 74 3000 2.1 100 04:41 27.04.2020
4193 Haze 28 1011 78 3500 1.5 100 03:49 27.04.2020
4194 Haze 29 1010 74 4000 1.5 330 02:42 27.04.2020
4195 Haze 29 1009 74 4000 2.1 280 01:31 27.04.2020
4196 Haze 29 1009 74 4000 0.86 273 00:56 27.04.2020
4197 Haze 29 1009 74 4000 2.6 270 00:19 27.04.2020
4198 Haze 29 1009 74 4000 2.6 260 23:55 26.04.2020
4199 Haze 29 1009 74 4000 2.6 280 23:37 26.04.2020
4200 Haze 29 1009 74 4000 2.1 270 23:19 26.04.2020
4201 Haze 29 1009 74 4000 2.1 270 22:57 26.04.2020
4202 Haze 29 1009 74 4000 2.1 270 22:39 26.04.2020
4203 Haze 29 1009 74 4000 2.1 270 22:19 26.04.2020
4204 Haze 29 1010 74 4000 2.1 310 21:56 26.04.2020
4205 Haze 29 1010 74 4000 2.6 310 21:37 26.04.2020
4206 Haze 29 1010 74 4000 2.6 310 21:18 26.04.2020
4207 Haze 29 1010 74 4000 1.5 300 20:39 26.04.2020
4208 Haze 29 1010 79 4000 1.5 320 20:21 26.04.2020
4209 Haze 29 1010 79 4000 1.5 320 19:59 26.04.2020
4210 Haze 29 1010 79 4000 2.6 300 19:38 26.04.2020
4211 Haze 29 1010 79 4000 3.1 290 19:20 26.04.2020
4212 Haze 29 1010 79 4000 3.1 290 18:54 26.04.2020
4213 Haze 29 1010 79 4000 3.1 280 18:36 26.04.2020
4214 Haze 29 1009 79 4000 3.1 300 18:18 26.04.2020
4215 Haze 29 1009 79 4500 4.1 280 17:40 26.04.2020
4216 Haze 30 1009 74 4500 4.1 310 17:22 26.04.2020
4217 Haze 30 1008 74 5000 4.1 300 16:43 26.04.2020
4218 Haze 30 1008 74 5000 4.1 300 16:24 26.04.2020
4219 Clouds 30 1008 74 6000 5.7 300 15:59 26.04.2020
4220 Clouds 31 1008 70 6000 5.7 290 15:41 26.04.2020
4221 Clouds 31 1008 70 6000 5.7 290 15:22 26.04.2020
4222 Clouds 31 1007 70 7000 7.2 280 14:58 26.04.2020
4223 Clouds 31 1007 66 7000 7.2 290 14:39 26.04.2020
4224 Clouds 32 1007 62 7000 6.2 280 14:19 26.04.2020
4225 Clouds 32 1007 62 7000 6.2 280 14:19 26.04.2020
4226 Clouds 32 1007 62 7000 6.2 280 13:57 26.04.2020
4227 Clouds 32 1007 62 7000 6.2 290 13:38 26.04.2020
4228 Clouds 32 1008 62 7000 6.2 280 13:19 26.04.2020
4229 Clouds 32 1008 62 7000 6.2 280 12:54 26.04.2020
4230 Clouds 32 1008 62 7000 7.2 270 12:36 26.04.2020
4231 Clouds 32 1008 62 7000 7.2 270 12:36 26.04.2020
4232 Clouds 32 1008 62 7000 7.7 280 12:18 26.04.2020
4233 Clouds 32 1008 62 7000 6.2 270 11:41 26.04.2020
4234 Clouds 32 1008 62 7000 6.2 270 11:23 26.04.2020
4235 Clouds 33 1009 59 7000 7.2 260 10:58 26.04.2020
4236 Clouds 33 1009 59 7000 7.7 270 10:40 26.04.2020
4237 Clouds 32 1010 55 7000 5.1 270 10:22 26.04.2020
4238 Clouds 32 1010 55 7000 5.1 270 09:57 26.04.2020
4239 Clouds 32 1010 59 7000 5.1 280 09:37 26.04.2020
4240 Clouds 32 1011 55 7000 4.6 270 09:18 26.04.2020
4241 Clouds 32 1011 55 6000 4.6 250 08:41 26.04.2020
4242 Clouds 32 1011 55 6000 4.6 250 08:20 26.04.2020
4243 Smoke 33 1011 46 4500 3.6 230 07:48 26.04.2020
4244 Smoke 33 1011 46 4500 3.6 230 07:22 26.04.2020
4245 Haze 32 1011 62 4000 2.1 320 06:45 26.04.2020
4246 Haze 31 1011 62 4000 2.1 320 06:20 26.04.2020
4247 Haze 30 1011 70 3000 1.09 47 05:47 26.04.2020
4248 Haze 30 1011 70 3000 1.09 47 05:28 26.04.2020
4249 Haze 29 1010 74 3000 1.09 47 04:30 26.04.2020
4250 Haze 28 1009 78 3000 1.09 47 03:33 26.04.2020
4251 Haze 28 1009 74 4000 1.5 60 02:33 26.04.2020
4252 Haze 28 1008 78 4000 1.16 44 01:57 26.04.2020
4253 Haze 28 1008 78 4000 1.16 44 01:36 26.04.2020
4254 Haze 28 1008 78 4000 1.16 44 00:41 26.04.2020
4255 Haze 28 1008 78 4000 0.89 2 00:20 26.04.2020
4256 Haze 28 1008 78 4000 0.89 2 00:20 26.04.2020
4257 Haze 28 1008 78 4000 0.89 2 23:55 25.04.2020
4258 Haze 28 1008 74 4000 0.89 2 23:36 25.04.2020
4259 Haze 29 1009 70 4000 0.89 2 23:18 25.04.2020
4260 Haze 29 1009 70 4000 0.89 2 22:41 25.04.2020
4261 Haze 29 1009 74 4000 0.89 2 22:20 25.04.2020
4262 Haze 29 1009 74 4000 0.89 2 21:58 25.04.2020
4263 Haze 29 1009 70 4000 0.95 4 21:37 25.04.2020
4264 Haze 29 1009 70 4000 1.93 286 21:18 25.04.2020
4265 Haze 29 1009 74 4000 2.1 270 20:42 25.04.2020
4266 Haze 29 1009 74 4000 2.1 270 20:23 25.04.2020
4267 Haze 30 1009 70 4000 2.6 280 19:59 25.04.2020
4268 Haze 30 1009 70 4000 3.6 290 19:38 25.04.2020
4269 Haze 30 1009 70 4000 3.6 290 19:20 25.04.2020
4270 Haze 30 1009 70 4000 4.1 280 18:44 25.04.2020
4271 Haze 30 1009 70 4000 4.1 280 18:22 25.04.2020
4272 Haze 30 1009 70 4000 3.1 280 17:59 25.04.2020
4273 Haze 30 1009 70 4000 3.6 300 17:40 25.04.2020
4274 Haze 30 1009 70 4000 3.6 300 17:22 25.04.2020
4275 Haze 30 1008 70 4000 3.6 290 16:59 25.04.2020
4276 Haze 30 1008 66 4000 3.6 290 16:41 25.04.2020
4277 Haze 30 1008 66 4000 3.6 290 16:23 25.04.2020
4278 Smoke 31 1008 58 5000 4.1 300 15:55 25.04.2020
4279 Smoke 31 1008 58 5000 5.1 290 15:37 25.04.2020
4280 Clear 31 1008 62 6000 6.2 290 15:18 25.04.2020
4281 Clear 31 1008 62 6000 6.2 290 14:56 25.04.2020
4282 Clear 32 1008 59 6000 5.7 290 14:37 25.04.2020
4283 Clouds 32 1008 59 6000 6.7 270 14:18 25.04.2020
4284 Clouds 33 1007 55 6000 6.7 270 13:41 25.04.2020
4285 Clouds 33 1007 55 6000 6.7 270 13:41 25.04.2020
4286 Clouds 33 1007 55 6000 6.7 270 13:19 25.04.2020
4287 Clouds 33 1007 55 6000 6.7 270 12:56 25.04.2020
4288 Clouds 33 1008 52 6000 7.2 270 12:38 25.04.2020
4289 Clouds 33 1008 52 6000 7.2 270 12:38 25.04.2020
4290 Clouds 34 1008 52 6000 6.2 270 12:19 25.04.2020
4291 Clouds 33 1008 55 6000 6.2 270 11:43 25.04.2020
4292 Clouds 33 1008 55 6000 6.2 270 11:25 25.04.2020
4293 Clouds 33 1008 59 6000 6.2 260 10:59 25.04.2020
4294 Clouds 32 1009 62 6000 4.6 260 10:41 25.04.2020
4295 Clouds 32 1009 62 6000 4.6 260 10:21 25.04.2020
4296 Smoke 33 1010 59 5000 4.6 270 09:45 25.04.2020
4297 Smoke 33 1010 59 5000 4.6 270 09:26 25.04.2020
4298 Smoke 32 1010 62 5000 4.1 250 08:57 25.04.2020
4299 Smoke 33 1011 59 5000 3.1 240 08:38 25.04.2020
4300 Smoke 33 1011 59 5000 3.1 240 08:20 25.04.2020
4301 Haze 32 1011 62 4000 2.6 280 07:45 25.04.2020
4302 Haze 32 1011 62 4000 3.6 270 07:23 25.04.2020
4303 Haze 31 1011 62 4000 3.1 250 06:44 25.04.2020
4304 Haze 30 1010 70 3000 1.5 270 05:48 25.04.2020
4305 Haze 30 1010 70 3000 1.5 270 05:30 25.04.2020
4306 Haze 30 1009 70 3000 0.24 242 04:29 25.04.2020
4307 Haze 29 1008 74 3500 1.48 202 02:59 25.04.2020
4308 Haze 29 1008 74 3500 1.48 202 02:20 25.04.2020
4309 Haze 29 1008 79 3500 1.48 202 01:50 25.04.2020
4310 Haze 29 1008 79 3500 1.48 202 01:27 25.04.2020
4311 Haze 29 1008 79 3500 2.1 170 00:50 25.04.2020
4312 Haze 29 1008 79 3500 1.49 263 00:29 25.04.2020
4313 Haze 29 1008 79 3500 1.5 200 23:43 24.04.2020
4314 Haze 29 1008 79 3500 1.5 200 23:22 24.04.2020
4315 Haze 29 1008 79 3500 1.5 210 22:56 24.04.2020
4316 Haze 29 1008 79 3500 1.49 263 22:37 24.04.2020
4317 Haze 29 1008 79 3500 2.6 250 22:19 24.04.2020
4318 Haze 29 1008 79 3500 2.6 250 21:54 24.04.2020
4319 Haze 29 1008 79 3500 2.6 250 21:36 24.04.2020
4320 Haze 30 1009 74 3500 2.6 270 21:18 24.04.2020
4321 Haze 30 1009 79 3500 3.1 260 20:44 24.04.2020
4322 Haze 30 1009 79 3500 3.1 260 20:19 24.04.2020
4323 Haze 30 1009 79 3500 3.1 260 20:19 24.04.2020
4324 Haze 30 1009 79 3500 2.6 240 19:58 24.04.2020
4325 Haze 30 1009 79 3500 2.1 260 19:39 24.04.2020
4326 Haze 30 1009 79 3500 2.1 260 19:20 24.04.2020
4327 Haze 30 1008 79 3500 4.1 270 18:43 24.04.2020
4328 Haze 30 1008 79 3500 4.1 270 18:25 24.04.2020
4329 Haze 30 1008 79 4000 4.1 280 17:54 24.04.2020
4330 Haze 30 1008 79 4000 4.6 280 17:36 24.04.2020
4331 Haze 30 1007 79 4000 5.1 280 17:18 24.04.2020
4332 Haze 30 1007 79 4000 5.1 280 16:56 24.04.2020
4333 Haze 30 1007 79 4000 5.7 290 16:38 24.04.2020
4334 Haze 31 1007 70 5000 5.7 280 16:20 24.04.2020
4335 Haze 31 1007 70 5000 5.1 280 15:40 24.04.2020
4336 Clouds 32 1006 66 6000 7.7 280 15:20 24.04.2020
4337 Clouds 32 1006 66 6000 7.7 280 14:41 24.04.2020
4338 Clouds 32 1006 66 6000 7.7 280 14:22 24.04.2020
4339 Clouds 32 1006 62 6000 6.7 270 13:59 24.04.2020
4340 Clouds 33 1006 59 6000 6.7 270 13:41 24.04.2020
4341 Clouds 33 1006 55 6000 7.2 270 13:20 24.04.2020
4342 Clouds 33 1006 55 6000 7.2 270 12:57 24.04.2020
4343 Clouds 34 1006 49 6000 7.2 280 12:39 24.04.2020
4344 Clouds 34 1006 49 6000 7.2 260 12:19 24.04.2020
4345 Clouds 34 1007 49 6000 6.2 270 11:40 24.04.2020
4346 Clouds 34 1007 49 6000 6.2 270 11:21 24.04.2020
4347 Clouds 33 1007 63 6000 5.7 270 10:57 24.04.2020
4348 Clouds 33 1008 63 6000 6.2 260 10:38 24.04.2020
4349 Clouds 34 1009 59 6000 5.7 270 10:19 24.04.2020
4350 Clouds 34 1009 59 6000 5.7 270 10:19 24.04.2020
4351 Clouds 34 1009 59 6000 5.7 270 09:54 24.04.2020
4352 Haze 33 1009 63 5000 5.1 290 09:36 24.04.2020
4353 Haze 33 1009 63 5000 5.1 260 09:18 24.04.2020
4354 Haze 33 1009 63 4000 4.6 250 08:41 24.04.2020
4355 Haze 33 1009 63 3500 4.1 270 08:19 24.04.2020
4356 Haze 33 1009 63 3000 2.6 250 07:47 24.04.2020
4357 Haze 33 1009 63 3000 2.6 250 07:27 24.04.2020
4358 Haze 33 1009 56 3000 1.5 280 06:59 24.04.2020
4359 Haze 33 1009 63 3000 3.55 285 06:41 24.04.2020
4360 Haze 31 1009 70 3000 1.55 45 05:50 24.04.2020
4361 Haze 30 1009 74 3000 1.55 45 05:18 24.04.2020
4362 Haze 29 1008 79 3000 1.34 30 03:28 24.04.2020
4363 Haze 29 1007 79 3000 1.5 100 02:49 24.04.2020
4364 Haze 29 1007 79 3000 1.5 100 02:24 24.04.2020
4365 Haze 29 1007 79 4000 1.17 36 01:37 24.04.2020
4366 Haze 29 1007 79 4000 1.17 36 00:46 24.04.2020
4367 Haze 29 1007 79 4000 1.5 337 00:18 24.04.2020
4368 Haze 29 1008 79 4000 1.5 337 23:45 23.04.2020
4369 Haze 29 1008 79 4000 1.5 337 23:27 23.04.2020
4370 Haze 29 1008 79 4000 1.5 337 22:57 23.04.2020
4371 Haze 29 1008 79 4000 1.5 337 22:38 23.04.2020
4372 Haze 30 1008 74 4000 1.5 337 22:19 23.04.2020
4373 Haze 30 1008 74 4000 1.5 337 21:57 23.04.2020
4374 Haze 30 1008 74 4000 2.1 290 21:39 23.04.2020
4375 Haze 30 1008 74 4000 2.1 290 21:20 23.04.2020
4376 Haze 30 1009 74 4000 3.1 300 20:56 23.04.2020
4377 Haze 30 1009 74 4000 3.1 290 20:37 23.04.2020
4378 Haze 30 1009 74 4000 3.1 290 20:18 23.04.2020
4379 Haze 30 1009 74 4000 3.1 290 19:55 23.04.2020
4380 Haze 30 1009 74 4000 3.1 300 19:37 23.04.2020
4381 Haze 30 1009 70 4000 2.6 300 19:19 23.04.2020
4382 Haze 31 1009 66 4000 3.1 290 18:40 23.04.2020
4383 Haze 31 1008 66 4000 2.6 290 18:22 23.04.2020
4384 Haze 31 1008 66 4000 2.6 290 17:57 23.04.2020
4385 Haze 31 1008 70 4000 3.6 290 17:39 23.04.2020
4386 Haze 31 1008 70 4000 3.6 290 17:21 23.04.2020
4387 Haze 31 1007 70 5000 3.6 280 16:44 23.04.2020
4388 Haze 31 1007 70 5000 3.6 280 16:21 23.04.2020
4389 -273 0 0 0 0 0 15:59 23.04.2020
4390 Haze 32 1007 66 5000 5.1 280 15:40 23.04.2020
4391 Haze 32 1007 66 5000 5.1 280 15:22 23.04.2020
4392 Haze 32 1006 66 5000 5.7 280 14:54 23.04.2020
4393 Clouds 32 1006 66 6000 6.2 270 14:36 23.04.2020
4394 Clouds 33 1006 63 6000 5.7 280 14:18 23.04.2020
4395 Clouds 32 1007 62 6000 4.6 290 13:40 23.04.2020
4396 Clouds 32 1007 62 6000 4.6 290 13:22 23.04.2020
4397 Clouds 33 1007 63 6000 6.2 270 12:58 23.04.2020
4398 Clouds 32 1007 66 6000 5.7 280 12:38 23.04.2020
4399 Clouds 32 1007 66 6000 5.7 280 12:20 23.04.2020
4400 Haze 32 1008 66 5000 6.2 270 11:47 23.04.2020
4401 Haze 32 1008 66 5000 6.2 270 11:27 23.04.2020
4402 Haze 32 1009 62 5000 6.2 280 10:59 23.04.2020
4403 Haze 33 1009 66 5000 5.7 270 10:40 23.04.2020
4404 Haze 32 1009 70 5000 5.7 260 10:20 23.04.2020
4405 Clear 31 1008 62 0 6.83 276 09:40 23.04.2020
4406 Clouds 31 1010 58 0 3.86 262 09:19 23.04.2020
4407 Haze 32 1010 70 4000 2.6 290 08:51 23.04.2020
4408 Haze 32 1010 70 4000 2.6 290 08:32 23.04.2020
4409 Haze 32 1010 70 4000 2.6 290 07:59 23.04.2020
4410 Haze 32 1011 70 4000 4.1 290 07:40 23.04.2020
4411 Haze 32 1011 70 4000 4.1 290 07:22 23.04.2020
4412 Haze 32 1011 70 4000 2.6 240 06:46 23.04.2020
4413 Haze 32 1011 70 4000 1.4 189 05:54 23.04.2020
4414 Haze 32 1011 70 4000 1.4 189 05:54 23.04.2020
4415 Haze 30 1010 79 4000 1.4 189 05:21 23.04.2020
4416 Haze 29 1009 79 4000 1.4 189 03:48 23.04.2020
4417 Haze 29 1009 79 4000 0.67 208 02:23 23.04.2020
4418 Haze 29 1008 79 4000 0.67 208 01:40 23.04.2020
4419 Haze 29 1008 79 4000 0.67 208 00:57 23.04.2020
4420 Haze 29 1008 79 4000 0.9 209 00:29 23.04.2020
4421 Haze 29 1008 79 4000 0.9 209 23:59 22.04.2020
4422 Haze 30 1008 74 4000 0.9 209 23:41 22.04.2020
4423 Haze 30 1008 74 4000 0.9 209 23:22 22.04.2020
4424 Haze 30 1008 74 4000 0.9 209 22:54 22.04.2020
4425 Haze 30 1009 74 4000 0.9 209 22:36 22.04.2020
4426 Haze 30 1009 74 4000 0.9 209 22:18 22.04.2020
4427 Haze 30 1009 74 4000 0.9 209 21:54 22.04.2020
4428 Haze 30 1009 74 4000 0.9 209 21:36 22.04.2020
4429 Haze 30 1009 74 4000 1.68 280 21:18 22.04.2020
4430 Haze 30 1010 74 4000 1.5 260 20:43 22.04.2020
4431 Haze 30 1010 74 4000 2.1 290 20:19 22.04.2020
4432 Haze 30 1010 74 4000 2.1 290 20:19 22.04.2020
4433 Haze 30 1010 74 4000 2.1 290 19:57 22.04.2020
4434 Haze 30 1010 79 4000 2.6 290 19:38 22.04.2020
4435 Haze 30 1009 79 4000 2.1 290 19:18 22.04.2020
4436 Haze 30 1009 79 4000 2.1 290 18:58 22.04.2020
4437 Haze 30 1009 74 4000 1.5 290 18:40 22.04.2020
4438 Haze 30 1009 74 4000 2.1 300 18:21 22.04.2020
4439 Haze 30 1009 74 4000 3.6 280 17:44 22.04.2020
4440 Haze 30 1008 74 5000 3.6 290 17:26 22.04.2020
4441 Haze 30 1008 74 5000 3.6 290 16:58 22.04.2020
4442 Haze 30 1008 74 5000 3.6 290 16:58 22.04.2020
4443 Haze 31 1008 70 5000 4.6 280 16:40 22.04.2020
4444 Haze 31 1008 70 5000 4.6 280 16:21 22.04.2020
4445 Clouds 31 1007 70 6000 5.1 310 15:41 22.04.2020
4446 Clouds 31 1007 70 6000 5.1 310 15:22 22.04.2020
4447 Clouds 31 1007 70 6000 5.1 280 14:58 22.04.2020
4448 Clear 32 1006 66 6000 6.2 290 14:38 22.04.2020
4449 Clear 32 1006 70 6000 6.2 270 14:20 22.04.2020
4450 Clear 32 1006 70 6000 6.2 270 13:55 22.04.2020
4451 Clouds 32 1006 70 6000 6.2 280 13:36 22.04.2020
4452 Clouds 32 1006 66 6000 5.7 270 13:18 22.04.2020
4453 Clouds 33 1007 63 6000 6.2 260 12:39 22.04.2020
4454 Clouds 32 1007 66 6000 6.2 260 12:21 22.04.2020
4455 Clouds 32 1007 66 6000 5.7 250 11:40 22.04.2020
4456 Clouds 32 1007 66 6000 5.7 250 11:22 22.04.2020
4457 Clouds 32 1008 66 6000 5.1 260 10:59 22.04.2020
4458 Clouds 32 1008 66 6000 5.1 260 10:39 22.04.2020
4459 Clouds 32 1008 66 6000 5.1 260 10:20 22.04.2020
4460 Clouds 32 1009 66 6000 4.1 280 09:39 22.04.2020
4461 Clouds 32 1009 66 6000 4.1 280 09:21 22.04.2020
4462 Clear 33 1010 63 6000 4.6 280 08:58 22.04.2020
4463 Haze 32 1010 66 5000 4.1 250 08:40 22.04.2020
4464 Haze 32 1010 66 5000 4.1 250 08:21 22.04.2020
4465 Haze 33 1010 63 5000 4.1 250 07:53 22.04.2020
4466 Haze 32 1011 66 5000 4.1 240 07:28 22.04.2020
4467 Haze 32 1011 66 5000 2.6 270 06:53 22.04.2020
4468 Haze 31 1010 66 4000 1.18 48 06:18 22.04.2020
4469 Haze 30 1010 70 4000 1.18 48 05:37 22.04.2020
4470 Haze 29 1009 79 4000 1.18 48 04:20 22.04.2020
4471 Haze 28 1008 83 4000 1.54 2 02:50 22.04.2020
4472 Haze 28 1008 83 4000 1.5 90 01:52 22.04.2020
4473 Haze 28 1008 83 4000 2.1 90 01:25 22.04.2020
4474 Haze 28 1008 83 4000 1.5 110 00:54 22.04.2020
4475 Haze 28 1008 83 4000 2.14 348 00:36 22.04.2020
4476 Haze 29 1008 79 4000 2.99 328 00:18 22.04.2020
4477 Haze 29 1008 79 4000 1.5 310 23:41 21.04.2020
4478 Haze 29 1009 79 4000 2.1 310 23:19 21.04.2020
4479 Haze 29 1009 79 4000 2.1 310 23:19 21.04.2020
4480 Haze 29 1009 79 4000 2.1 320 22:40 21.04.2020
4481 Haze 29 1009 79 4000 2.1 320 22:22 21.04.2020
4482 Haze 29 1010 79 4000 2.1 270 21:59 21.04.2020
4483 Haze 29 1010 79 4000 2.1 260 21:41 21.04.2020
4484 Haze 29 1010 79 4000 2.1 260 21:22 21.04.2020
4485 Haze 29 1010 79 4000 1.5 300 20:56 21.04.2020
4486 Haze 29 1010 79 4000 3.6 300 20:38 21.04.2020
4487 Haze 29 1010 79 4000 3.6 300 20:20 21.04.2020
4488 Haze 29 1010 79 4000 3.1 290 19:41 21.04.2020
4489 Haze 29 1010 79 4000 3.1 290 19:20 21.04.2020
4490 Haze 30 1010 70 4000 2.1 300 18:58 21.04.2020
4491 Haze 30 1010 66 5000 2.6 310 18:38 21.04.2020
4492 Haze 30 1010 66 5000 3.1 270 18:19 21.04.2020
4493 Haze 30 1010 66 5000 3.1 270 17:55 21.04.2020
4494 Clear 30 1009 66 6000 1.5 280 17:37 21.04.2020
4495 Clear 30 1009 66 6000 1.5 280 17:37 21.04.2020
4496 Clear 30 1009 66 6000 2.6 310 17:18 21.04.2020
4497 Clear 30 1009 66 6000 3.6 260 16:39 21.04.2020
4498 Clear 31 1009 62 6000 3.6 280 16:19 21.04.2020
4499 Clear 31 1009 62 6000 3.6 280 16:19 21.04.2020
4500 Clear 31 1009 62 6000 3.6 280 16:19 21.04.2020
4501 Clear 31 1009 62 6000 3.6 280 15:57 21.04.2020
4502 Clear 31 1009 66 7000 4.6 270 15:39 21.04.2020
4503 Clear 31 1009 66 7000 4.6 270 15:21 21.04.2020
4504 Clear 32 1008 59 7000 6.2 260 14:57 21.04.2020
4505 Clear 32 1008 59 7000 4.6 270 14:39 21.04.2020
4506 Clear 32 1008 59 7000 4.6 270 14:21 21.04.2020
4507 Clouds 32 1008 59 7000 6.2 270 13:41 21.04.2020
4508 Clouds 32 1008 59 7000 6.2 270 13:22 21.04.2020
4509 Clouds 33 1008 55 7000 6.2 270 12:57 21.04.2020
4510 Clouds 33 1008 55 7000 6.7 270 12:37 21.04.2020
4511 Clouds 33 1008 59 7000 5.7 230 12:18 21.04.2020
4512 Clouds 33 1008 59 7000 5.7 230 11:55 21.04.2020
4513 Clouds 33 1009 59 7000 5.7 240 11:36 21.04.2020
4514 Clouds 33 1009 59 7000 6.7 250 11:18 21.04.2020
4515 Clouds 33 1009 59 7000 6.7 250 10:56 21.04.2020
4516 Clouds 33 1010 59 7000 5.7 250 10:38 21.04.2020
4517 Clear 33 1010 59 7000 6.2 260 10:19 21.04.2020
4518 Clouds 33 1010 59 6000 4.6 260 09:37 21.04.2020
4519 Smoke 33 1010 63 5000 6.2 270 09:19 21.04.2020
4520 Smoke 33 1010 63 5000 6.2 270 08:57 21.04.2020
4521 Smoke 33 1011 63 4000 4.1 250 08:39 21.04.2020
4522 Smoke 33 1011 63 4000 4.1 250 08:19 21.04.2020
4523 Smoke 33 1011 56 3500 3.1 260 07:44 21.04.2020
4524 Smoke 33 1011 56 3500 3.1 260 07:22 21.04.2020
4525 Smoke 32 1011 59 3000 3.69 292 06:49 21.04.2020
4526 Smoke 32 1011 59 3000 1.33 48 06:20 21.04.2020
4527 Haze 31 1011 66 3000 1.33 48 05:48 21.04.2020
4528 Haze 29 1009 70 3000 1.33 48 04:19 21.04.2020
4529 Haze 29 1009 66 3000 1.33 48 03:42 21.04.2020
4530 Haze 29 1007 62 4000 2.21 31 01:46 21.04.2020
4531 Haze 30 1007 62 4000 2.21 31 01:18 21.04.2020
4532 Haze 30 1008 62 4000 1.5 320 00:35 21.04.2020
4533 Haze 30 1008 58 4000 2.46 13 23:45 20.04.2020
4534 Haze 30 1008 58 4000 2.46 13 23:25 20.04.2020
4535 Haze 30 1008 55 4000 2.46 13 22:58 20.04.2020
4536 Haze 30 1008 55 4000 2.46 13 22:38 20.04.2020
4537 Haze 31 1008 52 4000 2.46 13 22:20 20.04.2020
4538 Haze 31 1008 52 4000 2.46 13 21:57 20.04.2020
4539 Haze 31 1009 52 4000 2.46 13 21:38 20.04.2020
4540 Haze 31 1009 52 4000 4.8 328 21:19 20.04.2020
4541 Haze 31 1009 52 4000 2.1 300 20:58 20.04.2020
4542 Haze 31 1009 55 4000 2.6 310 20:38 20.04.2020
4543 Haze 31 1009 58 5000 3.1 300 20:18 20.04.2020
4544 Haze 31 1009 58 5000 3.1 300 20:18 20.04.2020
4545 Haze 31 1009 58 5000 3.1 300 20:18 20.04.2020
4546 Haze 31 1009 58 5000 3.1 300 19:57 20.04.2020
4547 Haze 31 1009 62 5000 2.1 290 19:38 20.04.2020
4548 Smoke 32 1009 52 5000 2.1 300 19:19 20.04.2020
4549 Smoke 33 1008 41 5000 1.5 310 18:42 20.04.2020
4550 Smoke 34 1008 32 5000 2.1 310 18:23 20.04.2020
4551 Smoke 34 1008 32 5000 2.1 310 17:56 20.04.2020
4552 Smoke 34 1007 28 5000 1.5 330 17:38 20.04.2020
4553 Smoke 35 1007 24 5000 2.1 320 17:19 20.04.2020
4554 Smoke 35 1007 24 5000 2.1 320 16:59 20.04.2020
4555 Smoke 35 1007 24 5000 2.6 330 16:39 20.04.2020
4556 Smoke 35 1006 26 5000 3.6 320 16:19 20.04.2020
4557 Smoke 36 1006 26 5000 4.1 320 15:45 20.04.2020
4558 Smoke 36 1006 26 5000 4.1 320 15:24 20.04.2020
4559 Smoke 37 1006 23 5000 4.6 320 14:58 20.04.2020
4560 Smoke 37 1006 27 5000 5.7 320 14:40 20.04.2020
4561 Smoke 37 1006 29 5000 62.2 300 14:19 20.04.2020
4562 Smoke 37 1006 29 5000 62.2 300 13:56 20.04.2020
4563 Smoke 37 1006 27 5000 6.2 300 13:37 20.04.2020
4564 Smoke 37 1006 30 5000 3.6 330 13:19 20.04.2020
4565 Smoke 37 1007 37 5000 5.1 330 12:42 20.04.2020
4566 Smoke 36 1007 44 5000 4.1 310 12:21 20.04.2020
4567 Smoke 36 1007 44 5000 4.1 310 11:42 20.04.2020
4568 Smoke 36 1007 44 5000 4.1 310 11:22 20.04.2020
4569 Smoke 36 1008 41 5000 4.1 310 10:57 20.04.2020
4570 Smoke 36 1008 42 4000 4.6 290 10:39 20.04.2020
4571 Smoke 36 1008 47 4000 3.6 270 10:20 20.04.2020
4572 Smoke 36 1008 47 4000 3.6 270 09:58 20.04.2020
4573 Smoke 36 1009 50 4000 4.1 270 09:39 20.04.2020
4574 Smoke 35 1009 50 4000 5.1 250 09:21 20.04.2020
4575 Smoke 36 1009 35 4000 1.5 300 08:42 20.04.2020
4576 Smoke 36 1010 34 4000 2.6 40 08:23 20.04.2020
4577 Smoke 36 1010 34 4000 2.6 40 07:56 20.04.2020
4578 Smoke 36 1010 32 0 4.1 50 07:37 20.04.2020
4579 Smoke 36 1010 36 3500 3.1 60 07:19 20.04.2020
4580 Smoke 35 1010 38 3500 3.6 70 06:37 20.04.2020
4581 Smoke 33 1010 46 3000 3.27 24 05:48 20.04.2020
4582 Haze 32 1009 70 3000 1.5 350 04:34 20.04.2020
4583 Haze 29 1008 83 3500 2.6 330 02:47 20.04.2020
4584 Haze 29 1008 83 3500 2.6 330 02:26 20.04.2020
4585 Haze 29 1008 83 3500 2.53 33 01:29 20.04.2020
4586 Haze 30 1007 79 3500 2.53 33 00:44 20.04.2020
4587 Haze 30 1007 79 3500 2.72 16 00:20 20.04.2020
4588 Haze 30 1008 79 3500 2.72 16 23:39 19.04.2020
4589 Haze 30 1008 79 3500 2.72 16 23:21 19.04.2020
4590 Haze 30 1008 79 3500 3.6 330 22:55 19.04.2020
4591 Haze 30 1008 79 3500 3.6 330 22:55 19.04.2020
4592 Haze 30 1009 79 3500 2.1 340 22:37 19.04.2020
4593 Haze 31 1009 74 3500 2.6 340 22:19 19.04.2020
4594 Haze 31 1009 74 4000 2.72 16 21:42 19.04.2020
4595 Haze 31 1010 70 4000 3.6 270 21:23 19.04.2020
4596 Haze 31 1010 70 4000 3.6 270 20:57 19.04.2020
4597 Haze 31 1010 70 4000 3.74 327 20:38 19.04.2020
4598 Haze 31 1010 70 4000 3.74 327 20:20 19.04.2020
4599 Haze 32 1009 62 4000 3.74 327 19:56 19.04.2020
4600 Haze 32 1009 62 4000 3.74 327 19:38 19.04.2020
4601 Haze 32 1009 62 4000 3.74 327 19:19 19.04.2020
4602 Haze 32 1009 66 4000 1.5 140 18:55 19.04.2020
4603 Haze 32 1009 66 4000 2.6 210 18:36 19.04.2020
4604 Haze 32 1009 62 4000 3.1 160 18:18 19.04.2020
4605 Haze 32 1009 62 4000 3.1 160 17:54 19.04.2020
4606 Haze 32 1008 62 4000 1.5 330 17:36 19.04.2020
4607 Haze 32 1008 62 4000 1.5 330 17:36 19.04.2020
4608 Haze 32 1007 62 4000 2.6 320 17:18 19.04.2020
4609 Haze 32 1007 62 4000 2.6 300 16:40 19.04.2020
4610 Smoke 34 1006 62 5000 3.1 310 16:21 19.04.2020
4611 Smoke 34 1006 62 5000 3.1 310 15:58 19.04.2020
4612 Smoke 34 1006 59 5000 3.6 310 15:39 19.04.2020
4613 Smoke 34 1006 59 5000 5.1 300 15:18 19.04.2020
4614 Smoke 34 1006 55 5000 5.7 320 14:39 19.04.2020
4615 Smoke 34 1006 55 5000 5.7 320 14:21 19.04.2020
4616 Smoke 34 1006 55 5000 5.7 320 14:21 19.04.2020
4617 Smoke 34 1006 59 5000 6.2 320 13:57 19.04.2020
4618 Smoke 34 1006 56 5000 8.2 300 13:36 19.04.2020
4619 Clouds 34 1006 56 6000 6.2 300 13:18 19.04.2020
4620 Clouds 34 1006 59 6000 6.2 300 12:44 19.04.2020
4621 Clouds 35 1006 59 6000 6.2 300 12:24 19.04.2020
4622 Clear 35 1007 63 6000 6.7 280 11:54 19.04.2020
4623 Clouds 34 1007 63 6000 6.2 280 11:36 19.04.2020
4624 Clear 34 1008 63 6000 6.7 270 11:18 19.04.2020
4625 Clouds 33 1008 63 6000 6.2 270 10:41 19.04.2020
4626 Clouds 33 1008 63 6000 6.2 270 10:41 19.04.2020
4627 Clouds 34 1008 63 6000 6.2 270 10:21 19.04.2020
4628 Clouds 35 1009 59 6000 4.6 280 09:57 19.04.2020
4629 Clouds 34 1009 63 6000 5.1 270 09:39 19.04.2020
4630 Smoke 35 1010 56 5000 3.6 250 09:18 19.04.2020
4631 Smoke 34 1010 56 5000 4.1 270 08:40 19.04.2020
4632 Smoke 34 1010 56 5000 4.1 270 08:40 19.04.2020
4633 Smoke 34 1011 59 5000 1.5 290 08:21 19.04.2020
4634 Haze 33 1011 63 5000 2.1 230 07:48 19.04.2020
4635 Haze 33 1011 63 5000 2.1 230 07:25 19.04.2020
4636 Haze 33 1011 66 4000 1.5 240 06:57 19.04.2020
4637 Haze 31 1011 70 3500 1.25 77 06:23 19.04.2020
4638 Haze 30 1011 79 3500 1.5 130 05:34 19.04.2020
4639 Haze 29 1010 83 3500 3.6 150 03:40 19.04.2020
4640 Haze 29 1010 83 3000 3.1 160 02:23 19.04.2020
4641 Haze 29 1009 83 3000 4.1 170 01:58 19.04.2020
4642 Haze 29 1009 83 3000 2.6 170 01:22 19.04.2020
4643 Haze 29 1009 83 3000 2.1 150 00:41 19.04.2020
4644 Haze 29 1009 83 3000 2.1 150 00:41 19.04.2020
4645 Haze 29 1009 83 3000 2.1 150 00:19 19.04.2020
4646 Haze 30 1010 79 3500 1.5 200 23:43 18.04.2020
4647 Haze 30 1010 79 3500 1.5 200 23:19 18.04.2020
4648 Haze 30 1009 79 4000 2.6 260 22:44 18.04.2020
4649 Haze 30 1009 79 4000 2.6 260 22:24 18.04.2020
4650 Haze 30 1010 79 4000 2.6 230 21:59 18.04.2020
4651 Haze 30 1010 79 4000 2.6 230 21:59 18.04.2020
4652 Haze 30 1010 79 4000 2.1 230 21:41 18.04.2020
4653 Haze 30 1010 79 4000 2.1 230 21:22 18.04.2020
4654 Haze 30 1010 79 4000 3.1 210 20:59 18.04.2020
4655 Haze 30 1010 79 4000 3.1 210 20:40 18.04.2020
4656 Haze 30 1010 79 4000 3.1 210 20:21 18.04.2020
4657 Haze 30 1010 79 4000 4.1 250 19:43 18.04.2020
4658 Haze 30 1010 79 4000 4.1 250 19:25 18.04.2020
4659 Haze 31 1010 74 4000 2.6 180 18:40 18.04.2020
4660 Haze 31 1010 74 4000 2.6 180 18:20 18.04.2020
4661 Haze 31 1009 74 4000 1.5 190 17:59 18.04.2020
4662 Haze 31 1009 74 4000 2.6 240 17:40 18.04.2020
4663 Haze 31 1009 74 4000 2.6 240 17:20 18.04.2020
4664 Haze 31 1008 74 4000 3.6 280 16:55 18.04.2020
4665 Haze 31 1008 74 4000 3.6 280 16:36 18.04.2020
4666 Haze 31 1008 70 5000 4.6 280 16:18 18.04.2020
4667 Haze 31 1008 70 5000 3.6 310 15:38 18.04.2020
4668 Haze 31 1008 70 5000 3.6 310 15:38 18.04.2020
4669 Haze 31 1008 70 5000 3.6 310 15:20 18.04.2020
4670 Clouds 32 1007 66 7000 4.6 290 14:44 18.04.2020
4671 Clouds 32 1007 66 7000 4.6 290 14:25 18.04.2020
4672 Clear 32 1007 62 7000 7.2 280 13:54 18.04.2020
4673 Clear 32 1007 62 7000 5.7 290 13:36 18.04.2020
4674 Clear 33 1008 59 7000 6.2 280 13:18 18.04.2020
4675 Clear 32 1008 62 7000 6.7 270 12:41 18.04.2020
4676 Clear 32 1008 66 7000 5.7 260 12:22 18.04.2020
4677 Clear 32 1008 66 7000 5.1 270 11:43 18.04.2020
4678 Clear 34 1008 66 7000 5.1 270 11:23 18.04.2020
4679 Clear 34 1009 63 7000 6.2 280 10:57 18.04.2020
4680 Clear 34 1009 66 6000 5.1 260 10:37 18.04.2020
4681 Clear 34 1009 66 6000 5.1 260 10:37 18.04.2020
4682 Clear 34 1009 66 6000 4.6 240 10:18 18.04.2020
4683 Clear 34 1009 66 6000 4.6 240 10:18 18.04.2020
4684 Clear 34 1010 59 6000 5.1 260 09:42 18.04.2020
4685 Clear 34 1010 59 6000 5.1 260 09:23 18.04.2020
4686 Clear 34 1010 63 6000 5.7 250 08:56 18.04.2020
4687 Smoke 34 1010 63 5000 5.7 250 08:38 18.04.2020
4688 Smoke 34 1011 63 5000 4.1 260 08:18 18.04.2020
4689 Smoke 34 1011 46 4000 1.5 0 07:37 18.04.2020
4690 Haze 33 1011 62 4000 2.46 306 06:59 18.04.2020
4691 Haze 32 1011 66 4000 1.04 34 06:29 18.04.2020
4692 Haze 29 1011 79 3500 2.6 100 05:36 18.04.2020
4693 Haze 29 1010 79 3000 2.1 90 04:47 18.04.2020
4694 Haze 29 1010 79 3000 2.1 90 04:25 18.04.2020
4695 Haze 28 1009 83 3000 0.81 114 02:49 18.04.2020
4696 Haze 28 1009 83 3000 0.78 104 02:23 18.04.2020
4697 Haze 29 1009 79 3000 0.78 104 01:57 18.04.2020
4698 Haze 29 1009 79 4000 0.78 104 01:35 18.04.2020
4699 Haze 29 1009 79 4000 0.78 104 01:35 18.04.2020
4700 Haze 29 1009 79 4000 2.1 250 00:44 18.04.2020
4701 Haze 29 1009 79 4000 2.1 250 00:22 18.04.2020
4702 Haze 29 1009 79 4000 2.1 250 00:22 18.04.2020
4703 Haze 29 1009 79 4000 3.1 260 23:56 17.04.2020
4704 Haze 29 1009 79 4000 2.6 250 23:38 17.04.2020
4705 Haze 29 1009 79 4000 1.5 260 23:18 17.04.2020
4706 Haze 29 1009 79 4000 1.5 260 22:56 17.04.2020
4707 Haze 29 1009 79 4000 2.6 240 22:37 17.04.2020
4708 Haze 29 1010 83 4000 1.5 220 22:18 17.04.2020
4709 Haze 29 1010 79 4000 2.1 220 21:42 17.04.2020
4710 Haze 29 1010 79 4000 2.1 220 21:21 17.04.2020
4711 Haze 29 1010 83 4000 2.1 210 20:57 17.04.2020
4712 Haze 29 1010 83 4000 2.1 210 20:38 17.04.2020
4713 Haze 29 1010 83 4000 2.1 210 20:19 17.04.2020
4714 Haze 29 1010 83 4000 2.1 220 19:58 17.04.2020
4715 Haze 29 1010 83 4000 2.1 220 19:40 17.04.2020
4716 Haze 29 1010 83 4000 2.1 220 19:22 17.04.2020
4717 Haze 30 1009 79 4000 3.1 250 18:44 17.04.2020
4718 Haze 30 1009 79 4000 3.1 250 18:24 17.04.2020
4719 Haze 30 1009 79 4000 3.6 260 18:24 17.04.2020
4720 Haze 30 1009 79 4000 3.1 250 18:24 17.04.2020
4721 Haze 30 1009 79 4000 3.6 260 17:55 17.04.2020
4722 Haze 30 1009 79 4000 3.1 260 17:37 17.04.2020
4723 Haze 30 1009 79 4000 3.1 270 17:18 17.04.2020
4724 Haze 30 1009 79 4000 3.1 270 17:18 17.04.2020
4725 Haze 30 1008 79 4000 3.1 270 16:42 17.04.2020
4726 Haze 30 1008 79 4000 3.1 270 16:23 17.04.2020
4727 Haze 30 1008 79 4000 3.1 270 16:23 17.04.2020
4728 Haze 31 1007 74 5000 5.1 260 15:42 17.04.2020
4729 Haze 31 1007 74 5000 5.1 260 15:24 17.04.2020
4730 Haze 31 1007 74 5000 5.1 260 14:57 17.04.2020
4731 Clear 31 1006 70 5000 4.1 260 14:38 17.04.2020
4732 Clear 32 1006 66 6000 5.7 260 14:20 17.04.2020
4733 Clear 32 1006 66 6000 5.7 250 13:55 17.04.2020
4734 Clear 32 1006 66 6000 5.7 250 13:36 17.04.2020
4735 Clear 32 1006 70 6000 6.2 270 13:18 17.04.2020
4736 Clear 33 1007 55 6000 5.7 270 12:43 17.04.2020
4737 Clear 33 1007 55 6000 5.7 270 12:22 17.04.2020
4738 Clouds 33 1008 59 6000 5.7 270 11:41 17.04.2020
4739 Clouds 33 1008 59 6000 5.7 260 11:19 17.04.2020
4740 Clouds 33 1008 59 6000 5.7 260 10:56 17.04.2020
4741 Clouds 33 1008 59 6000 5.7 260 10:56 17.04.2020
4742 Haze 33 1008 63 5000 5.1 260 10:38 17.04.2020
4743 Haze 33 1009 63 5000 3.6 250 10:18 17.04.2020
4744 Haze 32 1010 66 5000 4.1 250 09:41 17.04.2020
4745 Haze 32 1010 66 5000 4.1 250 09:20 17.04.2020
4746 Haze 32 1010 66 4000 4.1 260 08:57 17.04.2020
4747 Haze 32 1010 66 4000 4.1 260 08:39 17.04.2020
4748 Haze 32 1011 66 4000 3.6 260 08:19 17.04.2020
4749 Haze 32 1011 66 4000 3.18 268 07:44 17.04.2020
4750 Haze 31 1011 70 3500 2.1 260 07:22 17.04.2020
4751 Haze 31 1011 70 3000 1.5 140 06:45 17.04.2020
4752 Haze 30 1011 79 3000 1.5 130 06:22 17.04.2020
4753 Haze 29 1010 83 3000 2.6 100 04:46 17.04.2020
4754 Haze 28 1009 88 3000 0.66 124 03:19 17.04.2020
4755 Haze 29 1008 83 3000 0.9 129 02:19 17.04.2020
4756 Haze 29 1008 83 3000 0.9 129 01:29 17.04.2020
4757 Haze 29 1008 83 3000 0.9 129 00:51 17.04.2020
4758 Haze 29 1008 83 3000 1.5 150 00:19 17.04.2020
4759 Haze 29 1008 83 3000 3.69 172 23:42 16.04.2020
4760 Haze 29 1008 83 3000 3.69 172 23:22 16.04.2020
4761 Haze 29 1009 83 3000 1.5 200 22:56 16.04.2020
4762 Haze 29 1009 83 3000 2.6 200 22:37 16.04.2020
4763 Haze 29 1009 83 3000 2.6 200 22:19 16.04.2020
4764 Haze 29 1010 83 3000 3.1 200 21:42 16.04.2020
4765 Haze 29 1010 83 3000 3.6 190 21:20 16.04.2020
4766 Haze 29 1010 83 3000 3.1 200 21:20 16.04.2020
4767 Haze 29 1010 83 3000 3.6 190 20:59 16.04.2020
4768 Haze 30 1011 79 3000 3.6 180 20:39 16.04.2020
4769 Haze 30 1011 79 3000 3.1 170 20:19 16.04.2020
4770 Haze 30 1011 79 3000 3.1 170 19:55 16.04.2020
4771 Haze 30 1010 79 3000 2.1 180 19:36 16.04.2020
4772 Haze 30 1010 79 3000 3.1 210 19:18 16.04.2020
4773 Haze 30 1010 79 3000 2.1 200 18:42 16.04.2020
4774 Haze 30 1010 74 3500 2.6 200 18:23 16.04.2020
4775 Haze 30 1010 74 3500 2.6 200 17:57 16.04.2020
4776 Haze 30 1010 79 3500 2.1 220 17:39 16.04.2020
4777 Haze 30 1010 79 3500 2.1 220 17:18 16.04.2020
4778 Haze 30 1009 79 4000 2.6 210 16:42 16.04.2020
4779 Haze 30 1009 79 4000 2.6 210 16:23 16.04.2020
4780 Haze 30 1008 79 5000 4.1 240 15:45 16.04.2020
4781 Haze 30 1008 79 5000 4.1 240 15:20 16.04.2020
4782 Haze 30 1008 74 5000 5.1 240 14:59 16.04.2020
4783 Haze 31 1007 74 5000 5.1 260 14:40 16.04.2020
4784 Clouds 31 1007 70 6000 6.2 240 14:21 16.04.2020
4785 Clouds 31 1007 70 6000 6.2 240 13:58 16.04.2020
4786 Clouds 31 1007 70 6000 6.2 240 13:58 16.04.2020
4787 Clouds 31 1008 70 6000 5.7 240 13:40 16.04.2020
4788 Clouds 31 1008 70 6000 6.2 270 13:21 16.04.2020
4789 Clouds 31 1008 70 6000 6.2 270 12:57 16.04.2020
4790 Clouds 32 1008 70 6000 5.1 250 12:38 16.04.2020
4791 Clouds 32 1008 66 6000 6.2 230 12:19 16.04.2020
4792 Clouds 32 1008 66 6000 6.2 230 11:56 16.04.2020
4793 Clouds 32 1009 66 6000 6.2 240 11:38 16.04.2020
4794 Clouds 32 1009 66 6000 6.2 240 11:18 16.04.2020
4795 Clouds 32 1009 66 6000 6.2 240 11:18 16.04.2020
4796 Clouds 33 1009 63 6000 6.7 230 10:54 16.04.2020
4797 Clouds 33 1009 59 6000 6.2 230 10:36 16.04.2020
4798 Clouds 33 1010 55 6000 6.7 210 10:18 16.04.2020
4799 Clouds 33 1010 63 6000 6.2 250 09:38 16.04.2020
4800 Clouds 33 1010 63 6000 6.2 250 09:38 16.04.2020
4801 Clouds 33 1010 63 6000 6.2 250 09:20 16.04.2020
4802 Haze 33 1011 63 4000 5.1 230 08:45 16.04.2020
4803 Haze 33 1011 63 4000 5.1 230 08:25 16.04.2020
4804 Haze 32 1011 70 4000 5.1 260 07:58 16.04.2020
4805 Haze 32 1011 66 3500 3.6 270 07:39 16.04.2020
4806 Haze 32 1011 66 3500 3.6 260 07:20 16.04.2020
4807 Haze 31 1011 66 3000 1.5 250 06:41 16.04.2020
4808 Haze 31 1011 66 3000 1.5 250 06:22 16.04.2020
4809 Haze 30 1010 74 3000 3.1 110 04:52 16.04.2020
4810 Haze 28 1009 83 3000 2.1 110 03:25 16.04.2020
4811 Haze 28 1009 83 3000 2.1 110 02:58 16.04.2020
4812 Haze 29 1008 83 3000 1.5 120 02:34 16.04.2020
4813 Haze 29 1008 79 4000 1.71 123 01:28 16.04.2020
4814 Haze 29 1008 79 4000 2.6 160 00:53 16.04.2020
4815 Haze 29 1009 79 4000 2.63 162 00:21 16.04.2020
4816 Haze 29 1009 79 4000 2.63 162 23:54 15.04.2020
4817 Haze 29 1009 79 4000 2.63 162 23:36 15.04.2020
4818 Haze 29 1009 79 4000 2.1 230 23:18 15.04.2020
4819 Haze 30 1010 79 4000 3.6 230 22:38 15.04.2020
4820 Haze 30 1010 79 4000 3.6 230 22:20 15.04.2020
4821 Haze 30 1010 79 4000 3.1 230 21:55 15.04.2020
4822 Haze 30 1010 79 4000 3.1 220 21:37 15.04.2020
4823 Haze 30 1010 79 4000 3.1 220 21:18 15.04.2020
4824 Haze 30 1011 79 4000 4.1 230 20:54 15.04.2020
4825 Haze 30 1011 79 4000 2.59 212 20:36 15.04.2020
4826 Haze 30 1011 79 4000 2.6 220 20:18 15.04.2020
4827 Haze 30 1011 79 4000 2.1 190 19:41 15.04.2020
4828 Haze 30 1011 79 4000 2.6 190 19:20 15.04.2020
4829 Haze 30 1010 74 4000 3.1 190 18:41 15.04.2020
4830 Haze 30 1010 74 4000 3.6 190 18:23 15.04.2020
4831 Haze 30 1010 74 4000 2.1 190 17:58 15.04.2020
4832 Haze 30 1010 74 4000 2.1 190 17:39 15.04.2020
4833 Haze 31 1009 66 4000 3.6 200 17:20 15.04.2020
4834 Haze 31 1009 66 4000 3.6 200 16:56 15.04.2020
4835 Haze 31 1009 70 4000 2.6 220 16:37 15.04.2020
4836 Haze 31 1009 70 4000 2.6 220 16:19 15.04.2020
4837 Haze 31 1008 70 5000 4.1 230 15:57 15.04.2020
4838 Haze 31 1008 74 5000 4.1 220 15:38 15.04.2020
4839 Haze 31 1008 74 5000 4.1 220 15:19 15.04.2020
4840 Haze 31 1008 74 5000 5.1 240 14:57 15.04.2020
4841 Clouds 31 1008 70 6000 4.1 230 14:38 15.04.2020
4842 Clouds 31 1008 70 6000 4.1 230 14:20 15.04.2020
4843 Clouds 32 1008 66 6000 5.7 230 13:57 15.04.2020
4844 Clouds 32 1008 59 6000 5.7 250 13:38 15.04.2020
4845 Clouds 32 1008 59 6000 4.6 240 13:19 15.04.2020
4846 Haze 33 1008 55 5000 5.1 240 12:42 15.04.2020
4847 Haze 33 1008 59 5000 5.7 240 12:23 15.04.2020
4848 Haze 33 1008 59 5000 5.7 240 12:23 15.04.2020
4849 Haze 33 1008 59 5000 5.7 240 11:59 15.04.2020
4850 Haze 33 1009 59 5000 5.1 240 11:41 15.04.2020
4851 Haze 33 1009 59 5000 5.1 240 11:23 15.04.2020
4852 Smoke 33 1009 59 4000 6.2 220 10:56 15.04.2020
4853 Smoke 33 1009 59 4000 5.7 250 10:36 15.04.2020
4854 Smoke 33 1009 59 4000 5.7 250 10:18 15.04.2020
4855 Smoke 33 1010 59 4000 6.2 260 09:54 15.04.2020
4856 Smoke 33 1010 63 3500 5.7 250 09:36 15.04.2020
4857 Smoke 34 1010 63 3500 5.7 250 09:18 15.04.2020
4858 Smoke 34 1011 59 3500 4.1 280 08:40 15.04.2020
4859 Smoke 34 1011 59 3500 4.1 280 08:19 15.04.2020
4860 Smoke 34 1012 59 3500 5.21 229 07:54 15.04.2020
4861 Smoke 34 1012 59 3500 5.21 229 07:32 15.04.2020
4862 Haze 32 1012 62 3500 5.21 229 06:34 15.04.2020
4863 Haze 31 1012 70 3500 2.37 51 05:51 15.04.2020
4864 Haze 30 1012 70 3500 2.37 51 05:19 15.04.2020
4865 Haze 29 1011 79 3500 2.37 51 04:44 15.04.2020
4866 Haze 28 1010 83 3500 2.37 51 03:34 15.04.2020
4867 Haze 28 1010 83 3500 1.96 35 02:57 15.04.2020
4868 Haze 28 1009 83 3500 1.96 35 01:57 15.04.2020
4869 Haze 29 1009 79 4000 1.96 35 01:39 15.04.2020
4870 Haze 29 1009 79 4000 1.96 35 01:18 15.04.2020
4871 Haze 29 1009 79 4000 1.96 35 00:36 15.04.2020
4872 Haze 29 1010 79 4000 1.17 19 00:18 15.04.2020
4873 Haze 29 1010 79 4000 1.17 19 23:54 14.04.2020
4874 Haze 29 1010 79 4000 1.17 19 23:36 14.04.2020
4875 Haze 29 1010 79 4000 1.17 19 23:18 14.04.2020
4876 Haze 29 1010 74 4000 1.17 19 22:54 14.04.2020
4877 Haze 30 1011 70 4000 1.17 19 22:36 14.04.2020
4878 Haze 30 1011 70 4000 1.17 19 22:18 14.04.2020
4879 Haze 30 1011 70 4000 1.17 19 21:54 14.04.2020
4880 Haze 30 1011 74 4000 2.6 300 21:36 14.04.2020
4881 Haze 30 1011 74 4000 2.6 300 21:18 14.04.2020
4882 Haze 30 1011 79 4000 2.6 300 20:40 14.04.2020
4883 Haze 30 1011 79 4000 2.6 300 20:22 14.04.2020
4884 Haze 30 1011 84 4000 3.6 270 19:58 14.04.2020
4885 Haze 30 1011 79 4000 3.1 260 19:38 14.04.2020
4886 Haze 30 1011 74 4000 3.1 240 19:20 14.04.2020
4887 Haze 30 1011 74 4000 3.1 240 18:55 14.04.2020
4888 Haze 30 1011 74 4000 3.6 230 18:37 14.04.2020
4889 Haze 30 1010 74 4000 3.6 190 18:18 14.04.2020
4890 Haze 30 1010 74 4000 3.6 190 17:55 14.04.2020
4891 Haze 30 1010 79 4000 3.6 190 17:36 14.04.2020
4892 Haze 30 1010 79 4000 3.6 190 17:18 14.04.2020
4893 Haze 31 1009 70 4000 4.1 210 16:41 14.04.2020
4894 Haze 31 1009 70 4000 4.1 210 16:22 14.04.2020
4895 Haze 31 1008 70 4000 3.6 240 15:58 14.04.2020
4896 Haze 32 1007 62 4000 3.6 270 15:38 14.04.2020
4897 Haze 32 1007 62 4000 3.6 270 15:19 14.04.2020
4898 Smoke 33 1006 59 4000 2.6 320 14:57 14.04.2020
4899 Smoke 33 1006 59 4000 4.1 310 14:39 14.04.2020
4900 Smoke 33 1006 59 4000 4.1 310 14:39 14.04.2020
4901 Smoke 34 1006 59 4000 4.1 310 14:21 14.04.2020
4902 Smoke 34 1006 59 4000 4.1 310 14:21 14.04.2020
4903 Smoke 34 1006 56 4000 5.7 280 13:45 14.04.2020
4904 Smoke 34 1006 53 4000 5.7 290 13:24 14.04.2020
4905 Smoke 34 1006 53 4000 5.7 290 12:59 14.04.2020
4906 Smoke 34 1006 56 4000 5.7 270 12:40 14.04.2020
4907 Smoke 34 1006 56 4000 5.7 270 12:20 14.04.2020
4908 Haze 34 1006 59 3500 6.2 270 11:54 14.04.2020
4909 Haze 34 1007 59 3500 5.7 270 11:36 14.04.2020
4910 Haze 34 1007 59 3500 5.7 270 11:18 14.04.2020
4911 Smoke 33 1008 66 3500 6.2 270 10:41 14.04.2020
4912 Smoke 33 1008 66 3500 6.2 270 10:23 14.04.2020
4913 Smoke 33 1009 59 3500 4.6 270 09:42 14.04.2020
4914 Smoke 34 1009 59 3500 4.6 270 09:24 14.04.2020
4915 Smoke 34 1009 53 3500 3.6 280 08:57 14.04.2020
4916 Smoke 34 1009 59 3500 5.7 260 08:39 14.04.2020
4917 Clear 34 1010 40 0 2.93 331 08:21 14.04.2020
4918 Smoke 34 1010 56 3000 4.6 260 07:52 14.04.2020
4919 Smoke 33 1010 52 3000 2.93 331 07:28 14.04.2020
4920 Clear 34 1010 40 0 2.93 331 06:46 14.04.2020
4921 Smoke 31 1010 58 3000 1.5 80 05:55 14.04.2020
4922 Haze 28 1009 83 3000 2.1 110 03:52 14.04.2020
4923 Haze 28 1009 88 4000 2.1 100 02:44 14.04.2020
4924 Haze 28 1008 88 4000 1.45 81 01:38 14.04.2020
4925 Haze 28 1008 88 4000 1.5 100 01:18 14.04.2020
4926 Haze 28 1008 88 4000 2.6 110 00:32 14.04.2020
4927 Haze 29 1009 83 4000 1.5 270 23:59 13.04.2020
4928 Haze 29 1009 83 4000 1.5 270 23:39 13.04.2020
4929 Haze 29 1009 83 4000 1.5 270 23:21 13.04.2020
4930 Haze 29 1009 83 4000 2.6 270 22:56 13.04.2020
4931 Haze 29 1010 83 4000 2.6 270 22:37 13.04.2020
4932 Haze 29 1010 83 4000 2.6 270 22:19 13.04.2020
4933 Haze 29 1010 83 4000 2.1 280 21:54 13.04.2020
4934 Haze 29 1010 83 4000 3.1 270 21:36 13.04.2020
4935 Haze 29 1010 83 4000 3.1 270 21:18 13.04.2020
4936 Haze 29 1010 83 4000 3.6 260 20:40 13.04.2020
4937 Haze 29 1010 83 4000 3.6 260 20:20 13.04.2020
4938 Haze 29 1010 83 4000 3.6 260 20:20 13.04.2020
4939 Haze 30 1010 74 4000 2.6 240 19:58 13.04.2020
4940 Haze 30 1010 74 4000 3.1 270 19:37 13.04.2020
4941 Haze 30 1010 74 4000 3.1 270 19:37 13.04.2020
4942 Haze 30 1010 74 4000 3.1 270 19:37 13.04.2020
4943 Haze 30 1010 74 4000 3.1 240 19:19 13.04.2020
4944 Haze 30 1010 74 4000 3.1 240 19:19 13.04.2020
4945 Haze 30 1010 74 4000 3.1 240 18:57 13.04.2020
4946 Haze 30 1010 79 4000 3.1 190 18:38 13.04.2020
4947 Haze 30 1009 74 4000 4.1 180 18:19 13.04.2020
4948 Haze 30 1009 74 4000 4.1 180 17:57 13.04.2020
4949 Haze 30 1009 74 4000 2.1 190 17:37 13.04.2020
4950 Haze 29 1009 83 4000 2.6 200 17:19 13.04.2020
4951 Haze 29 1009 83 4000 2.6 200 16:58 13.04.2020
4952 Haze 30 1008 79 4000 2.6 200 16:38 13.04.2020
4953 Haze 30 1008 79 4000 2.6 200 16:19 13.04.2020
4954 Haze 30 1008 79 4000 4.1 240 15:56 13.04.2020
4955 Haze 30 1007 74 5000 4.1 240 15:37 13.04.2020
4956 Haze 30 1007 74 5000 4.1 250 15:18 13.04.2020
4957 Haze 31 1007 70 5000 4.1 240 14:41 13.04.2020
4958 Haze 32 1007 70 5000 4.1 240 14:22 13.04.2020
4959 Haze 32 1007 70 5000 4.6 260 13:56 13.04.2020
4960 Haze 32 1007 70 5000 5.7 260 13:38 13.04.2020
4961 Haze 32 1007 70 5000 5.7 260 13:20 13.04.2020
4962 Haze 33 1007 70 5000 4.6 270 12:59 13.04.2020
4963 Haze 33 1007 70 5000 5.7 270 12:40 13.04.2020
4964 Haze 32 1008 66 5000 5.7 280 12:20 13.04.2020
4965 Haze 32 1008 66 5000 5.7 280 11:58 13.04.2020
4966 Haze 32 1008 70 5000 5.7 270 11:40 13.04.2020
4967 Haze 32 1008 66 5000 6.2 260 11:18 13.04.2020
4968 Haze 32 1008 66 5000 6.2 260 10:55 13.04.2020
4969 Haze 32 1009 70 5000 5.7 280 10:37 13.04.2020
4970 Haze 33 1009 70 5000 5.7 280 10:18 13.04.2020
4971 Haze 33 1010 66 4000 4.6 280 09:44 13.04.2020
4972 Haze 33 1010 66 4000 4.6 280 09:25 13.04.2020
4973 Haze 33 1010 70 4000 6.2 270 08:47 13.04.2020
4974 Smoke 34 1010 63 4000 4.6 260 08:28 13.04.2020
4975 Smoke 33 1011 59 3500 2.6 270 07:58 13.04.2020
4976 Smoke 33 1011 55 3500 3.31 297 07:38 13.04.2020
4977 Haze 33 1011 62 3500 3.31 297 07:19 13.04.2020
4978 Haze 32 1011 66 3500 3.31 297 06:46 13.04.2020
4979 Haze 30 1011 74 3000 1.5 70 05:53 13.04.2020
4980 Haze 30 1011 74 3000 2.6 90 05:27 13.04.2020
4981 Haze 28 1010 88 3000 1.39 79 04:50 13.04.2020
4982 Haze 28 1010 88 3000 1.39 79 04:20 13.04.2020
4983 Haze 28 1009 88 3500 1.5 100 03:43 13.04.2020
4984 Haze 28 1009 83 3500 2.6 110 02:48 13.04.2020
4985 Haze 28 1009 88 3500 2.6 110 01:48 13.04.2020
4986 Haze 28 1009 88 3500 2.6 110 01:30 13.04.2020
4987 Haze 28 1009 88 3500 1.48 81 00:53 13.04.2020
4988 Haze 29 1009 83 3500 1.21 339 00:30 13.04.2020
4989 Haze 29 1009 83 3500 1.21 339 23:58 12.04.2020
4990 Haze 29 1010 83 3500 1.5 0 23:40 12.04.2020
4991 Haze 29 1010 83 3500 1.5 0 23:21 12.04.2020
4992 Haze 28 1010 88 3500 1.21 339 22:55 12.04.2020
4993 Haze 28 1010 88 3500 1.21 339 22:36 12.04.2020
4994 Haze 29 1010 83 3500 1.21 339 22:18 12.04.2020
4995 Haze 29 1010 83 3500 2.6 230 21:38 12.04.2020
4996 Haze 29 1010 83 3500 2.6 230 21:20 12.04.2020
4997 Haze 29 1011 83 3500 3.1 230 20:55 12.04.2020
4998 Haze 29 1011 83 3500 3.1 230 20:55 12.04.2020
4999 Haze 29 1011 83 3500 2.6 220 20:36 12.04.2020
5000 Haze 29 1011 83 3500 2.6 220 20:18 12.04.2020
5001 Haze 29 1011 89 3500 3.6 240 19:41 12.04.2020
5002 Haze 30 1011 79 3500 2.1 220 19:20 12.04.2020
5003 Haze 30 1011 79 3500 2.1 220 18:59 12.04.2020
5004 Haze 30 1011 79 3500 2.1 220 18:40 12.04.2020
5005 Haze 29 1010 89 4000 2.1 220 18:19 12.04.2020
5006 Haze 29 1010 89 4000 2.1 220 17:55 12.04.2020
5007 Haze 30 1010 84 4000 3.6 230 17:37 12.04.2020
5008 Haze 30 1010 84 4000 3.6 230 17:37 12.04.2020
5009 Haze 30 1010 84 4000 3.6 230 17:18 12.04.2020
5010 Haze 29 1010 83 4000 2.6 230 16:54 12.04.2020
5011 Haze 29 1010 83 4000 2.6 230 16:54 12.04.2020
5012 Haze 30 1010 79 4000 2.6 220 16:36 12.04.2020
5013 Haze 30 1009 79 4000 3.6 240 16:18 12.04.2020
5014 Haze 30 1009 79 5000 3.6 200 15:41 12.04.2020
5015 Haze 30 1008 79 5000 4.1 240 15:21 12.04.2020
5016 Haze 31 1008 70 5000 5.1 260 14:39 12.04.2020
5017 Haze 32 1008 70 5000 5.1 260 14:21 12.04.2020
5018 Haze 31 1008 66 5000 5.1 240 13:58 12.04.2020
5019 Haze 31 1008 74 5000 5.1 250 13:37 12.04.2020
5020 Haze 32 1008 70 5000 5.7 270 13:18 12.04.2020
5021 Haze 33 1009 70 5000 6.7 280 12:46 12.04.2020
5022 Haze 33 1009 70 5000 5.1 270 12:22 12.04.2020
5023 Haze 33 1009 70 5000 5.1 270 11:59 12.04.2020
5024 Haze 33 1009 66 5000 6.2 260 11:38 12.04.2020
5025 Haze 33 1009 66 5000 5.7 240 11:19 12.04.2020
5026 Haze 33 1009 66 5000 5.7 240 10:56 12.04.2020
5027 Smoke 34 1010 63 5000 6.2 260 10:38 12.04.2020
5028 Smoke 34 1010 63 5000 6.2 260 10:20 12.04.2020
5029 Smoke 34 1010 63 4000 5.7 250 09:56 12.04.2020
5030 Smoke 34 1011 56 4000 6.2 270 09:37 12.04.2020
5031 Smoke 34 1011 56 4000 6.2 270 09:19 12.04.2020
5032 Smoke 34 1011 56 4000 3.6 290 08:50 12.04.2020
5033 Smoke 34 1011 56 4000 1.5 0 08:30 12.04.2020
5034 Smoke 34 1012 52 4000 2.6 150 07:47 12.04.2020
5035 Haze 33 1012 62 3000 2.6 150 07:19 12.04.2020
5036 Haze 33 1012 62 3000 2.6 150 06:54 12.04.2020
5037 Haze 31 1013 70 2800 2.78 18 06:28 12.04.2020
5038 Haze 30 1013 79 2800 2.1 150 05:48 12.04.2020
5039 Haze 31 1012 79 3500 2.78 18 04:32 12.04.2020
5040 Haze 28 1011 83 4000 2.69 355 03:30 12.04.2020
5041 Haze 28 1011 83 4000 2.69 355 02:48 12.04.2020
5042 Haze 28 1010 83 4000 1.83 4 02:29 12.04.2020
5043 Haze 28 1010 83 4000 1.83 4 01:23 12.04.2020
5044 Haze 29 1010 79 4000 2.1 250 00:43 12.04.2020
5045 Haze 29 1010 79 4000 1.5 270 00:21 12.04.2020
5046 Haze 29 1010 79 4000 1.5 270 23:59 11.04.2020
5047 Haze 29 1010 79 4000 2.6 260 23:40 11.04.2020
5048 Haze 29 1010 79 4000 2.6 260 23:22 11.04.2020
5049 Haze 29 1011 79 4000 2.1 270 22:39 11.04.2020
5050 Haze 29 1011 79 4000 2.1 270 22:20 11.04.2020
5051 Haze 29 1011 79 4000 3.6 270 21:56 11.04.2020
5052 Haze 29 1011 79 4000 3.6 270 21:36 11.04.2020
5053 Haze 30 1011 74 4000 1.5 240 21:18 11.04.2020
5054 Haze 30 1011 74 4000 1.5 240 20:56 11.04.2020
5055 Haze 30 1011 70 4000 2.1 230 20:38 11.04.2020
5056 Haze 31 1012 66 4000 1.5 210 20:19 11.04.2020
5057 Haze 31 1012 66 4000 1.5 210 19:57 11.04.2020
5058 Haze 30 1011 70 4000 1.4 336 19:38 11.04.2020
5059 Haze 30 1011 70 4000 1.4 336 19:18 11.04.2020
5060 Haze 30 1011 70 4000 1.4 336 18:55 11.04.2020
5061 Haze 30 1011 70 4000 1.5 210 18:37 11.04.2020
5062 Haze 30 1011 70 4000 1.5 210 18:37 11.04.2020
5063 Haze 30 1011 70 4000 2.1 180 18:18 11.04.2020
5064 Haze 30 1011 70 4000 2.1 180 17:58 11.04.2020
5065 Haze 31 1011 66 4000 2.1 210 17:38 11.04.2020
5066 Haze 31 1010 66 4000 1.5 290 17:19 11.04.2020
5067 Haze 31 1010 66 4000 2.1 290 16:42 11.04.2020
5068 Haze 31 1010 62 4500 3.6 300 16:21 11.04.2020
5069 Haze 32 1009 59 5000 4.6 280 15:42 11.04.2020
5070 Haze 32 1009 59 5000 4.6 280 15:22 11.04.2020
5071 Clouds 33 1009 52 6000 3.1 290 14:59 11.04.2020
5072 Clouds 33 1009 52 7000 4.1 300 14:41 11.04.2020
5073 Clouds 33 1009 52 7000 4.1 300 14:23 11.04.2020
5074 Clouds 33 1008 55 7000 4.1 300 13:55 11.04.2020
5075 Clouds 32 1008 55 7000 6.7 290 13:36 11.04.2020
5076 Clouds 33 1009 59 6000 5.7 300 13:18 11.04.2020
5077 Clouds 33 1009 63 6000 7.2 280 12:39 11.04.2020
5078 Clouds 32 1009 66 6000 7.2 260 12:18 11.04.2020
5079 Clouds 32 1009 66 6000 7.2 260 11:55 11.04.2020
5080 Haze 34 1010 63 5000 7.7 260 11:37 11.04.2020
5081 Haze 34 1010 63 5000 7.7 260 11:18 11.04.2020
5082 Smoke 34 1011 59 5000 4.6 280 10:42 11.04.2020
5083 Smoke 34 1011 59 5000 4.6 280 10:22 11.04.2020
5084 Smoke 34 1011 59 5000 6.2 260 09:59 11.04.2020
5085 Smoke 33 1012 66 5000 5.1 270 09:39 11.04.2020
5086 Smoke 33 1012 66 5000 5.1 270 09:21 11.04.2020
5087 Smoke 33 1012 63 5000 4.6 260 08:47 11.04.2020
5088 Smoke 33 1013 62 4000 4.1 270 08:28 11.04.2020
5089 Smoke 33 1013 62 4000 3.6 280 07:52 11.04.2020
5090 Smoke 32 1013 62 4000 3.6 260 07:34 11.04.2020
5091 Smoke 32 1013 58 4000 2.6 10 06:49 11.04.2020
5092 Haze 31 1013 58 3500 1.5 110 06:19 11.04.2020
5093 Haze 31 1013 58 3500 1.5 110 05:52 11.04.2020
5094 Haze 27 1012 88 3000 2.75 17 03:40 11.04.2020
5095 Haze 28 1011 83 4000 1.5 320 02:24 11.04.2020
5096 Haze 28 1011 83 4000 2.6 340 01:24 11.04.2020
5097 Haze 28 1011 78 4000 2.6 300 00:44 11.04.2020
5098 Haze 28 1011 78 4000 2.6 300 00:20 11.04.2020
5099 Haze 28 1011 83 4000 2.6 280 23:58 10.04.2020
5100 Haze 28 1011 83 4000 2.1 280 23:39 10.04.2020
5101 Haze 28 1011 83 4000 2.1 280 23:19 10.04.2020
5102 Haze 28 1011 83 4000 2.6 310 22:44 10.04.2020
5103 Haze 28 1011 83 4000 2.6 310 22:22 10.04.2020
5104 Haze 28 1011 83 4000 2.6 310 22:22 10.04.2020
5105 Haze 28 1011 83 4000 3.1 280 21:59 10.04.2020
5106 Haze 28 1011 83 4000 3.1 280 21:41 10.04.2020
5107 Haze 29 1012 79 4000 2.1 310 21:20 10.04.2020
5108 Haze 29 1012 79 4000 2.1 310 20:55 10.04.2020
5109 Haze 29 1012 79 4000 3.1 300 20:37 10.04.2020
5110 Haze 29 1012 79 4000 3.1 300 20:18 10.04.2020
5111 Haze 29 1012 79 4000 2.6 300 19:41 10.04.2020
5112 Haze 29 1012 79 4000 2.6 300 19:22 10.04.2020
5113 Haze 29 1012 79 4000 2.6 300 18:58 10.04.2020
5114 Haze 29 1011 79 4000 2.6 290 18:40 10.04.2020
5115 Haze 29 1011 79 4000 2.6 310 18:22 10.04.2020
5116 Haze 29 1011 79 4000 2.6 310 17:59 10.04.2020
5117 Haze 29 1010 74 4000 3.6 300 17:41 10.04.2020
5118 Haze 29 1010 74 4000 3.1 290 17:21 10.04.2020
5119 Haze 29 1010 74 4000 3.1 290 16:59 10.04.2020
5120 Haze 29 1009 74 4000 4.6 290 16:41 10.04.2020
5121 Haze 29 1009 74 4000 4.6 290 16:21 10.04.2020
5122 Haze 30 1009 70 4000 4.6 290 15:58 10.04.2020
5123 Smoke 30 1008 70 4000 4.6 300 15:38 10.04.2020
5124 Smoke 30 1008 70 4000 4.6 300 15:20 10.04.2020
5125 Smoke 31 1008 62 5000 5.1 290 14:58 10.04.2020
5126 Smoke 31 1008 59 5000 5.7 280 14:39 10.04.2020
5127 Clear 31 1007 55 6000 5.1 290 14:20 10.04.2020
5128 Clear 32 1008 62 6000 5.7 280 13:44 10.04.2020
5129 Clear 32 1008 62 6000 5.7 280 13:22 10.04.2020
5130 Clear 32 1008 59 6000 6.2 270 12:55 10.04.2020
5131 Clear 34 1008 59 6000 6.2 290 12:36 10.04.2020
5132 Clear 34 1009 59 6000 5.1 280 12:18 10.04.2020
5133 Clear 33 1009 55 6000 6.2 270 11:42 10.04.2020
5134 Clear 33 1009 55 6000 6.2 270 11:23 10.04.2020
5135 Clear 34 1010 52 6000 5.1 290 10:56 10.04.2020
5136 Clear 34 1010 59 6000 6.2 260 10:37 10.04.2020
5137 Clear 34 1010 59 6000 6.2 260 10:19 10.04.2020
5138 Clear 34 1011 62 6000 5.1 270 09:43 10.04.2020
5139 Haze 31 1012 66 5000 4.6 270 09:20 10.04.2020
5140 Haze 31 1012 66 5000 6.2 260 08:47 10.04.2020
5141 Haze 33 1012 66 5000 6.2 260 08:27 10.04.2020
5142 Smoke 33 1012 62 5000 4.1 260 07:49 10.04.2020
5143 Smoke 32 1012 62 5000 4.1 260 07:30 10.04.2020
5144 Smoke 32 1012 52 5000 3.63 313 06:59 10.04.2020
5145 Smoke 30 1012 55 3500 2.1 110 06:30 10.04.2020
5146 Haze 29 1012 66 3500 2.6 20 05:59 10.04.2020
5147 Haze 28 1012 74 3500 1.42 40 05:22 10.04.2020
5148 Haze 28 1012 78 3000 1.5 60 04:53 10.04.2020
5149 Haze 26 1010 88 3500 1.5 50 03:34 10.04.2020
5150 Haze 27 1010 83 3500 2.6 350 02:51 10.04.2020
5151 Haze 27 1010 83 3500 1.5 310 02:32 10.04.2020
5152 Haze 27 1010 83 3500 1.5 330 01:43 10.04.2020
5153 Haze 27 1010 83 3500 1.5 330 01:25 10.04.2020
5154 Haze 27 1010 83 3500 2.31 29 00:45 10.04.2020
5155 Haze 27 1010 83 4000 2.8 358 00:20 10.04.2020
5156 Haze 27 1010 83 4000 1.5 330 23:41 09.04.2020
5157 Haze 27 1010 83 4000 1.5 330 23:23 09.04.2020
5158 Haze 27 1010 83 4000 2.1 230 22:57 09.04.2020
5159 Haze 27 1011 78 4000 2.1 320 22:38 09.04.2020
5160 Haze 28 1011 74 4000 2.1 320 22:20 09.04.2020
5161 Haze 28 1011 78 4000 2.6 290 21:38 09.04.2020
5162 Haze 28 1011 78 4000 2.6 290 21:20 09.04.2020
5163 Haze 28 1011 78 4000 2.1 300 20:47 09.04.2020
5164 Haze 28 1011 78 4000 1.5 300 20:23 09.04.2020
5165 Haze 28 1011 78 4000 1.5 360 19:59 09.04.2020
5166 Haze 28 1011 78 4000 2.1 340 19:39 09.04.2020
5167 Haze 28 1011 78 4000 1.5 320 19:20 09.04.2020
5168 Haze 28 1011 78 4000 2.6 310 18:42 09.04.2020
5169 Haze 28 1011 78 4000 2.6 310 18:21 09.04.2020
5170 Haze 28 1010 74 4000 3.1 310 17:57 09.04.2020
5171 Haze 28 1010 74 4000 3.6 300 17:38 09.04.2020
5172 Haze 28 1010 74 4000 3.6 300 17:18 09.04.2020
5173 Haze 28 1010 78 4000 4.1 290 17:18 09.04.2020
5174 Haze 29 1010 70 4000 4.1 300 16:40 09.04.2020
5175 Haze 29 1010 70 4000 4.1 300 16:20 09.04.2020
5176 Haze 29 1009 70 5000 4.1 300 15:56 09.04.2020
5177 Haze 29 1009 70 5000 5.1 290 15:37 09.04.2020
5178 Haze 29 1009 70 5000 5.1 290 15:19 09.04.2020
5179 Clear 31 1008 58 6000 5.7 290 14:43 09.04.2020
5180 Clear 31 1008 55 6000 5.1 310 14:21 09.04.2020
5181 Clear 31 1008 55 6000 5.1 300 13:59 09.04.2020
5182 Clear 31 1008 55 6000 5.1 300 13:40 09.04.2020
5183 Clear 32 1009 52 6000 5.1 320 13:22 09.04.2020
5184 Clear 32 1009 52 6000 5.1 320 12:55 09.04.2020
5185 Clear 31 1009 58 6000 6.2 300 12:36 09.04.2020
5186 Clouds 32 1010 55 6000 6.7 280 12:18 09.04.2020
5187 Smoke 31 1010 62 5000 5.1 280 11:43 09.04.2020
5188 Smoke 31 1011 62 4000 8.2 270 11:20 09.04.2020
5189 Smoke 31 1011 62 4000 8.2 270 10:58 09.04.2020
5190 Smoke 32 1011 62 4000 7.2 280 10:40 09.04.2020
5191 Smoke 32 1011 62 4000 7.2 280 10:21 09.04.2020
5192 Haze 31 1011 62 4000 6.2 270 09:57 09.04.2020
5193 Haze 31 1012 62 4000 5.1 270 09:38 09.04.2020
5194 Haze 31 1012 62 4000 5.1 270 09:20 09.04.2020
5195 Haze 31 1013 62 4000 4.1 280 08:44 09.04.2020
5196 Haze 31 1013 62 4000 4.1 280 08:23 09.04.2020
5197 Smoke 31 1013 62 4000 4.1 280 07:57 09.04.2020
5198 Smoke 31 1013 58 4000 1.5 320 07:28 09.04.2020
5199 Haze 31 1013 62 4000 2.6 350 06:57 09.04.2020
5200 Haze 30 1013 66 4000 2.31 26 06:25 09.04.2020
5201 Haze 28 1013 74 3500 2.1 50 05:43 09.04.2020
5202 Haze 27 1012 74 3500 2.31 26 04:26 09.04.2020
5203 Haze 27 1012 74 3500 2.31 26 04:26 09.04.2020
5204 Haze 26 1011 78 3500 1.8 40 02:32 09.04.2020
5205 Haze 26 1011 78 3500 1.8 40 01:42 09.04.2020
5206 Haze 26 1011 78 3500 1.8 40 01:24 09.04.2020
5207 Haze 26 1011 78 3500 1.5 50 00:43 09.04.2020
5208 Haze 26 1011 78 3500 1.5 80 00:20 09.04.2020
5209 Haze 26 1011 78 3500 1.5 80 00:20 09.04.2020
5210 Haze 26 1011 78 3500 1.5 80 23:59 08.04.2020
5211 Haze 27 1011 74 4000 1.5 110 23:41 08.04.2020
5212 Haze 27 1011 74 4000 1.5 110 23:21 08.04.2020
5213 Haze 27 1012 74 4000 1.95 0 22:44 08.04.2020
5214 Haze 27 1012 69 4000 1.95 0 22:24 08.04.2020
5215 Haze 27 1012 69 4000 1.95 0 21:57 08.04.2020
5216 Haze 28 1012 69 4000 1.95 0 21:39 08.04.2020
5217 Haze 28 1012 69 4000 1.5 310 21:20 08.04.2020
5218 Haze 28 1012 69 4000 1.5 310 20:58 08.04.2020
5219 Haze 28 1013 69 4000 3.13 319 20:39 08.04.2020
5220 Haze 28 1013 69 4000 3.13 319 20:20 08.04.2020
5221 Haze 28 1013 69 4000 3.13 319 19:56 08.04.2020
5222 Haze 28 1012 69 4000 2.1 310 19:37 08.04.2020
5223 Haze 28 1012 69 4000 3.1 300 19:19 08.04.2020
5224 Haze 28 1012 69 4000 3.1 300 19:19 08.04.2020
5225 Haze 28 1012 74 4000 3.6 300 18:42 08.04.2020
5226 Haze 28 1011 74 4000 2.1 290 18:23 08.04.2020
5227 Haze 28 1011 74 4000 3.1 300 17:56 08.04.2020
5228 Haze 28 1011 74 4000 3.1 300 17:38 08.04.2020
5229 Haze 28 1011 74 4500 2.6 290 17:18 08.04.2020
5230 Haze 29 1011 66 4500 4.6 290 16:42 08.04.2020
5231 Haze 29 1010 66 5000 4.1 290 16:23 08.04.2020
5232 Haze 30 1010 66 5000 5.7 290 15:55 08.04.2020
5233 Haze 30 1010 66 5000 5.7 290 15:37 08.04.2020
5234 Haze 30 1010 66 5000 5.7 290 15:18 08.04.2020
5235 Haze 30 1010 62 5000 5.7 280 14:42 08.04.2020
5236 Haze 30 1010 62 5000 5.7 280 14:42 08.04.2020
5237 Haze 30 1010 62 5000 5.1 280 14:24 08.04.2020
5238 Haze 30 1010 62 5000 5.1 280 13:54 08.04.2020
5239 Haze 30 1010 62 5000 5.1 280 13:54 08.04.2020
5240 Haze 31 1010 58 5000 5.7 270 13:36 08.04.2020
5241 Haze 31 1010 58 5000 5.7 280 13:18 08.04.2020
5242 Haze 31 1011 58 5000 5.7 260 12:41 08.04.2020
5243 Smoke 31 1011 58 5000 6.2 250 12:18 08.04.2020
5244 Smoke 31 1011 58 5000 6.2 250 12:18 08.04.2020
5245 Smoke 31 1011 58 5000 6.2 250 11:56 08.04.2020
5246 Smoke 31 1012 62 5000 5.7 260 11:38 08.04.2020
5247 Smoke 31 1012 62 5000 5.7 280 11:19 08.04.2020
5248 Smoke 31 1013 62 5000 6.2 270 10:55 08.04.2020
5249 Smoke 31 1013 62 5000 6.2 270 10:37 08.04.2020
5250 Smoke 31 1013 58 5000 4.6 260 10:18 08.04.2020
5251 Smoke 31 1013 58 5000 4.6 260 10:18 08.04.2020
5252 Smoke 31 1013 62 5000 4.1 270 09:42 08.04.2020
5253 Smoke 31 1013 62 5000 4.1 270 09:20 08.04.2020
5254 Smoke 30 1014 66 4000 4.1 260 08:59 08.04.2020
5255 Smoke 30 1014 66 4000 4.6 270 08:41 08.04.2020
5256 Smoke 30 1014 66 4000 4.6 270 08:21 08.04.2020
5257 Smoke 30 1014 66 4000 2.6 280 07:43 08.04.2020
5258 Smoke 30 1014 66 4000 2.6 280 07:22 08.04.2020
5259 Haze 28 1014 69 3000 3.6 210 06:43 08.04.2020
5260 Haze 28 1014 74 3000 1.5 170 05:49 08.04.2020
5261 Haze 26 1012 83 3000 0.84 71 03:34 08.04.2020
5262 Haze 26 1011 83 4000 2.03 343 02:41 08.04.2020
5263 Haze 26 1011 83 4000 2.03 343 02:19 08.04.2020
5264 Haze 26 1010 83 4000 1.5 0 01:30 08.04.2020
5265 Haze 26 1010 83 4000 2.03 343 00:57 08.04.2020
5266 Haze 27 1011 74 4000 2.03 343 00:39 08.04.2020
5267 Haze 27 1011 78 4000 2.1 280 00:19 08.04.2020
5268 Haze 27 1011 78 4000 1.5 230 23:39 07.04.2020
5269 Haze 27 1011 78 4000 1.5 180 23:20 07.04.2020
5270 Haze 27 1011 78 4000 1.5 180 22:56 07.04.2020
5271 Haze 27 1011 78 4000 2.6 280 22:38 07.04.2020
5272 Haze 27 1011 78 4000 2.6 280 22:19 07.04.2020
5273 Haze 27 1011 78 4000 1.5 260 21:55 07.04.2020
5274 Haze 27 1011 78 4000 1.5 260 21:37 07.04.2020
5275 Haze 27 1011 78 4000 1.5 260 21:18 07.04.2020
5276 Haze 27 1011 78 4000 1.46 247 20:55 07.04.2020
5277 Haze 27 1011 78 4000 1.46 247 20:36 07.04.2020
5278 Haze 27 1011 78 4000 1.46 247 20:18 07.04.2020
5279 Haze 28 1011 74 4000 1.5 210 19:55 07.04.2020
5280 Haze 28 1011 74 4000 1.5 210 19:36 07.04.2020
5281 Haze 28 1011 74 4000 1.5 210 19:18 07.04.2020
5282 Haze 28 1011 74 4000 1.5 210 19:18 07.04.2020
5283 Haze 28 1011 74 4000 1.46 247 18:41 07.04.2020
5284 Haze 28 1011 74 4000 2.24 270 18:21 07.04.2020
5285 Haze 28 1010 74 4000 2.6 290 17:57 07.04.2020
5286 Haze 28 1010 74 4000 2.6 300 17:38 07.04.2020
5287 Haze 28 1009 74 4000 3.6 290 17:20 07.04.2020
5288 Haze 28 1009 78 4500 4.1 300 16:44 07.04.2020
5289 Haze 28 1009 78 4500 4.1 300 16:26 07.04.2020
5290 Haze 29 1009 74 5000 5.7 290 15:46 07.04.2020
5291 Clouds 29 1008 74 6000 5.7 270 15:27 07.04.2020
5292 Clouds 29 1008 74 6000 5.7 270 14:56 07.04.2020
5293 Clouds 30 1008 70 6000 4.1 280 14:38 07.04.2020
5294 Clouds 30 1008 70 6000 6.2 270 14:19 07.04.2020
5295 Clouds 30 1009 70 6000 6.7 270 13:43 07.04.2020
5296 Clouds 30 1009 70 6000 6.7 270 13:20 07.04.2020
5297 Clouds 30 1009 70 6000 6.7 270 12:58 07.04.2020
5298 Clouds 30 1009 66 6000 6.7 270 12:39 07.04.2020
5299 Haze 31 1010 62 5000 6.7 280 12:21 07.04.2020
5300 Haze 31 1010 62 5000 6.7 280 11:58 07.04.2020
5301 Haze 30 1010 66 5000 5.7 270 11:40 07.04.2020
5302 Haze 30 1010 66 5000 5.7 270 11:20 07.04.2020
5303 Haze 31 1011 62 5000 4.6 280 10:54 07.04.2020
5304 Haze 31 1011 62 5000 5.7 260 10:36 07.04.2020
5305 Haze 31 1011 66 5000 4.6 250 10:18 07.04.2020
5306 Haze 31 1012 66 5000 5.1 250 09:40 07.04.2020
5307 Haze 31 1012 66 5000 4.1 240 09:18 07.04.2020
5308 Haze 30 1012 70 5000 4.6 260 08:40 07.04.2020
5309 Haze 30 1012 70 5000 4.6 260 08:22 07.04.2020
5310 Haze 30 1012 70 4000 3.1 260 07:55 07.04.2020
5311 Haze 30 1013 70 4000 2.6 250 07:37 07.04.2020
5312 Haze 29 1013 74 4000 3.6 270 07:18 07.04.2020
5313 Haze 29 1012 70 3500 1.5 0 06:39 07.04.2020
5314 Haze 29 1012 66 3000 1.39 135 06:18 07.04.2020
5315 Haze 28 1012 78 3000 1.39 135 05:26 07.04.2020
5316 Haze 27 1011 88 3000 1.39 135 04:35 07.04.2020
5317 Haze 26 1010 88 3500 1.32 28 03:24 07.04.2020
5318 Haze 26 1010 88 3500 1.32 28 02:47 07.04.2020
5319 Haze 27 1010 83 4000 1.47 19 01:43 07.04.2020
5320 Haze 27 1010 83 4000 1.47 19 01:23 07.04.2020
5321 Haze 27 1010 83 4000 2.23 321 00:26 07.04.2020
5322 Haze 27 1010 83 4000 2.23 321 23:44 06.04.2020
5323 Haze 27 1010 83 4000 2.23 321 23:44 06.04.2020
5324 Haze 27 1010 83 4000 2.23 321 23:23 06.04.2020
5325 Haze 27 1011 83 4000 2.1 260 22:57 06.04.2020
5326 Haze 27 1011 83 4000 1.5 290 22:37 06.04.2020
5327 Haze 27 1011 83 4000 1.5 290 22:19 06.04.2020
5328 Haze 27 1011 83 4000 2.1 290 21:56 06.04.2020
5329 Haze 27 1011 83 4000 2.6 300 21:38 06.04.2020
5330 Haze 27 1011 83 4000 2.6 300 21:18 06.04.2020
5331 Haze 28 1012 83 4000 2.1 280 20:42 06.04.2020
5332 Haze 28 1012 83 4000 2.1 280 20:23 06.04.2020
5333 Haze 28 1012 83 4000 2.1 280 20:23 06.04.2020
5334 Haze 28 1012 83 4000 1.5 280 19:59 06.04.2020
5335 Haze 28 1012 83 4000 2.11 285 19:40 06.04.2020
5336 Haze 28 1012 83 4000 2.11 285 19:22 06.04.2020
5337 Haze 28 1012 83 4000 2.11 285 18:56 06.04.2020
5338 Haze 28 1011 83 4000 2.1 280 18:37 06.04.2020
5339 Haze 28 1011 83 4000 2.6 290 18:19 06.04.2020
5340 Haze 28 1011 83 4000 3.1 290 17:42 06.04.2020
5341 Haze 28 1010 83 4000 2.6 290 17:19 06.04.2020
5342 Haze 28 1010 83 4000 2.6 290 17:19 06.04.2020
5343 Haze 28 1011 83 4000 3.1 290 17:19 06.04.2020
5344 Haze 28 1010 83 4000 4.1 270 16:50 06.04.2020
5345 Haze 28 1010 83 4000 4.1 270 16:31 06.04.2020
5346 Haze 28 1010 83 4500 4.1 290 15:40 06.04.2020
5347 Clouds 30 1009 74 8000 5.7 260 13:46 06.04.2020
5348 Clouds 30 1010 74 8000 6.2 270 13:24 06.04.2020
5349 Clouds 30 1010 70 8000 6.2 260 13:00 06.04.2020
5350 Clouds 30 1010 70 8000 6.2 260 13:00 06.04.2020
5351 -273 0 0 0 0 0 13:00 06.04.2020
5352 -273 0 0 0 0 0 12:58 06.04.2020
5353 Clouds 31 1010 66 7000 6.2 280 12:22 06.04.2020
5354 Clouds 31 1010 66 7000 6.2 280 12:22 06.04.2020
5355 Clouds 31 1011 66 6000 5.1 260 11:54 06.04.2020
5356 Clouds 31 1011 66 6000 5.1 260 11:54 06.04.2020
5357 Clouds 31 1011 66 6000 7.2 270 11:32 06.04.2020
5358 Clouds 31 1011 66 6000 7.2 270 11:32 06.04.2020
5359 Clouds 31 1011 66 6000 7.2 270 11:32 06.04.2020
5360 Clouds 31 1011 66 6000 7.2 270 11:32 06.04.2020
5361 Clouds 31 1011 66 6000 7.2 270 11:32 06.04.2020
5362 Clouds 31 1012 66 6000 6.7 270 10:51 06.04.2020
5363 Clouds 31 1012 66 6000 6.7 270 10:51 06.04.2020
5364 Clouds 31 1012 66 6000 6.7 270 10:51 06.04.2020
5365 Clouds 31 1012 66 6000 6.7 270 10:51 06.04.2020
5366 Clouds 31 1012 66 6000 6.7 270 10:51 06.04.2020
5367 Clouds 31 1012 66 6000 6.7 260 10:21 06.04.2020
5368 Clouds 32 1013 62 6000 5.7 260 09:47 06.04.2020
5369 Clouds 32 1013 62 6000 5.7 260 09:47 06.04.2020
5370 Smoke 32 1013 59 5000 5.7 250 09:21 06.04.2020
5371 Smoke 32 1013 59 5000 5.7 250 09:21 06.04.2020
5372 Smoke 32 1013 52 5000 2.1 230 08:54 06.04.2020
5373 Smoke 32 1013 46 5000 2.6 130 08:30 06.04.2020
5374 Smoke 31 1014 58 4000 3.1 210 07:39 06.04.2020
5375 Haze 29 1014 74 3500 4.6 190 06:47 06.04.2020
5376 Haze 29 1014 74 3500 4.6 190 06:24 06.04.2020
5377 Haze 27 1013 88 3000 2.6 90 04:20 06.04.2020
5378 Haze 27 1012 88 3500 2.6 170 02:59 06.04.2020
5379 Haze 27 1011 83 3500 1.5 170 02:36 06.04.2020
5380 Haze 27 1011 83 3500 1.5 180 01:28 06.04.2020
5381 Haze 27 1011 83 3500 2.1 180 00:44 06.04.2020
5382 Haze 27 1011 83 3500 2.1 210 00:23 06.04.2020
5383 Haze 27 1011 88 3500 2.1 230 23:44 05.04.2020
5384 Haze 28 1011 83 3500 2.1 220 23:26 05.04.2020
5385 Haze 28 1011 83 3500 2.1 260 22:56 05.04.2020
5386 Haze 28 1011 83 3500 2.1 260 22:37 05.04.2020
5387 Haze 28 1011 83 4000 1.5 240 22:18 05.04.2020
5388 Haze 28 1011 83 4000 2.1 210 21:46 05.04.2020
5389 Haze 28 1011 83 4000 2.1 210 21:26 05.04.2020
5390 Haze 28 1012 83 4000 2.6 190 21:03 05.04.2020
5391 Haze 28 1012 83 4000 2.6 190 21:03 05.04.2020
5392 Haze 28 1012 83 4000 2.6 190 21:03 05.04.2020
5393 Haze 28 1012 83 4000 2.6 190 21:03 05.04.2020
5394 Haze 28 1012 83 4000 2.6 190 21:03 05.04.2020
5395 Haze 28 1012 83 4000 2.1 180 20:20 05.04.2020
5396 Haze 28 1012 83 4000 2.1 180 20:20 05.04.2020
5397 Haze 28 1012 83 4000 1.5 170 19:39 05.04.2020
5398 Haze 28 1012 83 4000 2.1 240 19:21 05.04.2020
5399 Haze 28 1012 83 4000 2.1 240 18:44 05.04.2020
5400 Haze 28 1012 83 4000 2.1 240 18:44 05.04.2020
5401 Haze 28 1012 83 4000 2.1 240 18:44 05.04.2020
5402 Haze 28 1012 83 4000 2.1 240 18:44 05.04.2020
5403 Haze 28 1012 83 4000 2.1 240 18:44 05.04.2020
5404 Haze 29 1011 79 4000 2.1 270 17:57 05.04.2020
5405 Haze 29 1011 79 4000 3.1 280 17:39 05.04.2020
5406 Haze 29 1011 79 4000 3.1 280 17:39 05.04.2020
5407 Haze 29 1011 79 4000 3.1 280 17:20 05.04.2020
5408 Haze 29 1011 79 4000 3.1 280 17:20 05.04.2020
5409 Haze 29 1011 79 4000 3.1 280 17:20 05.04.2020
5410 Haze 29 1011 79 4000 3.1 280 17:20 05.04.2020
5411 Haze 29 1011 79 4000 3.1 280 17:20 05.04.2020
5412 Haze 29 1010 74 5000 3.6 280 16:21 05.04.2020
5413 Haze 30 1010 70 5000 4.1 280 15:53 05.04.2020
5414 Clear 31 1009 62 6000 3.6 290 15:33 05.04.2020
5415 Clear 31 1009 62 6000 5.1 280 14:50 05.04.2020
5416 Clear 31 1009 66 6000 4.6 270 14:26 05.04.2020
5417 Clear 31 1009 70 6000 5.1 280 13:44 05.04.2020
5418 Clear 31 1009 70 6000 5.1 280 13:44 05.04.2020
5419 Haze 31 1009 70 6000 6.2 280 12:54 05.04.2020
5420 Haze 31 1009 70 6000 6.2 280 12:54 05.04.2020
5421 Haze 31 1009 70 6000 6.2 280 12:54 05.04.2020
5422 Haze 31 1009 70 6000 6.2 280 12:54 05.04.2020
5423 Haze 31 1009 70 6000 6.2 280 12:54 05.04.2020
5424 Smoke 32 1010 59 5000 5.7 290 11:43 05.04.2020
5425 Smoke 32 1010 59 5000 5.7 260 11:21 05.04.2020
5426 Smoke 32 1010 59 5000 5.7 260 11:21 05.04.2020
5427 Smoke 32 1010 59 5000 4.6 270 10:59 05.04.2020
5428 Smoke 32 1010 55 4000 4.6 260 10:40 05.04.2020
5429 Smoke 32 1010 55 4000 4.6 260 10:40 05.04.2020
5430 Smoke 32 1010 59 5000 4.6 270 10:40 05.04.2020
5431 Smoke 32 1010 55 4000 4.6 260 10:40 05.04.2020
5432 Smoke 32 1010 59 5000 4.6 270 10:40 05.04.2020
5433 Smoke 32 1010 55 4000 4.6 260 10:18 05.04.2020
5434 Smoke 33 1011 55 3000 5.1 270 09:43 05.04.2020
5435 Smoke 32 1012 52 3000 3.6 260 09:24 05.04.2020
5436 Smoke 32 1012 52 3000 3.6 260 09:24 05.04.2020
5437 Smoke 32 1012 52 3000 3.6 260 09:24 05.04.2020
5438 Smoke 32 1012 52 3000 3.6 260 09:24 05.04.2020
5439 Smoke 32 1012 52 3000 3.6 260 09:24 05.04.2020
5440 Smoke 33 1012 59 3000 5.1 270 07:42 05.04.2020
5441 Haze 27 1011 78 2500 1.5 110 04:36 05.04.2020
5442 Haze 28 1010 61 3000 1.5 340 03:33 05.04.2020
5443 Haze 26 1009 83 3000 1.94 38 02:52 05.04.2020
5444 Haze 27 1009 83 3000 1.82 37 01:48 05.04.2020
5445 Haze 27 1009 88 3000 1.5 330 01:28 05.04.2020
5446 Haze 27 1009 88 3000 1.5 310 00:44 05.04.2020
5447 Haze 27 1009 88 3000 1.82 37 00:21 05.04.2020
5448 Haze 27 1009 88 3000 1.5 340 23:56 04.04.2020
5449 Haze 27 1009 88 3000 2.46 333 23:37 04.04.2020
5450 Haze 27 1009 88 3000 2.46 333 23:19 04.04.2020
5451 Haze 27 1010 88 3000 1.5 310 22:41 04.04.2020
5452 Haze 28 1010 83 3000 2.46 333 22:22 04.04.2020
5453 Haze 28 1010 83 3000 2.46 333 21:59 04.04.2020
5454 Haze 28 1010 83 3000 2.46 333 21:59 04.04.2020
5455 Haze 28 1010 83 3000 2.46 333 21:40 04.04.2020
5456 -273 0 0 0 0 0 21:20 04.04.2020
5457 Haze 28 1010 83 3000 2.1 320 20:59 04.04.2020
5458 Haze 28 1010 83 3000 2.1 320 20:41 04.04.2020
5459 Haze 28 1010 83 3000 2.1 280 20:22 04.04.2020
5460 Haze 28 1010 83 3000 2.1 260 19:57 04.04.2020
5461 Haze 28 1010 83 3000 2.6 260 19:37 04.04.2020
5462 Haze 28 1010 83 3000 2.6 260 19:19 04.04.2020
5463 Haze 28 1010 83 4000 2.6 260 18:56 04.04.2020
5464 Haze 29 1010 79 4000 2.1 260 18:38 04.04.2020
5465 Haze 29 1010 79 4000 2.1 260 18:19 04.04.2020
5466 Haze 29 1009 79 4000 2.6 270 17:56 04.04.2020
5467 Haze 29 1009 79 4000 2.6 300 17:38 04.04.2020
5468 Haze 29 1009 79 4000 2.6 300 17:18 04.04.2020
5469 Haze 29 1009 79 4000 4.6 280 16:42 04.04.2020
5470 Haze 29 1009 79 4000 4.6 280 16:22 04.04.2020
5471 Haze 30 1008 66 4000 5.1 280 15:55 04.04.2020
5472 Haze 31 1008 58 5000 4.6 290 15:37 04.04.2020
5473 Haze 31 1008 58 5000 4.6 290 15:18 04.04.2020
5474 Clear 31 1008 62 6000 5.1 280 14:43 04.04.2020
5475 Clear 31 1008 55 6000 5.7 280 14:23 04.04.2020
5476 Clear 32 1008 52 6000 5.1 290 13:56 04.04.2020
5477 Clear 32 1008 55 6000 5.1 270 13:38 04.04.2020
5478 Clear 32 1008 55 6000 5.1 270 13:19 04.04.2020
5479 Clear 32 1008 55 6000 5.1 270 13:19 04.04.2020
5480 Clear 32 1008 55 6000 5.7 290 12:45 04.04.2020
5481 Clear 33 1008 46 6000 5.7 300 12:26 04.04.2020
5482 Clear 33 1008 49 6000 5.7 280 11:59 04.04.2020
5483 Clear 32 1009 55 6000 5.7 270 11:38 04.04.2020
5484 Clear 32 1009 55 6000 5.7 270 11:20 04.04.2020
5485 Clear 32 1009 55 6000 5.7 270 11:20 04.04.2020
5486 Clear 33 1009 52 6000 5.7 270 10:56 04.04.2020
5487 Clear 33 1009 52 6000 5.7 270 10:38 04.04.2020
5488 Clear 33 1009 55 6000 6.2 270 10:19 04.04.2020
5489 Smoke 32 1010 59 5000 5.1 280 09:55 04.04.2020
5490 Smoke 32 1011 55 5000 5.1 280 09:37 04.04.2020
5491 Smoke 32 1011 55 5000 5.1 280 09:18 04.04.2020
5492 Smoke 32 1011 62 5000 5.7 260 08:42 04.04.2020
5493 Smoke 32 1011 59 5000 6.2 260 08:21 04.04.2020
5494 Smoke 32 1011 59 5000 5.1 250 07:46 04.04.2020
5495 Smoke 31 1012 59 4000 3.6 270 07:26 04.04.2020
5496 Smoke 31 1012 52 3500 4.6 260 06:56 04.04.2020
5497 Smoke 31 1012 55 3500 2.1 280 06:20 04.04.2020
5498 Haze 30 1012 62 3000 1.12 44 05:43 04.04.2020
5499 Haze 29 1012 66 3000 1.12 44 05:24 04.04.2020
5500 Haze 27 1010 74 3500 1.5 100 04:31 04.04.2020
5501 Haze 26 1010 83 3500 1.12 44 03:53 04.04.2020
5502 Haze 26 1009 83 3000 2.77 4 02:54 04.04.2020
5503 Haze 27 1009 74 3000 2.77 4 02:34 04.04.2020
5504 Haze 27 1009 74 3000 2.97 10 01:57 04.04.2020
5505 Haze 27 1009 78 3000 2.97 10 01:26 04.04.2020
5506 Haze 27 1009 78 3000 2.97 10 00:52 04.04.2020
5507 Haze 27 1009 83 3000 2.97 10 00:30 04.04.2020
5508 Haze 28 1009 78 3000 2.6 340 23:41 03.04.2020
5509 Haze 28 1009 78 3000 2.6 340 23:41 03.04.2020
5510 Haze 28 1009 78 3000 2.6 340 23:21 03.04.2020
5511 Haze 28 1009 78 3000 2.6 310 22:59 03.04.2020
5512 Haze 28 1009 78 3000 2.6 310 22:40 03.04.2020
5513 Haze 28 1009 83 3000 3.1 300 22:19 03.04.2020
5514 Haze 28 1009 83 3000 2.1 300 21:45 03.04.2020
5515 Haze 28 1010 83 3000 2.6 300 21:27 03.04.2020
5516 Haze 28 1010 83 3000 2.6 290 20:59 03.04.2020
5517 Haze 28 1010 83 3000 2.6 290 20:40 03.04.2020
5518 Haze 29 1010 79 3500 3.1 300 20:22 03.04.2020
5519 Haze 29 1010 74 3500 1.5 320 19:58 03.04.2020
5520 Haze 29 1010 74 3500 2.1 290 19:40 03.04.2020
5521 Haze 29 1010 74 3500 2.1 290 19:21 03.04.2020
5522 Haze 29 1010 74 4000 2.1 270 19:00 03.04.2020
5523 Haze 29 1010 70 4000 1.5 290 18:41 03.04.2020
5524 Haze 29 1010 70 4000 1.5 290 18:41 03.04.2020
5525 Haze 29 1010 70 4000 1.5 290 18:23 03.04.2020
5526 Haze 29 1009 70 4000 2.1 300 17:58 03.04.2020
5527 Haze 30 1009 66 4000 2.6 310 17:40 03.04.2020
5528 Haze 30 1009 66 4000 2.6 310 17:19 03.04.2020
5529 Haze 30 1009 66 4000 2.6 310 17:19 03.04.2020
5530 Haze 30 1008 66 4000 3.6 300 16:54 03.04.2020
5531 Haze 30 1008 62 4000 2.6 290 16:36 03.04.2020
5532 Haze 30 1008 62 4000 2.6 290 16:18 03.04.2020
5533 Smoke 30 1008 62 4500 4.1 290 15:41 03.04.2020
5534 Smoke 31 1007 58 5000 4.6 290 15:22 03.04.2020
5535 Clear 30 1008 54 0 6.59 297 14:57 03.04.2020
5536 Clear 30 1008 54 0 6.59 297 14:39 03.04.2020
5537 Clear 32 1007 49 8000 6.2 290 14:21 03.04.2020
5538 Clear 32 1007 49 8000 6.2 290 13:46 03.04.2020
5539 Clear 32 1007 49 8000 6.2 290 13:26 03.04.2020
5540 Clear 32 1007 49 8000 6.2 300 12:56 03.04.2020
5541 Clear 33 1007 44 7000 6.7 280 12:38 03.04.2020
5542 Smoke 32 1007 59 5000 6.7 280 12:18 03.04.2020
5543 Smoke 32 1007 59 5000 6.7 280 11:55 03.04.2020
5544 Smoke 32 1007 59 5000 6.7 280 11:55 03.04.2020
5545 Smoke 32 1008 62 5000 7.2 260 11:37 03.04.2020
5546 Smoke 32 1008 62 5000 7.2 260 11:18 03.04.2020
5547 Smoke 32 1008 59 5000 7.2 280 10:56 03.04.2020
5548 Smoke 32 1009 62 5000 6.7 260 10:37 03.04.2020
5549 Smoke 32 1009 62 5000 6.7 260 10:37 03.04.2020
5550 Smoke 32 1009 62 5000 6.7 260 10:18 03.04.2020
5551 Smoke 32 1009 62 5000 6.7 260 10:18 03.04.2020
5552 Smoke 32 1009 55 5000 6.7 270 09:54 03.04.2020
5553 Smoke 32 1010 55 5000 6.2 260 09:36 03.04.2020
5554 Smoke 32 1010 55 5000 6.2 260 09:36 03.04.2020
5555 Smoke 32 1010 55 5000 6.2 260 09:18 03.04.2020
5556 Smoke 32 1010 52 5000 5.1 270 08:41 03.04.2020
5557 Smoke 33 1010 49 4000 5.7 250 08:22 03.04.2020
5558 Smoke 33 1011 36 4000 2.6 310 07:50 03.04.2020
5559 Smoke 32 1011 36 4000 3.6 10 07:32 03.04.2020
5560 Smoke 33 1011 40 4000 1.5 330 06:57 03.04.2020
5561 Smoke 32 1011 40 4000 3.6 350 06:27 03.04.2020
5562 Smoke 31 1011 45 3000 2.1 340 05:42 03.04.2020
5563 Haze 27 1010 74 3000 1.4 34 03:52 03.04.2020
5564 Haze 27 1010 74 3000 1.5 50 03:31 03.04.2020
5565 Haze 27 1009 78 3000 2.1 360 02:30 03.04.2020
5566 Haze 27 1008 83 3000 2.1 360 01:24 03.04.2020
5567 Haze 27 1008 88 3000 3.6 340 00:43 03.04.2020
5568 Haze 27 1008 88 3000 3.6 340 00:23 03.04.2020
5569 Haze 27 1008 88 3000 3.6 320 23:43 02.04.2020
5570 Haze 27 1009 88 3000 3.1 310 23:24 02.04.2020
5571 Haze 28 1009 78 3000 3.6 290 23:00 02.04.2020
5572 Haze 28 1009 78 3000 3.6 290 22:41 02.04.2020
5573 Haze 28 1009 78 3000 3.6 300 22:22 02.04.2020
5574 Haze 28 1009 78 3000 2.6 290 21:57 02.04.2020
5575 Haze 28 1009 78 3000 2.1 310 21:37 02.04.2020
5576 Haze 28 1009 78 3000 2.1 310 21:18 02.04.2020
5577 Haze 28 1009 78 3000 3.1 300 20:44 02.04.2020
5578 Haze 29 1010 74 3000 2.6 290 20:24 02.04.2020
5579 Haze 29 1010 74 4000 3.6 280 19:57 02.04.2020
5580 Haze 29 1010 70 4000 2.6 280 19:38 02.04.2020
5581 Haze 29 1010 70 4000 2.6 280 19:19 02.04.2020
5582 Haze 30 1009 58 4000 1.5 300 18:42 02.04.2020
5583 Haze 30 1009 58 4000 1.5 300 18:21 02.04.2020
5584 Haze 30 1009 58 4000 3.1 290 17:59 02.04.2020
5585 Haze 30 1009 58 4000 3.1 290 17:59 02.04.2020
5586 Smoke 30 1009 58 4000 3.1 300 17:41 02.04.2020
5587 Smoke 30 1009 58 4000 3.1 300 17:22 02.04.2020
5588 Smoke 30 1008 62 4000 4.1 290 16:58 02.04.2020
5589 Smoke 30 1008 62 4000 4.1 290 16:39 02.04.2020
5590 Smoke 30 1008 58 4000 4.1 300 16:21 02.04.2020
5591 Smoke 31 1007 55 5000 4.1 290 15:56 02.04.2020
5592 Smoke 31 1007 55 5000 3.1 310 15:38 02.04.2020
5593 Smoke 31 1007 55 5000 3.1 310 15:18 02.04.2020
5594 Smoke 31 1007 52 5000 4.1 300 14:55 02.04.2020
5595 Smoke 31 1007 55 5000 4.1 300 14:37 02.04.2020
5596 Smoke 31 1007 55 5000 4.1 300 14:18 02.04.2020
5597 Smoke 32 1007 52 5000 3.6 300 13:54 02.04.2020
5598 Smoke 32 1007 49 5000 5.1 310 13:36 02.04.2020
5599 Smoke 32 1007 49 5000 5.1 310 13:18 02.04.2020
5600 Smoke 33 1007 46 5000 5.7 310 12:41 02.04.2020
5601 Smoke 33 1007 46 5000 5.7 310 12:19 02.04.2020
5602 Smoke 33 1007 46 5000 5.7 310 12:19 02.04.2020
5603 Smoke 33 1007 44 5000 5.7 310 11:57 02.04.2020
5604 Smoke 33 1007 44 5000 5.7 310 11:57 02.04.2020
5605 Smoke 33 1008 44 5000 5.1 320 11:39 02.04.2020
5606 Smoke 33 1008 44 5000 5.1 320 11:20 02.04.2020
5607 Smoke 33 1008 46 5000 4.6 300 10:56 02.04.2020
5608 Smoke 33 1008 49 5000 4.6 280 10:37 02.04.2020
5609 Smoke 33 1008 49 5000 4.6 280 10:19 02.04.2020
5610 Smoke 33 1008 49 5000 4.6 280 10:19 02.04.2020
5611 Smoke 33 1009 49 5000 5.1 270 09:58 02.04.2020
5612 Smoke 34 1009 49 5000 5.1 270 09:39 02.04.2020
5613 Smoke 34 1009 49 5000 5.7 250 09:20 02.04.2020
5614 Smoke 34 1009 46 5000 5.7 250 08:47 02.04.2020
5615 Smoke 34 1010 34 5000 2.6 280 08:27 02.04.2020
5616 Smoke 34 1010 36 5000 2.1 80 07:47 02.04.2020
5617 Smoke 33 1010 41 5000 1.5 320 07:22 02.04.2020
5618 Smoke 32 1010 48 5000 1.5 320 06:59 02.04.2020
5619 Smoke 31 1010 55 4000 1.5 40 06:23 02.04.2020
5620 Smoke 30 1010 55 4000 1.5 0 05:45 02.04.2020
5621 Haze 27 1010 69 3000 2.59 45 04:47 02.04.2020
5622 Haze 26 1008 83 3500 3.43 25 02:18 02.04.2020
5623 Haze 26 1008 88 3500 2.1 340 00:58 02.04.2020
5624 Haze 27 1008 83 3500 3.6 340 00:36 02.04.2020
5625 Haze 27 1008 83 3500 3.6 340 00:18 02.04.2020
5626 Haze 27 1008 83 3500 3.6 340 23:38 01.04.2020
5627 Haze 27 1008 83 3500 2.6 340 23:38 01.04.2020
5628 Haze 27 1008 83 3500 2.6 340 23:19 01.04.2020
5629 Haze 27 1008 83 3500 2.1 320 22:56 01.04.2020
5630 Haze 27 1008 83 3500 2.1 320 22:37 01.04.2020
5631 Haze 27 1009 78 3500 1.5 330 22:19 01.04.2020
5632 Haze 27 1009 78 3500 2.6 340 21:39 01.04.2020
5633 Haze 28 1010 69 3500 1.5 320 21:19 01.04.2020
5634 Haze 28 1010 61 4000 3.89 328 20:56 01.04.2020
5635 Smoke 29 1010 58 4000 2.1 310 20:38 01.04.2020
5636 Smoke 29 1010 58 4000 2.1 310 20:19 01.04.2020
5637 Smoke 28 1010 58 4000 3.89 328 19:57 01.04.2020
5638 Smoke 29 1010 54 4000 2.1 90 19:37 01.04.2020
5639 Smoke 29 1010 54 4000 2.1 90 19:37 01.04.2020
5640 Smoke 29 1010 54 4000 2.1 90 19:19 01.04.2020
5641 Haze 30 1010 55 5000 2.6 330 18:41 01.04.2020
5642 Haze 30 1010 55 5000 2.6 330 18:22 01.04.2020
5643 Haze 29 1010 62 5000 3.1 330 17:57 01.04.2020
5644 Haze 29 1010 66 5000 2.6 310 17:37 01.04.2020
5645 Haze 29 1010 66 5000 2.6 310 17:18 01.04.2020
5646 Haze 29 1009 66 5000 3.1 310 16:56 01.04.2020
5647 Haze 30 1009 62 5000 3.1 310 16:38 01.04.2020
5648 Haze 30 1009 62 5000 3.1 310 16:20 01.04.2020
5649 Haze 30 1009 58 5000 4.6 310 15:43 01.04.2020
5650 Smoke 31 1009 52 5000 5.1 310 15:24 01.04.2020
5651 Smoke 31 1008 55 5000 5.7 300 14:59 01.04.2020
5652 Smoke 31 1008 49 5000 5.1 310 14:40 01.04.2020
5653 Smoke 31 1008 49 5000 5.1 310 14:40 01.04.2020
5654 Smoke 31 1008 49 5000 5.1 310 14:21 01.04.2020
5655 Smoke 32 1008 55 5000 5.1 290 13:59 01.04.2020
5656 Smoke 32 1008 55 5000 5.1 300 13:39 01.04.2020
5657 Smoke 32 1008 55 5000 5.1 300 13:20 01.04.2020
5658 Smoke 31 1008 55 5000 5.1 290 12:57 01.04.2020
5659 Smoke 32 1008 52 5000 3.6 280 12:37 01.04.2020
5660 Smoke 32 1008 52 5000 3.6 280 12:19 01.04.2020
5661 Smoke 32 1009 52 5000 5.7 280 11:56 01.04.2020
5662 Smoke 32 1009 52 5000 3.6 280 11:37 01.04.2020
5663 Smoke 32 1009 52 5000 3.6 280 11:18 01.04.2020
5664 Smoke 33 1010 52 5000 5.7 280 10:39 01.04.2020
5665 Smoke 32 1010 55 5000 3.6 270 10:21 01.04.2020
5666 Smoke 32 1011 55 5000 3.6 280 09:58 01.04.2020
5667 Smoke 32 1011 52 4000 3.6 270 09:40 01.04.2020
5668 Smoke 32 1011 52 4000 3.6 270 09:20 01.04.2020
5669 Smoke 32 1011 52 4000 5.1 270 08:44 01.04.2020
5670 Smoke 32 1012 52 4000 5.1 260 08:20 01.04.2020
5671 Smoke 32 1012 46 4000 2.1 300 07:58 01.04.2020
5672 Smoke 32 1013 43 4000 2.1 310 07:40 01.04.2020
5673 Smoke 32 1013 43 4000 2.1 310 07:19 01.04.2020
5674 Smoke 31 1013 51 3500 2.1 320 06:41 01.04.2020
5675 Smoke 30 1013 51 3500 2.1 320 06:20 01.04.2020
5676 Haze 27 1012 74 3000 2.6 350 05:28 01.04.2020
5677 Haze 26 1011 69 3000 1.74 27 03:40 01.04.2020
5678 Haze 26 1011 74 3000 2.69 7 02:59 01.04.2020
5679 Haze 26 1010 69 4000 2.69 7 02:31 01.04.2020
5680 Haze 26 1010 74 4000 3.03 13 01:49 01.04.2020
5681 Haze 26 1010 78 4000 2.1 340 01:25 01.04.2020
5682 Haze 26 1010 83 4000 2.1 20 00:47 01.04.2020
5683 Haze 26 1010 83 4000 3.03 13 00:22 01.04.2020
5684 Haze 26 1010 88 4000 2.6 350 23:55 31.03.2020
5685 Haze 27 1010 83 4000 2.6 320 23:37 31.03.2020
5686 Haze 27 1010 83 4000 2.6 320 23:19 31.03.2020
5687 Haze 27 1011 83 4000 2.6 310 22:40 31.03.2020
5688 Haze 27 1011 83 4000 2.6 310 22:21 31.03.2020
5689 Haze 27 1011 78 4000 1.5 320 21:58 31.03.2020
5690 Haze 27 1011 78 4000 3.41 6 21:39 31.03.2020
5691 Haze 27 1011 78 4000 2.85 333 21:21 31.03.2020
5692 Haze 27 1012 78 5000 2.85 333 20:57 31.03.2020
5693 Haze 27 1012 78 5000 2.85 333 20:37 31.03.2020
5694 Haze 27 1012 78 5000 2.85 333 20:19 31.03.2020
5695 Haze 27 1012 78 5000 1.5 360 19:56 31.03.2020
5696 Haze 28 1012 74 5000 2.1 350 19:37 31.03.2020
5697 Haze 28 1012 69 5000 2.1 360 19:19 31.03.2020
5698 Haze 28 1012 69 5000 2.1 360 18:43 31.03.2020
5699 Haze 28 1011 69 5000 2.6 320 18:20 31.03.2020
5700 Haze 28 1011 69 5000 2.6 320 17:57 31.03.2020
5701 Haze 28 1011 69 5000 2.6 320 17:39 31.03.2020
5702 Haze 28 1011 69 5000 2.6 320 17:21 31.03.2020
5703 Haze 28 1010 69 5000 4.1 310 16:56 31.03.2020
5704 Smoke 28 1010 69 5000 3.6 310 16:36 31.03.2020
5705 Smoke 28 1010 69 5000 3.6 310 16:18 31.03.2020
5706 Smoke 29 1010 62 5000 4.1 310 15:55 31.03.2020
5707 Smoke 29 1009 58 5000 6.2 300 15:36 31.03.2020
5708 Smoke 29 1009 58 5000 6.2 300 15:18 31.03.2020
5709 Clouds 30 1009 55 6000 6.2 290 14:42 31.03.2020
5710 Clear 30 1009 52 6000 5.7 300 14:22 31.03.2020
5711 Clear 31 1009 48 6000 6.7 290 13:59 31.03.2020
5712 Clear 31 1009 45 6000 6.2 290 13:40 31.03.2020
5713 Clear 31 1009 45 6000 6.2 290 13:19 31.03.2020
5714 Clear 31 1009 40 6000 5.7 290 12:46 31.03.2020
5715 Clear 32 1009 43 6000 6.2 280 12:20 31.03.2020
5716 Clear 32 1010 43 6000 4.6 290 11:58 31.03.2020
5717 Smoke 32 1010 41 5000 5.7 290 11:38 31.03.2020
5718 Smoke 32 1010 41 5000 5.7 290 11:19 31.03.2020
5719 Smoke 32 1010 46 5000 5.7 280 10:55 31.03.2020
5720 Smoke 32 1010 46 5000 5.7 280 10:55 31.03.2020
5721 Smoke 33 1011 43 5000 5.7 270 10:37 31.03.2020
5722 Smoke 33 1011 43 5000 5.7 270 10:19 31.03.2020
5723 Smoke 33 1012 41 5000 4.1 290 09:45 31.03.2020
5724 Smoke 33 1012 41 5000 5.1 290 09:27 31.03.2020
5725 Smoke 33 1012 36 5000 4.6 270 08:59 31.03.2020
5726 Smoke 33 1013 33 4000 2.6 320 08:41 31.03.2020
5727 Smoke 33 1013 33 4000 2.6 320 08:21 31.03.2020
5728 Smoke 33 1013 40 4000 3.6 290 07:59 31.03.2020
5729 Smoke 32 1013 35 4000 4.1 280 07:41 31.03.2020
5730 Smoke 31 1013 43 4000 2.6 290 07:22 31.03.2020
5731 Smoke 31 1013 43 4000 2.6 290 06:55 31.03.2020
5732 Smoke 31 1013 42 4000 2.1 330 06:36 31.03.2020
5733 Haze 28 1012 69 3000 3.08 2 05:42 31.03.2020
5734 Haze 28 1012 69 3000 3.08 2 05:23 31.03.2020
5735 Haze 26 1011 83 3500 1.5 10 02:53 31.03.2020
5736 Haze 27 1010 83 3500 2.1 320 01:47 31.03.2020
5737 Haze 27 1010 83 3500 2.6 300 01:19 31.03.2020
5738 Haze 27 1009 83 3500 2.6 290 00:43 31.03.2020
5739 Haze 27 1009 83 3500 2.6 290 00:20 31.03.2020
5740 Haze 27 1009 74 3500 2.1 290 23:40 30.03.2020
5741 Haze 28 1009 58 3500 2.1 280 23:20 30.03.2020
5742 Haze 27 1009 61 3500 0.9 80 22:57 30.03.2020
5743 Haze 27 1009 61 3500 0.9 80 22:38 30.03.2020
5744 Haze 27 1010 57 3500 0.9 80 22:19 30.03.2020
5745 Haze 27 1010 61 3500 0.9 80 21:57 30.03.2020
5746 Haze 28 1010 58 3500 0.9 80 21:38 30.03.2020
5747 Haze 28 1011 58 3500 1.45 13 21:20 30.03.2020
5748 Haze 28 1011 58 3500 1.45 13 20:57 30.03.2020
5749 Haze 29 1011 58 3500 1.45 13 20:38 30.03.2020
5750 Haze 29 1011 58 3500 1.45 13 20:19 30.03.2020
5751 Haze 29 1011 58 3500 1.45 13 20:19 30.03.2020
5752 Haze 29 1011 62 3500 1.5 40 19:41 30.03.2020
5753 Haze 29 1011 62 3500 1.5 40 19:22 30.03.2020
5754 Haze 29 1011 62 4000 1.5 330 18:59 30.03.2020
5755 Smoke 29 1011 62 4000 1.5 310 18:41 30.03.2020
5756 Smoke 29 1011 62 4000 1.5 310 18:22 30.03.2020
5757 Smoke 29 1010 58 4000 1.5 290 17:57 30.03.2020
5758 Smoke 29 1010 58 4000 2.1 300 17:39 30.03.2020
5759 Smoke 29 1010 58 4000 2.1 300 17:19 30.03.2020
5760 Smoke 29 1010 58 4000 2.1 310 16:57 30.03.2020
5761 Smoke 29 1010 58 4000 2.1 310 16:39 30.03.2020
5762 Smoke 29 1009 58 4000 3.6 310 16:20 30.03.2020
5763 Smoke 30 1009 55 5000 4.6 300 15:55 30.03.2020
5764 Smoke 30 1009 51 5000 4.6 300 15:37 30.03.2020
5765 Smoke 30 1009 51 5000 4.6 300 15:18 30.03.2020
5766 Smoke 30 1008 45 5000 4.6 290 14:55 30.03.2020
5767 Smoke 30 1008 58 5000 6.2 280 14:36 30.03.2020
5768 Smoke 30 1008 58 5000 6.2 280 14:18 30.03.2020
5769 Smoke 31 1008 58 5000 5.7 300 13:54 30.03.2020
5770 Smoke 31 1008 52 5000 4.1 300 13:36 30.03.2020
5771 Smoke 31 1008 52 5000 4.1 300 13:18 30.03.2020
5772 Smoke 32 1008 46 5000 4.6 300 12:41 30.03.2020
5773 Smoke 32 1008 46 5000 4.6 300 12:20 30.03.2020
5774 Smoke 32 1009 43 5000 4.6 300 11:57 30.03.2020
5775 Smoke 32 1009 43 5000 4.6 300 11:39 30.03.2020
5776 Smoke 32 1010 43 4000 5.7 280 11:20 30.03.2020
5777 Smoke 32 1010 46 4000 5.1 290 10:41 30.03.2020
5778 Smoke 32 1010 49 4000 5.1 260 10:22 30.03.2020
5779 Smoke 32 1010 52 4000 4.6 280 09:57 30.03.2020
5780 Smoke 32 1010 52 4000 4.6 280 09:57 30.03.2020
5781 Smoke 31 1010 55 4000 4.6 260 09:38 30.03.2020
5782 Smoke 31 1010 55 4000 4.6 260 09:19 30.03.2020
5783 Smoke 32 1011 49 4000 5.1 260 08:42 30.03.2020
5784 Smoke 32 1011 38 4000 2.1 300 08:23 30.03.2020
5785 Smoke 32 1012 40 4000 1.5 200 07:53 30.03.2020
5786 Smoke 32 1012 40 4000 1.5 150 07:34 30.03.2020
5787 Smoke 31 1012 45 4000 1.5 330 06:57 30.03.2020
5788 Smoke 31 1012 45 4000 3.6 330 06:33 30.03.2020
5789 Smoke 29 1011 48 4000 3.6 330 05:59 30.03.2020
5790 Smoke 28 1011 51 4000 2.1 340 05:34 30.03.2020
5791 Smoke 27 1010 51 4000 1.5 330 04:26 30.03.2020
5792 Smoke 27 1010 51 4000 1.5 340 03:45 30.03.2020
5793 Smoke 28 1008 51 4000 4.6 330 02:42 30.03.2020
5794 Smoke 28 1008 51 4000 4.6 330 01:48 30.03.2020
5795 Smoke 27 1008 65 4000 3.6 350 00:56 30.03.2020
5796 Smoke 28 1009 58 4000 3.1 320 00:25 30.03.2020
5797 Smoke 28 1009 51 4000 2.6 330 23:43 29.03.2020
5798 Smoke 28 1009 54 4000 2.1 330 23:24 29.03.2020
5799 Smoke 28 1009 51 4000 1.5 280 22:59 29.03.2020
5800 Smoke 28 1009 51 4000 1.5 280 22:39 29.03.2020
5801 Smoke 28 1010 54 4000 2.2 339 22:19 29.03.2020
5802 Smoke 28 1010 54 4000 2.2 339 21:58 29.03.2020
5803 Smoke 29 1010 48 4000 2.24 331 21:37 29.03.2020
5804 Smoke 29 1010 48 4000 2.4 4 21:18 29.03.2020
5805 Smoke 29 1010 42 4000 1.5 30 20:55 29.03.2020
5806 Smoke 29 1010 45 4000 1.5 340 20:37 29.03.2020
5807 Smoke 29 1010 45 4000 1.5 340 20:37 29.03.2020
5808 Smoke 30 1010 45 4000 2.4 4 20:18 29.03.2020
5809 Smoke 30 1010 45 4000 2.4 4 19:54 29.03.2020
5810 Smoke 30 1010 45 4000 2.1 340 19:36 29.03.2020
5811 Smoke 30 1010 55 4000 2.1 300 19:18 29.03.2020
5812 Smoke 30 1010 55 4000 2.1 300 18:54 29.03.2020
5813 Smoke 30 1010 51 4000 2.6 290 18:36 29.03.2020
5814 Smoke 30 1010 51 4000 2.6 290 18:36 29.03.2020
5815 Smoke 31 1009 45 4000 1.93 18 18:18 29.03.2020
5816 Smoke 31 1009 45 4000 1.93 18 17:42 29.03.2020
5817 Smoke 31 1009 45 4000 1.93 18 17:23 29.03.2020
5818 Smoke 31 1008 48 4000 2.6 310 16:59 29.03.2020
5819 Smoke 31 1008 48 4000 2.6 310 16:40 29.03.2020
5820 Smoke 31 1008 45 4000 2.6 320 16:21 29.03.2020
5821 Smoke 32 1008 46 5000 3.6 310 15:58 29.03.2020
5822 Smoke 32 1008 46 5000 3.6 310 15:40 29.03.2020
5823 Smoke 32 1007 38 5000 4.1 290 15:20 29.03.2020
5824 Smoke 32 1007 38 5000 3.6 310 14:56 29.03.2020
5825 Smoke 32 1007 38 5000 4.1 290 14:37 29.03.2020
5826 Smoke 32 1007 38 5000 4.1 290 14:19 29.03.2020
5827 Smoke 33 1007 36 5000 4.1 330 13:55 29.03.2020
5828 Smoke 33 1007 38 5000 5.1 330 13:37 29.03.2020
5829 Smoke 33 1007 41 5000 4.1 310 13:18 29.03.2020
5830 Smoke 34 1007 41 5000 4.6 300 12:54 29.03.2020
5831 Smoke 34 1007 41 5000 4.6 300 12:54 29.03.2020
5832 Smoke 34 1007 41 5000 4.6 300 12:36 29.03.2020
5833 Smoke 34 1007 44 5000 5.1 280 12:18 29.03.2020
5834 Smoke 34 1008 46 5000 4.6 280 11:38 29.03.2020
5835 Smoke 34 1008 46 5000 4.6 280 11:20 29.03.2020
5836 Smoke 34 1008 39 5000 4.6 290 10:40 29.03.2020
5837 Smoke 34 1009 41 5000 4.6 290 10:21 29.03.2020
5838 Smoke 34 1009 46 5000 5.7 280 09:59 29.03.2020
5839 Smoke 34 1010 39 5000 3.6 290 09:38 29.03.2020
5840 Smoke 33 1010 39 5000 3.6 290 09:19 29.03.2020
5841 Smoke 34 1010 36 5000 3.1 270 08:48 29.03.2020
5842 Smoke 34 1011 28 5000 1.5 0 08:27 29.03.2020
5843 Smoke 34 1011 32 5000 3.45 333 07:56 29.03.2020
5844 Smoke 33 1011 38 4500 3.45 333 07:38 29.03.2020
5845 Smoke 32 1011 40 4000 2.6 230 07:19 29.03.2020
5846 Smoke 27 1011 54 5000 2.1 340 04:59 29.03.2020
5847 Smoke 26 1010 57 5000 4.26 18 03:42 29.03.2020
5848 Smoke 26 1010 57 4500 2.6 340 03:24 29.03.2020
5849 Smoke 26 1009 57 4000 2.1 350 01:50 29.03.2020
5850 Smoke 26 1009 57 4000 2.6 10 01:23 29.03.2020
5851 Smoke 27 1009 54 4000 3.32 16 00:53 29.03.2020
5852 Smoke 27 1009 57 4000 3.6 340 00:29 29.03.2020
5853 Haze 27 1009 65 4000 4.1 340 23:42 28.03.2020
5854 Haze 27 1009 65 4000 4.1 340 23:23 28.03.2020
5855 Haze 27 1009 65 3000 4.1 340 22:57 28.03.2020
5856 Haze 27 1010 65 3000 4.1 330 22:37 28.03.2020
5857 Haze 27 1010 65 3000 4.1 330 22:19 28.03.2020
5858 Haze 27 1010 65 3000 5.1 340 21:42 28.03.2020
5859 Haze 27 1010 61 3500 4.6 330 21:24 28.03.2020
5860 Smoke 28 1011 54 4000 4.1 330 20:58 28.03.2020
5861 Smoke 28 1011 54 4000 4.1 330 20:39 28.03.2020
5862 Smoke 28 1011 51 4000 4.1 340 20:21 28.03.2020
5863 Smoke 29 1011 30 4000 1.5 300 19:56 28.03.2020
5864 Smoke 29 1011 30 4000 1.5 300 19:37 28.03.2020
5865 Smoke 29 1011 30 4000 1.5 300 19:19 28.03.2020
5866 Smoke 30 1011 23 4000 2.1 330 18:55 28.03.2020
5867 Smoke 31 1011 20 4000 2.6 340 18:36 28.03.2020
5868 Smoke 30 1011 25 4000 3.1 20 18:18 28.03.2020
5869 Smoke 30 1011 25 4000 2.6 360 17:38 28.03.2020
5870 Smoke 30 1011 27 4000 5.1 330 17:19 28.03.2020
5871 Smoke 30 1010 28 4000 4.1 340 16:42 28.03.2020
5872 Smoke 30 1010 28 4000 4.1 340 16:20 28.03.2020
5873 Smoke 30 1010 35 4000 4.1 340 15:56 28.03.2020
5874 Smoke 30 1010 37 4000 4.1 330 15:38 28.03.2020
5875 Smoke 30 1010 37 4000 4.1 330 15:19 28.03.2020
5876 Smoke 30 1010 42 4000 5.7 330 14:43 28.03.2020
5877 Smoke 30 1009 48 5000 4.6 320 14:23 28.03.2020
5878 Smoke 31 1009 48 5500 5.1 310 13:59 28.03.2020
5879 Clouds 32 1008 46 6000 6.2 310 13:38 28.03.2020
5880 Clouds 32 1008 46 6000 6.2 310 13:19 28.03.2020
5881 Smoke 32 1009 46 5000 5.7 300 12:39 28.03.2020
5882 Smoke 32 1009 46 5000 5.7 300 12:21 28.03.2020
5883 Smoke 32 1009 49 4000 6.2 300 11:42 28.03.2020
5884 Smoke 32 1009 49 4000 6.2 320 11:21 28.03.2020
5885 Smoke 33 1009 49 4000 6.2 320 10:56 28.03.2020
5886 Smoke 33 1010 55 4000 5.1 300 10:38 28.03.2020
5887 Smoke 33 1010 55 4000 5.1 300 10:18 28.03.2020
5888 Smoke 33 1010 55 3500 5.1 290 09:41 28.03.2020
5889 Smoke 34 1011 52 3500 5.7 290 09:23 28.03.2020
5890 Smoke 34 1011 49 3500 5.7 280 08:46 28.03.2020
5891 Smoke 34 1012 44 3500 4.1 300 08:27 28.03.2020
5892 Smoke 34 1012 36 3500 3.1 290 07:59 28.03.2020
5893 Smoke 33 1013 38 3000 2.6 30 07:41 28.03.2020
5894 Smoke 34 1013 38 3000 2.6 50 06:55 28.03.2020
5895 Smoke 33 1013 41 2500 2.71 360 06:32 28.03.2020
5896 Smoke 32 1013 45 2500 1.5 30 05:41 28.03.2020
5897 Smoke 31 1013 45 2500 1.5 30 05:19 28.03.2020
5898 Haze 29 1013 58 2500 3.44 18 04:40 28.03.2020
5899 Haze 27 1012 65 2500 3.44 18 02:55 28.03.2020
5900 Haze 27 1011 65 3000 4.1 23 01:48 28.03.2020
5901 Haze 27 1011 69 3500 4.7 14 01:24 28.03.2020
5902 Haze 27 1011 69 3500 4.7 14 00:55 28.03.2020
5903 Haze 27 1011 69 3500 4.7 14 00:33 28.03.2020
5904 Haze 27 1011 69 3500 4.7 14 23:54 27.03.2020
5905 Haze 28 1011 65 3500 1.5 350 23:36 27.03.2020
5906 Haze 27 1011 69 3500 2.6 40 23:18 27.03.2020
5907 Haze 27 1011 69 3500 2.6 40 22:54 27.03.2020
5908 Haze 27 1011 69 3500 2.6 340 22:36 27.03.2020
5909 Haze 27 1011 69 3500 2.6 340 22:18 27.03.2020
5910 Haze 27 1011 69 3500 1.5 340 21:42 27.03.2020
5911 Haze 28 1012 65 3500 2.6 330 21:23 27.03.2020
5912 Haze 28 1012 65 3500 2.6 360 20:58 27.03.2020
5913 Haze 28 1012 65 3500 2.6 360 20:58 27.03.2020
5914 Haze 28 1012 65 3500 2.6 350 20:39 27.03.2020
5915 Haze 28 1012 65 3500 2.6 350 20:19 27.03.2020
5916 Haze 28 1012 65 3500 1.5 350 19:56 27.03.2020
5917 Haze 28 1012 65 3500 2.1 320 19:38 27.03.2020
5918 Haze 28 1012 65 3500 2.1 320 19:19 27.03.2020
5919 Haze 29 1012 66 3500 3.1 310 18:43 27.03.2020
5920 Haze 29 1012 66 3500 3.1 310 18:23 27.03.2020
5921 Haze 29 1012 66 3500 2.1 330 17:57 27.03.2020
5922 Haze 29 1012 66 3500 3.6 320 17:38 27.03.2020
5923 Haze 29 1011 66 3500 3.1 330 17:19 27.03.2020
5924 Haze 29 1011 66 3500 3.1 320 16:44 27.03.2020
5925 Haze 29 1011 66 3500 3.1 320 16:25 27.03.2020
5926 Haze 29 1011 66 3500 3.1 320 16:25 27.03.2020
5927 Haze 29 1011 66 3500 3.1 320 16:25 27.03.2020
5928 Haze 29 1010 66 4000 3.6 330 15:46 27.03.2020
5929 Haze 29 1010 66 4000 3.6 330 15:27 27.03.2020
5930 Smoke 29 1010 66 4000 3.6 310 14:59 27.03.2020
5931 Smoke 30 1010 62 4000 5.7 300 14:40 27.03.2020
5932 Smoke 30 1010 62 4000 5.7 300 14:22 27.03.2020
5933 Smoke 30 1009 55 5000 4.6 310 13:54 27.03.2020
5934 Smoke 30 1009 58 5000 6.2 310 13:36 27.03.2020
5935 Smoke 31 1010 52 5000 7.2 290 13:18 27.03.2020
5936 Smoke 31 1010 55 5000 5.1 290 12:42 27.03.2020
5937 Smoke 31 1010 55 5000 5.7 290 12:19 27.03.2020
5938 Smoke 31 1010 55 5000 5.7 290 11:55 27.03.2020
5939 Smoke 31 1010 55 5000 5.7 290 11:36 27.03.2020
5940 Smoke 33 1010 44 5000 6.7 260 11:18 27.03.2020
5941 Smoke 34 1010 44 5000 5.7 260 10:41 27.03.2020
5942 Smoke 34 1010 44 5000 5.7 260 10:22 27.03.2020
5943 Smoke 33 1011 44 5000 3.1 330 09:58 27.03.2020
5944 Smoke 34 1012 46 5000 2.6 330 09:40 27.03.2020
5945 Smoke 34 1012 46 5000 2.6 330 09:22 27.03.2020
5946 Smoke 33 1012 52 5000 4.6 270 08:59 27.03.2020
5947 Smoke 33 1012 52 5000 4.6 270 08:59 27.03.2020
5948 Smoke 33 1012 52 5000 4.6 270 08:40 27.03.2020
5949 Smoke 32 1013 59 4500 4.1 300 08:21 27.03.2020
5950 Smoke 32 1013 55 4500 3.6 320 07:57 27.03.2020
5951 Smoke 31 1013 62 4000 3.6 310 07:38 27.03.2020
5952 Haze 31 1013 62 4000 3.1 310 07:20 27.03.2020
5953 Haze 31 1013 62 4000 3.1 310 06:39 27.03.2020
5954 Haze 29 1013 70 4000 1.5 0 05:45 27.03.2020
5955 Haze 27 1012 78 4000 5.7 340 03:26 27.03.2020
5956 Haze 28 1010 78 3000 1.5 120 01:55 27.03.2020
5957 Haze 27 1010 83 3000 2.1 110 01:18 27.03.2020
5958 Haze 28 1010 78 3000 1.5 20 00:41 27.03.2020
5959 Haze 28 1010 78 3000 1.5 20 00:19 27.03.2020
5960 Haze 28 1010 78 3000 1.5 340 23:37 26.03.2020
5961 Haze 28 1011 78 3000 2.6 310 23:18 26.03.2020
5962 Haze 28 1011 78 3000 2.6 310 22:56 26.03.2020
5963 Haze 28 1011 78 3000 2.6 310 22:36 26.03.2020
5964 Haze 28 1011 78 3000 2.6 310 22:18 26.03.2020
5965 Haze 28 1011 78 3000 2.6 300 21:40 26.03.2020
5966 Haze 28 1011 78 3000 2.1 300 21:21 26.03.2020
5967 Haze 28 1011 78 3000 2.1 300 20:59 26.03.2020
5968 Haze 28 1011 83 3000 1.5 350 20:39 26.03.2020
5969 Haze 28 1011 83 3000 1.5 350 20:21 26.03.2020
5970 Haze 29 1012 79 3000 0.51 284 19:58 26.03.2020
5971 Haze 29 1012 74 3000 1.5 0 19:39 26.03.2020
5972 Haze 29 1012 74 3000 1.5 0 19:21 26.03.2020
5973 Haze 29 1012 74 3000 0.51 284 18:58 26.03.2020
5974 Haze 29 1012 74 3000 0.51 284 18:40 26.03.2020
5975 Haze 29 1011 74 3000 2.1 330 18:21 26.03.2020
5976 Haze 29 1011 74 3000 1.5 290 17:44 26.03.2020
5977 Haze 29 1011 74 3000 1.5 290 17:44 26.03.2020
5978 Haze 29 1010 79 3000 3.1 280 17:20 26.03.2020
5979 Haze 29 1010 79 3000 3.1 280 16:57 26.03.2020
5980 Haze 29 1010 79 3000 2.1 280 16:38 26.03.2020
5981 Haze 29 1010 79 3000 2.1 280 16:18 26.03.2020
5982 Haze 29 1009 79 3000 2.6 300 15:54 26.03.2020
5983 Haze 29 1009 74 3500 3.6 280 15:36 26.03.2020
5984 Haze 29 1009 74 3500 3.6 280 15:18 26.03.2020
5985 Haze 29 1008 74 4000 4.1 270 14:42 26.03.2020
5986 Haze 29 1008 74 4500 5.7 280 14:24 26.03.2020
5987 Haze 30 1008 79 5000 6.2 280 13:55 26.03.2020
5988 Haze 30 1008 79 5000 6.2 290 13:37 26.03.2020
5989 Haze 30 1008 79 5000 6.2 290 13:19 26.03.2020
5990 Haze 31 1007 70 5000 6.2 270 12:38 26.03.2020
5991 Haze 31 1007 70 5500 6.2 250 12:20 26.03.2020
5992 Clouds 31 1007 59 6000 6.2 250 11:46 26.03.2020
5993 Clouds 31 1007 59 6000 6.2 250 11:23 26.03.2020
5994 Clouds 32 1008 59 6000 6.7 250 10:57 26.03.2020
5995 Clouds 33 1008 56 6000 5.7 230 10:39 26.03.2020
5996 Clouds 33 1008 56 6000 5.7 230 10:19 26.03.2020
5997 Clouds 33 1008 46 6000 3.6 230 09:44 26.03.2020
5998 Clouds 33 1009 46 6000 4.1 210 09:21 26.03.2020
5999 Smoke 32 1010 46 5000 4.1 190 08:57 26.03.2020
6000 Smoke 32 1010 46 5000 4.1 190 08:38 26.03.2020
6001 Smoke 32 1010 46 5000 4.1 190 08:19 26.03.2020
6002 Smoke 32 1011 46 5000 3.1 140 07:44 26.03.2020
6003 Smoke 32 1011 43 4000 3.1 140 07:22 26.03.2020
6004 Smoke 31 1011 52 3000 3.1 130 06:57 26.03.2020
6005 Haze 30 1011 70 2500 2.1 130 06:27 26.03.2020
6006 Rain 29 1011 74 2500 0.54 130 05:22 26.03.2020
6007 Haze 29 1010 74 2500 0.54 130 03:45 26.03.2020
6008 Haze 27 1009 78 2500 2.1 340 02:56 26.03.2020
6009 Haze 28 1008 74 3000 1.5 330 01:50 26.03.2020
6010 Haze 28 1008 78 3000 1.5 80 00:56 26.03.2020
6011 Haze 28 1007 78 3000 1.5 150 00:22 26.03.2020
6012 Haze 28 1008 74 3000 0.39 236 23:41 25.03.2020
6013 Haze 28 1008 74 3000 0.39 236 23:22 25.03.2020
6014 Haze 28 1009 74 3000 2.6 160 22:42 25.03.2020
6015 Haze 28 1009 74 3000 2.6 160 22:21 25.03.2020
6016 Haze 29 1009 70 3500 0.86 240 21:56 25.03.2020
6017 Haze 29 1009 70 3500 0.86 240 21:38 25.03.2020
6018 Haze 29 1009 70 3500 0.86 240 21:20 25.03.2020
6019 Haze 29 1009 70 3500 0.86 240 20:56 25.03.2020
6020 Haze 29 1009 70 3500 0.86 240 20:37 25.03.2020
6021 Haze 29 1009 70 3500 2.03 171 20:18 25.03.2020
6022 Haze 29 1010 70 3500 0.99 221 19:43 25.03.2020
6023 Haze 29 1010 70 3500 0.99 221 19:43 25.03.2020
6024 Smoke 30 1010 55 4000 1.5 130 19:23 25.03.2020
6025 Smoke 30 1010 55 4000 1.5 130 18:58 25.03.2020
6026 Smoke 30 1010 55 4000 1.5 130 18:40 25.03.2020
6027 Smoke 30 1010 55 4000 1.5 100 18:21 25.03.2020
6028 Smoke 30 1010 55 4000 1.5 100 17:56 25.03.2020
6029 Haze 30 1010 58 4000 2.1 100 17:38 25.03.2020
6030 Haze 30 1009 62 4000 1.5 90 17:20 25.03.2020
6031 Smoke 30 1009 62 4000 1.98 210 16:44 25.03.2020
6032 Smoke 30 1009 62 4000 1.98 210 16:24 25.03.2020
6033 Smoke 30 1009 62 4000 1.98 210 15:59 25.03.2020
6034 Smoke 30 1009 62 4000 1.5 160 15:41 25.03.2020
6035 Smoke 30 1009 62 4000 1.5 160 15:41 25.03.2020
6036 Smoke 30 1009 62 4000 1.5 160 15:20 25.03.2020
6037 Smoke 30 1008 62 4000 3.1 120 14:55 25.03.2020
6038 Smoke 31 1008 55 5000 3.6 160 14:37 25.03.2020
6039 Smoke 31 1008 55 5000 3.6 160 14:18 25.03.2020
6040 Haze 30 1007 62 5000 3.1 280 13:42 25.03.2020
6041 Haze 30 1006 66 5000 4.1 270 13:22 25.03.2020
6042 Clouds 30 1006 70 6000 6.2 280 12:38 25.03.2020
6043 Clouds 30 1006 70 6000 6.2 280 12:19 25.03.2020
6044 Clouds 31 1006 66 6000 6.7 280 11:56 25.03.2020
6045 Clouds 31 1006 70 6000 6.2 270 11:37 25.03.2020
6046 Clouds 31 1007 66 6000 6.7 260 11:19 25.03.2020
6047 Clouds 31 1007 66 6000 6.7 260 10:56 25.03.2020
6048 Clouds 31 1007 70 6000 5.7 260 10:38 25.03.2020
6049 Clouds 31 1007 70 6000 5.7 260 10:18 25.03.2020
6050 Smoke 31 1008 66 3000 5.7 250 09:43 25.03.2020
6051 Smoke 31 1008 66 3000 5.7 250 09:24 25.03.2020
6052 Smoke 31 1008 70 3000 5.7 230 08:57 25.03.2020
6053 Smoke 31 1008 70 3000 5.7 230 08:39 25.03.2020
6054 Smoke 31 1009 66 3000 4.1 230 08:19 25.03.2020
6055 Smoke 31 1010 66 3000 3.6 190 07:41 25.03.2020
6056 Smoke 31 1010 66 3000 3.6 190 07:22 25.03.2020
6057 Smoke 31 1010 66 3000 3.6 230 06:50 25.03.2020
6058 Smoke 31 1010 66 3000 3.6 230 06:28 25.03.2020
6059 Smoke 30 1010 74 2500 2.1 280 05:56 25.03.2020
6060 Smoke 30 1010 74 2500 2.1 280 05:30 25.03.2020
6061 Haze 29 1009 79 2500 1.1 54 04:39 25.03.2020
6062 Haze 28 1008 83 2500 2.6 260 03:36 25.03.2020
6063 Haze 28 1008 78 2500 1.1 54 02:40 25.03.2020
6064 Haze 28 1007 78 2500 1.5 0 01:23 25.03.2020
6065 Haze 28 1007 78 2500 1.64 3 00:49 25.03.2020
6066 Haze 28 1007 78 2500 1.64 3 00:24 25.03.2020
6067 Haze 28 1007 78 2500 2.6 280 23:45 24.03.2020
6068 Haze 28 1007 78 2500 2.6 280 23:26 24.03.2020
6069 Haze 28 1007 78 2500 3.1 280 22:57 24.03.2020
6070 Haze 28 1007 78 2500 3.1 290 22:38 24.03.2020
6071 Haze 28 1007 78 2500 3.1 290 22:19 24.03.2020
6072 Haze 28 1007 78 2500 2.6 290 21:56 24.03.2020
6073 Haze 28 1008 83 2500 4.1 260 21:37 24.03.2020
6074 Haze 28 1008 83 2500 4.1 260 21:18 24.03.2020
6075 Haze 29 1008 70 2500 2.6 260 20:56 24.03.2020
6076 Haze 29 1008 74 2500 2.86 291 20:38 24.03.2020
6077 Haze 29 1008 74 2500 1.95 250 20:19 24.03.2020
6078 Haze 29 1008 74 2500 1.97 261 19:41 24.03.2020
6079 Haze 29 1008 74 2500 1.97 261 19:19 24.03.2020
6080 Haze 30 1008 66 3000 2.1 160 18:56 24.03.2020
6081 Haze 30 1008 66 3000 2.1 160 18:37 24.03.2020
6082 Smoke 31 1008 55 3000 1.97 261 18:18 24.03.2020
6083 Smoke 31 1008 55 3000 1.97 261 18:18 24.03.2020
6084 Smoke 32 1008 46 4000 1.97 261 17:42 24.03.2020
6085 Smoke 32 1008 46 4000 1.97 261 17:23 24.03.2020
6086 Smoke 32 1008 46 4000 2.51 193 16:58 24.03.2020
6087 Smoke 32 1007 49 4000 2.51 193 16:40 24.03.2020
6088 Smoke 32 1007 49 4000 2.51 193 16:22 24.03.2020
6089 Smoke 31 1007 48 4000 1.5 310 15:59 24.03.2020
6090 Smoke 31 1007 52 4000 1.5 300 15:38 24.03.2020
6091 -273 0 0 0 0 0 15:20 24.03.2020
6092 Smoke 32 1007 49 4000 1.5 300 14:43 24.03.2020
6093 Smoke 31 1006 49 4000 3.1 300 14:21 24.03.2020
6094 Smoke 31 1006 49 5000 4.6 290 13:55 24.03.2020
6095 Smoke 32 1006 49 5000 3.6 300 13:36 24.03.2020
6096 Smoke 32 1006 49 5000 3.6 300 13:18 24.03.2020
6097 Smoke 32 1006 49 5000 4.6 290 12:41 24.03.2020
6098 Smoke 32 1006 49 5000 5.7 280 12:22 24.03.2020
6099 Smoke 32 1006 49 5000 5.7 290 11:41 24.03.2020
6100 Smoke 32 1006 49 5000 5.7 290 11:20 24.03.2020
6101 Smoke 32 1007 55 5000 5.1 290 10:55 24.03.2020
6102 Smoke 32 1007 59 5000 6.7 270 10:36 24.03.2020
6103 Smoke 32 1007 59 5000 6.7 270 10:18 24.03.2020
6104 Smoke 32 1008 59 5000 6.2 250 09:42 24.03.2020
6105 Smoke 32 1008 59 5000 4.6 270 09:24 24.03.2020
6106 Smoke 32 1009 62 5000 4.6 280 08:40 24.03.2020
6107 Haze 33 1009 59 5000 3.1 310 08:21 24.03.2020
6108 Haze 32 1010 62 5000 5.1 280 07:52 24.03.2020
6109 Haze 32 1010 66 4000 6.7 280 07:25 24.03.2020
6110 Haze 31 1010 70 4000 4.1 260 06:59 24.03.2020
6111 Haze 31 1010 70 4000 3.6 260 06:34 24.03.2020
6112 Haze 30 1010 74 4000 1.5 290 05:30 24.03.2020
6113 Haze 29 1010 74 4000 1.5 300 04:50 24.03.2020
6114 Haze 26 1009 69 3500 1.87 87 03:19 24.03.2020
6115 Haze 27 1009 69 3500 1.87 87 02:25 24.03.2020
6116 Haze 27 1008 69 3500 1.88 81 00:53 24.03.2020
6117 Haze 27 1008 69 3500 1.5 340 00:26 24.03.2020
6118 Haze 27 1008 69 3500 1.88 81 23:55 23.03.2020
6119 Haze 27 1008 69 3500 1.88 81 23:36 23.03.2020
6120 Haze 27 1008 69 3500 1.51 23 23:18 23.03.2020
6121 Haze 28 1009 65 3500 1.51 23 22:42 23.03.2020
6122 Haze 28 1009 65 3500 1.51 23 22:22 23.03.2020
6123 Haze 28 1009 65 3500 1.51 23 22:22 23.03.2020
6124 Haze 28 1009 61 3500 1.5 310 21:55 23.03.2020
6125 Smoke 29 1010 54 4000 2.1 310 21:37 23.03.2020
6126 Smoke 29 1010 54 4000 2.1 340 21:18 23.03.2020
6127 Smoke 29 1010 54 4000 2.1 340 20:42 23.03.2020
6128 Smoke 29 1010 54 4000 2.6 340 20:24 23.03.2020
6129 Smoke 29 1011 54 4000 2.1 350 19:55 23.03.2020
6130 Smoke 30 1011 48 4000 3.1 340 19:37 23.03.2020
6131 Smoke 30 1011 51 4000 3.1 340 19:19 23.03.2020
6132 Smoke 30 1011 51 4000 2.6 290 18:43 23.03.2020
6133 Smoke 30 1011 51 4000 2.6 290 18:24 23.03.2020
6134 Smoke 30 1011 51 4000 1.5 360 17:59 23.03.2020
6135 Smoke 30 1011 51 4000 1.5 360 17:40 23.03.2020
6136 Smoke 30 1010 55 5000 3.1 340 17:19 23.03.2020
6137 Smoke 30 1009 55 5000 1.5 330 16:43 23.03.2020
6138 Smoke 30 1009 55 5000 1.5 330 16:25 23.03.2020
6139 Clear 31 1009 52 6000 3.1 320 15:54 23.03.2020
6140 Clear 31 1009 52 6000 4.1 310 15:36 23.03.2020
6141 Clear 31 1009 52 6000 4.1 310 15:18 23.03.2020
6142 Clear 31 1009 52 6000 4.1 310 15:18 23.03.2020
6143 Clear 31 1008 52 6000 4.6 310 14:37 23.03.2020
6144 Clear 31 1008 49 6000 6.2 290 14:19 23.03.2020
6145 Clear 31 1008 49 6000 6.2 290 14:19 23.03.2020
6146 Clear 31 1008 49 6000 6.2 290 13:55 23.03.2020
6147 Clear 31 1008 52 6000 5.7 300 13:37 23.03.2020
6148 Clear 31 1008 52 6000 5.7 300 13:19 23.03.2020
6149 Clear 32 1008 52 6000 4.6 290 12:42 23.03.2020
6150 Clear 32 1008 52 6000 4.6 290 12:23 23.03.2020
6151 Clear 33 1008 44 6000 5.7 280 11:56 23.03.2020
6152 Clear 33 1008 44 6000 5.7 280 11:37 23.03.2020
6153 Smoke 33 1008 46 6000 5.7 280 11:19 23.03.2020
6154 Smoke 33 1008 46 6000 5.7 280 10:56 23.03.2020
6155 Smoke 32 1009 55 5000 6.2 270 10:36 23.03.2020
6156 Smoke 32 1009 55 5000 6.2 270 10:18 23.03.2020
6157 Smoke 32 1009 52 4000 4.6 270 09:42 23.03.2020
6158 Smoke 32 1010 52 4000 6.2 270 09:20 23.03.2020
6159 Smoke 31 1011 55 3000 5.1 260 08:38 23.03.2020
6160 Smoke 31 1011 55 3000 5.1 260 08:20 23.03.2020
6161 Smoke 32 1011 55 3000 5.1 250 07:54 23.03.2020
6162 Smoke 32 1012 49 3000 5.1 250 07:34 23.03.2020
6163 Smoke 32 1012 45 3000 3.36 295 06:58 23.03.2020
6164 Smoke 31 1012 45 3000 3.36 295 06:40 23.03.2020
6165 Haze 31 1012 55 2500 2.1 60 05:44 23.03.2020
6166 Haze 28 1012 65 2500 1.8 75 04:41 23.03.2020
6167 Haze 26 1011 78 2500 1.5 0 02:59 23.03.2020
6168 Haze 26 1010 83 2500 2.1 10 01:50 23.03.2020
6169 Haze 26 1010 88 2500 2.1 350 00:50 23.03.2020
6170 Haze 26 1010 88 2500 2.6 350 00:29 23.03.2020
6171 Haze 26 1010 88 2500 3.1 330 23:44 22.03.2020
6172 Haze 26 1010 88 2500 3.1 330 23:24 22.03.2020
6173 Haze 26 1010 88 2500 3.1 310 22:42 22.03.2020
6174 Haze 26 1010 88 2500 3.1 310 22:22 22.03.2020
6175 Haze 26 1011 88 2500 4.1 320 21:54 22.03.2020
6176 Haze 27 1011 83 2500 3.1 320 21:36 22.03.2020
6177 Haze 27 1011 83 2500 3.1 320 21:18 22.03.2020
6178 Haze 27 1012 83 3000 3.6 310 20:42 22.03.2020
6179 Haze 27 1012 83 3000 3.6 300 20:24 22.03.2020
6180 Haze 27 1012 78 3000 3.1 290 19:56 22.03.2020
6181 Haze 27 1012 78 3000 2.1 260 19:38 22.03.2020
6182 Haze 27 1012 78 3000 2.1 260 19:19 22.03.2020
6183 Haze 28 1012 69 3000 0.9 25 18:58 22.03.2020
6184 Haze 28 1012 69 4000 2.1 20 18:40 22.03.2020
6185 Haze 28 1012 69 4000 2.1 20 18:21 22.03.2020
6186 Haze 28 1012 69 4000 1.5 330 17:57 22.03.2020
6187 Smoke 28 1012 69 4000 2.6 320 17:38 22.03.2020
6188 Smoke 28 1012 69 4000 2.6 320 17:20 22.03.2020
6189 Smoke 28 1012 74 4000 2.6 300 16:57 22.03.2020
6190 Smoke 28 1011 74 4000 2.6 310 16:39 22.03.2020
6191 Smoke 28 1011 74 4000 2.6 310 16:20 22.03.2020
6192 Smoke 29 1011 66 4000 3.6 300 15:40 22.03.2020
6193 Smoke 29 1011 66 4000 3.6 300 15:40 22.03.2020
6194 Smoke 29 1011 62 5000 4.1 300 15:20 22.03.2020
6195 Clear 29 1010 55 6000 5.1 310 14:46 22.03.2020
6196 Clear 29 1010 55 6000 5.1 310 14:19 22.03.2020
6197 Clear 30 1009 55 6000 3.6 300 13:44 22.03.2020
6198 Clear 30 1009 55 6000 3.6 300 13:20 22.03.2020
6199 Clear 31 1009 55 6000 4.6 300 12:59 22.03.2020
6200 Clear 31 1009 55 6000 8.2 310 12:41 22.03.2020
6201 Clear 32 1009 55 6000 5.1 300 12:19 22.03.2020
6202 Clear 32 1010 58 6000 4.1 300 11:43 22.03.2020
6203 Clear 32 1010 58 6000 4.1 300 11:25 22.03.2020
6204 Clear 31 1010 58 6000 6.2 280 10:58 22.03.2020
6205 Clear 31 1010 58 6000 7.2 280 10:40 22.03.2020
6206 Clear 32 1010 58 6000 7.2 280 10:22 22.03.2020
6207 Clear 32 1010 58 6000 7.2 280 10:22 22.03.2020
6208 Smoke 31 1011 55 5000 4.6 310 09:47 22.03.2020
6209 Smoke 32 1011 55 5000 4.1 310 09:28 22.03.2020
6210 Smoke 32 1012 55 5000 4.1 300 08:51 22.03.2020
6211 Smoke 32 1012 55 5000 4.6 290 08:32 22.03.2020
6212 Smoke 32 1012 55 5000 4.6 290 08:32 22.03.2020
6213 Smoke 32 1013 49 5000 4.1 330 07:56 22.03.2020
6214 Smoke 31 1013 43 5000 4.1 290 07:38 22.03.2020
6215 Smoke 31 1014 40 5000 1.5 340 06:48 22.03.2020
6216 Smoke 30 1013 48 5000 2.1 360 05:52 22.03.2020
6217 Haze 27 1013 74 2500 1.5 360 04:39 22.03.2020
6218 Haze 24 1011 88 3500 2.6 130 01:49 22.03.2020
6219 Haze 25 1011 83 3500 2.6 20 00:51 22.03.2020
6220 Haze 25 1011 83 3500 2.6 360 00:32 22.03.2020
6221 Haze 25 1011 83 3500 2.1 350 23:47 21.03.2020
6222 Haze 25 1011 83 3500 2.6 10 23:23 21.03.2020
6223 Haze 25 1011 83 3500 2.6 10 22:59 21.03.2020
6224 Haze 26 1011 78 3500 1.5 20 22:38 21.03.2020
6225 Haze 26 1011 78 3500 1.5 20 22:20 21.03.2020
6226 Haze 26 1012 78 3500 2.6 360 21:59 21.03.2020
6227 Haze 26 1012 78 3500 2.6 360 21:39 21.03.2020
6228 Haze 26 1012 78 3500 2.6 340 21:20 21.03.2020
6229 Haze 26 1013 78 3500 3.1 330 20:44 21.03.2020
6230 Haze 26 1013 78 3500 3.1 340 20:22 21.03.2020
6231 Haze 26 1013 78 3500 3.6 340 19:56 21.03.2020
6232 Haze 27 1013 74 3500 3.6 330 19:38 21.03.2020
6233 Haze 27 1013 74 3500 3.6 330 19:19 21.03.2020
6234 Haze 27 1013 74 3500 3.1 340 18:54 21.03.2020
6235 Haze 27 1013 74 3500 2.1 330 18:36 21.03.2020
6236 Haze 27 1013 74 3500 2.1 330 18:18 21.03.2020
6237 Smoke 27 1013 69 4000 3.1 10 17:42 21.03.2020
6238 Smoke 27 1013 69 4000 3.1 10 17:23 21.03.2020
6239 Smoke 27 1012 69 4000 4.1 310 16:43 21.03.2020
6240 Smoke 27 1012 69 4000 4.1 310 16:43 21.03.2020
6241 Smoke 27 1012 69 4000 4.1 310 16:24 21.03.2020
6242 Smoke 27 1012 69 4000 4.1 310 16:24 21.03.2020
6243 Smoke 27 1012 69 4000 4.6 320 15:59 21.03.2020
6244 Smoke 27 1012 69 4000 4.6 320 15:41 21.03.2020
6245 Smoke 27 1011 69 5000 5.1 300 15:23 21.03.2020
6246 Clear 28 1011 61 6000 5.1 300 14:58 21.03.2020
6247 Clear 28 1011 61 6000 5.1 300 14:58 21.03.2020
6248 Clear 28 1011 61 6000 5.1 300 14:40 21.03.2020
6249 Clear 28 1010 61 7000 4.6 300 14:20 21.03.2020
6250 Clear 28 1010 61 7000 5.7 290 13:59 21.03.2020
6251 Clear 29 1010 58 7000 5.1 290 13:40 21.03.2020
6252 Clear 29 1010 58 7000 5.1 290 13:21 21.03.2020
6253 Clear 29 1010 58 7000 5.1 290 13:21 21.03.2020
6254 Clear 29 1010 58 7000 4.6 280 12:58 21.03.2020
6255 Clear 29 1010 58 6000 5.1 270 12:37 21.03.2020
6256 Clear 29 1010 58 6000 5.1 270 12:19 21.03.2020
6257 Clear 29 1010 58 6000 4.1 270 11:55 21.03.2020
6258 Clear 29 1010 58 6000 4.1 270 11:37 21.03.2020
6259 Clear 29 1011 58 6000 6.2 260 11:18 21.03.2020
6260 Clear 29 1011 58 6000 6.2 260 10:56 21.03.2020
6261 Clear 29 1011 58 6000 5.7 270 10:38 21.03.2020
6262 Clear 29 1011 58 6000 5.7 270 10:19 21.03.2020
6263 Clouds 29 1012 58 6000 4.6 270 09:55 21.03.2020
6264 Haze 29 1012 62 5000 4.6 290 09:36 21.03.2020
6265 Haze 29 1012 62 5000 4.6 290 09:18 21.03.2020
6266 Haze 29 1013 62 5000 5.1 270 08:42 21.03.2020
6267 Haze 29 1013 62 4000 4.1 270 08:23 21.03.2020
6268 Smoke 29 1014 62 4000 5.1 270 07:42 21.03.2020
6269 Smoke 29 1014 58 4000 5.1 290 07:23 21.03.2020
6270 Haze 29 1014 58 3000 3.1 280 06:47 21.03.2020
6271 Haze 29 1014 58 3000 3.1 280 06:27 21.03.2020
6272 Haze 29 1014 65 3000 2.1 110 05:46 21.03.2020
6273 Haze 27 1014 69 3000 2.1 90 04:46 21.03.2020
6274 Haze 24 1013 69 3500 2.1 180 02:48 21.03.2020
6275 Haze 25 1012 73 4000 2 82 02:30 21.03.2020
6276 Haze 24 1011 73 4000 1.5 80 01:32 21.03.2020
6277 Haze 25 1011 69 4000 1.9 60 00:48 21.03.2020
6278 Haze 25 1011 73 4000 1.5 90 00:26 21.03.2020
6279 Haze 25 1011 78 4000 1.5 40 23:51 20.03.2020
6280 Haze 25 1011 78 3500 2.1 40 23:27 20.03.2020
6281 Haze 25 1011 78 3500 2.1 40 22:57 20.03.2020
6282 Haze 25 1011 78 3500 1.5 20 22:39 20.03.2020
6283 Haze 25 1011 78 3500 1.5 20 22:20 20.03.2020
6284 Haze 25 1012 78 3500 1.5 340 21:55 20.03.2020
6285 Haze 25 1012 78 3500 2.1 310 21:37 20.03.2020
6286 Haze 25 1012 78 3500 2.1 310 21:18 20.03.2020
6287 Haze 25 1012 73 3500 2.1 280 20:55 20.03.2020
6288 Haze 26 1012 69 3500 1.5 300 20:37 20.03.2020
6289 Haze 26 1012 69 3500 1.5 300 20:18 20.03.2020
6290 Haze 26 1012 69 3500 3.1 300 19:44 20.03.2020
6291 Haze 26 1013 65 3500 2.6 280 19:18 20.03.2020
6292 Smoke 26 1013 65 3500 3.1 280 18:55 20.03.2020
6293 Smoke 26 1013 65 3500 3.1 280 18:36 20.03.2020
6294 Smoke 27 1013 57 3500 3.1 290 18:18 20.03.2020
6295 Smoke 27 1013 57 3500 1.5 320 17:39 20.03.2020
6296 Smoke 27 1012 57 3500 3.1 280 17:21 20.03.2020
6297 Smoke 27 1012 57 3500 3.1 280 16:57 20.03.2020
6298 Smoke 27 1012 57 4000 3.1 280 16:39 20.03.2020
6299 Smoke 27 1012 57 4000 3.1 280 16:18 20.03.2020
6300 Smoke 27 1012 57 5000 3.1 290 15:42 20.03.2020
6301 Clear 27 1011 57 6000 4.6 290 15:21 20.03.2020
6302 Clouds 27 1011 61 6000 5.1 270 14:55 20.03.2020
6303 Clouds 28 1010 54 7000 4.6 280 14:37 20.03.2020
6304 Clouds 28 1010 54 7000 4.6 280 14:18 20.03.2020
6305 Clouds 28 1010 58 7000 5.7 260 13:42 20.03.2020
6306 Clouds 29 1010 58 7000 5.1 270 13:19 20.03.2020
6307 Clear 30 1010 55 7000 5.1 290 12:40 20.03.2020
6308 Clear 30 1010 55 7000 5.1 290 12:22 20.03.2020
6309 Clear 30 1010 51 7000 5.1 290 11:57 20.03.2020
6310 Clear 30 1010 51 7000 5.1 290 11:38 20.03.2020
6311 Clear 30 1011 51 6000 5.7 280 11:19 20.03.2020
6312 Smoke 30 1011 51 5000 5.1 280 10:41 20.03.2020
6313 Smoke 30 1011 51 5000 5.1 280 10:21 20.03.2020
6314 Smoke 30 1011 55 4000 5.1 280 09:57 20.03.2020
6315 Smoke 30 1012 55 4000 4.6 290 09:39 20.03.2020
6316 Smoke 30 1012 55 4000 4.6 290 09:19 20.03.2020
6317 Smoke 30 1012 58 5000 3.6 280 08:42 20.03.2020
6318 Haze 30 1013 58 5000 4.6 280 08:22 20.03.2020
6319 Haze 30 1014 58 5000 4.1 270 07:54 20.03.2020
6320 Haze 29 1014 62 5000 4.6 280 07:36 20.03.2020
6321 Haze 29 1014 62 5000 4.6 280 07:18 20.03.2020
6322 Haze 29 1014 65 4000 2.1 260 06:41 20.03.2020
6323 Haze 29 1014 65 4000 2.1 260 06:41 20.03.2020
6324 Haze 28 1014 69 3000 1.5 140 04:52 20.03.2020
6325 Haze 26 1013 69 3500 2.6 120 03:40 20.03.2020
6326 Haze 26 1012 78 4000 2.6 270 02:20 20.03.2020
6327 Haze 26 1011 78 4000 2.1 250 00:59 20.03.2020
6328 Haze 26 1011 78 5000 1.77 28 00:31 20.03.2020
6329 Haze 26 1011 74 5000 1.77 28 23:49 19.03.2020
6330 Haze 26 1011 74 5000 1.77 28 23:30 19.03.2020
6331 Clouds 26 1011 74 6000 0.55 21 22:57 19.03.2020
6332 Clouds 26 1011 74 6000 0.55 21 22:38 19.03.2020
6333 Clouds 26 1011 74 6000 0.55 21 22:20 19.03.2020
6334 Clouds 27 1012 69 7000 0.55 21 21:55 19.03.2020
6335 Clouds 27 1012 69 7000 2.6 220 21:37 19.03.2020
6336 Clouds 27 1012 69 7000 2.6 220 21:18 19.03.2020
6337 Clouds 27 1013 65 7000 0.55 21 20:42 19.03.2020
6338 Clouds 27 1013 65 7000 0.28 357 20:23 19.03.2020
6339 Clouds 27 1013 65 7000 1.06 268 19:57 19.03.2020
6340 Clouds 27 1013 65 7000 1.06 268 19:38 19.03.2020
6341 Clouds 27 1013 65 7000 1.06 268 19:20 19.03.2020
6342 Clouds 27 1013 65 7000 1.06 268 18:56 19.03.2020
6343 Clouds 27 1013 65 7000 1.5 0 18:38 19.03.2020
6344 Clouds 27 1013 65 7000 1.5 0 18:38 19.03.2020
6345 Clouds 27 1013 65 6000 1.06 268 18:19 19.03.2020
6346 Clouds 27 1013 65 6000 1.06 268 17:42 19.03.2020
6347 Smoke 28 1012 58 4000 3.1 300 17:19 19.03.2020
6348 Smoke 28 1012 58 4000 3.1 300 17:19 19.03.2020
6349 Smoke 28 1012 58 4000 3.1 300 16:55 19.03.2020
6350 Smoke 28 1012 54 4000 4.1 300 16:37 19.03.2020
6351 Smoke 28 1012 54 4000 4.1 300 16:19 19.03.2020
6352 Smoke 28 1011 48 4000 4.1 290 15:40 19.03.2020
6353 Smoke 28 1011 48 4000 4.1 290 15:18 19.03.2020
6354 Smoke 29 1010 42 5000 4.6 280 14:43 19.03.2020
6355 Smoke 29 1010 42 5000 4.6 280 14:21 19.03.2020
6356 Smoke 30 1009 42 5000 4.1 280 13:42 19.03.2020
6357 Smoke 30 1009 42 5000 4.1 280 13:21 19.03.2020
6358 Smoke 31 1009 43 5000 5.1 290 12:58 19.03.2020
6359 Clouds 31 1009 43 6000 6.2 280 12:40 19.03.2020
6360 Clouds 31 1010 43 6000 5.7 280 12:21 19.03.2020
6361 Clouds 30 1010 48 6000 7.2 300 11:43 19.03.2020
6362 Clouds 31 1010 40 6000 3.6 270 11:24 19.03.2020
6363 Clouds 31 1010 40 6000 3.6 270 10:58 19.03.2020
6364 Clouds 31 1011 33 6000 5.1 280 10:38 19.03.2020
6365 Clouds 31 1011 33 6000 5.1 280 10:19 19.03.2020
6366 Clouds 32 1011 45 6000 7.7 290 09:55 19.03.2020
6367 Clouds 32 1012 36 6000 4.1 280 09:37 19.03.2020
6368 Clouds 32 1012 36 6000 4.1 280 09:18 19.03.2020
6369 Clouds 31 1013 33 6000 5.1 280 08:41 19.03.2020
6370 Clouds 31 1013 33 6000 5.1 280 08:20 19.03.2020
6371 Clouds 31 1013 38 6000 4.6 290 07:45 19.03.2020
6372 Smoke 32 1014 22 5000 4.6 320 07:25 19.03.2020
6373 Smoke 31 1015 25 3500 2.1 320 06:35 19.03.2020
6374 Smoke 31 1014 37 3000 3.88 301 05:48 19.03.2020
6375 Smoke 28 1014 45 2500 2.1 130 04:57 19.03.2020
6376 Haze 28 1014 51 2500 2.1 120 04:39 19.03.2020
6377 Haze 24 1012 69 3000 2.6 10 02:49 19.03.2020
6378 Haze 26 1011 65 3000 2.1 350 01:21 19.03.2020
6379 Haze 26 1011 65 3000 2.13 49 00:28 19.03.2020
6380 Haze 27 1011 61 3000 2.1 330 23:51 18.03.2020
6381 Haze 27 1011 61 3000 2.1 330 23:30 18.03.2020
6382 Haze 27 1011 61 3000 2.1 330 23:30 18.03.2020
6383 Haze 27 1011 61 3000 2.1 360 22:56 18.03.2020
6384 Haze 27 1011 61 3000 1.5 20 22:38 18.03.2020
6385 Haze 27 1011 61 3000 1.5 20 22:20 18.03.2020
6386 Haze 27 1012 65 3000 1.5 330 21:42 18.03.2020
6387 Haze 28 1012 65 3000 1.5 10 21:21 18.03.2020
6388 Haze 28 1012 65 3000 1.54 356 20:59 18.03.2020
6389 Haze 28 1012 65 3000 1.54 356 20:40 18.03.2020
6390 Haze 28 1012 65 3000 1.54 356 20:40 18.03.2020
6391 Haze 28 1013 65 3000 1.19 314 20:20 18.03.2020
6392 Haze 28 1013 69 3000 1.19 314 19:56 18.03.2020
6393 Haze 28 1012 69 3000 1.19 314 19:38 18.03.2020
6394 Haze 28 1012 69 3000 1.19 314 19:20 18.03.2020
6395 Haze 28 1013 61 3000 2.1 260 18:41 18.03.2020
6396 Haze 28 1013 65 3000 1.5 270 18:21 18.03.2020
6397 Haze 28 1013 65 3000 1.5 270 17:58 18.03.2020
6398 Haze 28 1013 65 3000 1.5 270 17:40 18.03.2020
6399 Haze 29 1013 62 3000 2.6 310 17:21 18.03.2020
6400 Haze 29 1013 62 3000 2.6 310 16:58 18.03.2020
6401 Smoke 29 1012 58 3000 2.6 300 16:39 18.03.2020
6402 Smoke 29 1012 58 3000 2.6 300 16:20 18.03.2020
6403 Smoke 29 1012 58 3000 3.6 310 15:45 18.03.2020
6404 Smoke 30 1011 51 3000 4.1 280 15:20 18.03.2020
6405 Smoke 30 1011 48 4000 4.1 300 14:56 18.03.2020
6406 Smoke 30 1011 45 4000 4.1 300 14:38 18.03.2020
6407 Smoke 30 1011 45 4000 4.1 300 14:19 18.03.2020
6408 Smoke 31 1010 48 5000 4.6 310 13:38 18.03.2020
6409 Smoke 31 1010 48 5000 4.6 310 13:19 18.03.2020
6410 Smoke 31 1010 52 5000 4.6 280 12:42 18.03.2020
6411 Smoke 32 1010 43 5000 4.6 290 12:20 18.03.2020
6412 Smoke 32 1010 43 5000 4.6 290 11:41 18.03.2020
6413 Smoke 32 1011 38 5000 4.1 270 11:21 18.03.2020
6414 Smoke 33 1011 38 5000 4.1 270 10:58 18.03.2020
6415 Smoke 33 1011 41 5000 5.7 270 10:39 18.03.2020
6416 Smoke 33 1011 41 5000 5.7 270 10:20 18.03.2020
6417 Smoke 32 1011 36 5000 5.7 270 09:59 18.03.2020
6418 Smoke 33 1012 38 5000 5.1 270 09:39 18.03.2020
6419 Smoke 33 1012 38 5000 5.1 270 09:21 18.03.2020
6420 Smoke 31 1013 40 4000 4.1 270 08:40 18.03.2020
6421 Smoke 31 1013 40 4000 4.1 270 08:21 18.03.2020
6422 Smoke 33 1014 35 3500 4.1 290 07:49 18.03.2020
6423 Smoke 33 1014 35 3500 4.1 290 07:31 18.03.2020
6424 Smoke 33 1014 33 3000 3.1 230 06:54 18.03.2020
6425 Smoke 33 1014 21 3000 3.6 270 06:35 18.03.2020
6426 Smoke 32 1014 24 3000 2.53 300 05:37 18.03.2020
6427 Smoke 29 1014 28 3000 1.5 0 04:29 18.03.2020
6428 Smoke 25 1013 28 4000 2.1 240 03:21 18.03.2020
6429 Smoke 29 1012 26 4000 2.1 60 02:35 18.03.2020
6430 Smoke 28 1011 30 4000 2 41 01:32 18.03.2020
6431 Smoke 28 1011 32 4500 1.91 52 00:42 18.03.2020
6432 Smoke 28 1011 32 5000 1.91 52 00:21 18.03.2020
6433 Smoke 27 1011 39 5000 2.27 35 23:41 17.03.2020
6434 Clear 28 1011 37 6000 1.51 69 23:20 17.03.2020
6435 Clear 28 1011 39 6000 1.31 81 22:42 17.03.2020
6436 Clear 28 1011 39 6000 1.31 81 22:24 17.03.2020
6437 Clear 28 1011 42 6000 1.51 69 21:43 17.03.2020
6438 Clear 28 1012 45 6000 1.31 81 21:23 17.03.2020
6439 Clear 29 1012 42 6000 1.31 81 20:57 17.03.2020
6440 Clear 29 1012 39 6000 1.31 81 20:37 17.03.2020
6441 Clear 29 1012 39 6000 0.32 109 20:19 17.03.2020
6442 Clear 29 1013 39 6000 0.32 109 19:41 17.03.2020
6443 Clear 29 1013 39 6000 0.32 109 19:18 17.03.2020
6444 Clear 29 1013 39 6000 0.32 109 18:57 17.03.2020
6445 Smoke 30 1013 35 5000 0.32 109 18:39 17.03.2020
6446 Smoke 30 1013 33 4000 2.1 340 18:21 17.03.2020
6447 Smoke 30 1013 33 4000 2.1 340 17:56 17.03.2020
6448 Smoke 30 1013 40 4000 2.1 340 17:37 17.03.2020
6449 Smoke 30 1013 40 4000 1.23 304 17:18 17.03.2020
6450 Smoke 30 1012 42 4000 2.6 10 16:41 17.03.2020
6451 Smoke 30 1012 42 4000 2.6 10 16:19 17.03.2020
6452 Smoke 30 1012 40 4000 2.6 350 15:45 17.03.2020
6453 Smoke 30 1012 42 4000 3.1 310 15:22 17.03.2020
6454 Smoke 31 1011 40 4000 4.1 300 14:44 17.03.2020
6455 Smoke 31 1011 43 4000 4.6 300 14:25 17.03.2020
6456 Smoke 31 1010 40 4000 5.7 310 13:58 17.03.2020
6457 Smoke 31 1010 40 4000 4.6 310 13:39 17.03.2020
6458 Smoke 31 1010 40 4000 4.6 310 13:21 17.03.2020
6459 Smoke 32 1010 36 4000 6.7 290 12:44 17.03.2020
6460 Smoke 32 1010 36 4000 6.7 290 12:24 17.03.2020
6461 Smoke 33 1010 58 5000 7.2 300 11:48 17.03.2020
6462 Smoke 33 1010 58 5000 7.2 300 11:30 17.03.2020
6463 Smoke 33 1010 41 4000 6.2 290 10:59 17.03.2020
6464 Smoke 33 1010 41 4000 6.2 290 10:59 17.03.2020
6465 Smoke 33 1011 38 4000 6.2 290 10:40 17.03.2020
6466 Smoke 33 1011 38 4000 6.2 290 10:22 17.03.2020
6467 Smoke 33 1011 38 4000 6.2 290 10:22 17.03.2020
6468 Smoke 33 1011 38 4000 5.7 260 09:59 17.03.2020
6469 Smoke 33 1011 36 4000 4.6 270 09:41 17.03.2020
6470 Smoke 33 1011 36 4000 4.6 270 09:20 17.03.2020
6471 Smoke 33 1012 32 4000 5.1 260 08:50 17.03.2020
6472 Smoke 34 1012 34 4000 5.7 270 08:23 17.03.2020
6473 Smoke 35 1012 18 4000 5.7 290 07:57 17.03.2020
6474 Smoke 35 1013 19 3500 2.6 60 07:38 17.03.2020
6475 Smoke 35 1013 24 3500 3.1 60 07:19 17.03.2020
6476 Smoke 34 1013 26 3000 3.6 80 06:39 17.03.2020
6477 Smoke 33 1013 29 2500 2.1 110 05:58 17.03.2020
6478 Smoke 26 1013 42 2100 1.5 0 03:58 17.03.2020
6479 Smoke 26 1012 44 2200 1.74 66 02:56 17.03.2020
6480 Smoke 26 1011 47 3000 1.52 87 01:49 17.03.2020
6481 Smoke 26 1011 47 3000 1.52 87 01:25 17.03.2020
6482 Smoke 26 1011 44 3000 1.54 81 00:48 17.03.2020
6483 Smoke 27 1010 47 3500 1.54 81 23:51 16.03.2020
6484 Smoke 27 1010 47 3500 1.54 81 23:32 16.03.2020
6485 Smoke 27 1010 42 3500 1.84 61 22:45 16.03.2020
6486 Smoke 27 1011 42 3500 2.1 230 22:26 16.03.2020
6487 Smoke 28 1011 34 3500 1.84 61 21:59 16.03.2020
6488 Smoke 28 1011 34 3500 1.84 61 21:40 16.03.2020
6489 Smoke 28 1011 34 3500 1.84 61 21:22 16.03.2020
6490 Smoke 28 1012 37 3500 1.84 61 20:57 16.03.2020
6491 Smoke 29 1012 35 3500 1.84 61 20:38 16.03.2020
6492 Smoke 29 1012 35 3500 0.33 133 20:19 16.03.2020
6493 Smoke 29 1012 35 3500 0.33 133 20:19 16.03.2020
6494 Smoke 30 1012 30 3500 0.33 133 19:42 16.03.2020
6495 Smoke 29 1012 37 4000 0.33 133 19:22 16.03.2020
6496 Smoke 29 1013 35 4000 0.33 133 18:56 16.03.2020
6497 Smoke 30 1012 30 4000 0.33 133 18:37 16.03.2020
6498 Smoke 31 1013 27 4000 0.33 133 18:18 16.03.2020
6499 Smoke 31 1013 25 4000 2.1 30 17:42 16.03.2020
6500 Smoke 31 1013 25 4000 2.1 30 17:22 16.03.2020
6501 Smoke 30 1012 30 4000 2.1 20 16:46 16.03.2020
6502 Smoke 31 1012 29 4000 2.1 360 16:28 16.03.2020
6503 Smoke 31 1011 29 5000 2.1 320 15:56 16.03.2020
6504 Smoke 31 1011 31 5000 2.1 320 15:37 16.03.2020
6505 Smoke 31 1011 31 5000 2.1 320 15:18 16.03.2020
6506 Smoke 31 1011 31 5000 2.6 320 14:42 16.03.2020
6507 Smoke 31 1010 31 5000 3.6 290 14:19 16.03.2020
6508 Smoke 32 1010 31 5000 5.1 300 13:42 16.03.2020
6509 Smoke 32 1010 29 5000 5.1 300 13:23 16.03.2020
6510 Smoke 33 1009 34 4000 4.6 310 12:46 16.03.2020
6511 Smoke 33 1009 34 4000 4.6 310 12:27 16.03.2020
6512 Smoke 33 1009 30 4000 4.1 310 11:59 16.03.2020
6513 Smoke 34 1010 28 4000 4.1 300 11:41 16.03.2020
6514 Smoke 33 1010 28 4000 4.6 300 11:18 16.03.2020
6515 Smoke 34 1010 30 4000 5.1 290 10:42 16.03.2020
6516 Smoke 34 1010 30 4000 5.1 290 10:24 16.03.2020
6517 Smoke 34 1010 30 3500 4.6 260 09:45 16.03.2020
6518 Smoke 35 1011 32 3500 5.1 280 09:27 16.03.2020
6519 Smoke 34 1011 30 3500 5.1 290 08:56 16.03.2020
6520 Smoke 35 1011 20 3500 3.6 290 08:25 16.03.2020
6521 Smoke 35 1012 22 3500 2.1 120 07:50 16.03.2020
6522 Smoke 35 1013 24 3500 2.1 110 07:28 16.03.2020
6523 Smoke 35 1013 23 3000 3.6 100 06:54 16.03.2020
6524 Smoke 34 1013 24 3000 3.6 120 06:26 16.03.2020
6525 Smoke 32 1012 27 2500 2.6 100 05:50 16.03.2020
6526 Smoke 27 1011 39 2300 2.16 63 02:45 16.03.2020
6527 Smoke 25 1009 44 2500 2.1 100 01:20 16.03.2020
6528 Smoke 25 1009 44 2500 2.1 100 00:40 16.03.2020
6529 Smoke 26 1009 44 2500 2.1 110 23:49 15.03.2020
6530 Smoke 26 1009 47 2500 2.18 75 23:20 15.03.2020
6531 Smoke 26 1009 47 2500 1.5 0 22:43 15.03.2020
6532 Smoke 27 1010 44 2500 1.5 130 22:24 15.03.2020
6533 Smoke 27 1010 42 2500 2.6 150 21:59 15.03.2020
6534 Smoke 27 1010 42 2500 2.6 150 21:39 15.03.2020
6535 Smoke 27 1010 47 2500 1.72 94 21:19 15.03.2020
6536 Smoke 27 1010 47 2500 1.72 94 20:43 15.03.2020
6537 Smoke 28 1011 45 3000 1.06 81 20:22 15.03.2020
6538 Smoke 29 1011 35 3000 1.5 90 19:58 15.03.2020
6539 Smoke 29 1011 35 3000 1.5 90 19:40 15.03.2020
6540 Smoke 30 1011 33 3000 2.1 90 19:21 15.03.2020
6541 Smoke 29 1011 37 3000 1.5 90 18:56 15.03.2020
6542 Smoke 29 1011 39 3000 1.5 90 18:38 15.03.2020
6543 Smoke 29 1011 39 3000 1.5 90 18:20 15.03.2020
6544 Smoke 30 1011 35 3000 1.5 340 17:41 15.03.2020
6545 Smoke 30 1011 35 3000 1.5 340 17:22 15.03.2020
6546 Smoke 30 1011 33 3500 1.5 330 16:59 15.03.2020
6547 Smoke 31 1010 31 4000 3.6 350 16:40 15.03.2020
6548 Smoke 31 1010 31 4000 3.6 350 16:21 15.03.2020
6549 Smoke 31 1010 31 4000 4.1 330 15:54 15.03.2020
6550 Smoke 31 1010 31 4000 3.1 320 15:36 15.03.2020
6551 Smoke 31 1010 31 4000 3.1 320 15:18 15.03.2020
6552 Smoke 31 1009 31 4000 4.6 340 14:39 15.03.2020
6553 Smoke 31 1009 29 5000 3.1 320 14:21 15.03.2020
6554 Smoke 32 1009 27 5000 5.1 330 13:56 15.03.2020
6555 Smoke 32 1009 27 5000 5.1 300 13:37 15.03.2020
6556 Smoke 32 1009 27 5000 5.1 300 13:18 15.03.2020
6557 Smoke 32 1008 31 5000 4.6 300 12:40 15.03.2020
6558 Smoke 32 1008 31 5000 4.6 300 12:22 15.03.2020
6559 Smoke 32 1008 29 5000 6.2 260 11:45 15.03.2020
6560 Smoke 32 1008 29 5000 6.2 260 11:26 15.03.2020
6561 Smoke 33 1009 29 5000 5.7 260 10:59 15.03.2020
6562 Smoke 33 1009 26 5000 6.7 260 10:40 15.03.2020
6563 Smoke 33 1009 26 5000 6.7 260 10:22 15.03.2020
6564 Smoke 34 1009 26 4000 7.2 250 09:59 15.03.2020
6565 Smoke 34 1010 15 4000 1.5 0 09:38 15.03.2020
6566 Smoke 34 1010 15 4000 1.5 0 09:20 15.03.2020
6567 Smoke 34 1010 17 4000 2.1 30 08:41 15.03.2020
6568 Smoke 34 1011 18 4000 2.6 50 08:19 15.03.2020
6569 Smoke 34 1012 19 3500 3.6 10 07:49 15.03.2020
6570 Smoke 33 1012 21 3500 4.1 30 07:22 15.03.2020
6571 Smoke 32 1013 21 3500 2.1 0 06:44 15.03.2020
6572 Smoke 31 1013 22 3500 2.6 70 05:49 15.03.2020
6573 Smoke 28 1012 26 3000 2.6 40 04:57 15.03.2020
6574 Smoke 25 1011 31 2500 1.5 180 04:39 15.03.2020
6575 Smoke 25 1011 31 2500 1.5 180 04:20 15.03.2020
6576 Smoke 22 1011 33 2500 2.36 63 03:19 15.03.2020
6577 Smoke 25 1010 36 3500 1.5 200 02:28 15.03.2020
6578 Smoke 24 1009 50 3500 2.59 55 00:59 15.03.2020
6579 Smoke 24 1009 53 3500 2.1 150 00:41 15.03.2020
6580 Smoke 24 1009 53 3500 2.1 150 00:19 15.03.2020
6581 Smoke 24 1009 53 3500 2.59 55 23:40 14.03.2020
6582 Smoke 24 1009 53 3500 2.26 67 23:20 14.03.2020
6583 Smoke 24 1009 57 3500 2.1 110 22:56 14.03.2020
6584 Smoke 25 1009 53 3500 1.5 0 22:38 14.03.2020
6585 Smoke 25 1009 53 3500 1.5 0 22:19 14.03.2020
6586 Smoke 24 1010 53 3500 2.26 67 21:55 14.03.2020
6587 Smoke 25 1010 53 3500 2.26 67 21:36 14.03.2020
6588 Smoke 25 1010 53 3500 2.26 67 21:36 14.03.2020
6589 Smoke 25 1010 53 3500 2.26 67 21:18 14.03.2020
6590 Smoke 25 1010 53 3500 2.26 67 21:18 14.03.2020
6591 Smoke 25 1011 53 3500 2.26 67 20:56 14.03.2020
6592 Smoke 25 1011 53 3500 2.26 67 20:56 14.03.2020
6593 Smoke 25 1011 53 3500 1.5 300 20:38 14.03.2020
6594 Smoke 25 1011 53 3500 1.87 64 20:18 14.03.2020
6595 Smoke 25 1011 53 3500 1.87 64 19:41 14.03.2020
6596 Smoke 25 1011 53 3500 2.1 240 19:21 14.03.2020
6597 Smoke 26 1011 50 3500 1.87 64 18:41 14.03.2020
6598 Smoke 26 1011 50 4000 1.5 360 18:21 14.03.2020
6599 Smoke 27 1011 47 4000 2.6 360 17:43 14.03.2020
6600 Smoke 27 1011 47 4000 1.5 320 17:24 14.03.2020
6601 Smoke 27 1011 47 4000 1.5 320 16:59 14.03.2020
6602 Smoke 27 1010 51 4000 3.1 340 16:40 14.03.2020
6603 Smoke 27 1010 51 4000 3.1 340 16:21 14.03.2020
6604 Smoke 27 1010 51 4000 3.6 340 15:51 14.03.2020
6605 Smoke 28 1010 48 4000 4.1 330 15:25 14.03.2020
6606 Smoke 28 1009 48 5000 3.1 310 14:45 14.03.2020
6607 Clouds 28 1009 42 6000 3.6 330 14:23 14.03.2020
6608 Clear 30 1009 37 6000 4.1 320 13:57 14.03.2020
6609 Clear 30 1009 35 6000 4.6 320 13:39 14.03.2020
6610 Clear 30 1009 35 6000 5.1 330 13:20 14.03.2020
6611 Clear 30 1009 37 6000 6.2 330 12:45 14.03.2020
6612 Clear 30 1009 37 6000 6.2 330 12:26 14.03.2020
6613 Clear 30 1009 33 6000 6.2 320 11:48 14.03.2020
6614 Clear 30 1009 33 6000 6.2 320 11:28 14.03.2020
6615 Clear 31 1010 33 6000 6.2 310 10:59 14.03.2020
6616 Clouds 32 1010 33 6000 6.2 310 10:41 14.03.2020
6617 Clouds 32 1010 33 6000 6.2 310 10:23 14.03.2020
6618 Clouds 32 1010 14 6000 6.7 290 09:44 14.03.2020
6619 Smoke 32 1011 14 5000 3.6 50 09:24 14.03.2020
6620 Smoke 32 1011 14 5000 3.6 50 09:24 14.03.2020
6621 Smoke 32 1012 15 5000 4.6 30 08:48 14.03.2020
6622 Smoke 32 1012 16 5000 2.6 30 08:29 14.03.2020
6623 Smoke 32 1013 18 5000 4.1 30 07:55 14.03.2020
6624 Smoke 31 1014 22 5000 4.6 50 07:37 14.03.2020
6625 Smoke 31 1014 22 5000 4.6 50 07:19 14.03.2020
6626 Smoke 29 1014 26 5000 4.1 40 06:40 14.03.2020
6627 Smoke 26 1014 31 3000 4.6 50 05:24 14.03.2020
6628 Smoke 23 1014 38 2500 3.1 20 03:49 14.03.2020
6629 Smoke 21 1013 43 2500 2.6 30 03:24 14.03.2020
6630 Smoke 22 1013 49 3000 2.6 40 02:23 14.03.2020
6631 Smoke 22 1013 60 4000 3.1 360 00:49 14.03.2020
6632 Smoke 23 1013 53 4000 3.1 10 23:50 13.03.2020
6633 Smoke 23 1013 53 4000 2.6 10 23:30 13.03.2020
6634 Smoke 23 1013 53 4000 3.1 340 22:52 13.03.2020
6635 Smoke 23 1013 53 4000 3.6 340 22:26 13.03.2020
6636 Smoke 24 1014 50 4000 3.6 340 21:44 13.03.2020
6637 Smoke 24 1014 47 4000 2.6 10 21:22 13.03.2020
6638 Smoke 24 1014 47 4000 2.6 10 20:59 13.03.2020
6639 Smoke 24 1014 47 4000 2.6 360 20:41 13.03.2020
6640 Smoke 24 1014 47 4000 2.6 360 20:21 13.03.2020
6641 Smoke 25 1015 44 4000 3.1 20 19:48 13.03.2020
6642 Smoke 25 1015 41 4000 3.1 10 19:30 13.03.2020
6643 Smoke 25 1015 41 4000 3.1 60 18:49 13.03.2020
6644 Smoke 26 1015 36 4000 2.6 20 18:31 13.03.2020
6645 Smoke 26 1015 34 4000 4.6 360 17:57 13.03.2020
6646 Smoke 26 1014 31 4000 4.6 350 17:39 13.03.2020
6647 Smoke 26 1014 34 4000 5.1 330 17:20 13.03.2020
6648 Smoke 26 1014 39 4000 5.1 320 16:42 13.03.2020
6649 Smoke 26 1014 39 4000 5.1 320 16:24 13.03.2020
6650 Smoke 26 1013 36 4000 6.7 330 15:58 13.03.2020
6651 Smoke 26 1013 39 4000 4.6 320 15:38 13.03.2020
6652 Smoke 26 1013 39 4000 4.6 320 15:20 13.03.2020
6653 Smoke 26 1013 39 5000 4.6 320 14:43 13.03.2020
6654 Clouds 27 1013 36 6000 5.1 310 14:22 13.03.2020
6655 Clouds 27 1012 36 6000 6.2 310 13:57 13.03.2020
6656 Clouds 27 1012 39 6000 5.1 310 13:39 13.03.2020
6657 Clouds 27 1012 39 6000 5.1 310 13:19 13.03.2020
6658 Clouds 28 1012 39 6000 6.7 310 12:55 13.03.2020
6659 Clouds 28 1012 39 6000 6.7 320 12:36 13.03.2020
6660 Clouds 28 1012 42 6000 5.1 310 12:18 13.03.2020
6661 Clouds 28 1012 42 6000 5.1 310 11:42 13.03.2020
6662 Smoke 28 1012 45 5000 3.6 300 11:24 13.03.2020
6663 Smoke 28 1012 45 5000 3.6 300 10:57 13.03.2020
6664 Smoke 29 1013 39 5000 7.2 290 10:38 13.03.2020
6665 Smoke 29 1013 39 5000 7.2 290 10:20 13.03.2020
6666 Smoke 29 1013 39 5000 6.2 310 09:43 13.03.2020
6667 Smoke 29 1014 37 5000 4.6 320 09:24 13.03.2020
6668 Smoke 28 1014 39 5000 5.1 300 08:47 13.03.2020
6669 Smoke 28 1015 37 5000 2.1 320 08:23 13.03.2020
6670 Smoke 29 1015 37 5000 2.6 90 07:58 13.03.2020
6671 Smoke 28 1016 39 5000 3.91 352 07:38 13.03.2020
6672 Smoke 28 1016 39 5000 3.91 352 07:18 13.03.2020
6673 Smoke 28 1016 39 4000 4.6 330 06:43 13.03.2020
6674 Smoke 27 1016 39 4000 4.6 330 05:56 13.03.2020
6675 Smoke 27 1016 47 4000 3.6 10 05:37 13.03.2020
6676 Haze 24 1016 60 3000 3.1 30 04:38 13.03.2020
6677 Haze 23 1015 60 3000 3.1 30 03:46 13.03.2020
6678 Haze 21 1014 68 2500 2.6 90 01:48 13.03.2020
6679 Haze 22 1014 64 2500 2.6 100 01:19 13.03.2020
6680 Haze 22 1014 64 3000 2.84 48 00:56 13.03.2020
6681 Haze 22 1014 64 3000 2.84 48 00:37 13.03.2020
6682 Haze 22 1014 68 3500 1.5 70 00:18 13.03.2020
6683 Haze 23 1014 64 4000 2.6 50 23:29 12.03.2020
6684 Smoke 23 1014 60 4000 2.1 40 22:59 12.03.2020
6685 Smoke 23 1014 64 4000 1.5 70 22:41 12.03.2020
6686 Smoke 23 1014 64 4000 1.5 70 22:23 12.03.2020
6687 Smoke 23 1014 60 4000 2.1 360 21:54 12.03.2020
6688 Smoke 24 1014 57 4000 2.1 330 21:36 12.03.2020
6689 Smoke 24 1014 57 4000 2.1 330 21:18 12.03.2020
6690 Smoke 24 1015 57 4000 3.1 320 20:42 12.03.2020
6691 Smoke 24 1015 57 4000 3.1 320 20:42 12.03.2020
6692 Smoke 24 1015 57 4000 3.1 320 20:19 12.03.2020
6693 Smoke 24 1015 57 4000 3.6 300 19:42 12.03.2020
6694 Smoke 24 1015 57 4000 3.6 300 19:21 12.03.2020
6695 Smoke 25 1015 53 4000 2.6 310 18:45 12.03.2020
6696 Smoke 25 1015 53 4000 2.6 310 18:25 12.03.2020
6697 Smoke 25 1015 53 4000 2.6 310 17:58 12.03.2020
6698 Smoke 25 1014 57 4000 3.1 310 17:40 12.03.2020
6699 Smoke 25 1014 57 4000 3.1 310 17:21 12.03.2020
6700 Smoke 25 1014 57 4000 2.1 320 16:58 12.03.2020
6701 Smoke 26 1014 54 4000 3.6 310 16:39 12.03.2020
6702 Smoke 26 1014 54 4000 3.6 310 16:20 12.03.2020
6703 Smoke 25 1013 57 4000 2.6 330 15:47 12.03.2020
6704 Smoke 25 1013 57 4000 2.6 330 15:27 12.03.2020
6705 Clear 25 1013 57 5000 5.1 310 14:44 12.03.2020
6706 Clear 26 1013 54 6000 3.6 320 14:25 12.03.2020
6707 Clear 27 1013 51 8000 4.6 300 13:58 12.03.2020
6708 Clear 27 1013 47 9000 4.6 300 13:37 12.03.2020
6709 Clear 27 1013 47 9000 4.6 300 13:19 12.03.2020
6710 Clear 27 1013 47 10000 4.6 300 12:43 12.03.2020
6711 Clear 27 1013 47 10000 4.6 300 12:22 12.03.2020
6712 Clouds 28 1013 48 10000 6.2 290 11:59 12.03.2020
6713 Clouds 28 1013 45 9000 5.7 290 11:39 12.03.2020
6714 Clouds 28 1013 45 9000 5.7 290 11:39 12.03.2020
6715 Clouds 28 1013 45 9000 5.1 330 11:20 12.03.2020
6716 Clouds 28 1013 45 9000 5.1 330 10:59 12.03.2020
6717 Clouds 28 1014 48 8000 5.1 320 10:41 12.03.2020
6718 Clouds 28 1014 48 8000 5.1 320 10:22 12.03.2020
6719 Clouds 28 1014 48 8000 5.1 320 10:22 12.03.2020
6720 Clouds 28 1014 45 6000 7.2 320 09:49 12.03.2020
6721 Clouds 28 1014 48 6000 6.2 300 09:28 12.03.2020
6722 Clouds 28 1015 48 6000 5.1 300 08:55 12.03.2020
6723 Smoke 28 1015 51 5000 5.7 320 08:37 12.03.2020
6724 Smoke 28 1015 51 5000 5.7 320 08:18 12.03.2020
6725 Smoke 28 1016 48 4500 4.6 330 07:46 12.03.2020
6726 Smoke 28 1016 54 4000 4.1 310 07:21 12.03.2020
6727 Smoke 27 1016 54 3000 3.6 340 05:59 12.03.2020
6728 Haze 26 1015 57 2500 2.6 60 05:27 12.03.2020
6729 Haze 23 1013 69 2500 2.1 80 02:47 12.03.2020
6730 Haze 24 1012 69 3000 1.5 50 01:43 12.03.2020
6731 Haze 24 1012 69 3000 1.5 10 01:21 12.03.2020
6732 Haze 24 1012 69 3000 2.61 24 00:41 12.03.2020
6733 Haze 24 1012 69 3000 2.61 24 23:57 11.03.2020
6734 Haze 25 1012 61 4000 2.1 10 23:28 11.03.2020
6735 Haze 25 1012 61 4000 2.1 10 22:58 11.03.2020
6736 Haze 25 1012 61 4000 2.1 360 22:39 11.03.2020